<?xml version="1.0" encoding="UTF-8" standalone="no" ?>
<gpx xmlns="http://www.topografix.com/GPX/1/1" xmlns:xsi="http://www.w3.org/2001/XMLSchema-instance" xsi:schemaLocation="http://www.topografix.com/GPX/1/1 http://www.topografix.com/GPX/1/1/gpx.xsd" version="1.1" creator="VisuGPX - https://www.visugpx.com">
  <metadata>
    <name>Champagnat Cyclisme sur route</name>
  </metadata>
  <trk>
    <name><![CDATA[Champagnat Cyclisme sur route_1]]></name>
    <trkseg>
      <trkpt lat="46.48268" lon="5.36834">
        <ele>275.8</ele>
        <time>2022-04-04T10:58:56Z</time>
      </trkpt>
      <trkpt lat="46.48248" lon="5.36812">
        <ele>274</ele>
        <time>2022-04-04T10:58:58Z</time>
      </trkpt>
      <trkpt lat="46.48226" lon="5.36793">
        <ele>271.8</ele>
        <time>2022-04-04T10:59:00Z</time>
      </trkpt>
      <trkpt lat="46.48203" lon="5.36775">
        <ele>270.4</ele>
        <time>2022-04-04T10:59:02Z</time>
      </trkpt>
      <trkpt lat="46.48181" lon="5.36757">
        <ele>268.8</ele>
        <time>2022-04-04T10:59:04Z</time>
      </trkpt>
      <trkpt lat="46.48171" lon="5.36748">
        <ele>267.8</ele>
        <time>2022-04-04T10:59:05Z</time>
      </trkpt>
      <trkpt lat="46.4816" lon="5.36739">
        <ele>267.4</ele>
        <time>2022-04-04T10:59:06Z</time>
      </trkpt>
      <trkpt lat="46.48149" lon="5.36731">
        <ele>266.2</ele>
        <time>2022-04-04T10:59:07Z</time>
      </trkpt>
      <trkpt lat="46.48129" lon="5.36717">
        <ele>265</ele>
        <time>2022-04-04T10:59:09Z</time>
      </trkpt>
      <trkpt lat="46.48121" lon="5.3671">
        <ele>264.6</ele>
        <time>2022-04-04T10:59:10Z</time>
      </trkpt>
      <trkpt lat="46.48114" lon="5.36704">
        <ele>263.6</ele>
        <time>2022-04-04T10:59:11Z</time>
      </trkpt>
      <trkpt lat="46.48111" lon="5.36696">
        <ele>263.2</ele>
        <time>2022-04-04T10:59:12Z</time>
      </trkpt>
      <trkpt lat="46.48111" lon="5.36685">
        <ele>262.4</ele>
        <time>2022-04-04T10:59:13Z</time>
      </trkpt>
      <trkpt lat="46.48113" lon="5.36675">
        <ele>261.2</ele>
        <time>2022-04-04T10:59:14Z</time>
      </trkpt>
      <trkpt lat="46.48118" lon="5.36667">
        <ele>260.6</ele>
        <time>2022-04-04T10:59:15Z</time>
      </trkpt>
      <trkpt lat="46.48124" lon="5.36661">
        <ele>259.6</ele>
        <time>2022-04-04T10:59:16Z</time>
      </trkpt>
      <trkpt lat="46.48131" lon="5.36655">
        <ele>259.2</ele>
        <time>2022-04-04T10:59:17Z</time>
      </trkpt>
      <trkpt lat="46.48137" lon="5.36648">
        <ele>258.4</ele>
        <time>2022-04-04T10:59:18Z</time>
      </trkpt>
      <trkpt lat="46.48184" lon="5.3661">
        <ele>256.4</ele>
        <time>2022-04-04T10:59:24Z</time>
      </trkpt>
      <trkpt lat="46.4821" lon="5.36601">
        <ele>256</ele>
        <time>2022-04-04T10:59:27Z</time>
      </trkpt>
      <trkpt lat="46.48217" lon="5.36594">
        <ele>256</ele>
        <time>2022-04-04T10:59:28Z</time>
      </trkpt>
      <trkpt lat="46.48222" lon="5.36584">
        <ele>256</ele>
        <time>2022-04-04T10:59:29Z</time>
      </trkpt>
      <trkpt lat="46.48225" lon="5.36573">
        <ele>255.8</ele>
        <time>2022-04-04T10:59:30Z</time>
      </trkpt>
      <trkpt lat="46.48229" lon="5.36562">
        <ele>255.8</ele>
        <time>2022-04-04T10:59:31Z</time>
      </trkpt>
      <trkpt lat="46.48242" lon="5.36545">
        <ele>255.8</ele>
        <time>2022-04-04T10:59:33Z</time>
      </trkpt>
      <trkpt lat="46.48283" lon="5.365">
        <ele>254.8</ele>
        <time>2022-04-04T10:59:39Z</time>
      </trkpt>
      <trkpt lat="46.48304" lon="5.36477">
        <ele>254.6</ele>
        <time>2022-04-04T10:59:42Z</time>
      </trkpt>
      <trkpt lat="46.48318" lon="5.36462">
        <ele>253.6</ele>
        <time>2022-04-04T10:59:44Z</time>
      </trkpt>
      <trkpt lat="46.48352" lon="5.36424">
        <ele>252.6</ele>
        <time>2022-04-04T10:59:49Z</time>
      </trkpt>
      <trkpt lat="46.4838" lon="5.36394">
        <ele>251.2</ele>
        <time>2022-04-04T10:59:53Z</time>
      </trkpt>
      <trkpt lat="46.48387" lon="5.36387">
        <ele>251</ele>
        <time>2022-04-04T10:59:54Z</time>
      </trkpt>
      <trkpt lat="46.48415" lon="5.36362">
        <ele>250.2</ele>
        <time>2022-04-04T10:59:58Z</time>
      </trkpt>
      <trkpt lat="46.48423" lon="5.36357">
        <ele>250</ele>
        <time>2022-04-04T10:59:59Z</time>
      </trkpt>
      <trkpt lat="46.4843" lon="5.36354">
        <ele>249.8</ele>
        <time>2022-04-04T11:00:00Z</time>
      </trkpt>
      <trkpt lat="46.48438" lon="5.36352">
        <ele>249.6</ele>
        <time>2022-04-04T11:00:01Z</time>
      </trkpt>
      <trkpt lat="46.48452" lon="5.36349">
        <ele>249.4</ele>
        <time>2022-04-04T11:00:03Z</time>
      </trkpt>
      <trkpt lat="46.48488" lon="5.36344">
        <ele>249</ele>
        <time>2022-04-04T11:00:08Z</time>
      </trkpt>
      <trkpt lat="46.48509" lon="5.3634">
        <ele>249</ele>
        <time>2022-04-04T11:00:11Z</time>
      </trkpt>
      <trkpt lat="46.48562" lon="5.36332">
        <ele>248</ele>
        <time>2022-04-04T11:00:19Z</time>
      </trkpt>
      <trkpt lat="46.48582" lon="5.36329">
        <ele>247.8</ele>
        <time>2022-04-04T11:00:22Z</time>
      </trkpt>
      <trkpt lat="46.48615" lon="5.36322">
        <ele>247.2</ele>
        <time>2022-04-04T11:00:26Z</time>
      </trkpt>
      <trkpt lat="46.48628" lon="5.36308">
        <ele>246.8</ele>
        <time>2022-04-04T11:00:28Z</time>
      </trkpt>
      <trkpt lat="46.48635" lon="5.36286">
        <ele>246</ele>
        <time>2022-04-04T11:00:30Z</time>
      </trkpt>
      <trkpt lat="46.48637" lon="5.36274">
        <ele>245.6</ele>
        <time>2022-04-04T11:00:31Z</time>
      </trkpt>
      <trkpt lat="46.4864" lon="5.36248">
        <ele>244.8</ele>
        <time>2022-04-04T11:00:33Z</time>
      </trkpt>
      <trkpt lat="46.48641" lon="5.36235">
        <ele>244.4</ele>
        <time>2022-04-04T11:00:34Z</time>
      </trkpt>
      <trkpt lat="46.48644" lon="5.36198">
        <ele>243.2</ele>
        <time>2022-04-04T11:00:37Z</time>
      </trkpt>
      <trkpt lat="46.48645" lon="5.36185">
        <ele>242.8</ele>
        <time>2022-04-04T11:00:38Z</time>
      </trkpt>
      <trkpt lat="46.48649" lon="5.36149">
        <ele>242</ele>
        <time>2022-04-04T11:00:41Z</time>
      </trkpt>
      <trkpt lat="46.48654" lon="5.36115">
        <ele>241.6</ele>
        <time>2022-04-04T11:00:44Z</time>
      </trkpt>
      <trkpt lat="46.48664" lon="5.36074">
        <ele>241</ele>
        <time>2022-04-04T11:00:48Z</time>
      </trkpt>
      <trkpt lat="46.48668" lon="5.36056">
        <ele>240.8</ele>
        <time>2022-04-04T11:00:50Z</time>
      </trkpt>
      <trkpt lat="46.48675" lon="5.36012">
        <ele>241.2</ele>
        <time>2022-04-04T11:00:55Z</time>
      </trkpt>
      <trkpt lat="46.48682" lon="5.35961">
        <ele>242.2</ele>
        <time>2022-04-04T11:01:01Z</time>
      </trkpt>
      <trkpt lat="46.48688" lon="5.35923">
        <ele>242.4</ele>
        <time>2022-04-04T11:01:05Z</time>
      </trkpt>
      <trkpt lat="46.48691" lon="5.35913">
        <ele>242.6</ele>
        <time>2022-04-04T11:01:06Z</time>
      </trkpt>
      <trkpt lat="46.48694" lon="5.35903">
        <ele>242.6</ele>
        <time>2022-04-04T11:01:07Z</time>
      </trkpt>
      <trkpt lat="46.4871" lon="5.35864">
        <ele>242.2</ele>
        <time>2022-04-04T11:01:11Z</time>
      </trkpt>
      <trkpt lat="46.48734" lon="5.35806">
        <ele>241.2</ele>
        <time>2022-04-04T11:01:17Z</time>
      </trkpt>
      <trkpt lat="46.48747" lon="5.35778">
        <ele>240.8</ele>
        <time>2022-04-04T11:01:20Z</time>
      </trkpt>
      <trkpt lat="46.48768" lon="5.35731">
        <ele>240</ele>
        <time>2022-04-04T11:01:25Z</time>
      </trkpt>
      <trkpt lat="46.48775" lon="5.35714">
        <ele>239.8</ele>
        <time>2022-04-04T11:01:27Z</time>
      </trkpt>
      <trkpt lat="46.48795" lon="5.3567">
        <ele>239.2</ele>
        <time>2022-04-04T11:01:32Z</time>
      </trkpt>
      <trkpt lat="46.4881" lon="5.35637">
        <ele>238.8</ele>
        <time>2022-04-04T11:01:36Z</time>
      </trkpt>
      <trkpt lat="46.48818" lon="5.3562">
        <ele>238.8</ele>
        <time>2022-04-04T11:01:38Z</time>
      </trkpt>
      <trkpt lat="46.48843" lon="5.35563">
        <ele>239.2</ele>
        <time>2022-04-04T11:01:45Z</time>
      </trkpt>
      <trkpt lat="46.48849" lon="5.35549">
        <ele>239.4</ele>
        <time>2022-04-04T11:01:47Z</time>
      </trkpt>
      <trkpt lat="46.4886" lon="5.35523">
        <ele>239.4</ele>
        <time>2022-04-04T11:01:50Z</time>
      </trkpt>
      <trkpt lat="46.48886" lon="5.35465">
        <ele>239.4</ele>
        <time>2022-04-04T11:01:57Z</time>
      </trkpt>
      <trkpt lat="46.48918" lon="5.35391">
        <ele>239.2</ele>
        <time>2022-04-04T11:02:06Z</time>
      </trkpt>
      <trkpt lat="46.48949" lon="5.3532">
        <ele>238.2</ele>
        <time>2022-04-04T11:02:14Z</time>
      </trkpt>
      <trkpt lat="46.48978" lon="5.35254">
        <ele>238</ele>
        <time>2022-04-04T11:02:22Z</time>
      </trkpt>
      <trkpt lat="46.48985" lon="5.3524">
        <ele>238</ele>
        <time>2022-04-04T11:02:24Z</time>
      </trkpt>
      <trkpt lat="46.49013" lon="5.35172">
        <ele>239</ele>
        <time>2022-04-04T11:02:33Z</time>
      </trkpt>
      <trkpt lat="46.49021" lon="5.35157">
        <ele>239.4</ele>
        <time>2022-04-04T11:02:35Z</time>
      </trkpt>
      <trkpt lat="46.49027" lon="5.35143">
        <ele>239.6</ele>
        <time>2022-04-04T11:02:37Z</time>
      </trkpt>
      <trkpt lat="46.49032" lon="5.35129">
        <ele>240</ele>
        <time>2022-04-04T11:02:39Z</time>
      </trkpt>
      <trkpt lat="46.49044" lon="5.35083">
        <ele>240.2</ele>
        <time>2022-04-04T11:02:44Z</time>
      </trkpt>
      <trkpt lat="46.49054" lon="5.35036">
        <ele>240.4</ele>
        <time>2022-04-04T11:02:49Z</time>
      </trkpt>
      <trkpt lat="46.49058" lon="5.35015">
        <ele>240.2</ele>
        <time>2022-04-04T11:02:51Z</time>
      </trkpt>
      <trkpt lat="46.49075" lon="5.34929">
        <ele>239.2</ele>
        <time>2022-04-04T11:02:59Z</time>
      </trkpt>
      <trkpt lat="46.49077" lon="5.34918">
        <ele>238.8</ele>
        <time>2022-04-04T11:03:00Z</time>
      </trkpt>
      <trkpt lat="46.49079" lon="5.34909">
        <ele>238.6</ele>
        <time>2022-04-04T11:03:01Z</time>
      </trkpt>
      <trkpt lat="46.49093" lon="5.34834">
        <ele>237.4</ele>
        <time>2022-04-04T11:03:08Z</time>
      </trkpt>
      <trkpt lat="46.49098" lon="5.34813">
        <ele>237.2</ele>
        <time>2022-04-04T11:03:10Z</time>
      </trkpt>
      <trkpt lat="46.49106" lon="5.34769">
        <ele>236.2</ele>
        <time>2022-04-04T11:03:14Z</time>
      </trkpt>
      <trkpt lat="46.49114" lon="5.34725">
        <ele>235.2</ele>
        <time>2022-04-04T11:03:18Z</time>
      </trkpt>
      <trkpt lat="46.49116" lon="5.34714">
        <ele>235</ele>
        <time>2022-04-04T11:03:19Z</time>
      </trkpt>
      <trkpt lat="46.49131" lon="5.34639">
        <ele>234.2</ele>
        <time>2022-04-04T11:03:26Z</time>
      </trkpt>
      <trkpt lat="46.49133" lon="5.3463">
        <ele>234.2</ele>
        <time>2022-04-04T11:03:27Z</time>
      </trkpt>
      <trkpt lat="46.4914" lon="5.34596">
        <ele>234</ele>
        <time>2022-04-04T11:03:31Z</time>
      </trkpt>
      <trkpt lat="46.49142" lon="5.34587">
        <ele>234</ele>
        <time>2022-04-04T11:03:32Z</time>
      </trkpt>
      <trkpt lat="46.49155" lon="5.34522">
        <ele>234.4</ele>
        <time>2022-04-04T11:03:39Z</time>
      </trkpt>
      <trkpt lat="46.49169" lon="5.34445">
        <ele>234.2</ele>
        <time>2022-04-04T11:03:46Z</time>
      </trkpt>
      <trkpt lat="46.49173" lon="5.34427">
        <ele>234</ele>
        <time>2022-04-04T11:03:48Z</time>
      </trkpt>
      <trkpt lat="46.49175" lon="5.34417">
        <ele>234</ele>
        <time>2022-04-04T11:03:49Z</time>
      </trkpt>
      <trkpt lat="46.49183" lon="5.34375">
        <ele>233.8</ele>
        <time>2022-04-04T11:03:54Z</time>
      </trkpt>
      <trkpt lat="46.49185" lon="5.34368">
        <ele>234</ele>
        <time>2022-04-04T11:03:55Z</time>
      </trkpt>
      <trkpt lat="46.49193" lon="5.34328">
        <ele>234.6</ele>
        <time>2022-04-04T11:04:00Z</time>
      </trkpt>
      <trkpt lat="46.49199" lon="5.3429">
        <ele>235</ele>
        <time>2022-04-04T11:04:04Z</time>
      </trkpt>
      <trkpt lat="46.49201" lon="5.34281">
        <ele>235.2</ele>
        <time>2022-04-04T11:04:05Z</time>
      </trkpt>
      <trkpt lat="46.49213" lon="5.34214">
        <ele>234.8</ele>
        <time>2022-04-04T11:04:12Z</time>
      </trkpt>
      <trkpt lat="46.49226" lon="5.34138">
        <ele>234.2</ele>
        <time>2022-04-04T11:04:20Z</time>
      </trkpt>
      <trkpt lat="46.49228" lon="5.34131">
        <ele>234.2</ele>
        <time>2022-04-04T11:04:21Z</time>
      </trkpt>
      <trkpt lat="46.49231" lon="5.34113">
        <ele>234.4</ele>
        <time>2022-04-04T11:04:23Z</time>
      </trkpt>
      <trkpt lat="46.49236" lon="5.34093">
        <ele>234.6</ele>
        <time>2022-04-04T11:04:26Z</time>
      </trkpt>
      <trkpt lat="46.49242" lon="5.34065">
        <ele>235.6</ele>
        <time>2022-04-04T11:04:30Z</time>
      </trkpt>
      <trkpt lat="46.49245" lon="5.34051">
        <ele>235.8</ele>
        <time>2022-04-04T11:04:32Z</time>
      </trkpt>
      <trkpt lat="46.49246" lon="5.34044">
        <ele>236</ele>
        <time>2022-04-04T11:04:33Z</time>
      </trkpt>
      <trkpt lat="46.4925" lon="5.34023">
        <ele>236.4</ele>
        <time>2022-04-04T11:04:36Z</time>
      </trkpt>
      <trkpt lat="46.49255" lon="5.34">
        <ele>237</ele>
        <time>2022-04-04T11:04:39Z</time>
      </trkpt>
      <trkpt lat="46.49264" lon="5.33948">
        <ele>237.2</ele>
        <time>2022-04-04T11:04:45Z</time>
      </trkpt>
      <trkpt lat="46.49276" lon="5.33887">
        <ele>237.4</ele>
        <time>2022-04-04T11:04:52Z</time>
      </trkpt>
      <trkpt lat="46.49291" lon="5.3381">
        <ele>237.2</ele>
        <time>2022-04-04T11:05:01Z</time>
      </trkpt>
      <trkpt lat="46.49304" lon="5.33727">
        <ele>236.8</ele>
        <time>2022-04-04T11:05:10Z</time>
      </trkpt>
      <trkpt lat="46.49305" lon="5.33719">
        <ele>236.8</ele>
        <time>2022-04-04T11:05:11Z</time>
      </trkpt>
      <trkpt lat="46.49308" lon="5.33639">
        <ele>236.2</ele>
        <time>2022-04-04T11:05:19Z</time>
      </trkpt>
      <trkpt lat="46.49309" lon="5.33629">
        <ele>236.2</ele>
        <time>2022-04-04T11:05:20Z</time>
      </trkpt>
      <trkpt lat="46.49318" lon="5.33574">
        <ele>235.8</ele>
        <time>2022-04-04T11:05:26Z</time>
      </trkpt>
      <trkpt lat="46.4932" lon="5.33565">
        <ele>235.8</ele>
        <time>2022-04-04T11:05:27Z</time>
      </trkpt>
      <trkpt lat="46.49322" lon="5.33545">
        <ele>235.6</ele>
        <time>2022-04-04T11:05:29Z</time>
      </trkpt>
      <trkpt lat="46.49322" lon="5.33529">
        <ele>235.2</ele>
        <time>2022-04-04T11:05:31Z</time>
      </trkpt>
      <trkpt lat="46.49314" lon="5.33465">
        <ele>235</ele>
        <time>2022-04-04T11:05:38Z</time>
      </trkpt>
      <trkpt lat="46.49299" lon="5.33388">
        <ele>235</ele>
        <time>2022-04-04T11:05:47Z</time>
      </trkpt>
      <trkpt lat="46.49295" lon="5.3337">
        <ele>234.8</ele>
        <time>2022-04-04T11:05:49Z</time>
      </trkpt>
      <trkpt lat="46.49291" lon="5.3335">
        <ele>234.8</ele>
        <time>2022-04-04T11:05:51Z</time>
      </trkpt>
      <trkpt lat="46.49281" lon="5.333">
        <ele>234.4</ele>
        <time>2022-04-04T11:05:56Z</time>
      </trkpt>
      <trkpt lat="46.49276" lon="5.33271">
        <ele>233.6</ele>
        <time>2022-04-04T11:05:59Z</time>
      </trkpt>
      <trkpt lat="46.4927" lon="5.33242">
        <ele>233.2</ele>
        <time>2022-04-04T11:06:02Z</time>
      </trkpt>
      <trkpt lat="46.49263" lon="5.33224">
        <ele>232.8</ele>
        <time>2022-04-04T11:06:04Z</time>
      </trkpt>
      <trkpt lat="46.49248" lon="5.33199">
        <ele>232.8</ele>
        <time>2022-04-04T11:06:07Z</time>
      </trkpt>
      <trkpt lat="46.49242" lon="5.33193">
        <ele>232.6</ele>
        <time>2022-04-04T11:06:08Z</time>
      </trkpt>
      <trkpt lat="46.49236" lon="5.33187">
        <ele>232.4</ele>
        <time>2022-04-04T11:06:09Z</time>
      </trkpt>
      <trkpt lat="46.49209" lon="5.33168">
        <ele>231.8</ele>
        <time>2022-04-04T11:06:13Z</time>
      </trkpt>
      <trkpt lat="46.49189" lon="5.33151">
        <ele>231.2</ele>
        <time>2022-04-04T11:06:16Z</time>
      </trkpt>
      <trkpt lat="46.49177" lon="5.3314">
        <ele>231</ele>
        <time>2022-04-04T11:06:19Z</time>
      </trkpt>
      <trkpt lat="46.49173" lon="5.33136">
        <ele>230.2</ele>
        <time>2022-04-04T11:06:21Z</time>
      </trkpt>
      <trkpt lat="46.49166" lon="5.33128">
        <ele>229.6</ele>
        <time>2022-04-04T11:06:24Z</time>
      </trkpt>
      <trkpt lat="46.49157" lon="5.33116">
        <ele>229.2</ele>
        <time>2022-04-04T11:06:27Z</time>
      </trkpt>
      <trkpt lat="46.49152" lon="5.33107">
        <ele>229</ele>
        <time>2022-04-04T11:06:29Z</time>
      </trkpt>
      <trkpt lat="46.49143" lon="5.33084">
        <ele>229</ele>
        <time>2022-04-04T11:06:33Z</time>
      </trkpt>
      <trkpt lat="46.49138" lon="5.3306">
        <ele>229.2</ele>
        <time>2022-04-04T11:06:36Z</time>
      </trkpt>
      <trkpt lat="46.49137" lon="5.33052">
        <ele>229.2</ele>
        <time>2022-04-04T11:06:37Z</time>
      </trkpt>
      <trkpt lat="46.49132" lon="5.33024">
        <ele>229.4</ele>
        <time>2022-04-04T11:06:40Z</time>
      </trkpt>
      <trkpt lat="46.4913" lon="5.33004">
        <ele>229.4</ele>
        <time>2022-04-04T11:06:42Z</time>
      </trkpt>
      <trkpt lat="46.49126" lon="5.32953">
        <ele>229.2</ele>
        <time>2022-04-04T11:06:47Z</time>
      </trkpt>
      <trkpt lat="46.49126" lon="5.32923">
        <ele>228.6</ele>
        <time>2022-04-04T11:06:50Z</time>
      </trkpt>
      <trkpt lat="46.4913" lon="5.32895">
        <ele>228</ele>
        <time>2022-04-04T11:06:53Z</time>
      </trkpt>
      <trkpt lat="46.49144" lon="5.32839">
        <ele>227.8</ele>
        <time>2022-04-04T11:06:59Z</time>
      </trkpt>
      <trkpt lat="46.49146" lon="5.32811">
        <ele>227.8</ele>
        <time>2022-04-04T11:07:02Z</time>
      </trkpt>
      <trkpt lat="46.49145" lon="5.32794">
        <ele>227.6</ele>
        <time>2022-04-04T11:07:04Z</time>
      </trkpt>
      <trkpt lat="46.49139" lon="5.32759">
        <ele>227.8</ele>
        <time>2022-04-04T11:07:08Z</time>
      </trkpt>
      <trkpt lat="46.49134" lon="5.32736">
        <ele>228</ele>
        <time>2022-04-04T11:07:11Z</time>
      </trkpt>
      <trkpt lat="46.49131" lon="5.32728">
        <ele>228</ele>
        <time>2022-04-04T11:07:12Z</time>
      </trkpt>
      <trkpt lat="46.49123" lon="5.32711">
        <ele>228</ele>
        <time>2022-04-04T11:07:14Z</time>
      </trkpt>
      <trkpt lat="46.49119" lon="5.32706">
        <ele>228</ele>
        <time>2022-04-04T11:07:15Z</time>
      </trkpt>
      <trkpt lat="46.49114" lon="5.327">
        <ele>228</ele>
        <time>2022-04-04T11:07:16Z</time>
      </trkpt>
      <trkpt lat="46.49101" lon="5.32696">
        <ele>228</ele>
        <time>2022-04-04T11:07:18Z</time>
      </trkpt>
      <trkpt lat="46.49072" lon="5.32701">
        <ele>227.2</ele>
        <time>2022-04-04T11:07:22Z</time>
      </trkpt>
      <trkpt lat="46.49064" lon="5.32703">
        <ele>227</ele>
        <time>2022-04-04T11:07:23Z</time>
      </trkpt>
      <trkpt lat="46.49031" lon="5.32709">
        <ele>225.8</ele>
        <time>2022-04-04T11:07:27Z</time>
      </trkpt>
      <trkpt lat="46.49012" lon="5.32712">
        <ele>225.2</ele>
        <time>2022-04-04T11:07:29Z</time>
      </trkpt>
      <trkpt lat="46.49003" lon="5.32713">
        <ele>224.6</ele>
        <time>2022-04-04T11:07:30Z</time>
      </trkpt>
      <trkpt lat="46.48974" lon="5.32713">
        <ele>223</ele>
        <time>2022-04-04T11:07:33Z</time>
      </trkpt>
      <trkpt lat="46.48964" lon="5.32709">
        <ele>222.6</ele>
        <time>2022-04-04T11:07:34Z</time>
      </trkpt>
      <trkpt lat="46.48954" lon="5.32703">
        <ele>222</ele>
        <time>2022-04-04T11:07:35Z</time>
      </trkpt>
      <trkpt lat="46.48945" lon="5.32695">
        <ele>221.8</ele>
        <time>2022-04-04T11:07:36Z</time>
      </trkpt>
      <trkpt lat="46.48937" lon="5.32686">
        <ele>221.6</ele>
        <time>2022-04-04T11:07:37Z</time>
      </trkpt>
      <trkpt lat="46.48929" lon="5.32676">
        <ele>221</ele>
        <time>2022-04-04T11:07:38Z</time>
      </trkpt>
      <trkpt lat="46.48923" lon="5.32664">
        <ele>220.2</ele>
        <time>2022-04-04T11:07:39Z</time>
      </trkpt>
      <trkpt lat="46.48919" lon="5.3265">
        <ele>219.2</ele>
        <time>2022-04-04T11:07:40Z</time>
      </trkpt>
      <trkpt lat="46.48917" lon="5.32634">
        <ele>218.6</ele>
        <time>2022-04-04T11:07:41Z</time>
      </trkpt>
      <trkpt lat="46.48919" lon="5.32617">
        <ele>218</ele>
        <time>2022-04-04T11:07:42Z</time>
      </trkpt>
      <trkpt lat="46.48933" lon="5.3259">
        <ele>217.2</ele>
        <time>2022-04-04T11:07:44Z</time>
      </trkpt>
      <trkpt lat="46.48949" lon="5.32567">
        <ele>215.6</ele>
        <time>2022-04-04T11:07:46Z</time>
      </trkpt>
      <trkpt lat="46.48956" lon="5.3254">
        <ele>214.6</ele>
        <time>2022-04-04T11:07:48Z</time>
      </trkpt>
      <trkpt lat="46.48956" lon="5.32525">
        <ele>214</ele>
        <time>2022-04-04T11:07:49Z</time>
      </trkpt>
      <trkpt lat="46.48953" lon="5.32511">
        <ele>213.8</ele>
        <time>2022-04-04T11:07:50Z</time>
      </trkpt>
      <trkpt lat="46.4895" lon="5.32498">
        <ele>213</ele>
        <time>2022-04-04T11:07:51Z</time>
      </trkpt>
      <trkpt lat="46.4894" lon="5.32463">
        <ele>211.8</ele>
        <time>2022-04-04T11:07:54Z</time>
      </trkpt>
      <trkpt lat="46.48925" lon="5.32419">
        <ele>210.8</ele>
        <time>2022-04-04T11:07:58Z</time>
      </trkpt>
      <trkpt lat="46.48916" lon="5.3239">
        <ele>210.8</ele>
        <time>2022-04-04T11:08:01Z</time>
      </trkpt>
      <trkpt lat="46.48909" lon="5.32362">
        <ele>210.8</ele>
        <time>2022-04-04T11:08:04Z</time>
      </trkpt>
      <trkpt lat="46.489" lon="5.32344">
        <ele>210.8</ele>
        <time>2022-04-04T11:08:06Z</time>
      </trkpt>
      <trkpt lat="46.48879" lon="5.3231">
        <ele>211.2</ele>
        <time>2022-04-04T11:08:11Z</time>
      </trkpt>
      <trkpt lat="46.48869" lon="5.32296">
        <ele>212</ele>
        <time>2022-04-04T11:08:14Z</time>
      </trkpt>
      <trkpt lat="46.48862" lon="5.32286">
        <ele>212.6</ele>
        <time>2022-04-04T11:08:16Z</time>
      </trkpt>
      <trkpt lat="46.48854" lon="5.32277">
        <ele>213.4</ele>
        <time>2022-04-04T11:08:18Z</time>
      </trkpt>
      <trkpt lat="46.48845" lon="5.32263">
        <ele>215</ele>
        <time>2022-04-04T11:08:21Z</time>
      </trkpt>
      <trkpt lat="46.48842" lon="5.32258">
        <ele>215.2</ele>
        <time>2022-04-04T11:08:22Z</time>
      </trkpt>
      <trkpt lat="46.48835" lon="5.32239">
        <ele>216.2</ele>
        <time>2022-04-04T11:08:25Z</time>
      </trkpt>
      <trkpt lat="46.48831" lon="5.32213">
        <ele>217.2</ele>
        <time>2022-04-04T11:08:28Z</time>
      </trkpt>
      <trkpt lat="46.48825" lon="5.32152">
        <ele>217.2</ele>
        <time>2022-04-04T11:08:34Z</time>
      </trkpt>
      <trkpt lat="46.48826" lon="5.32139">
        <ele>217.2</ele>
        <time>2022-04-04T11:08:35Z</time>
      </trkpt>
      <trkpt lat="46.4883" lon="5.32118">
        <ele>216.6</ele>
        <time>2022-04-04T11:08:37Z</time>
      </trkpt>
      <trkpt lat="46.4884" lon="5.32064">
        <ele>215.8</ele>
        <time>2022-04-04T11:08:42Z</time>
      </trkpt>
      <trkpt lat="46.48842" lon="5.32053">
        <ele>215.6</ele>
        <time>2022-04-04T11:08:43Z</time>
      </trkpt>
      <trkpt lat="46.4885" lon="5.31999">
        <ele>214.8</ele>
        <time>2022-04-04T11:08:48Z</time>
      </trkpt>
      <trkpt lat="46.4885" lon="5.31979">
        <ele>214.6</ele>
        <time>2022-04-04T11:08:50Z</time>
      </trkpt>
      <trkpt lat="46.48845" lon="5.31911">
        <ele>213.8</ele>
        <time>2022-04-04T11:08:56Z</time>
      </trkpt>
      <trkpt lat="46.4884" lon="5.31886">
        <ele>213.4</ele>
        <time>2022-04-04T11:08:58Z</time>
      </trkpt>
      <trkpt lat="46.48831" lon="5.31867">
        <ele>213</ele>
        <time>2022-04-04T11:09:00Z</time>
      </trkpt>
      <trkpt lat="46.48825" lon="5.3186">
        <ele>212.8</ele>
        <time>2022-04-04T11:09:01Z</time>
      </trkpt>
      <trkpt lat="46.48817" lon="5.31855">
        <ele>212.6</ele>
        <time>2022-04-04T11:09:02Z</time>
      </trkpt>
      <trkpt lat="46.4881" lon="5.31852">
        <ele>212.4</ele>
        <time>2022-04-04T11:09:03Z</time>
      </trkpt>
      <trkpt lat="46.48802" lon="5.31847">
        <ele>212.2</ele>
        <time>2022-04-04T11:09:04Z</time>
      </trkpt>
      <trkpt lat="46.48789" lon="5.31834">
        <ele>212.2</ele>
        <time>2022-04-04T11:09:06Z</time>
      </trkpt>
      <trkpt lat="46.48784" lon="5.31813">
        <ele>212.2</ele>
        <time>2022-04-04T11:09:08Z</time>
      </trkpt>
      <trkpt lat="46.48778" lon="5.31739">
        <ele>212.2</ele>
        <time>2022-04-04T11:09:15Z</time>
      </trkpt>
      <trkpt lat="46.48773" lon="5.31722">
        <ele>212.4</ele>
        <time>2022-04-04T11:09:17Z</time>
      </trkpt>
      <trkpt lat="46.48769" lon="5.31715">
        <ele>212.6</ele>
        <time>2022-04-04T11:09:18Z</time>
      </trkpt>
      <trkpt lat="46.4874" lon="5.31677">
        <ele>213.4</ele>
        <time>2022-04-04T11:09:24Z</time>
      </trkpt>
      <trkpt lat="46.48726" lon="5.31661">
        <ele>213.8</ele>
        <time>2022-04-04T11:09:27Z</time>
      </trkpt>
      <trkpt lat="46.48717" lon="5.3165">
        <ele>214</ele>
        <time>2022-04-04T11:09:29Z</time>
      </trkpt>
      <trkpt lat="46.48707" lon="5.31638">
        <ele>214.2</ele>
        <time>2022-04-04T11:09:31Z</time>
      </trkpt>
      <trkpt lat="46.48697" lon="5.31627">
        <ele>214.2</ele>
        <time>2022-04-04T11:09:33Z</time>
      </trkpt>
      <trkpt lat="46.48691" lon="5.31619">
        <ele>214</ele>
        <time>2022-04-04T11:09:34Z</time>
      </trkpt>
      <trkpt lat="46.48686" lon="5.31613">
        <ele>213.8</ele>
        <time>2022-04-04T11:09:35Z</time>
      </trkpt>
      <trkpt lat="46.48677" lon="5.31601">
        <ele>213.6</ele>
        <time>2022-04-04T11:09:37Z</time>
      </trkpt>
      <trkpt lat="46.48671" lon="5.31592">
        <ele>213.6</ele>
        <time>2022-04-04T11:09:38Z</time>
      </trkpt>
      <trkpt lat="46.48652" lon="5.31569">
        <ele>213.4</ele>
        <time>2022-04-04T11:09:42Z</time>
      </trkpt>
      <trkpt lat="46.48642" lon="5.31559">
        <ele>213.6</ele>
        <time>2022-04-04T11:09:44Z</time>
      </trkpt>
      <trkpt lat="46.48638" lon="5.31553">
        <ele>213.6</ele>
        <time>2022-04-04T11:09:45Z</time>
      </trkpt>
      <trkpt lat="46.48625" lon="5.31535">
        <ele>213.8</ele>
        <time>2022-04-04T11:09:48Z</time>
      </trkpt>
      <trkpt lat="46.48622" lon="5.3153">
        <ele>213.8</ele>
        <time>2022-04-04T11:09:49Z</time>
      </trkpt>
      <trkpt lat="46.48618" lon="5.31522">
        <ele>213.8</ele>
        <time>2022-04-04T11:09:50Z</time>
      </trkpt>
      <trkpt lat="46.48612" lon="5.31501">
        <ele>213.8</ele>
        <time>2022-04-04T11:09:52Z</time>
      </trkpt>
      <trkpt lat="46.48609" lon="5.31473">
        <ele>213.8</ele>
        <time>2022-04-04T11:09:54Z</time>
      </trkpt>
      <trkpt lat="46.48609" lon="5.31461">
        <ele>213.8</ele>
        <time>2022-04-04T11:09:55Z</time>
      </trkpt>
      <trkpt lat="46.48608" lon="5.31435">
        <ele>213.6</ele>
        <time>2022-04-04T11:09:58Z</time>
      </trkpt>
      <trkpt lat="46.48606" lon="5.31423">
        <ele>213.6</ele>
        <time>2022-04-04T11:10:00Z</time>
      </trkpt>
      <trkpt lat="46.48599" lon="5.31409">
        <ele>213.6</ele>
        <time>2022-04-04T11:10:02Z</time>
      </trkpt>
      <trkpt lat="46.48591" lon="5.314">
        <ele>213.6</ele>
        <time>2022-04-04T11:10:04Z</time>
      </trkpt>
      <trkpt lat="46.48567" lon="5.31372">
        <ele>214.6</ele>
        <time>2022-04-04T11:10:11Z</time>
      </trkpt>
      <trkpt lat="46.48565" lon="5.31367">
        <ele>215.2</ele>
        <time>2022-04-04T11:10:12Z</time>
      </trkpt>
      <trkpt lat="46.48561" lon="5.31347">
        <ele>216.4</ele>
        <time>2022-04-04T11:10:16Z</time>
      </trkpt>
      <trkpt lat="46.48558" lon="5.31317">
        <ele>217.8</ele>
        <time>2022-04-04T11:10:21Z</time>
      </trkpt>
      <trkpt lat="46.48555" lon="5.31296">
        <ele>218.4</ele>
        <time>2022-04-04T11:10:24Z</time>
      </trkpt>
      <trkpt lat="46.48554" lon="5.31274">
        <ele>218.8</ele>
        <time>2022-04-04T11:10:27Z</time>
      </trkpt>
      <trkpt lat="46.48554" lon="5.31266">
        <ele>218.8</ele>
        <time>2022-04-04T11:10:28Z</time>
      </trkpt>
      <trkpt lat="46.48555" lon="5.31259">
        <ele>219.2</ele>
        <time>2022-04-04T11:10:29Z</time>
      </trkpt>
      <trkpt lat="46.48556" lon="5.31251">
        <ele>219.2</ele>
        <time>2022-04-04T11:10:30Z</time>
      </trkpt>
      <trkpt lat="46.48559" lon="5.31239">
        <ele>219.6</ele>
        <time>2022-04-04T11:10:32Z</time>
      </trkpt>
      <trkpt lat="46.48567" lon="5.31219">
        <ele>219.8</ele>
        <time>2022-04-04T11:10:35Z</time>
      </trkpt>
      <trkpt lat="46.48569" lon="5.31214">
        <ele>220</ele>
        <time>2022-04-04T11:10:36Z</time>
      </trkpt>
      <trkpt lat="46.4858" lon="5.31191">
        <ele>221.2</ele>
        <time>2022-04-04T11:10:40Z</time>
      </trkpt>
      <trkpt lat="46.48594" lon="5.31163">
        <ele>221.8</ele>
        <time>2022-04-04T11:10:45Z</time>
      </trkpt>
      <trkpt lat="46.48604" lon="5.31141">
        <ele>222.2</ele>
        <time>2022-04-04T11:10:49Z</time>
      </trkpt>
      <trkpt lat="46.4862" lon="5.31107">
        <ele>223.2</ele>
        <time>2022-04-04T11:10:55Z</time>
      </trkpt>
      <trkpt lat="46.48623" lon="5.31101">
        <ele>223.4</ele>
        <time>2022-04-04T11:10:56Z</time>
      </trkpt>
      <trkpt lat="46.48639" lon="5.31067">
        <ele>224.4</ele>
        <time>2022-04-04T11:11:02Z</time>
      </trkpt>
      <trkpt lat="46.48651" lon="5.31039">
        <ele>225.2</ele>
        <time>2022-04-04T11:11:07Z</time>
      </trkpt>
      <trkpt lat="46.48659" lon="5.31023">
        <ele>225.4</ele>
        <time>2022-04-04T11:11:10Z</time>
      </trkpt>
      <trkpt lat="46.48678" lon="5.30986">
        <ele>226.2</ele>
        <time>2022-04-04T11:11:17Z</time>
      </trkpt>
      <trkpt lat="46.48684" lon="5.30974">
        <ele>226.6</ele>
        <time>2022-04-04T11:11:19Z</time>
      </trkpt>
      <trkpt lat="46.48701" lon="5.3094">
        <ele>226.8</ele>
        <time>2022-04-04T11:11:24Z</time>
      </trkpt>
      <trkpt lat="46.48709" lon="5.30926">
        <ele>226.8</ele>
        <time>2022-04-04T11:11:26Z</time>
      </trkpt>
      <trkpt lat="46.48719" lon="5.30913">
        <ele>226.6</ele>
        <time>2022-04-04T11:11:28Z</time>
      </trkpt>
      <trkpt lat="46.48726" lon="5.30892">
        <ele>226.2</ele>
        <time>2022-04-04T11:11:30Z</time>
      </trkpt>
      <trkpt lat="46.48726" lon="5.30881">
        <ele>226</ele>
        <time>2022-04-04T11:11:31Z</time>
      </trkpt>
      <trkpt lat="46.48723" lon="5.30873">
        <ele>225.8</ele>
        <time>2022-04-04T11:11:32Z</time>
      </trkpt>
      <trkpt lat="46.48719" lon="5.30864">
        <ele>225.2</ele>
        <time>2022-04-04T11:11:33Z</time>
      </trkpt>
      <trkpt lat="46.48714" lon="5.30854">
        <ele>225</ele>
        <time>2022-04-04T11:11:34Z</time>
      </trkpt>
      <trkpt lat="46.48708" lon="5.30848">
        <ele>224.4</ele>
        <time>2022-04-04T11:11:35Z</time>
      </trkpt>
      <trkpt lat="46.48702" lon="5.30844">
        <ele>224.2</ele>
        <time>2022-04-04T11:11:36Z</time>
      </trkpt>
      <trkpt lat="46.48695" lon="5.3084">
        <ele>224</ele>
        <time>2022-04-04T11:11:37Z</time>
      </trkpt>
      <trkpt lat="46.48658" lon="5.30817">
        <ele>222.8</ele>
        <time>2022-04-04T11:11:42Z</time>
      </trkpt>
      <trkpt lat="46.48619" lon="5.30793">
        <ele>221.8</ele>
        <time>2022-04-04T11:11:47Z</time>
      </trkpt>
      <trkpt lat="46.48612" lon="5.30788">
        <ele>221.6</ele>
        <time>2022-04-04T11:11:48Z</time>
      </trkpt>
      <trkpt lat="46.48583" lon="5.30764">
        <ele>221.4</ele>
        <time>2022-04-04T11:11:53Z</time>
      </trkpt>
      <trkpt lat="46.48562" lon="5.30736">
        <ele>222</ele>
        <time>2022-04-04T11:11:58Z</time>
      </trkpt>
      <trkpt lat="46.48553" lon="5.30716">
        <ele>222.4</ele>
        <time>2022-04-04T11:12:01Z</time>
      </trkpt>
      <trkpt lat="46.4855" lon="5.30701">
        <ele>222.6</ele>
        <time>2022-04-04T11:12:03Z</time>
      </trkpt>
      <trkpt lat="46.48548" lon="5.30694">
        <ele>222.8</ele>
        <time>2022-04-04T11:12:05Z</time>
      </trkpt>
      <trkpt lat="46.48547" lon="5.30681">
        <ele>222.8</ele>
        <time>2022-04-04T11:12:06Z</time>
      </trkpt>
      <trkpt lat="46.48547" lon="5.30669">
        <ele>223</ele>
        <time>2022-04-04T11:12:08Z</time>
      </trkpt>
      <trkpt lat="46.48547" lon="5.30663">
        <ele>223.8</ele>
        <time>2022-04-04T11:12:09Z</time>
      </trkpt>
      <trkpt lat="46.48549" lon="5.30638">
        <ele>224.8</ele>
        <time>2022-04-04T11:12:13Z</time>
      </trkpt>
      <trkpt lat="46.4855" lon="5.30632">
        <ele>224.8</ele>
        <time>2022-04-04T11:12:14Z</time>
      </trkpt>
      <trkpt lat="46.48551" lon="5.30626">
        <ele>224.8</ele>
        <time>2022-04-04T11:12:15Z</time>
      </trkpt>
      <trkpt lat="46.48554" lon="5.30607">
        <ele>225.8</ele>
        <time>2022-04-04T11:12:18Z</time>
      </trkpt>
      <trkpt lat="46.48556" lon="5.30584">
        <ele>226.8</ele>
        <time>2022-04-04T11:12:22Z</time>
      </trkpt>
      <trkpt lat="46.48556" lon="5.30577">
        <ele>226.8</ele>
        <time>2022-04-04T11:12:23Z</time>
      </trkpt>
      <trkpt lat="46.48562" lon="5.30544">
        <ele>228.2</ele>
        <time>2022-04-04T11:12:29Z</time>
      </trkpt>
      <trkpt lat="46.48563" lon="5.30509">
        <ele>228.8</ele>
        <time>2022-04-04T11:12:35Z</time>
      </trkpt>
      <trkpt lat="46.48557" lon="5.30499">
        <ele>228.8</ele>
        <time>2022-04-04T11:12:36Z</time>
      </trkpt>
      <trkpt lat="46.48552" lon="5.30498">
        <ele>229</ele>
        <time>2022-04-04T11:12:37Z</time>
      </trkpt>
      <trkpt lat="46.48547" lon="5.30499">
        <ele>229</ele>
        <time>2022-04-04T11:12:38Z</time>
      </trkpt>
      <trkpt lat="46.48536" lon="5.30506">
        <ele>229</ele>
        <time>2022-04-04T11:12:40Z</time>
      </trkpt>
      <trkpt lat="46.48521" lon="5.30516">
        <ele>229</ele>
        <time>2022-04-04T11:12:43Z</time>
      </trkpt>
      <trkpt lat="46.48511" lon="5.30524">
        <ele>229.2</ele>
        <time>2022-04-04T11:12:45Z</time>
      </trkpt>
      <trkpt lat="46.48504" lon="5.30529">
        <ele>229.2</ele>
        <time>2022-04-04T11:12:46Z</time>
      </trkpt>
      <trkpt lat="46.48467" lon="5.30564">
        <ele>229.6</ele>
        <time>2022-04-04T11:12:53Z</time>
      </trkpt>
      <trkpt lat="46.48424" lon="5.30602">
        <ele>229</ele>
        <time>2022-04-04T11:13:01Z</time>
      </trkpt>
      <trkpt lat="46.48377" lon="5.30647">
        <ele>228.6</ele>
        <time>2022-04-04T11:13:09Z</time>
      </trkpt>
      <trkpt lat="46.48371" lon="5.30653">
        <ele>228.6</ele>
        <time>2022-04-04T11:13:10Z</time>
      </trkpt>
      <trkpt lat="46.48327" lon="5.30691">
        <ele>228.2</ele>
        <time>2022-04-04T11:13:17Z</time>
      </trkpt>
      <trkpt lat="46.4832" lon="5.30695">
        <ele>228</ele>
        <time>2022-04-04T11:13:18Z</time>
      </trkpt>
      <trkpt lat="46.48311" lon="5.30698">
        <ele>227.8</ele>
        <time>2022-04-04T11:13:19Z</time>
      </trkpt>
      <trkpt lat="46.48298" lon="5.307">
        <ele>227.6</ele>
        <time>2022-04-04T11:13:21Z</time>
      </trkpt>
      <trkpt lat="46.48263" lon="5.30695">
        <ele>227.4</ele>
        <time>2022-04-04T11:13:26Z</time>
      </trkpt>
      <trkpt lat="46.48225" lon="5.30688">
        <ele>228.2</ele>
        <time>2022-04-04T11:13:32Z</time>
      </trkpt>
      <trkpt lat="46.48204" lon="5.30691">
        <ele>228.8</ele>
        <time>2022-04-04T11:13:36Z</time>
      </trkpt>
      <trkpt lat="46.48198" lon="5.30693">
        <ele>229</ele>
        <time>2022-04-04T11:13:37Z</time>
      </trkpt>
      <trkpt lat="46.48192" lon="5.30695">
        <ele>229.2</ele>
        <time>2022-04-04T11:13:38Z</time>
      </trkpt>
      <trkpt lat="46.48164" lon="5.30711">
        <ele>230.2</ele>
        <time>2022-04-04T11:13:44Z</time>
      </trkpt>
      <trkpt lat="46.48134" lon="5.30728">
        <ele>231.2</ele>
        <time>2022-04-04T11:13:50Z</time>
      </trkpt>
      <trkpt lat="46.48113" lon="5.30739">
        <ele>231.6</ele>
        <time>2022-04-04T11:13:54Z</time>
      </trkpt>
      <trkpt lat="46.48069" lon="5.30763">
        <ele>232.2</ele>
        <time>2022-04-04T11:14:03Z</time>
      </trkpt>
      <trkpt lat="46.48051" lon="5.30772">
        <ele>232.2</ele>
        <time>2022-04-04T11:14:06Z</time>
      </trkpt>
      <trkpt lat="46.48022" lon="5.30787">
        <ele>232.2</ele>
        <time>2022-04-04T11:14:11Z</time>
      </trkpt>
      <trkpt lat="46.47984" lon="5.30808">
        <ele>231.4</ele>
        <time>2022-04-04T11:14:17Z</time>
      </trkpt>
      <trkpt lat="46.47963" lon="5.30817">
        <ele>231.2</ele>
        <time>2022-04-04T11:14:20Z</time>
      </trkpt>
      <trkpt lat="46.47956" lon="5.30819">
        <ele>231.2</ele>
        <time>2022-04-04T11:14:21Z</time>
      </trkpt>
      <trkpt lat="46.47949" lon="5.3082">
        <ele>231</ele>
        <time>2022-04-04T11:14:22Z</time>
      </trkpt>
      <trkpt lat="46.4793" lon="5.30819">
        <ele>231</ele>
        <time>2022-04-04T11:14:25Z</time>
      </trkpt>
      <trkpt lat="46.47914" lon="5.30815">
        <ele>231</ele>
        <time>2022-04-04T11:14:28Z</time>
      </trkpt>
      <trkpt lat="46.47905" lon="5.30812">
        <ele>231</ele>
        <time>2022-04-04T11:14:30Z</time>
      </trkpt>
      <trkpt lat="46.47888" lon="5.30806">
        <ele>232.4</ele>
        <time>2022-04-04T11:14:34Z</time>
      </trkpt>
      <trkpt lat="46.47876" lon="5.30802">
        <ele>232.8</ele>
        <time>2022-04-04T11:14:37Z</time>
      </trkpt>
      <trkpt lat="46.47867" lon="5.308">
        <ele>233.4</ele>
        <time>2022-04-04T11:14:39Z</time>
      </trkpt>
      <trkpt lat="46.47852" lon="5.30801">
        <ele>234.6</ele>
        <time>2022-04-04T11:14:43Z</time>
      </trkpt>
      <trkpt lat="46.47848" lon="5.30802">
        <ele>235</ele>
        <time>2022-04-04T11:14:44Z</time>
      </trkpt>
      <trkpt lat="46.47837" lon="5.30807">
        <ele>235.8</ele>
        <time>2022-04-04T11:14:47Z</time>
      </trkpt>
      <trkpt lat="46.47827" lon="5.30814">
        <ele>236.8</ele>
        <time>2022-04-04T11:14:50Z</time>
      </trkpt>
      <trkpt lat="46.47823" lon="5.30818">
        <ele>237</ele>
        <time>2022-04-04T11:14:51Z</time>
      </trkpt>
      <trkpt lat="46.47814" lon="5.3083">
        <ele>237.8</ele>
        <time>2022-04-04T11:14:54Z</time>
      </trkpt>
      <trkpt lat="46.47802" lon="5.30851">
        <ele>238.6</ele>
        <time>2022-04-04T11:14:58Z</time>
      </trkpt>
      <trkpt lat="46.47793" lon="5.30866">
        <ele>238.8</ele>
        <time>2022-04-04T11:15:01Z</time>
      </trkpt>
      <trkpt lat="46.47779" lon="5.30886">
        <ele>239.2</ele>
        <time>2022-04-04T11:15:05Z</time>
      </trkpt>
      <trkpt lat="46.47768" lon="5.30897">
        <ele>239.2</ele>
        <time>2022-04-04T11:15:07Z</time>
      </trkpt>
      <trkpt lat="46.47758" lon="5.30903">
        <ele>239.2</ele>
        <time>2022-04-04T11:15:09Z</time>
      </trkpt>
      <trkpt lat="46.47745" lon="5.30909">
        <ele>239</ele>
        <time>2022-04-04T11:15:11Z</time>
      </trkpt>
      <trkpt lat="46.4773" lon="5.30911">
        <ele>238.6</ele>
        <time>2022-04-04T11:15:13Z</time>
      </trkpt>
      <trkpt lat="46.47722" lon="5.3091">
        <ele>238.4</ele>
        <time>2022-04-04T11:15:14Z</time>
      </trkpt>
      <trkpt lat="46.47705" lon="5.30904">
        <ele>237.8</ele>
        <time>2022-04-04T11:15:16Z</time>
      </trkpt>
      <trkpt lat="46.47696" lon="5.30901">
        <ele>237.4</ele>
        <time>2022-04-04T11:15:17Z</time>
      </trkpt>
      <trkpt lat="46.47678" lon="5.30895">
        <ele>236.4</ele>
        <time>2022-04-04T11:15:19Z</time>
      </trkpt>
      <trkpt lat="46.47659" lon="5.30891">
        <ele>235.8</ele>
        <time>2022-04-04T11:15:21Z</time>
      </trkpt>
      <trkpt lat="46.47651" lon="5.30892">
        <ele>235.4</ele>
        <time>2022-04-04T11:15:22Z</time>
      </trkpt>
      <trkpt lat="46.47644" lon="5.30894">
        <ele>235.2</ele>
        <time>2022-04-04T11:15:23Z</time>
      </trkpt>
      <trkpt lat="46.47609" lon="5.30908">
        <ele>234.2</ele>
        <time>2022-04-04T11:15:27Z</time>
      </trkpt>
      <trkpt lat="46.47573" lon="5.30924">
        <ele>232.8</ele>
        <time>2022-04-04T11:15:31Z</time>
      </trkpt>
      <trkpt lat="46.4754" lon="5.30941">
        <ele>231.8</ele>
        <time>2022-04-04T11:15:35Z</time>
      </trkpt>
      <trkpt lat="46.4753" lon="5.30947">
        <ele>231.4</ele>
        <time>2022-04-04T11:15:36Z</time>
      </trkpt>
      <trkpt lat="46.47499" lon="5.30968">
        <ele>230.4</ele>
        <time>2022-04-04T11:15:40Z</time>
      </trkpt>
      <trkpt lat="46.47458" lon="5.30995">
        <ele>230</ele>
        <time>2022-04-04T11:15:45Z</time>
      </trkpt>
      <trkpt lat="46.47444" lon="5.31004">
        <ele>229.8</ele>
        <time>2022-04-04T11:15:47Z</time>
      </trkpt>
      <trkpt lat="46.47403" lon="5.31031">
        <ele>230.2</ele>
        <time>2022-04-04T11:15:53Z</time>
      </trkpt>
      <trkpt lat="46.47366" lon="5.31057">
        <ele>231.4</ele>
        <time>2022-04-04T11:16:00Z</time>
      </trkpt>
      <trkpt lat="46.47361" lon="5.3106">
        <ele>231.8</ele>
        <time>2022-04-04T11:16:01Z</time>
      </trkpt>
      <trkpt lat="46.47351" lon="5.31068">
        <ele>232.2</ele>
        <time>2022-04-04T11:16:03Z</time>
      </trkpt>
      <trkpt lat="46.4734" lon="5.31079">
        <ele>232.8</ele>
        <time>2022-04-04T11:16:06Z</time>
      </trkpt>
      <trkpt lat="46.47325" lon="5.31094">
        <ele>233.6</ele>
        <time>2022-04-04T11:16:09Z</time>
      </trkpt>
      <trkpt lat="46.47322" lon="5.31098">
        <ele>233.8</ele>
        <time>2022-04-04T11:16:10Z</time>
      </trkpt>
      <trkpt lat="46.47319" lon="5.31102">
        <ele>233.8</ele>
        <time>2022-04-04T11:16:11Z</time>
      </trkpt>
      <trkpt lat="46.47303" lon="5.31125">
        <ele>235.2</ele>
        <time>2022-04-04T11:16:15Z</time>
      </trkpt>
      <trkpt lat="46.47295" lon="5.31139">
        <ele>235.6</ele>
        <time>2022-04-04T11:16:17Z</time>
      </trkpt>
      <trkpt lat="46.4729" lon="5.31147">
        <ele>235.6</ele>
        <time>2022-04-04T11:16:18Z</time>
      </trkpt>
      <trkpt lat="46.47268" lon="5.31182">
        <ele>236.2</ele>
        <time>2022-04-04T11:16:23Z</time>
      </trkpt>
      <trkpt lat="46.47234" lon="5.31225">
        <ele>236.4</ele>
        <time>2022-04-04T11:16:30Z</time>
      </trkpt>
      <trkpt lat="46.47221" lon="5.31244">
        <ele>236.8</ele>
        <time>2022-04-04T11:16:34Z</time>
      </trkpt>
      <trkpt lat="46.47218" lon="5.31249">
        <ele>237</ele>
        <time>2022-04-04T11:16:35Z</time>
      </trkpt>
      <trkpt lat="46.47195" lon="5.31285">
        <ele>237.6</ele>
        <time>2022-04-04T11:16:39Z</time>
      </trkpt>
      <trkpt lat="46.47173" lon="5.31311">
        <ele>237.8</ele>
        <time>2022-04-04T11:16:43Z</time>
      </trkpt>
      <trkpt lat="46.4717" lon="5.31316">
        <ele>237.8</ele>
        <time>2022-04-04T11:16:44Z</time>
      </trkpt>
      <trkpt lat="46.47157" lon="5.31339">
        <ele>237.8</ele>
        <time>2022-04-04T11:16:48Z</time>
      </trkpt>
      <trkpt lat="46.47149" lon="5.31349">
        <ele>238</ele>
        <time>2022-04-04T11:16:50Z</time>
      </trkpt>
      <trkpt lat="46.47145" lon="5.31354">
        <ele>238.2</ele>
        <time>2022-04-04T11:16:51Z</time>
      </trkpt>
      <trkpt lat="46.47129" lon="5.31375">
        <ele>238.4</ele>
        <time>2022-04-04T11:16:55Z</time>
      </trkpt>
      <trkpt lat="46.4712" lon="5.31389">
        <ele>238.4</ele>
        <time>2022-04-04T11:16:57Z</time>
      </trkpt>
      <trkpt lat="46.4709" lon="5.31427">
        <ele>238.6</ele>
        <time>2022-04-04T11:17:03Z</time>
      </trkpt>
      <trkpt lat="46.47077" lon="5.31443">
        <ele>238.6</ele>
        <time>2022-04-04T11:17:06Z</time>
      </trkpt>
      <trkpt lat="46.47065" lon="5.31462">
        <ele>238.6</ele>
        <time>2022-04-04T11:17:09Z</time>
      </trkpt>
      <trkpt lat="46.47032" lon="5.31502">
        <ele>238.6</ele>
        <time>2022-04-04T11:17:16Z</time>
      </trkpt>
      <trkpt lat="46.46989" lon="5.31558">
        <ele>239.2</ele>
        <time>2022-04-04T11:17:26Z</time>
      </trkpt>
      <trkpt lat="46.46984" lon="5.31564">
        <ele>239.4</ele>
        <time>2022-04-04T11:17:27Z</time>
      </trkpt>
      <trkpt lat="46.46975" lon="5.31574">
        <ele>239.6</ele>
        <time>2022-04-04T11:17:29Z</time>
      </trkpt>
      <trkpt lat="46.4695" lon="5.31603">
        <ele>240.2</ele>
        <time>2022-04-04T11:17:35Z</time>
      </trkpt>
      <trkpt lat="46.4693" lon="5.31625">
        <ele>240.8</ele>
        <time>2022-04-04T11:17:40Z</time>
      </trkpt>
      <trkpt lat="46.46926" lon="5.31631">
        <ele>240.8</ele>
        <time>2022-04-04T11:17:41Z</time>
      </trkpt>
      <trkpt lat="46.46903" lon="5.3166">
        <ele>240.8</ele>
        <time>2022-04-04T11:17:46Z</time>
      </trkpt>
      <trkpt lat="46.46863" lon="5.31713">
        <ele>240.2</ele>
        <time>2022-04-04T11:17:54Z</time>
      </trkpt>
      <trkpt lat="46.46836" lon="5.31746">
        <ele>239.8</ele>
        <time>2022-04-04T11:17:58Z</time>
      </trkpt>
      <trkpt lat="46.46796" lon="5.31795">
        <ele>239</ele>
        <time>2022-04-04T11:18:05Z</time>
      </trkpt>
      <trkpt lat="46.46784" lon="5.3181">
        <ele>238.8</ele>
        <time>2022-04-04T11:18:07Z</time>
      </trkpt>
      <trkpt lat="46.46741" lon="5.31861">
        <ele>238</ele>
        <time>2022-04-04T11:18:15Z</time>
      </trkpt>
      <trkpt lat="46.46729" lon="5.31873">
        <ele>238</ele>
        <time>2022-04-04T11:18:17Z</time>
      </trkpt>
      <trkpt lat="46.46679" lon="5.31912">
        <ele>238</ele>
        <time>2022-04-04T11:18:25Z</time>
      </trkpt>
      <trkpt lat="46.46647" lon="5.31941">
        <ele>238.4</ele>
        <time>2022-04-04T11:18:31Z</time>
      </trkpt>
      <trkpt lat="46.46626" lon="5.3197">
        <ele>239</ele>
        <time>2022-04-04T11:18:36Z</time>
      </trkpt>
      <trkpt lat="46.46622" lon="5.31977">
        <ele>239.2</ele>
        <time>2022-04-04T11:18:37Z</time>
      </trkpt>
      <trkpt lat="46.46586" lon="5.3204">
        <ele>239.6</ele>
        <time>2022-04-04T11:18:46Z</time>
      </trkpt>
      <trkpt lat="46.4655" lon="5.32105">
        <ele>239.4</ele>
        <time>2022-04-04T11:18:55Z</time>
      </trkpt>
      <trkpt lat="46.46542" lon="5.32119">
        <ele>239.4</ele>
        <time>2022-04-04T11:18:57Z</time>
      </trkpt>
      <trkpt lat="46.46508" lon="5.32182">
        <ele>239.4</ele>
        <time>2022-04-04T11:19:06Z</time>
      </trkpt>
      <trkpt lat="46.46504" lon="5.32189">
        <ele>239.4</ele>
        <time>2022-04-04T11:19:07Z</time>
      </trkpt>
      <trkpt lat="46.46471" lon="5.32251">
        <ele>239.8</ele>
        <time>2022-04-04T11:19:16Z</time>
      </trkpt>
      <trkpt lat="46.4646" lon="5.32272">
        <ele>240</ele>
        <time>2022-04-04T11:19:19Z</time>
      </trkpt>
      <trkpt lat="46.46431" lon="5.32323">
        <ele>240.4</ele>
        <time>2022-04-04T11:19:26Z</time>
      </trkpt>
      <trkpt lat="46.46396" lon="5.32388">
        <ele>240.8</ele>
        <time>2022-04-04T11:19:35Z</time>
      </trkpt>
      <trkpt lat="46.4639" lon="5.32401">
        <ele>240.8</ele>
        <time>2022-04-04T11:19:37Z</time>
      </trkpt>
      <trkpt lat="46.46368" lon="5.32457">
        <ele>240.8</ele>
        <time>2022-04-04T11:19:44Z</time>
      </trkpt>
      <trkpt lat="46.46338" lon="5.32532">
        <ele>240.6</ele>
        <time>2022-04-04T11:19:53Z</time>
      </trkpt>
      <trkpt lat="46.46324" lon="5.32587">
        <ele>240.6</ele>
        <time>2022-04-04T11:19:59Z</time>
      </trkpt>
      <trkpt lat="46.46318" lon="5.32647">
        <ele>240.4</ele>
        <time>2022-04-04T11:20:05Z</time>
      </trkpt>
      <trkpt lat="46.46319" lon="5.32728">
        <ele>240</ele>
        <time>2022-04-04T11:20:13Z</time>
      </trkpt>
      <trkpt lat="46.46314" lon="5.32775">
        <ele>240</ele>
        <time>2022-04-04T11:20:18Z</time>
      </trkpt>
      <trkpt lat="46.46312" lon="5.32784">
        <ele>240</ele>
        <time>2022-04-04T11:20:19Z</time>
      </trkpt>
      <trkpt lat="46.46305" lon="5.32801">
        <ele>240</ele>
        <time>2022-04-04T11:20:21Z</time>
      </trkpt>
      <trkpt lat="46.46302" lon="5.32807">
        <ele>240</ele>
        <time>2022-04-04T11:20:22Z</time>
      </trkpt>
      <trkpt lat="46.46297" lon="5.32813">
        <ele>240.2</ele>
        <time>2022-04-04T11:20:23Z</time>
      </trkpt>
      <trkpt lat="46.46279" lon="5.32839">
        <ele>240.4</ele>
        <time>2022-04-04T11:20:27Z</time>
      </trkpt>
      <trkpt lat="46.46243" lon="5.32891">
        <ele>241.4</ele>
        <time>2022-04-04T11:20:35Z</time>
      </trkpt>
      <trkpt lat="46.46238" lon="5.32898">
        <ele>241.4</ele>
        <time>2022-04-04T11:20:36Z</time>
      </trkpt>
      <trkpt lat="46.46199" lon="5.3295">
        <ele>240.8</ele>
        <time>2022-04-04T11:20:44Z</time>
      </trkpt>
      <trkpt lat="46.46167" lon="5.32975">
        <ele>240.6</ele>
        <time>2022-04-04T11:20:49Z</time>
      </trkpt>
      <trkpt lat="46.46138" lon="5.32992">
        <ele>240.6</ele>
        <time>2022-04-04T11:20:54Z</time>
      </trkpt>
      <trkpt lat="46.46119" lon="5.33003">
        <ele>241</ele>
        <time>2022-04-04T11:20:58Z</time>
      </trkpt>
      <trkpt lat="46.46114" lon="5.33006">
        <ele>241</ele>
        <time>2022-04-04T11:20:59Z</time>
      </trkpt>
      <trkpt lat="46.46084" lon="5.33024">
        <ele>241.6</ele>
        <time>2022-04-04T11:21:05Z</time>
      </trkpt>
      <trkpt lat="46.46059" lon="5.33044">
        <ele>242</ele>
        <time>2022-04-04T11:21:10Z</time>
      </trkpt>
      <trkpt lat="46.46049" lon="5.33053">
        <ele>242.2</ele>
        <time>2022-04-04T11:21:12Z</time>
      </trkpt>
      <trkpt lat="46.46007" lon="5.33095">
        <ele>242.8</ele>
        <time>2022-04-04T11:21:20Z</time>
      </trkpt>
      <trkpt lat="46.45962" lon="5.33144">
        <ele>242.6</ele>
        <time>2022-04-04T11:21:29Z</time>
      </trkpt>
      <trkpt lat="46.45926" lon="5.33182">
        <ele>243.4</ele>
        <time>2022-04-04T11:21:37Z</time>
      </trkpt>
      <trkpt lat="46.45922" lon="5.33187">
        <ele>243.4</ele>
        <time>2022-04-04T11:21:38Z</time>
      </trkpt>
      <trkpt lat="46.45876" lon="5.33238">
        <ele>243.8</ele>
        <time>2022-04-04T11:21:49Z</time>
      </trkpt>
      <trkpt lat="46.45868" lon="5.33248">
        <ele>243.8</ele>
        <time>2022-04-04T11:21:51Z</time>
      </trkpt>
      <trkpt lat="46.45836" lon="5.33302">
        <ele>243.8</ele>
        <time>2022-04-04T11:22:00Z</time>
      </trkpt>
      <trkpt lat="46.45802" lon="5.33368">
        <ele>244.4</ele>
        <time>2022-04-04T11:22:10Z</time>
      </trkpt>
      <trkpt lat="46.45799" lon="5.33374">
        <ele>244.4</ele>
        <time>2022-04-04T11:22:11Z</time>
      </trkpt>
      <trkpt lat="46.45771" lon="5.3343">
        <ele>245</ele>
        <time>2022-04-04T11:22:20Z</time>
      </trkpt>
      <trkpt lat="46.45754" lon="5.33473">
        <ele>245.4</ele>
        <time>2022-04-04T11:22:26Z</time>
      </trkpt>
      <trkpt lat="46.45747" lon="5.33487">
        <ele>245.6</ele>
        <time>2022-04-04T11:22:28Z</time>
      </trkpt>
      <trkpt lat="46.45738" lon="5.33507">
        <ele>245.6</ele>
        <time>2022-04-04T11:22:31Z</time>
      </trkpt>
      <trkpt lat="46.45724" lon="5.33533">
        <ele>245.8</ele>
        <time>2022-04-04T11:22:35Z</time>
      </trkpt>
      <trkpt lat="46.45709" lon="5.33572">
        <ele>246.4</ele>
        <time>2022-04-04T11:22:41Z</time>
      </trkpt>
      <trkpt lat="46.45706" lon="5.33578">
        <ele>246.6</ele>
        <time>2022-04-04T11:22:42Z</time>
      </trkpt>
      <trkpt lat="46.45702" lon="5.3359">
        <ele>247</ele>
        <time>2022-04-04T11:22:44Z</time>
      </trkpt>
      <trkpt lat="46.45695" lon="5.3361">
        <ele>247.4</ele>
        <time>2022-04-04T11:22:47Z</time>
      </trkpt>
      <trkpt lat="46.45692" lon="5.33616">
        <ele>247.6</ele>
        <time>2022-04-04T11:22:48Z</time>
      </trkpt>
      <trkpt lat="46.45681" lon="5.33645">
        <ele>248.2</ele>
        <time>2022-04-04T11:22:52Z</time>
      </trkpt>
      <trkpt lat="46.45665" lon="5.33679">
        <ele>248.4</ele>
        <time>2022-04-04T11:22:57Z</time>
      </trkpt>
      <trkpt lat="46.45662" lon="5.33686">
        <ele>248.6</ele>
        <time>2022-04-04T11:22:58Z</time>
      </trkpt>
      <trkpt lat="46.45659" lon="5.33692">
        <ele>248.8</ele>
        <time>2022-04-04T11:22:59Z</time>
      </trkpt>
      <trkpt lat="46.45654" lon="5.33705">
        <ele>249</ele>
        <time>2022-04-04T11:23:01Z</time>
      </trkpt>
      <trkpt lat="46.45641" lon="5.33739">
        <ele>249.8</ele>
        <time>2022-04-04T11:23:06Z</time>
      </trkpt>
      <trkpt lat="46.45622" lon="5.33784">
        <ele>250.6</ele>
        <time>2022-04-04T11:23:13Z</time>
      </trkpt>
      <trkpt lat="46.45619" lon="5.3379">
        <ele>250.8</ele>
        <time>2022-04-04T11:23:14Z</time>
      </trkpt>
      <trkpt lat="46.45605" lon="5.33821">
        <ele>251.4</ele>
        <time>2022-04-04T11:23:19Z</time>
      </trkpt>
      <trkpt lat="46.45602" lon="5.33828">
        <ele>251.6</ele>
        <time>2022-04-04T11:23:20Z</time>
      </trkpt>
      <trkpt lat="46.45599" lon="5.33834">
        <ele>251.8</ele>
        <time>2022-04-04T11:23:21Z</time>
      </trkpt>
      <trkpt lat="46.45588" lon="5.3386">
        <ele>252.6</ele>
        <time>2022-04-04T11:23:25Z</time>
      </trkpt>
      <trkpt lat="46.45582" lon="5.33878">
        <ele>253</ele>
        <time>2022-04-04T11:23:28Z</time>
      </trkpt>
      <trkpt lat="46.4558" lon="5.33884">
        <ele>253</ele>
        <time>2022-04-04T11:23:29Z</time>
      </trkpt>
      <trkpt lat="46.45575" lon="5.33897">
        <ele>253.4</ele>
        <time>2022-04-04T11:23:31Z</time>
      </trkpt>
      <trkpt lat="46.45572" lon="5.33901">
        <ele>253.6</ele>
        <time>2022-04-04T11:23:32Z</time>
      </trkpt>
      <trkpt lat="46.45566" lon="5.33914">
        <ele>253.8</ele>
        <time>2022-04-04T11:23:34Z</time>
      </trkpt>
      <trkpt lat="46.45564" lon="5.3392">
        <ele>254</ele>
        <time>2022-04-04T11:23:35Z</time>
      </trkpt>
      <trkpt lat="46.45562" lon="5.33926">
        <ele>254.2</ele>
        <time>2022-04-04T11:23:36Z</time>
      </trkpt>
      <trkpt lat="46.45554" lon="5.3394">
        <ele>255.2</ele>
        <time>2022-04-04T11:23:39Z</time>
      </trkpt>
      <trkpt lat="46.45548" lon="5.33951">
        <ele>255.4</ele>
        <time>2022-04-04T11:23:41Z</time>
      </trkpt>
      <trkpt lat="46.45546" lon="5.33954">
        <ele>255.8</ele>
        <time>2022-04-04T11:23:42Z</time>
      </trkpt>
      <trkpt lat="46.45539" lon="5.33966">
        <ele>256.2</ele>
        <time>2022-04-04T11:23:44Z</time>
      </trkpt>
      <trkpt lat="46.45532" lon="5.33976">
        <ele>256.4</ele>
        <time>2022-04-04T11:23:46Z</time>
      </trkpt>
      <trkpt lat="46.45521" lon="5.33987">
        <ele>257</ele>
        <time>2022-04-04T11:23:49Z</time>
      </trkpt>
      <trkpt lat="46.45517" lon="5.33991">
        <ele>257.2</ele>
        <time>2022-04-04T11:23:50Z</time>
      </trkpt>
      <trkpt lat="46.455" lon="5.34009">
        <ele>258.4</ele>
        <time>2022-04-04T11:23:55Z</time>
      </trkpt>
      <trkpt lat="46.45481" lon="5.34024">
        <ele>259</ele>
        <time>2022-04-04T11:24:00Z</time>
      </trkpt>
      <trkpt lat="46.45476" lon="5.34026">
        <ele>259.6</ele>
        <time>2022-04-04T11:24:02Z</time>
      </trkpt>
      <trkpt lat="46.45463" lon="5.34033">
        <ele>260.6</ele>
        <time>2022-04-04T11:24:06Z</time>
      </trkpt>
      <trkpt lat="46.4546" lon="5.34033">
        <ele>260.8</ele>
        <time>2022-04-04T11:24:07Z</time>
      </trkpt>
      <trkpt lat="46.4544" lon="5.3404">
        <ele>261.8</ele>
        <time>2022-04-04T11:24:12Z</time>
      </trkpt>
      <trkpt lat="46.45435" lon="5.34042">
        <ele>262</ele>
        <time>2022-04-04T11:24:13Z</time>
      </trkpt>
      <trkpt lat="46.45401" lon="5.3405">
        <ele>262.8</ele>
        <time>2022-04-04T11:24:18Z</time>
      </trkpt>
      <trkpt lat="46.45391" lon="5.34052">
        <ele>263.2</ele>
        <time>2022-04-04T11:24:20Z</time>
      </trkpt>
      <trkpt lat="46.45368" lon="5.34057">
        <ele>264</ele>
        <time>2022-04-04T11:24:25Z</time>
      </trkpt>
      <trkpt lat="46.45359" lon="5.34058">
        <ele>264.4</ele>
        <time>2022-04-04T11:24:27Z</time>
      </trkpt>
      <trkpt lat="46.45342" lon="5.34063">
        <ele>264.8</ele>
        <time>2022-04-04T11:24:31Z</time>
      </trkpt>
      <trkpt lat="46.45312" lon="5.34068">
        <ele>265.4</ele>
        <time>2022-04-04T11:24:38Z</time>
      </trkpt>
      <trkpt lat="46.45272" lon="5.34076">
        <ele>266.2</ele>
        <time>2022-04-04T11:24:46Z</time>
      </trkpt>
      <trkpt lat="46.45251" lon="5.34081">
        <ele>266.4</ele>
        <time>2022-04-04T11:24:50Z</time>
      </trkpt>
      <trkpt lat="46.4523" lon="5.34086">
        <ele>266.8</ele>
        <time>2022-04-04T11:24:54Z</time>
      </trkpt>
      <trkpt lat="46.45195" lon="5.34094">
        <ele>267.4</ele>
        <time>2022-04-04T11:25:01Z</time>
      </trkpt>
      <trkpt lat="46.45185" lon="5.34096">
        <ele>267.8</ele>
        <time>2022-04-04T11:25:03Z</time>
      </trkpt>
      <trkpt lat="46.45166" lon="5.341">
        <ele>268.6</ele>
        <time>2022-04-04T11:25:07Z</time>
      </trkpt>
      <trkpt lat="46.45144" lon="5.34104">
        <ele>269</ele>
        <time>2022-04-04T11:25:12Z</time>
      </trkpt>
      <trkpt lat="46.45098" lon="5.34114">
        <ele>269.4</ele>
        <time>2022-04-04T11:25:21Z</time>
      </trkpt>
      <trkpt lat="46.45051" lon="5.34121">
        <ele>268.6</ele>
        <time>2022-04-04T11:25:29Z</time>
      </trkpt>
      <trkpt lat="46.45017" lon="5.34121">
        <ele>267.8</ele>
        <time>2022-04-04T11:25:34Z</time>
      </trkpt>
      <trkpt lat="46.45003" lon="5.34119">
        <ele>267.4</ele>
        <time>2022-04-04T11:25:36Z</time>
      </trkpt>
      <trkpt lat="46.44972" lon="5.34112">
        <ele>266.4</ele>
        <time>2022-04-04T11:25:40Z</time>
      </trkpt>
      <trkpt lat="46.44934" lon="5.34101">
        <ele>265.2</ele>
        <time>2022-04-04T11:25:45Z</time>
      </trkpt>
      <trkpt lat="46.44903" lon="5.34092">
        <ele>264</ele>
        <time>2022-04-04T11:25:49Z</time>
      </trkpt>
      <trkpt lat="46.44887" lon="5.34088">
        <ele>263.4</ele>
        <time>2022-04-04T11:25:51Z</time>
      </trkpt>
      <trkpt lat="46.44879" lon="5.34088">
        <ele>263</ele>
        <time>2022-04-04T11:25:52Z</time>
      </trkpt>
      <trkpt lat="46.44871" lon="5.34089">
        <ele>262.6</ele>
        <time>2022-04-04T11:25:53Z</time>
      </trkpt>
      <trkpt lat="46.44863" lon="5.34091">
        <ele>262.6</ele>
        <time>2022-04-04T11:25:54Z</time>
      </trkpt>
      <trkpt lat="46.44847" lon="5.34097">
        <ele>262</ele>
        <time>2022-04-04T11:25:56Z</time>
      </trkpt>
      <trkpt lat="46.44839" lon="5.34102">
        <ele>261.6</ele>
        <time>2022-04-04T11:25:57Z</time>
      </trkpt>
      <trkpt lat="46.44833" lon="5.34108">
        <ele>261.4</ele>
        <time>2022-04-04T11:25:58Z</time>
      </trkpt>
      <trkpt lat="46.44815" lon="5.3413">
        <ele>260.2</ele>
        <time>2022-04-04T11:26:01Z</time>
      </trkpt>
      <trkpt lat="46.44808" lon="5.34135">
        <ele>259.6</ele>
        <time>2022-04-04T11:26:02Z</time>
      </trkpt>
      <trkpt lat="46.44801" lon="5.34135">
        <ele>259.4</ele>
        <time>2022-04-04T11:26:03Z</time>
      </trkpt>
      <trkpt lat="46.44795" lon="5.3413">
        <ele>259.2</ele>
        <time>2022-04-04T11:26:04Z</time>
      </trkpt>
      <trkpt lat="46.44793" lon="5.34124">
        <ele>259</ele>
        <time>2022-04-04T11:26:05Z</time>
      </trkpt>
      <trkpt lat="46.44792" lon="5.34116">
        <ele>258.6</ele>
        <time>2022-04-04T11:26:06Z</time>
      </trkpt>
      <trkpt lat="46.44786" lon="5.34063">
        <ele>258.2</ele>
        <time>2022-04-04T11:26:13Z</time>
      </trkpt>
      <trkpt lat="46.44779" lon="5.34011">
        <ele>260.4</ele>
        <time>2022-04-04T11:26:21Z</time>
      </trkpt>
      <trkpt lat="46.44776" lon="5.33983">
        <ele>261.8</ele>
        <time>2022-04-04T11:26:26Z</time>
      </trkpt>
      <trkpt lat="46.44775" lon="5.3397">
        <ele>262.6</ele>
        <time>2022-04-04T11:26:28Z</time>
      </trkpt>
      <trkpt lat="46.44775" lon="5.33964">
        <ele>263</ele>
        <time>2022-04-04T11:26:29Z</time>
      </trkpt>
      <trkpt lat="46.44772" lon="5.33927">
        <ele>264</ele>
        <time>2022-04-04T11:26:35Z</time>
      </trkpt>
      <trkpt lat="46.4477" lon="5.33904">
        <ele>264.6</ele>
        <time>2022-04-04T11:26:38Z</time>
      </trkpt>
      <trkpt lat="46.44765" lon="5.33891">
        <ele>264.6</ele>
        <time>2022-04-04T11:26:40Z</time>
      </trkpt>
      <trkpt lat="46.44753" lon="5.33883">
        <ele>264.8</ele>
        <time>2022-04-04T11:26:42Z</time>
      </trkpt>
      <trkpt lat="46.4474" lon="5.33877">
        <ele>264.6</ele>
        <time>2022-04-04T11:26:44Z</time>
      </trkpt>
      <trkpt lat="46.44683" lon="5.33852">
        <ele>262.8</ele>
        <time>2022-04-04T11:26:53Z</time>
      </trkpt>
      <trkpt lat="46.44678" lon="5.33848">
        <ele>262.6</ele>
        <time>2022-04-04T11:26:54Z</time>
      </trkpt>
      <trkpt lat="46.44667" lon="5.33837">
        <ele>262.4</ele>
        <time>2022-04-04T11:26:56Z</time>
      </trkpt>
      <trkpt lat="46.44663" lon="5.33831">
        <ele>262.6</ele>
        <time>2022-04-04T11:26:57Z</time>
      </trkpt>
      <trkpt lat="46.44658" lon="5.33824">
        <ele>262.4</ele>
        <time>2022-04-04T11:26:58Z</time>
      </trkpt>
      <trkpt lat="46.44648" lon="5.33797">
        <ele>262</ele>
        <time>2022-04-04T11:27:01Z</time>
      </trkpt>
      <trkpt lat="46.44641" lon="5.33779">
        <ele>262</ele>
        <time>2022-04-04T11:27:03Z</time>
      </trkpt>
      <trkpt lat="46.44626" lon="5.33738">
        <ele>261</ele>
        <time>2022-04-04T11:27:07Z</time>
      </trkpt>
      <trkpt lat="46.44622" lon="5.33727">
        <ele>260.6</ele>
        <time>2022-04-04T11:27:08Z</time>
      </trkpt>
      <trkpt lat="46.44608" lon="5.33692">
        <ele>259.4</ele>
        <time>2022-04-04T11:27:11Z</time>
      </trkpt>
      <trkpt lat="46.44599" lon="5.33668">
        <ele>258.4</ele>
        <time>2022-04-04T11:27:13Z</time>
      </trkpt>
      <trkpt lat="46.44594" lon="5.33655">
        <ele>258</ele>
        <time>2022-04-04T11:27:14Z</time>
      </trkpt>
      <trkpt lat="46.44579" lon="5.33615">
        <ele>256.2</ele>
        <time>2022-04-04T11:27:17Z</time>
      </trkpt>
      <trkpt lat="46.4457" lon="5.33589">
        <ele>255.2</ele>
        <time>2022-04-04T11:27:19Z</time>
      </trkpt>
      <trkpt lat="46.44565" lon="5.33577">
        <ele>254.6</ele>
        <time>2022-04-04T11:27:20Z</time>
      </trkpt>
      <trkpt lat="46.44556" lon="5.33553">
        <ele>253.8</ele>
        <time>2022-04-04T11:27:22Z</time>
      </trkpt>
      <trkpt lat="46.44544" lon="5.3352">
        <ele>253.2</ele>
        <time>2022-04-04T11:27:25Z</time>
      </trkpt>
      <trkpt lat="46.44527" lon="5.33476">
        <ele>252.6</ele>
        <time>2022-04-04T11:27:29Z</time>
      </trkpt>
      <trkpt lat="46.44517" lon="5.33448">
        <ele>252.2</ele>
        <time>2022-04-04T11:27:32Z</time>
      </trkpt>
      <trkpt lat="46.44486" lon="5.33373">
        <ele>251.8</ele>
        <time>2022-04-04T11:27:40Z</time>
      </trkpt>
      <trkpt lat="46.44482" lon="5.33364">
        <ele>251.8</ele>
        <time>2022-04-04T11:27:41Z</time>
      </trkpt>
      <trkpt lat="46.44456" lon="5.3333">
        <ele>251.8</ele>
        <time>2022-04-04T11:27:46Z</time>
      </trkpt>
      <trkpt lat="46.44444" lon="5.33318">
        <ele>251.6</ele>
        <time>2022-04-04T11:27:48Z</time>
      </trkpt>
      <trkpt lat="46.44398" lon="5.33269">
        <ele>254</ele>
        <time>2022-04-04T11:27:56Z</time>
      </trkpt>
      <trkpt lat="46.44361" lon="5.33228">
        <ele>250.4</ele>
        <time>2022-04-04T11:28:02Z</time>
      </trkpt>
      <trkpt lat="46.44341" lon="5.33207">
        <ele>250.2</ele>
        <time>2022-04-04T11:28:05Z</time>
      </trkpt>
      <trkpt lat="46.44334" lon="5.332">
        <ele>250</ele>
        <time>2022-04-04T11:28:06Z</time>
      </trkpt>
      <trkpt lat="46.44317" lon="5.3319">
        <ele>249.4</ele>
        <time>2022-04-04T11:28:08Z</time>
      </trkpt>
      <trkpt lat="46.44309" lon="5.33186">
        <ele>249.2</ele>
        <time>2022-04-04T11:28:09Z</time>
      </trkpt>
      <trkpt lat="46.44291" lon="5.33182">
        <ele>248.4</ele>
        <time>2022-04-04T11:28:11Z</time>
      </trkpt>
      <trkpt lat="46.44291" lon="5.33182">
        <ele>248.2</ele>
        <time>2022-04-04T11:28:12Z</time>
      </trkpt>
      <trkpt lat="46.44275" lon="5.33182">
        <ele>247.8</ele>
        <time>2022-04-04T11:28:13Z</time>
      </trkpt>
      <trkpt lat="46.44249" lon="5.33185">
        <ele>247</ele>
        <time>2022-04-04T11:28:17Z</time>
      </trkpt>
      <trkpt lat="46.44225" lon="5.33188">
        <ele>246.8</ele>
        <time>2022-04-04T11:28:19Z</time>
      </trkpt>
      <trkpt lat="46.4421" lon="5.33194">
        <ele>246.6</ele>
        <time>2022-04-04T11:28:21Z</time>
      </trkpt>
      <trkpt lat="46.44197" lon="5.33203">
        <ele>246.6</ele>
        <time>2022-04-04T11:28:23Z</time>
      </trkpt>
      <trkpt lat="46.44169" lon="5.33226">
        <ele>246.6</ele>
        <time>2022-04-04T11:28:28Z</time>
      </trkpt>
      <trkpt lat="46.44159" lon="5.33234">
        <ele>246.8</ele>
        <time>2022-04-04T11:28:30Z</time>
      </trkpt>
      <trkpt lat="46.44149" lon="5.33237">
        <ele>247.4</ele>
        <time>2022-04-04T11:28:32Z</time>
      </trkpt>
      <trkpt lat="46.44141" lon="5.33233">
        <ele>247.6</ele>
        <time>2022-04-04T11:28:34Z</time>
      </trkpt>
      <trkpt lat="46.44137" lon="5.33228">
        <ele>247.8</ele>
        <time>2022-04-04T11:28:35Z</time>
      </trkpt>
      <trkpt lat="46.44134" lon="5.33221">
        <ele>247.8</ele>
        <time>2022-04-04T11:28:36Z</time>
      </trkpt>
      <trkpt lat="46.44128" lon="5.33205">
        <ele>247.8</ele>
        <time>2022-04-04T11:28:38Z</time>
      </trkpt>
      <trkpt lat="46.44124" lon="5.33198">
        <ele>247.6</ele>
        <time>2022-04-04T11:28:39Z</time>
      </trkpt>
      <trkpt lat="46.44118" lon="5.33193">
        <ele>247.6</ele>
        <time>2022-04-04T11:28:40Z</time>
      </trkpt>
      <trkpt lat="46.44105" lon="5.33193">
        <ele>247.6</ele>
        <time>2022-04-04T11:28:42Z</time>
      </trkpt>
      <trkpt lat="46.44077" lon="5.3321">
        <ele>247.8</ele>
        <time>2022-04-04T11:28:47Z</time>
      </trkpt>
      <trkpt lat="46.44066" lon="5.33217">
        <ele>248.4</ele>
        <time>2022-04-04T11:28:49Z</time>
      </trkpt>
      <trkpt lat="46.44026" lon="5.33246">
        <ele>249</ele>
        <time>2022-04-04T11:28:56Z</time>
      </trkpt>
      <trkpt lat="46.44019" lon="5.3325">
        <ele>249</ele>
        <time>2022-04-04T11:28:57Z</time>
      </trkpt>
      <trkpt lat="46.43996" lon="5.33256">
        <ele>248.6</ele>
        <time>2022-04-04T11:29:00Z</time>
      </trkpt>
      <trkpt lat="46.43957" lon="5.33255">
        <ele>247.8</ele>
        <time>2022-04-04T11:29:05Z</time>
      </trkpt>
      <trkpt lat="46.43906" lon="5.33245">
        <ele>247.4</ele>
        <time>2022-04-04T11:29:12Z</time>
      </trkpt>
      <trkpt lat="46.4385" lon="5.33243">
        <ele>247.6</ele>
        <time>2022-04-04T11:29:20Z</time>
      </trkpt>
      <trkpt lat="46.43798" lon="5.33245">
        <ele>248.2</ele>
        <time>2022-04-04T11:29:28Z</time>
      </trkpt>
      <trkpt lat="46.43779" lon="5.33246">
        <ele>248.6</ele>
        <time>2022-04-04T11:29:31Z</time>
      </trkpt>
      <trkpt lat="46.4376" lon="5.33248">
        <ele>249</ele>
        <time>2022-04-04T11:29:34Z</time>
      </trkpt>
      <trkpt lat="46.43747" lon="5.33253">
        <ele>249</ele>
        <time>2022-04-04T11:29:36Z</time>
      </trkpt>
      <trkpt lat="46.43715" lon="5.33281">
        <ele>248.6</ele>
        <time>2022-04-04T11:29:41Z</time>
      </trkpt>
      <trkpt lat="46.43687" lon="5.33307">
        <ele>247.6</ele>
        <time>2022-04-04T11:29:45Z</time>
      </trkpt>
      <trkpt lat="46.4367" lon="5.33318">
        <ele>247</ele>
        <time>2022-04-04T11:29:47Z</time>
      </trkpt>
      <trkpt lat="46.43652" lon="5.33327">
        <ele>246.2</ele>
        <time>2022-04-04T11:29:49Z</time>
      </trkpt>
      <trkpt lat="46.43643" lon="5.33331">
        <ele>245.6</ele>
        <time>2022-04-04T11:29:50Z</time>
      </trkpt>
      <trkpt lat="46.43624" lon="5.33335">
        <ele>244.2</ele>
        <time>2022-04-04T11:29:52Z</time>
      </trkpt>
      <trkpt lat="46.43615" lon="5.33333">
        <ele>243.6</ele>
        <time>2022-04-04T11:29:53Z</time>
      </trkpt>
      <trkpt lat="46.43608" lon="5.33329">
        <ele>242.6</ele>
        <time>2022-04-04T11:29:54Z</time>
      </trkpt>
      <trkpt lat="46.43596" lon="5.33322">
        <ele>241.8</ele>
        <time>2022-04-04T11:29:56Z</time>
      </trkpt>
      <trkpt lat="46.43592" lon="5.33323">
        <ele>241.4</ele>
        <time>2022-04-04T11:29:57Z</time>
      </trkpt>
      <trkpt lat="46.43587" lon="5.33326">
        <ele>241.2</ele>
        <time>2022-04-04T11:29:58Z</time>
      </trkpt>
      <trkpt lat="46.4358" lon="5.33344">
        <ele>240.4</ele>
        <time>2022-04-04T11:30:00Z</time>
      </trkpt>
      <trkpt lat="46.43577" lon="5.33355">
        <ele>240.2</ele>
        <time>2022-04-04T11:30:01Z</time>
      </trkpt>
      <trkpt lat="46.43572" lon="5.33365">
        <ele>240</ele>
        <time>2022-04-04T11:30:02Z</time>
      </trkpt>
      <trkpt lat="46.43565" lon="5.33374">
        <ele>239.8</ele>
        <time>2022-04-04T11:30:03Z</time>
      </trkpt>
      <trkpt lat="46.43556" lon="5.3338">
        <ele>239.6</ele>
        <time>2022-04-04T11:30:04Z</time>
      </trkpt>
      <trkpt lat="46.43536" lon="5.33384">
        <ele>238.6</ele>
        <time>2022-04-04T11:30:06Z</time>
      </trkpt>
      <trkpt lat="46.43521" lon="5.33379">
        <ele>237.6</ele>
        <time>2022-04-04T11:30:08Z</time>
      </trkpt>
      <trkpt lat="46.43513" lon="5.33376">
        <ele>237.4</ele>
        <time>2022-04-04T11:30:09Z</time>
      </trkpt>
      <trkpt lat="46.43487" lon="5.33361">
        <ele>236.8</ele>
        <time>2022-04-04T11:30:13Z</time>
      </trkpt>
      <trkpt lat="46.43456" lon="5.33337">
        <ele>237.8</ele>
        <time>2022-04-04T11:30:19Z</time>
      </trkpt>
      <trkpt lat="46.43441" lon="5.3332">
        <ele>238.8</ele>
        <time>2022-04-04T11:30:23Z</time>
      </trkpt>
      <trkpt lat="46.43434" lon="5.3331">
        <ele>239.8</ele>
        <time>2022-04-04T11:30:25Z</time>
      </trkpt>
      <trkpt lat="46.43428" lon="5.33303">
        <ele>241</ele>
        <time>2022-04-04T11:30:27Z</time>
      </trkpt>
      <trkpt lat="46.43425" lon="5.33299">
        <ele>241.2</ele>
        <time>2022-04-04T11:30:28Z</time>
      </trkpt>
      <trkpt lat="46.4342" lon="5.33287">
        <ele>242</ele>
        <time>2022-04-04T11:30:30Z</time>
      </trkpt>
      <trkpt lat="46.43419" lon="5.33283">
        <ele>242.4</ele>
        <time>2022-04-04T11:30:31Z</time>
      </trkpt>
      <trkpt lat="46.43416" lon="5.33274">
        <ele>243</ele>
        <time>2022-04-04T11:30:33Z</time>
      </trkpt>
      <trkpt lat="46.43413" lon="5.33259">
        <ele>244.4</ele>
        <time>2022-04-04T11:30:36Z</time>
      </trkpt>
      <trkpt lat="46.43405" lon="5.33239">
        <ele>245.6</ele>
        <time>2022-04-04T11:30:40Z</time>
      </trkpt>
      <trkpt lat="46.43389" lon="5.33226">
        <ele>246.6</ele>
        <time>2022-04-04T11:30:44Z</time>
      </trkpt>
      <trkpt lat="46.43384" lon="5.33224">
        <ele>246.8</ele>
        <time>2022-04-04T11:30:45Z</time>
      </trkpt>
      <trkpt lat="46.4335" lon="5.33213">
        <ele>248</ele>
        <time>2022-04-04T11:30:52Z</time>
      </trkpt>
      <trkpt lat="46.43337" lon="5.33211">
        <ele>248</ele>
        <time>2022-04-04T11:30:54Z</time>
      </trkpt>
      <trkpt lat="46.43293" lon="5.332">
        <ele>248.6</ele>
        <time>2022-04-04T11:31:02Z</time>
      </trkpt>
      <trkpt lat="46.43235" lon="5.33186">
        <ele>248.8</ele>
        <time>2022-04-04T11:31:12Z</time>
      </trkpt>
      <trkpt lat="46.43178" lon="5.33172">
        <ele>248.6</ele>
        <time>2022-04-04T11:31:21Z</time>
      </trkpt>
      <trkpt lat="46.43172" lon="5.33169">
        <ele>248.6</ele>
        <time>2022-04-04T11:31:22Z</time>
      </trkpt>
      <trkpt lat="46.4313" lon="5.33149">
        <ele>248.2</ele>
        <time>2022-04-04T11:31:29Z</time>
      </trkpt>
      <trkpt lat="46.43123" lon="5.33145">
        <ele>248.2</ele>
        <time>2022-04-04T11:31:30Z</time>
      </trkpt>
      <trkpt lat="46.43107" lon="5.33128">
        <ele>248</ele>
        <time>2022-04-04T11:31:33Z</time>
      </trkpt>
      <trkpt lat="46.43073" lon="5.33073">
        <ele>247</ele>
        <time>2022-04-04T11:31:40Z</time>
      </trkpt>
      <trkpt lat="46.43063" lon="5.33055">
        <ele>246.8</ele>
        <time>2022-04-04T11:31:42Z</time>
      </trkpt>
      <trkpt lat="46.43054" lon="5.33034">
        <ele>246.4</ele>
        <time>2022-04-04T11:31:44Z</time>
      </trkpt>
      <trkpt lat="46.43047" lon="5.33013">
        <ele>246.2</ele>
        <time>2022-04-04T11:31:46Z</time>
      </trkpt>
      <trkpt lat="46.4304" lon="5.3298">
        <ele>245.4</ele>
        <time>2022-04-04T11:31:49Z</time>
      </trkpt>
      <trkpt lat="46.43027" lon="5.32939">
        <ele>244.6</ele>
        <time>2022-04-04T11:31:53Z</time>
      </trkpt>
      <trkpt lat="46.43023" lon="5.32929">
        <ele>244.4</ele>
        <time>2022-04-04T11:31:54Z</time>
      </trkpt>
      <trkpt lat="46.43001" lon="5.32878">
        <ele>243.2</ele>
        <time>2022-04-04T11:31:59Z</time>
      </trkpt>
      <trkpt lat="46.42993" lon="5.3286">
        <ele>242.8</ele>
        <time>2022-04-04T11:32:01Z</time>
      </trkpt>
      <trkpt lat="46.42977" lon="5.32819">
        <ele>242</ele>
        <time>2022-04-04T11:32:05Z</time>
      </trkpt>
      <trkpt lat="46.42958" lon="5.32772">
        <ele>241</ele>
        <time>2022-04-04T11:32:10Z</time>
      </trkpt>
      <trkpt lat="46.42954" lon="5.32762">
        <ele>240.8</ele>
        <time>2022-04-04T11:32:11Z</time>
      </trkpt>
      <trkpt lat="46.42933" lon="5.32712">
        <ele>240</ele>
        <time>2022-04-04T11:32:16Z</time>
      </trkpt>
      <trkpt lat="46.42922" lon="5.32678">
        <ele>239.2</ele>
        <time>2022-04-04T11:32:19Z</time>
      </trkpt>
      <trkpt lat="46.42914" lon="5.32654">
        <ele>238.6</ele>
        <time>2022-04-04T11:32:21Z</time>
      </trkpt>
      <trkpt lat="46.42904" lon="5.32617">
        <ele>237</ele>
        <time>2022-04-04T11:32:24Z</time>
      </trkpt>
      <trkpt lat="46.429" lon="5.32604">
        <ele>236.8</ele>
        <time>2022-04-04T11:32:25Z</time>
      </trkpt>
      <trkpt lat="46.42889" lon="5.32561">
        <ele>235.2</ele>
        <time>2022-04-04T11:32:28Z</time>
      </trkpt>
      <trkpt lat="46.42876" lon="5.32519">
        <ele>233.4</ele>
        <time>2022-04-04T11:32:31Z</time>
      </trkpt>
      <trkpt lat="46.42862" lon="5.3248">
        <ele>232</ele>
        <time>2022-04-04T11:32:34Z</time>
      </trkpt>
      <trkpt lat="46.42856" lon="5.32467">
        <ele>231.2</ele>
        <time>2022-04-04T11:32:35Z</time>
      </trkpt>
      <trkpt lat="46.42848" lon="5.32453">
        <ele>231</ele>
        <time>2022-04-04T11:32:36Z</time>
      </trkpt>
      <trkpt lat="46.42835" lon="5.32429">
        <ele>229.4</ele>
        <time>2022-04-04T11:32:38Z</time>
      </trkpt>
      <trkpt lat="46.42822" lon="5.32408">
        <ele>228.4</ele>
        <time>2022-04-04T11:32:40Z</time>
      </trkpt>
      <trkpt lat="46.42816" lon="5.32397">
        <ele>228</ele>
        <time>2022-04-04T11:32:41Z</time>
      </trkpt>
      <trkpt lat="46.42808" lon="5.32382">
        <ele>227.4</ele>
        <time>2022-04-04T11:32:42Z</time>
      </trkpt>
      <trkpt lat="46.42805" lon="5.32371">
        <ele>227.2</ele>
        <time>2022-04-04T11:32:43Z</time>
      </trkpt>
      <trkpt lat="46.42801" lon="5.32358">
        <ele>226.6</ele>
        <time>2022-04-04T11:32:44Z</time>
      </trkpt>
      <trkpt lat="46.42797" lon="5.32342">
        <ele>226</ele>
        <time>2022-04-04T11:32:45Z</time>
      </trkpt>
      <trkpt lat="46.42791" lon="5.32318">
        <ele>225</ele>
        <time>2022-04-04T11:32:47Z</time>
      </trkpt>
      <trkpt lat="46.42786" lon="5.32294">
        <ele>224.4</ele>
        <time>2022-04-04T11:32:49Z</time>
      </trkpt>
      <trkpt lat="46.42773" lon="5.32238">
        <ele>224</ele>
        <time>2022-04-04T11:32:54Z</time>
      </trkpt>
      <trkpt lat="46.4277" lon="5.32227">
        <ele>224</ele>
        <time>2022-04-04T11:32:55Z</time>
      </trkpt>
      <trkpt lat="46.42762" lon="5.32198">
        <ele>224.2</ele>
        <time>2022-04-04T11:32:58Z</time>
      </trkpt>
      <trkpt lat="46.42757" lon="5.3219">
        <ele>224</ele>
        <time>2022-04-04T11:32:59Z</time>
      </trkpt>
      <trkpt lat="46.42753" lon="5.32184">
        <ele>223.8</ele>
        <time>2022-04-04T11:33:00Z</time>
      </trkpt>
      <trkpt lat="46.42745" lon="5.32184">
        <ele>223.8</ele>
        <time>2022-04-04T11:33:01Z</time>
      </trkpt>
      <trkpt lat="46.42735" lon="5.32197">
        <ele>223.8</ele>
        <time>2022-04-04T11:33:03Z</time>
      </trkpt>
      <trkpt lat="46.42731" lon="5.32208">
        <ele>223.6</ele>
        <time>2022-04-04T11:33:04Z</time>
      </trkpt>
      <trkpt lat="46.42716" lon="5.32272">
        <ele>223.4</ele>
        <time>2022-04-04T11:33:10Z</time>
      </trkpt>
      <trkpt lat="46.42699" lon="5.32347">
        <ele>223.4</ele>
        <time>2022-04-04T11:33:17Z</time>
      </trkpt>
      <trkpt lat="46.42683" lon="5.32427">
        <ele>224.2</ele>
        <time>2022-04-04T11:33:25Z</time>
      </trkpt>
      <trkpt lat="46.4267" lon="5.32501">
        <ele>224</ele>
        <time>2022-04-04T11:33:33Z</time>
      </trkpt>
      <trkpt lat="46.42662" lon="5.32572">
        <ele>224</ele>
        <time>2022-04-04T11:33:41Z</time>
      </trkpt>
      <trkpt lat="46.42655" lon="5.32645">
        <ele>224.2</ele>
        <time>2022-04-04T11:33:49Z</time>
      </trkpt>
      <trkpt lat="46.42648" lon="5.3273">
        <ele>224.4</ele>
        <time>2022-04-04T11:33:58Z</time>
      </trkpt>
      <trkpt lat="46.42649" lon="5.32739">
        <ele>224.4</ele>
        <time>2022-04-04T11:33:59Z</time>
      </trkpt>
      <trkpt lat="46.42649" lon="5.32748">
        <ele>224.4</ele>
        <time>2022-04-04T11:34:00Z</time>
      </trkpt>
      <trkpt lat="46.42655" lon="5.32773">
        <ele>224.6</ele>
        <time>2022-04-04T11:34:03Z</time>
      </trkpt>
      <trkpt lat="46.42677" lon="5.32828">
        <ele>224.8</ele>
        <time>2022-04-04T11:34:10Z</time>
      </trkpt>
      <trkpt lat="46.42683" lon="5.32844">
        <ele>224.6</ele>
        <time>2022-04-04T11:34:12Z</time>
      </trkpt>
      <trkpt lat="46.42682" lon="5.32861">
        <ele>224.6</ele>
        <time>2022-04-04T11:34:14Z</time>
      </trkpt>
      <trkpt lat="46.42674" lon="5.32874">
        <ele>224.6</ele>
        <time>2022-04-04T11:34:16Z</time>
      </trkpt>
      <trkpt lat="46.42663" lon="5.32876">
        <ele>224.6</ele>
        <time>2022-04-04T11:34:18Z</time>
      </trkpt>
      <trkpt lat="46.42656" lon="5.32875">
        <ele>224.6</ele>
        <time>2022-04-04T11:34:19Z</time>
      </trkpt>
      <trkpt lat="46.42638" lon="5.32876">
        <ele>224.8</ele>
        <time>2022-04-04T11:34:22Z</time>
      </trkpt>
      <trkpt lat="46.42628" lon="5.32881">
        <ele>224.8</ele>
        <time>2022-04-04T11:34:24Z</time>
      </trkpt>
      <trkpt lat="46.42619" lon="5.32891">
        <ele>225</ele>
        <time>2022-04-04T11:34:26Z</time>
      </trkpt>
      <trkpt lat="46.42612" lon="5.32904">
        <ele>225</ele>
        <time>2022-04-04T11:34:28Z</time>
      </trkpt>
      <trkpt lat="46.42606" lon="5.32919">
        <ele>225.2</ele>
        <time>2022-04-04T11:34:30Z</time>
      </trkpt>
      <trkpt lat="46.42602" lon="5.32926">
        <ele>225.2</ele>
        <time>2022-04-04T11:34:31Z</time>
      </trkpt>
      <trkpt lat="46.42595" lon="5.32944">
        <ele>225.8</ele>
        <time>2022-04-04T11:34:34Z</time>
      </trkpt>
      <trkpt lat="46.42592" lon="5.32953">
        <ele>226</ele>
        <time>2022-04-04T11:34:35Z</time>
      </trkpt>
      <trkpt lat="46.4259" lon="5.32959">
        <ele>226.2</ele>
        <time>2022-04-04T11:34:36Z</time>
      </trkpt>
      <trkpt lat="46.42588" lon="5.32976">
        <ele>226.6</ele>
        <time>2022-04-04T11:34:38Z</time>
      </trkpt>
      <trkpt lat="46.42588" lon="5.32984">
        <ele>226.8</ele>
        <time>2022-04-04T11:34:39Z</time>
      </trkpt>
      <trkpt lat="46.42587" lon="5.33034">
        <ele>227.2</ele>
        <time>2022-04-04T11:34:45Z</time>
      </trkpt>
      <trkpt lat="46.4259" lon="5.33051">
        <ele>227.4</ele>
        <time>2022-04-04T11:34:47Z</time>
      </trkpt>
      <trkpt lat="46.42596" lon="5.33066">
        <ele>227.8</ele>
        <time>2022-04-04T11:34:49Z</time>
      </trkpt>
      <trkpt lat="46.42603" lon="5.33078">
        <ele>227.8</ele>
        <time>2022-04-04T11:34:51Z</time>
      </trkpt>
      <trkpt lat="46.42628" lon="5.33123">
        <ele>228.2</ele>
        <time>2022-04-04T11:34:58Z</time>
      </trkpt>
      <trkpt lat="46.42638" lon="5.33141">
        <ele>228.2</ele>
        <time>2022-04-04T11:35:01Z</time>
      </trkpt>
      <trkpt lat="46.42668" lon="5.33194">
        <ele>228.4</ele>
        <time>2022-04-04T11:35:08Z</time>
      </trkpt>
      <trkpt lat="46.42682" lon="5.33213">
        <ele>227.8</ele>
        <time>2022-04-04T11:35:11Z</time>
      </trkpt>
      <trkpt lat="46.42695" lon="5.33222">
        <ele>227.8</ele>
        <time>2022-04-04T11:35:13Z</time>
      </trkpt>
      <trkpt lat="46.42732" lon="5.33248">
        <ele>227.2</ele>
        <time>2022-04-04T11:35:19Z</time>
      </trkpt>
      <trkpt lat="46.42782" lon="5.33289">
        <ele>227.8</ele>
        <time>2022-04-04T11:35:28Z</time>
      </trkpt>
      <trkpt lat="46.42806" lon="5.33309">
        <ele>227.8</ele>
        <time>2022-04-04T11:35:32Z</time>
      </trkpt>
      <trkpt lat="46.42815" lon="5.33321">
        <ele>227.8</ele>
        <time>2022-04-04T11:35:34Z</time>
      </trkpt>
      <trkpt lat="46.42829" lon="5.33344">
        <ele>227.8</ele>
        <time>2022-04-04T11:35:37Z</time>
      </trkpt>
      <trkpt lat="46.42843" lon="5.33365">
        <ele>227.8</ele>
        <time>2022-04-04T11:35:40Z</time>
      </trkpt>
      <trkpt lat="46.42848" lon="5.33372">
        <ele>227.8</ele>
        <time>2022-04-04T11:35:41Z</time>
      </trkpt>
      <trkpt lat="46.42855" lon="5.33388">
        <ele>227.6</ele>
        <time>2022-04-04T11:35:43Z</time>
      </trkpt>
      <trkpt lat="46.42857" lon="5.33398">
        <ele>227.6</ele>
        <time>2022-04-04T11:35:44Z</time>
      </trkpt>
      <trkpt lat="46.42858" lon="5.33407">
        <ele>227.6</ele>
        <time>2022-04-04T11:35:45Z</time>
      </trkpt>
      <trkpt lat="46.42855" lon="5.33425">
        <ele>227.6</ele>
        <time>2022-04-04T11:35:47Z</time>
      </trkpt>
      <trkpt lat="46.42844" lon="5.33468">
        <ele>227.6</ele>
        <time>2022-04-04T11:35:52Z</time>
      </trkpt>
      <trkpt lat="46.42841" lon="5.33477">
        <ele>227.8</ele>
        <time>2022-04-04T11:35:53Z</time>
      </trkpt>
      <trkpt lat="46.42834" lon="5.335">
        <ele>228</ele>
        <time>2022-04-04T11:35:56Z</time>
      </trkpt>
      <trkpt lat="46.42832" lon="5.33517">
        <ele>228.2</ele>
        <time>2022-04-04T11:35:58Z</time>
      </trkpt>
      <trkpt lat="46.42833" lon="5.33533">
        <ele>228.2</ele>
        <time>2022-04-04T11:36:00Z</time>
      </trkpt>
      <trkpt lat="46.42835" lon="5.3355">
        <ele>228.6</ele>
        <time>2022-04-04T11:36:02Z</time>
      </trkpt>
      <trkpt lat="46.42842" lon="5.33581">
        <ele>229.2</ele>
        <time>2022-04-04T11:36:06Z</time>
      </trkpt>
      <trkpt lat="46.42846" lon="5.33596">
        <ele>229.8</ele>
        <time>2022-04-04T11:36:08Z</time>
      </trkpt>
      <trkpt lat="46.42849" lon="5.3362">
        <ele>230.4</ele>
        <time>2022-04-04T11:36:11Z</time>
      </trkpt>
      <trkpt lat="46.42851" lon="5.33644">
        <ele>231</ele>
        <time>2022-04-04T11:36:14Z</time>
      </trkpt>
      <trkpt lat="46.42853" lon="5.33675">
        <ele>231.4</ele>
        <time>2022-04-04T11:36:18Z</time>
      </trkpt>
      <trkpt lat="46.42856" lon="5.33689">
        <ele>231.8</ele>
        <time>2022-04-04T11:36:20Z</time>
      </trkpt>
      <trkpt lat="46.42862" lon="5.337">
        <ele>232.2</ele>
        <time>2022-04-04T11:36:22Z</time>
      </trkpt>
      <trkpt lat="46.42865" lon="5.33705">
        <ele>232.6</ele>
        <time>2022-04-04T11:36:23Z</time>
      </trkpt>
      <trkpt lat="46.42869" lon="5.33709">
        <ele>232.6</ele>
        <time>2022-04-04T11:36:24Z</time>
      </trkpt>
      <trkpt lat="46.42886" lon="5.33725">
        <ele>233.8</ele>
        <time>2022-04-04T11:36:28Z</time>
      </trkpt>
      <trkpt lat="46.4289" lon="5.3373">
        <ele>233.8</ele>
        <time>2022-04-04T11:36:29Z</time>
      </trkpt>
      <trkpt lat="46.42896" lon="5.33742">
        <ele>234.2</ele>
        <time>2022-04-04T11:36:31Z</time>
      </trkpt>
      <trkpt lat="46.42898" lon="5.33756">
        <ele>234.6</ele>
        <time>2022-04-04T11:36:33Z</time>
      </trkpt>
      <trkpt lat="46.42899" lon="5.33764">
        <ele>234.8</ele>
        <time>2022-04-04T11:36:34Z</time>
      </trkpt>
      <trkpt lat="46.42898" lon="5.33778">
        <ele>235.2</ele>
        <time>2022-04-04T11:36:36Z</time>
      </trkpt>
      <trkpt lat="46.42897" lon="5.33792">
        <ele>235.8</ele>
        <time>2022-04-04T11:36:38Z</time>
      </trkpt>
      <trkpt lat="46.42894" lon="5.3381">
        <ele>236.4</ele>
        <time>2022-04-04T11:36:41Z</time>
      </trkpt>
      <trkpt lat="46.42893" lon="5.33817">
        <ele>236.4</ele>
        <time>2022-04-04T11:36:42Z</time>
      </trkpt>
      <trkpt lat="46.42891" lon="5.33829">
        <ele>237.2</ele>
        <time>2022-04-04T11:36:44Z</time>
      </trkpt>
      <trkpt lat="46.4289" lon="5.33834">
        <ele>237.6</ele>
        <time>2022-04-04T11:36:45Z</time>
      </trkpt>
      <trkpt lat="46.42889" lon="5.33839">
        <ele>238</ele>
        <time>2022-04-04T11:36:46Z</time>
      </trkpt>
      <trkpt lat="46.42886" lon="5.33842">
        <ele>238.4</ele>
        <time>2022-04-04T11:36:47Z</time>
      </trkpt>
      <trkpt lat="46.42882" lon="5.33844">
        <ele>238.8</ele>
        <time>2022-04-04T11:36:48Z</time>
      </trkpt>
      <trkpt lat="46.42877" lon="5.33844">
        <ele>239</ele>
        <time>2022-04-04T11:36:49Z</time>
      </trkpt>
      <trkpt lat="46.42872" lon="5.33843">
        <ele>239.4</ele>
        <time>2022-04-04T11:36:50Z</time>
      </trkpt>
      <trkpt lat="46.42855" lon="5.33841">
        <ele>239.8</ele>
        <time>2022-04-04T11:36:53Z</time>
      </trkpt>
      <trkpt lat="46.42807" lon="5.33836">
        <ele>239.6</ele>
        <time>2022-04-04T11:37:01Z</time>
      </trkpt>
      <trkpt lat="46.42783" lon="5.3383">
        <ele>240</ele>
        <time>2022-04-04T11:37:06Z</time>
      </trkpt>
      <trkpt lat="46.42775" lon="5.33827">
        <ele>240.4</ele>
        <time>2022-04-04T11:37:08Z</time>
      </trkpt>
      <trkpt lat="46.42756" lon="5.33818">
        <ele>241.6</ele>
        <time>2022-04-04T11:37:13Z</time>
      </trkpt>
      <trkpt lat="46.42739" lon="5.33807">
        <ele>242.8</ele>
        <time>2022-04-04T11:37:18Z</time>
      </trkpt>
      <trkpt lat="46.42728" lon="5.33801">
        <ele>243.6</ele>
        <time>2022-04-04T11:37:21Z</time>
      </trkpt>
      <trkpt lat="46.4272" lon="5.33799">
        <ele>244</ele>
        <time>2022-04-04T11:37:23Z</time>
      </trkpt>
      <trkpt lat="46.42695" lon="5.33795">
        <ele>244.8</ele>
        <time>2022-04-04T11:37:29Z</time>
      </trkpt>
      <trkpt lat="46.42681" lon="5.33794">
        <ele>245</ele>
        <time>2022-04-04T11:37:32Z</time>
      </trkpt>
      <trkpt lat="46.42657" lon="5.33796">
        <ele>245.8</ele>
        <time>2022-04-04T11:37:37Z</time>
      </trkpt>
      <trkpt lat="46.42647" lon="5.33798">
        <ele>246.2</ele>
        <time>2022-04-04T11:37:39Z</time>
      </trkpt>
      <trkpt lat="46.4261" lon="5.33802">
        <ele>246.8</ele>
        <time>2022-04-04T11:37:46Z</time>
      </trkpt>
      <trkpt lat="46.42605" lon="5.33802">
        <ele>246.8</ele>
        <time>2022-04-04T11:37:47Z</time>
      </trkpt>
      <trkpt lat="46.42584" lon="5.33797">
        <ele>247</ele>
        <time>2022-04-04T11:37:51Z</time>
      </trkpt>
      <trkpt lat="46.42569" lon="5.3379">
        <ele>247.2</ele>
        <time>2022-04-04T11:37:54Z</time>
      </trkpt>
      <trkpt lat="46.42552" lon="5.3378">
        <ele>248.2</ele>
        <time>2022-04-04T11:37:58Z</time>
      </trkpt>
      <trkpt lat="46.42548" lon="5.33777">
        <ele>248.6</ele>
        <time>2022-04-04T11:37:59Z</time>
      </trkpt>
      <trkpt lat="46.42536" lon="5.3377">
        <ele>249</ele>
        <time>2022-04-04T11:38:02Z</time>
      </trkpt>
      <trkpt lat="46.42528" lon="5.33766">
        <ele>249.4</ele>
        <time>2022-04-04T11:38:04Z</time>
      </trkpt>
      <trkpt lat="46.42522" lon="5.33762">
        <ele>249.6</ele>
        <time>2022-04-04T11:38:06Z</time>
      </trkpt>
      <trkpt lat="46.42511" lon="5.33756">
        <ele>251</ele>
        <time>2022-04-04T11:38:09Z</time>
      </trkpt>
      <trkpt lat="46.42497" lon="5.33744">
        <ele>252</ele>
        <time>2022-04-04T11:38:13Z</time>
      </trkpt>
      <trkpt lat="46.42487" lon="5.33736">
        <ele>253.2</ele>
        <time>2022-04-04T11:38:16Z</time>
      </trkpt>
      <trkpt lat="46.42464" lon="5.33714">
        <ele>254.4</ele>
        <time>2022-04-04T11:38:22Z</time>
      </trkpt>
      <trkpt lat="46.42456" lon="5.33707">
        <ele>254.6</ele>
        <time>2022-04-04T11:38:24Z</time>
      </trkpt>
      <trkpt lat="46.42442" lon="5.33698">
        <ele>255.4</ele>
        <time>2022-04-04T11:38:27Z</time>
      </trkpt>
      <trkpt lat="46.42423" lon="5.33688">
        <ele>255.8</ele>
        <time>2022-04-04T11:38:31Z</time>
      </trkpt>
      <trkpt lat="46.42399" lon="5.33679">
        <ele>256.2</ele>
        <time>2022-04-04T11:38:36Z</time>
      </trkpt>
      <trkpt lat="46.42384" lon="5.33679">
        <ele>256.4</ele>
        <time>2022-04-04T11:38:39Z</time>
      </trkpt>
      <trkpt lat="46.42379" lon="5.33681">
        <ele>256.4</ele>
        <time>2022-04-04T11:38:40Z</time>
      </trkpt>
      <trkpt lat="46.42375" lon="5.33683">
        <ele>256.6</ele>
        <time>2022-04-04T11:38:41Z</time>
      </trkpt>
      <trkpt lat="46.42363" lon="5.33691">
        <ele>256.8</ele>
        <time>2022-04-04T11:38:44Z</time>
      </trkpt>
      <trkpt lat="46.42351" lon="5.33699">
        <ele>257.6</ele>
        <time>2022-04-04T11:38:47Z</time>
      </trkpt>
      <trkpt lat="46.42336" lon="5.33709">
        <ele>258.8</ele>
        <time>2022-04-04T11:38:51Z</time>
      </trkpt>
      <trkpt lat="46.42325" lon="5.33716">
        <ele>259.8</ele>
        <time>2022-04-04T11:38:55Z</time>
      </trkpt>
      <trkpt lat="46.42308" lon="5.33735">
        <ele>261</ele>
        <time>2022-04-04T11:39:01Z</time>
      </trkpt>
      <trkpt lat="46.42292" lon="5.33761">
        <ele>262.6</ele>
        <time>2022-04-04T11:39:06Z</time>
      </trkpt>
      <trkpt lat="46.42287" lon="5.33771">
        <ele>263</ele>
        <time>2022-04-04T11:39:08Z</time>
      </trkpt>
      <trkpt lat="46.42274" lon="5.33796">
        <ele>263.8</ele>
        <time>2022-04-04T11:39:12Z</time>
      </trkpt>
      <trkpt lat="46.42262" lon="5.33818">
        <ele>264.6</ele>
        <time>2022-04-04T11:39:16Z</time>
      </trkpt>
      <trkpt lat="46.42259" lon="5.33824">
        <ele>264.8</ele>
        <time>2022-04-04T11:39:17Z</time>
      </trkpt>
      <trkpt lat="46.42245" lon="5.33844">
        <ele>265.2</ele>
        <time>2022-04-04T11:39:21Z</time>
      </trkpt>
      <trkpt lat="46.42236" lon="5.3386">
        <ele>265.6</ele>
        <time>2022-04-04T11:39:24Z</time>
      </trkpt>
      <trkpt lat="46.42234" lon="5.33865">
        <ele>265.8</ele>
        <time>2022-04-04T11:39:25Z</time>
      </trkpt>
      <trkpt lat="46.42219" lon="5.33895">
        <ele>266.8</ele>
        <time>2022-04-04T11:39:31Z</time>
      </trkpt>
      <trkpt lat="46.42211" lon="5.3391">
        <ele>267.4</ele>
        <time>2022-04-04T11:39:34Z</time>
      </trkpt>
      <trkpt lat="46.42199" lon="5.33928">
        <ele>268</ele>
        <time>2022-04-04T11:39:38Z</time>
      </trkpt>
      <trkpt lat="46.42196" lon="5.33932">
        <ele>268.2</ele>
        <time>2022-04-04T11:39:39Z</time>
      </trkpt>
      <trkpt lat="46.42192" lon="5.33935">
        <ele>268.6</ele>
        <time>2022-04-04T11:39:40Z</time>
      </trkpt>
      <trkpt lat="46.42187" lon="5.33937">
        <ele>269.2</ele>
        <time>2022-04-04T11:39:41Z</time>
      </trkpt>
      <trkpt lat="46.42178" lon="5.3394">
        <ele>269.4</ele>
        <time>2022-04-04T11:39:43Z</time>
      </trkpt>
      <trkpt lat="46.4217" lon="5.33939">
        <ele>270</ele>
        <time>2022-04-04T11:39:45Z</time>
      </trkpt>
      <trkpt lat="46.42162" lon="5.33936">
        <ele>270.4</ele>
        <time>2022-04-04T11:39:47Z</time>
      </trkpt>
      <trkpt lat="46.42147" lon="5.33931">
        <ele>271.2</ele>
        <time>2022-04-04T11:39:51Z</time>
      </trkpt>
      <trkpt lat="46.42143" lon="5.33929">
        <ele>271.8</ele>
        <time>2022-04-04T11:39:52Z</time>
      </trkpt>
      <trkpt lat="46.42122" lon="5.33919">
        <ele>273</ele>
        <time>2022-04-04T11:39:57Z</time>
      </trkpt>
      <trkpt lat="46.42113" lon="5.33914">
        <ele>273.4</ele>
        <time>2022-04-04T11:39:59Z</time>
      </trkpt>
      <trkpt lat="46.42079" lon="5.33903">
        <ele>273.8</ele>
        <time>2022-04-04T11:40:06Z</time>
      </trkpt>
      <trkpt lat="46.42041" lon="5.33903">
        <ele>273.6</ele>
        <time>2022-04-04T11:40:13Z</time>
      </trkpt>
      <trkpt lat="46.42003" lon="5.33899">
        <ele>273</ele>
        <time>2022-04-04T11:40:19Z</time>
      </trkpt>
      <trkpt lat="46.41975" lon="5.33881">
        <ele>272.4</ele>
        <time>2022-04-04T11:40:23Z</time>
      </trkpt>
      <trkpt lat="46.41967" lon="5.33877">
        <ele>272.2</ele>
        <time>2022-04-04T11:40:24Z</time>
      </trkpt>
      <trkpt lat="46.41958" lon="5.33873">
        <ele>272</ele>
        <time>2022-04-04T11:40:25Z</time>
      </trkpt>
      <trkpt lat="46.41949" lon="5.33872">
        <ele>271.6</ele>
        <time>2022-04-04T11:40:26Z</time>
      </trkpt>
      <trkpt lat="46.4193" lon="5.33871">
        <ele>270.6</ele>
        <time>2022-04-04T11:40:28Z</time>
      </trkpt>
      <trkpt lat="46.41911" lon="5.33876">
        <ele>269.4</ele>
        <time>2022-04-04T11:40:30Z</time>
      </trkpt>
      <trkpt lat="46.41884" lon="5.33881">
        <ele>268</ele>
        <time>2022-04-04T11:40:33Z</time>
      </trkpt>
      <trkpt lat="46.41866" lon="5.33882">
        <ele>267.2</ele>
        <time>2022-04-04T11:40:35Z</time>
      </trkpt>
      <trkpt lat="46.41838" lon="5.33881">
        <ele>267</ele>
        <time>2022-04-04T11:40:39Z</time>
      </trkpt>
      <trkpt lat="46.41801" lon="5.33871">
        <ele>267.8</ele>
        <time>2022-04-04T11:40:45Z</time>
      </trkpt>
      <trkpt lat="46.41776" lon="5.33863">
        <ele>268.6</ele>
        <time>2022-04-04T11:40:50Z</time>
      </trkpt>
      <trkpt lat="46.41768" lon="5.3386">
        <ele>269.2</ele>
        <time>2022-04-04T11:40:52Z</time>
      </trkpt>
      <trkpt lat="46.41752" lon="5.33859">
        <ele>270.2</ele>
        <time>2022-04-04T11:40:55Z</time>
      </trkpt>
      <trkpt lat="46.41748" lon="5.3386">
        <ele>270.4</ele>
        <time>2022-04-04T11:40:56Z</time>
      </trkpt>
      <trkpt lat="46.4173" lon="5.33867">
        <ele>271.6</ele>
        <time>2022-04-04T11:41:00Z</time>
      </trkpt>
      <trkpt lat="46.41718" lon="5.33871">
        <ele>272.6</ele>
        <time>2022-04-04T11:41:03Z</time>
      </trkpt>
      <trkpt lat="46.41714" lon="5.33872">
        <ele>273</ele>
        <time>2022-04-04T11:41:04Z</time>
      </trkpt>
      <trkpt lat="46.41707" lon="5.33875">
        <ele>273.6</ele>
        <time>2022-04-04T11:41:06Z</time>
      </trkpt>
      <trkpt lat="46.41703" lon="5.33877">
        <ele>273.6</ele>
        <time>2022-04-04T11:41:07Z</time>
      </trkpt>
      <trkpt lat="46.41699" lon="5.33877">
        <ele>274</ele>
        <time>2022-04-04T11:41:08Z</time>
      </trkpt>
      <trkpt lat="46.41688" lon="5.33879">
        <ele>275</ele>
        <time>2022-04-04T11:41:11Z</time>
      </trkpt>
      <trkpt lat="46.41675" lon="5.33878">
        <ele>276.2</ele>
        <time>2022-04-04T11:41:15Z</time>
      </trkpt>
      <trkpt lat="46.41671" lon="5.33877">
        <ele>276.4</ele>
        <time>2022-04-04T11:41:16Z</time>
      </trkpt>
      <trkpt lat="46.41656" lon="5.33876">
        <ele>277.4</ele>
        <time>2022-04-04T11:41:19Z</time>
      </trkpt>
      <trkpt lat="46.41652" lon="5.33877">
        <ele>277.8</ele>
        <time>2022-04-04T11:41:20Z</time>
      </trkpt>
      <trkpt lat="46.41646" lon="5.33878">
        <ele>277.8</ele>
        <time>2022-04-04T11:41:21Z</time>
      </trkpt>
      <trkpt lat="46.41636" lon="5.3388">
        <ele>278.6</ele>
        <time>2022-04-04T11:41:23Z</time>
      </trkpt>
      <trkpt lat="46.41611" lon="5.33885">
        <ele>279.4</ele>
        <time>2022-04-04T11:41:28Z</time>
      </trkpt>
      <trkpt lat="46.41606" lon="5.33885">
        <ele>279.6</ele>
        <time>2022-04-04T11:41:29Z</time>
      </trkpt>
      <trkpt lat="46.41572" lon="5.33881">
        <ele>280</ele>
        <time>2022-04-04T11:41:35Z</time>
      </trkpt>
      <trkpt lat="46.41533" lon="5.33875">
        <ele>280</ele>
        <time>2022-04-04T11:41:41Z</time>
      </trkpt>
      <trkpt lat="46.41513" lon="5.33871">
        <ele>279.6</ele>
        <time>2022-04-04T11:41:44Z</time>
      </trkpt>
      <trkpt lat="46.41497" lon="5.33863">
        <ele>279.4</ele>
        <time>2022-04-04T11:41:46Z</time>
      </trkpt>
      <trkpt lat="46.41469" lon="5.33844">
        <ele>278.8</ele>
        <time>2022-04-04T11:41:50Z</time>
      </trkpt>
      <trkpt lat="46.41461" lon="5.3384">
        <ele>278.4</ele>
        <time>2022-04-04T11:41:51Z</time>
      </trkpt>
      <trkpt lat="46.41453" lon="5.33836">
        <ele>278.2</ele>
        <time>2022-04-04T11:41:52Z</time>
      </trkpt>
      <trkpt lat="46.4141" lon="5.33822">
        <ele>277</ele>
        <time>2022-04-04T11:41:57Z</time>
      </trkpt>
      <trkpt lat="46.41384" lon="5.33815">
        <ele>276</ele>
        <time>2022-04-04T11:42:00Z</time>
      </trkpt>
      <trkpt lat="46.41358" lon="5.33807">
        <ele>274.8</ele>
        <time>2022-04-04T11:42:03Z</time>
      </trkpt>
      <trkpt lat="46.41347" lon="5.33804">
        <ele>274.6</ele>
        <time>2022-04-04T11:42:04Z</time>
      </trkpt>
      <trkpt lat="46.41328" lon="5.33796">
        <ele>274</ele>
        <time>2022-04-04T11:42:06Z</time>
      </trkpt>
      <trkpt lat="46.4132" lon="5.3379">
        <ele>273.8</ele>
        <time>2022-04-04T11:42:07Z</time>
      </trkpt>
      <trkpt lat="46.41311" lon="5.33782">
        <ele>273.6</ele>
        <time>2022-04-04T11:42:08Z</time>
      </trkpt>
      <trkpt lat="46.41264" lon="5.33732">
        <ele>273.4</ele>
        <time>2022-04-04T11:42:13Z</time>
      </trkpt>
      <trkpt lat="46.41222" lon="5.33694">
        <ele>273.6</ele>
        <time>2022-04-04T11:42:18Z</time>
      </trkpt>
      <trkpt lat="46.41192" lon="5.33666">
        <ele>272.4</ele>
        <time>2022-04-04T11:42:22Z</time>
      </trkpt>
      <trkpt lat="46.41177" lon="5.33653">
        <ele>270.4</ele>
        <time>2022-04-04T11:42:24Z</time>
      </trkpt>
      <trkpt lat="46.4117" lon="5.33646">
        <ele>269.8</ele>
        <time>2022-04-04T11:42:25Z</time>
      </trkpt>
      <trkpt lat="46.41163" lon="5.3364">
        <ele>269</ele>
        <time>2022-04-04T11:42:26Z</time>
      </trkpt>
      <trkpt lat="46.41135" lon="5.33616">
        <ele>267.8</ele>
        <time>2022-04-04T11:42:30Z</time>
      </trkpt>
      <trkpt lat="46.41121" lon="5.33606">
        <ele>267.6</ele>
        <time>2022-04-04T11:42:32Z</time>
      </trkpt>
      <trkpt lat="46.41088" lon="5.33586">
        <ele>267.2</ele>
        <time>2022-04-04T11:42:37Z</time>
      </trkpt>
      <trkpt lat="46.41051" lon="5.3357">
        <ele>267.4</ele>
        <time>2022-04-04T11:42:43Z</time>
      </trkpt>
      <trkpt lat="46.41011" lon="5.33557">
        <ele>268.2</ele>
        <time>2022-04-04T11:42:50Z</time>
      </trkpt>
      <trkpt lat="46.40986" lon="5.33549">
        <ele>269.2</ele>
        <time>2022-04-04T11:42:55Z</time>
      </trkpt>
      <trkpt lat="46.40976" lon="5.33546">
        <ele>269.6</ele>
        <time>2022-04-04T11:42:57Z</time>
      </trkpt>
      <trkpt lat="46.40961" lon="5.33542">
        <ele>270.4</ele>
        <time>2022-04-04T11:43:00Z</time>
      </trkpt>
      <trkpt lat="46.40931" lon="5.33535">
        <ele>271</ele>
        <time>2022-04-04T11:43:06Z</time>
      </trkpt>
      <trkpt lat="46.40926" lon="5.33533">
        <ele>271.4</ele>
        <time>2022-04-04T11:43:07Z</time>
      </trkpt>
      <trkpt lat="46.40898" lon="5.33526">
        <ele>271.8</ele>
        <time>2022-04-04T11:43:12Z</time>
      </trkpt>
      <trkpt lat="46.40858" lon="5.33516">
        <ele>271.6</ele>
        <time>2022-04-04T11:43:18Z</time>
      </trkpt>
      <trkpt lat="46.40822" lon="5.33506">
        <ele>270.2</ele>
        <time>2022-04-04T11:43:23Z</time>
      </trkpt>
      <trkpt lat="46.40806" lon="5.33502">
        <ele>269.8</ele>
        <time>2022-04-04T11:43:25Z</time>
      </trkpt>
      <trkpt lat="46.40783" lon="5.33495">
        <ele>269</ele>
        <time>2022-04-04T11:43:28Z</time>
      </trkpt>
      <trkpt lat="46.40753" lon="5.33481">
        <ele>268</ele>
        <time>2022-04-04T11:43:32Z</time>
      </trkpt>
      <trkpt lat="46.40744" lon="5.33476">
        <ele>267.6</ele>
        <time>2022-04-04T11:43:33Z</time>
      </trkpt>
      <trkpt lat="46.40697" lon="5.33447">
        <ele>266.6</ele>
        <time>2022-04-04T11:43:39Z</time>
      </trkpt>
      <trkpt lat="46.40681" lon="5.33438">
        <ele>266</ele>
        <time>2022-04-04T11:43:41Z</time>
      </trkpt>
      <trkpt lat="46.40672" lon="5.33432">
        <ele>265.4</ele>
        <time>2022-04-04T11:43:42Z</time>
      </trkpt>
      <trkpt lat="46.40639" lon="5.33412">
        <ele>264</ele>
        <time>2022-04-04T11:43:46Z</time>
      </trkpt>
      <trkpt lat="46.40613" lon="5.33396">
        <ele>262.8</ele>
        <time>2022-04-04T11:43:49Z</time>
      </trkpt>
      <trkpt lat="46.40577" lon="5.33374">
        <ele>261.6</ele>
        <time>2022-04-04T11:43:53Z</time>
      </trkpt>
      <trkpt lat="46.40559" lon="5.33363">
        <ele>260.4</ele>
        <time>2022-04-04T11:43:55Z</time>
      </trkpt>
      <trkpt lat="46.40549" lon="5.33357">
        <ele>260</ele>
        <time>2022-04-04T11:43:56Z</time>
      </trkpt>
      <trkpt lat="46.40531" lon="5.33347">
        <ele>259.2</ele>
        <time>2022-04-04T11:43:58Z</time>
      </trkpt>
      <trkpt lat="46.40522" lon="5.3334">
        <ele>258.8</ele>
        <time>2022-04-04T11:43:59Z</time>
      </trkpt>
      <trkpt lat="46.40514" lon="5.33332">
        <ele>258.6</ele>
        <time>2022-04-04T11:44:00Z</time>
      </trkpt>
      <trkpt lat="46.40499" lon="5.33314">
        <ele>257.8</ele>
        <time>2022-04-04T11:44:02Z</time>
      </trkpt>
      <trkpt lat="46.40481" lon="5.33302">
        <ele>257</ele>
        <time>2022-04-04T11:44:04Z</time>
      </trkpt>
      <trkpt lat="46.40472" lon="5.33297">
        <ele>256.6</ele>
        <time>2022-04-04T11:44:05Z</time>
      </trkpt>
      <trkpt lat="46.40447" lon="5.33285">
        <ele>255.4</ele>
        <time>2022-04-04T11:44:08Z</time>
      </trkpt>
      <trkpt lat="46.40439" lon="5.33279">
        <ele>254.8</ele>
        <time>2022-04-04T11:44:09Z</time>
      </trkpt>
      <trkpt lat="46.40432" lon="5.33273">
        <ele>254.6</ele>
        <time>2022-04-04T11:44:10Z</time>
      </trkpt>
      <trkpt lat="46.40417" lon="5.3326">
        <ele>254.4</ele>
        <time>2022-04-04T11:44:12Z</time>
      </trkpt>
      <trkpt lat="46.40392" lon="5.33231">
        <ele>254.2</ele>
        <time>2022-04-04T11:44:16Z</time>
      </trkpt>
      <trkpt lat="46.40362" lon="5.33189">
        <ele>254.6</ele>
        <time>2022-04-04T11:44:22Z</time>
      </trkpt>
      <trkpt lat="46.40343" lon="5.33164">
        <ele>255.4</ele>
        <time>2022-04-04T11:44:26Z</time>
      </trkpt>
      <trkpt lat="46.4033" lon="5.33144">
        <ele>255.6</ele>
        <time>2022-04-04T11:44:29Z</time>
      </trkpt>
      <trkpt lat="46.40313" lon="5.33118">
        <ele>256.6</ele>
        <time>2022-04-04T11:44:33Z</time>
      </trkpt>
      <trkpt lat="46.40294" lon="5.33091">
        <ele>257</ele>
        <time>2022-04-04T11:44:37Z</time>
      </trkpt>
      <trkpt lat="46.40275" lon="5.33063">
        <ele>257.6</ele>
        <time>2022-04-04T11:44:41Z</time>
      </trkpt>
      <trkpt lat="46.40252" lon="5.33031">
        <ele>258</ele>
        <time>2022-04-04T11:44:46Z</time>
      </trkpt>
      <trkpt lat="46.40212" lon="5.32974">
        <ele>258</ele>
        <time>2022-04-04T11:44:54Z</time>
      </trkpt>
      <trkpt lat="46.40174" lon="5.32904">
        <ele>258</ele>
        <time>2022-04-04T11:45:03Z</time>
      </trkpt>
      <trkpt lat="46.40144" lon="5.32838">
        <ele>258</ele>
        <time>2022-04-04T11:45:11Z</time>
      </trkpt>
      <trkpt lat="46.40142" lon="5.32831">
        <ele>258</ele>
        <time>2022-04-04T11:45:12Z</time>
      </trkpt>
      <trkpt lat="46.40111" lon="5.32761">
        <ele>257.8</ele>
        <time>2022-04-04T11:45:20Z</time>
      </trkpt>
      <trkpt lat="46.40106" lon="5.32751">
        <ele>257.6</ele>
        <time>2022-04-04T11:45:21Z</time>
      </trkpt>
      <trkpt lat="46.4008" lon="5.32677">
        <ele>257.2</ele>
        <time>2022-04-04T11:45:29Z</time>
      </trkpt>
      <trkpt lat="46.40074" lon="5.3265">
        <ele>256.8</ele>
        <time>2022-04-04T11:45:32Z</time>
      </trkpt>
      <trkpt lat="46.40072" lon="5.3264">
        <ele>256.8</ele>
        <time>2022-04-04T11:45:33Z</time>
      </trkpt>
      <trkpt lat="46.40061" lon="5.32625">
        <ele>256.6</ele>
        <time>2022-04-04T11:45:35Z</time>
      </trkpt>
      <trkpt lat="46.40049" lon="5.32625">
        <ele>256.4</ele>
        <time>2022-04-04T11:45:37Z</time>
      </trkpt>
      <trkpt lat="46.40043" lon="5.32627">
        <ele>256.4</ele>
        <time>2022-04-04T11:45:38Z</time>
      </trkpt>
      <trkpt lat="46.40001" lon="5.32652">
        <ele>256</ele>
        <time>2022-04-04T11:45:44Z</time>
      </trkpt>
      <trkpt lat="46.39966" lon="5.3267">
        <ele>255.6</ele>
        <time>2022-04-04T11:45:49Z</time>
      </trkpt>
      <trkpt lat="46.39922" lon="5.3269">
        <ele>255.2</ele>
        <time>2022-04-04T11:45:55Z</time>
      </trkpt>
      <trkpt lat="46.39872" lon="5.32714">
        <ele>254.6</ele>
        <time>2022-04-04T11:46:02Z</time>
      </trkpt>
      <trkpt lat="46.39863" lon="5.32718">
        <ele>254.6</ele>
        <time>2022-04-04T11:46:03Z</time>
      </trkpt>
      <trkpt lat="46.39827" lon="5.32733">
        <ele>253.6</ele>
        <time>2022-04-04T11:46:08Z</time>
      </trkpt>
      <trkpt lat="46.39805" lon="5.32744">
        <ele>252.8</ele>
        <time>2022-04-04T11:46:11Z</time>
      </trkpt>
      <trkpt lat="46.39797" lon="5.32747">
        <ele>252.4</ele>
        <time>2022-04-04T11:46:12Z</time>
      </trkpt>
      <trkpt lat="46.39769" lon="5.32761">
        <ele>251.4</ele>
        <time>2022-04-04T11:46:16Z</time>
      </trkpt>
      <trkpt lat="46.39751" lon="5.3277">
        <ele>250.2</ele>
        <time>2022-04-04T11:46:18Z</time>
      </trkpt>
      <trkpt lat="46.39718" lon="5.32789">
        <ele>248.8</ele>
        <time>2022-04-04T11:46:22Z</time>
      </trkpt>
      <trkpt lat="46.39691" lon="5.32804">
        <ele>247.8</ele>
        <time>2022-04-04T11:46:25Z</time>
      </trkpt>
      <trkpt lat="46.39663" lon="5.32819">
        <ele>246.2</ele>
        <time>2022-04-04T11:46:28Z</time>
      </trkpt>
      <trkpt lat="46.39634" lon="5.32828">
        <ele>245.4</ele>
        <time>2022-04-04T11:46:31Z</time>
      </trkpt>
      <trkpt lat="46.39624" lon="5.32831">
        <ele>244.6</ele>
        <time>2022-04-04T11:46:32Z</time>
      </trkpt>
      <trkpt lat="46.39595" lon="5.32839">
        <ele>243</ele>
        <time>2022-04-04T11:46:35Z</time>
      </trkpt>
      <trkpt lat="46.39585" lon="5.32843">
        <ele>242.6</ele>
        <time>2022-04-04T11:46:36Z</time>
      </trkpt>
      <trkpt lat="46.39568" lon="5.32853">
        <ele>241.8</ele>
        <time>2022-04-04T11:46:38Z</time>
      </trkpt>
      <trkpt lat="46.39544" lon="5.32867">
        <ele>241</ele>
        <time>2022-04-04T11:46:41Z</time>
      </trkpt>
      <trkpt lat="46.39536" lon="5.3287">
        <ele>240.8</ele>
        <time>2022-04-04T11:46:42Z</time>
      </trkpt>
      <trkpt lat="46.39529" lon="5.32874">
        <ele>240.8</ele>
        <time>2022-04-04T11:46:43Z</time>
      </trkpt>
      <trkpt lat="46.39498" lon="5.32886">
        <ele>240.4</ele>
        <time>2022-04-04T11:46:47Z</time>
      </trkpt>
      <trkpt lat="46.39448" lon="5.32905">
        <ele>239.4</ele>
        <time>2022-04-04T11:46:53Z</time>
      </trkpt>
      <trkpt lat="46.39421" lon="5.32911">
        <ele>238.4</ele>
        <time>2022-04-04T11:46:56Z</time>
      </trkpt>
      <trkpt lat="46.39411" lon="5.32911">
        <ele>237.8</ele>
        <time>2022-04-04T11:46:57Z</time>
      </trkpt>
      <trkpt lat="46.39402" lon="5.32911">
        <ele>237.4</ele>
        <time>2022-04-04T11:46:58Z</time>
      </trkpt>
      <trkpt lat="46.39384" lon="5.32902">
        <ele>236.2</ele>
        <time>2022-04-04T11:47:00Z</time>
      </trkpt>
      <trkpt lat="46.39371" lon="5.3289">
        <ele>235</ele>
        <time>2022-04-04T11:47:02Z</time>
      </trkpt>
      <trkpt lat="46.39363" lon="5.32883">
        <ele>234</ele>
        <time>2022-04-04T11:47:04Z</time>
      </trkpt>
      <trkpt lat="46.39359" lon="5.32883">
        <ele>233.8</ele>
        <time>2022-04-04T11:47:05Z</time>
      </trkpt>
      <trkpt lat="46.39357" lon="5.32886">
        <ele>233.4</ele>
        <time>2022-04-04T11:47:06Z</time>
      </trkpt>
      <trkpt lat="46.39352" lon="5.32896">
        <ele>233</ele>
        <time>2022-04-04T11:47:08Z</time>
      </trkpt>
      <trkpt lat="46.39348" lon="5.32915">
        <ele>232.6</ele>
        <time>2022-04-04T11:47:10Z</time>
      </trkpt>
      <trkpt lat="46.39339" lon="5.32931">
        <ele>232.2</ele>
        <time>2022-04-04T11:47:12Z</time>
      </trkpt>
      <trkpt lat="46.39324" lon="5.32939">
        <ele>231.4</ele>
        <time>2022-04-04T11:47:14Z</time>
      </trkpt>
      <trkpt lat="46.39316" lon="5.32942">
        <ele>231</ele>
        <time>2022-04-04T11:47:15Z</time>
      </trkpt>
      <trkpt lat="46.39309" lon="5.32946">
        <ele>230.4</ele>
        <time>2022-04-04T11:47:16Z</time>
      </trkpt>
      <trkpt lat="46.39265" lon="5.32969">
        <ele>229.4</ele>
        <time>2022-04-04T11:47:22Z</time>
      </trkpt>
      <trkpt lat="46.39257" lon="5.32973">
        <ele>229.2</ele>
        <time>2022-04-04T11:47:23Z</time>
      </trkpt>
      <trkpt lat="46.39204" lon="5.32996">
        <ele>228.4</ele>
        <time>2022-04-04T11:47:30Z</time>
      </trkpt>
      <trkpt lat="46.3919" lon="5.33001">
        <ele>228.2</ele>
        <time>2022-04-04T11:47:32Z</time>
      </trkpt>
      <trkpt lat="46.39141" lon="5.33017">
        <ele>227.8</ele>
        <time>2022-04-04T11:47:39Z</time>
      </trkpt>
      <trkpt lat="46.39093" lon="5.33027">
        <ele>227.4</ele>
        <time>2022-04-04T11:47:46Z</time>
      </trkpt>
      <trkpt lat="46.3908" lon="5.33025">
        <ele>227.4</ele>
        <time>2022-04-04T11:47:48Z</time>
      </trkpt>
      <trkpt lat="46.3906" lon="5.33018">
        <ele>227.4</ele>
        <time>2022-04-04T11:47:51Z</time>
      </trkpt>
      <trkpt lat="46.39005" lon="5.32999">
        <ele>227.4</ele>
        <time>2022-04-04T11:47:59Z</time>
      </trkpt>
      <trkpt lat="46.38963" lon="5.32983">
        <ele>227.2</ele>
        <time>2022-04-04T11:48:05Z</time>
      </trkpt>
      <trkpt lat="46.38956" lon="5.3298">
        <ele>227.2</ele>
        <time>2022-04-04T11:48:06Z</time>
      </trkpt>
      <trkpt lat="46.38907" lon="5.32962">
        <ele>226.4</ele>
        <time>2022-04-04T11:48:13Z</time>
      </trkpt>
      <trkpt lat="46.38872" lon="5.32948">
        <ele>226</ele>
        <time>2022-04-04T11:48:18Z</time>
      </trkpt>
      <trkpt lat="46.38852" lon="5.3294">
        <ele>226</ele>
        <time>2022-04-04T11:48:21Z</time>
      </trkpt>
      <trkpt lat="46.38813" lon="5.32923">
        <ele>225.2</ele>
        <time>2022-04-04T11:48:27Z</time>
      </trkpt>
      <trkpt lat="46.388" lon="5.32919">
        <ele>225.2</ele>
        <time>2022-04-04T11:48:29Z</time>
      </trkpt>
      <trkpt lat="46.38788" lon="5.32914">
        <ele>225.2</ele>
        <time>2022-04-04T11:48:31Z</time>
      </trkpt>
      <trkpt lat="46.38776" lon="5.32907">
        <ele>225.4</ele>
        <time>2022-04-04T11:48:33Z</time>
      </trkpt>
      <trkpt lat="46.38771" lon="5.329">
        <ele>225.8</ele>
        <time>2022-04-04T11:48:34Z</time>
      </trkpt>
      <trkpt lat="46.38768" lon="5.32892">
        <ele>225.8</ele>
        <time>2022-04-04T11:48:35Z</time>
      </trkpt>
      <trkpt lat="46.38764" lon="5.32872">
        <ele>225.8</ele>
        <time>2022-04-04T11:48:37Z</time>
      </trkpt>
      <trkpt lat="46.38768" lon="5.32821">
        <ele>225.4</ele>
        <time>2022-04-04T11:48:42Z</time>
      </trkpt>
      <trkpt lat="46.3878" lon="5.32775">
        <ele>224.8</ele>
        <time>2022-04-04T11:48:47Z</time>
      </trkpt>
      <trkpt lat="46.38792" lon="5.32729">
        <ele>224.6</ele>
        <time>2022-04-04T11:48:52Z</time>
      </trkpt>
      <trkpt lat="46.38793" lon="5.32719">
        <ele>224.6</ele>
        <time>2022-04-04T11:48:53Z</time>
      </trkpt>
      <trkpt lat="46.38795" lon="5.32689">
        <ele>224.6</ele>
        <time>2022-04-04T11:48:56Z</time>
      </trkpt>
      <trkpt lat="46.38793" lon="5.32669">
        <ele>224.6</ele>
        <time>2022-04-04T11:48:58Z</time>
      </trkpt>
      <trkpt lat="46.3879" lon="5.32651">
        <ele>224.6</ele>
        <time>2022-04-04T11:49:00Z</time>
      </trkpt>
      <trkpt lat="46.38786" lon="5.32643">
        <ele>224.2</ele>
        <time>2022-04-04T11:49:01Z</time>
      </trkpt>
      <trkpt lat="46.38782" lon="5.32638">
        <ele>224.2</ele>
        <time>2022-04-04T11:49:02Z</time>
      </trkpt>
      <trkpt lat="46.3877" lon="5.3263">
        <ele>224.6</ele>
        <time>2022-04-04T11:49:04Z</time>
      </trkpt>
      <trkpt lat="46.3874" lon="5.32608">
        <ele>224.6</ele>
        <time>2022-04-04T11:49:09Z</time>
      </trkpt>
      <trkpt lat="46.387" lon="5.32573">
        <ele>224.6</ele>
        <time>2022-04-04T11:49:16Z</time>
      </trkpt>
      <trkpt lat="46.38663" lon="5.32536">
        <ele>224.6</ele>
        <time>2022-04-04T11:49:23Z</time>
      </trkpt>
      <trkpt lat="46.38634" lon="5.32512">
        <ele>224.6</ele>
        <time>2022-04-04T11:49:28Z</time>
      </trkpt>
      <trkpt lat="46.38592" lon="5.32478">
        <ele>224.8</ele>
        <time>2022-04-04T11:49:35Z</time>
      </trkpt>
      <trkpt lat="46.3855" lon="5.32437">
        <ele>224</ele>
        <time>2022-04-04T11:49:42Z</time>
      </trkpt>
      <trkpt lat="46.38507" lon="5.32394">
        <ele>223.6</ele>
        <time>2022-04-04T11:49:49Z</time>
      </trkpt>
      <trkpt lat="46.38501" lon="5.32388">
        <ele>223.4</ele>
        <time>2022-04-04T11:49:50Z</time>
      </trkpt>
      <trkpt lat="46.38481" lon="5.32374">
        <ele>223.2</ele>
        <time>2022-04-04T11:49:53Z</time>
      </trkpt>
      <trkpt lat="46.38467" lon="5.32368">
        <ele>223.4</ele>
        <time>2022-04-04T11:49:55Z</time>
      </trkpt>
      <trkpt lat="46.38453" lon="5.32368">
        <ele>223.2</ele>
        <time>2022-04-04T11:49:57Z</time>
      </trkpt>
      <trkpt lat="46.3844" lon="5.32377">
        <ele>223</ele>
        <time>2022-04-04T11:49:59Z</time>
      </trkpt>
      <trkpt lat="46.38434" lon="5.32383">
        <ele>223</ele>
        <time>2022-04-04T11:50:00Z</time>
      </trkpt>
      <trkpt lat="46.38429" lon="5.32391">
        <ele>223</ele>
        <time>2022-04-04T11:50:01Z</time>
      </trkpt>
      <trkpt lat="46.3842" lon="5.32408">
        <ele>223</ele>
        <time>2022-04-04T11:50:03Z</time>
      </trkpt>
      <trkpt lat="46.38416" lon="5.32416">
        <ele>223.2</ele>
        <time>2022-04-04T11:50:04Z</time>
      </trkpt>
      <trkpt lat="46.38414" lon="5.32425">
        <ele>223.2</ele>
        <time>2022-04-04T11:50:05Z</time>
      </trkpt>
      <trkpt lat="46.38409" lon="5.32452">
        <ele>223</ele>
        <time>2022-04-04T11:50:08Z</time>
      </trkpt>
      <trkpt lat="46.38404" lon="5.3248">
        <ele>223</ele>
        <time>2022-04-04T11:50:11Z</time>
      </trkpt>
      <trkpt lat="46.38396" lon="5.32498">
        <ele>223</ele>
        <time>2022-04-04T11:50:13Z</time>
      </trkpt>
      <trkpt lat="46.38383" lon="5.32507">
        <ele>222.8</ele>
        <time>2022-04-04T11:50:15Z</time>
      </trkpt>
      <trkpt lat="46.38376" lon="5.32508">
        <ele>222.8</ele>
        <time>2022-04-04T11:50:16Z</time>
      </trkpt>
      <trkpt lat="46.38369" lon="5.32507">
        <ele>222.8</ele>
        <time>2022-04-04T11:50:17Z</time>
      </trkpt>
      <trkpt lat="46.38343" lon="5.32498">
        <ele>222.6</ele>
        <time>2022-04-04T11:50:21Z</time>
      </trkpt>
      <trkpt lat="46.38291" lon="5.32479">
        <ele>222.2</ele>
        <time>2022-04-04T11:50:29Z</time>
      </trkpt>
      <trkpt lat="46.38272" lon="5.32476">
        <ele>222.2</ele>
        <time>2022-04-04T11:50:32Z</time>
      </trkpt>
      <trkpt lat="46.38253" lon="5.32474">
        <ele>222.2</ele>
        <time>2022-04-04T11:50:35Z</time>
      </trkpt>
      <trkpt lat="46.38239" lon="5.3247">
        <ele>222.2</ele>
        <time>2022-04-04T11:50:37Z</time>
      </trkpt>
      <trkpt lat="46.38223" lon="5.32458">
        <ele>222.2</ele>
        <time>2022-04-04T11:50:40Z</time>
      </trkpt>
      <trkpt lat="46.38173" lon="5.32412">
        <ele>222</ele>
        <time>2022-04-04T11:50:49Z</time>
      </trkpt>
      <trkpt lat="46.38166" lon="5.32406">
        <ele>222</ele>
        <time>2022-04-04T11:50:50Z</time>
      </trkpt>
      <trkpt lat="46.38126" lon="5.32363">
        <ele>222.2</ele>
        <time>2022-04-04T11:50:58Z</time>
      </trkpt>
      <trkpt lat="46.38106" lon="5.32326">
        <ele>221.8</ele>
        <time>2022-04-04T11:51:03Z</time>
      </trkpt>
      <trkpt lat="46.38103" lon="5.32318">
        <ele>221.8</ele>
        <time>2022-04-04T11:51:04Z</time>
      </trkpt>
      <trkpt lat="46.38085" lon="5.32285">
        <ele>221.8</ele>
        <time>2022-04-04T11:51:09Z</time>
      </trkpt>
      <trkpt lat="46.38067" lon="5.32269">
        <ele>222.2</ele>
        <time>2022-04-04T11:51:13Z</time>
      </trkpt>
      <trkpt lat="46.38063" lon="5.32265">
        <ele>222.4</ele>
        <time>2022-04-04T11:51:14Z</time>
      </trkpt>
      <trkpt lat="46.38057" lon="5.32253">
        <ele>222.6</ele>
        <time>2022-04-04T11:51:16Z</time>
      </trkpt>
      <trkpt lat="46.38055" lon="5.32246">
        <ele>222.8</ele>
        <time>2022-04-04T11:51:17Z</time>
      </trkpt>
      <trkpt lat="46.38045" lon="5.32201">
        <ele>223.6</ele>
        <time>2022-04-04T11:51:22Z</time>
      </trkpt>
      <trkpt lat="46.38036" lon="5.32163">
        <ele>223.8</ele>
        <time>2022-04-04T11:51:26Z</time>
      </trkpt>
      <trkpt lat="46.38033" lon="5.32154">
        <ele>223.8</ele>
        <time>2022-04-04T11:51:27Z</time>
      </trkpt>
      <trkpt lat="46.38029" lon="5.32145">
        <ele>223.8</ele>
        <time>2022-04-04T11:51:28Z</time>
      </trkpt>
      <trkpt lat="46.37999" lon="5.32093">
        <ele>222.8</ele>
        <time>2022-04-04T11:51:34Z</time>
      </trkpt>
      <trkpt lat="46.37988" lon="5.32076">
        <ele>222.6</ele>
        <time>2022-04-04T11:51:36Z</time>
      </trkpt>
      <trkpt lat="46.37962" lon="5.32022">
        <ele>222</ele>
        <time>2022-04-04T11:51:42Z</time>
      </trkpt>
      <trkpt lat="46.37953" lon="5.31993">
        <ele>221.6</ele>
        <time>2022-04-04T11:51:45Z</time>
      </trkpt>
      <trkpt lat="46.37946" lon="5.31965">
        <ele>221.6</ele>
        <time>2022-04-04T11:51:48Z</time>
      </trkpt>
      <trkpt lat="46.37928" lon="5.31905">
        <ele>221.8</ele>
        <time>2022-04-04T11:51:55Z</time>
      </trkpt>
      <trkpt lat="46.37922" lon="5.3189">
        <ele>221.6</ele>
        <time>2022-04-04T11:51:57Z</time>
      </trkpt>
      <trkpt lat="46.3791" lon="5.31869">
        <ele>221.6</ele>
        <time>2022-04-04T11:52:00Z</time>
      </trkpt>
      <trkpt lat="46.37871" lon="5.31811">
        <ele>221.2</ele>
        <time>2022-04-04T11:52:08Z</time>
      </trkpt>
      <trkpt lat="46.37841" lon="5.31765">
        <ele>220.6</ele>
        <time>2022-04-04T11:52:14Z</time>
      </trkpt>
      <trkpt lat="46.37836" lon="5.31758">
        <ele>220.6</ele>
        <time>2022-04-04T11:52:15Z</time>
      </trkpt>
      <trkpt lat="46.37806" lon="5.31715">
        <ele>220.2</ele>
        <time>2022-04-04T11:52:21Z</time>
      </trkpt>
      <trkpt lat="46.37801" lon="5.31708">
        <ele>220.2</ele>
        <time>2022-04-04T11:52:22Z</time>
      </trkpt>
      <trkpt lat="46.37762" lon="5.31651">
        <ele>220.2</ele>
        <time>2022-04-04T11:52:30Z</time>
      </trkpt>
      <trkpt lat="46.37753" lon="5.31637">
        <ele>220</ele>
        <time>2022-04-04T11:52:32Z</time>
      </trkpt>
      <trkpt lat="46.37728" lon="5.31601">
        <ele>219.6</ele>
        <time>2022-04-04T11:52:37Z</time>
      </trkpt>
      <trkpt lat="46.37717" lon="5.31587">
        <ele>219.4</ele>
        <time>2022-04-04T11:52:39Z</time>
      </trkpt>
      <trkpt lat="46.37675" lon="5.31527">
        <ele>218.8</ele>
        <time>2022-04-04T11:52:47Z</time>
      </trkpt>
      <trkpt lat="46.37639" lon="5.31476">
        <ele>218.4</ele>
        <time>2022-04-04T11:52:54Z</time>
      </trkpt>
      <trkpt lat="46.37604" lon="5.31424">
        <ele>218</ele>
        <time>2022-04-04T11:53:01Z</time>
      </trkpt>
      <trkpt lat="46.37563" lon="5.31367">
        <ele>217.8</ele>
        <time>2022-04-04T11:53:09Z</time>
      </trkpt>
      <trkpt lat="46.37543" lon="5.31339">
        <ele>218</ele>
        <time>2022-04-04T11:53:13Z</time>
      </trkpt>
      <trkpt lat="46.37503" lon="5.3128">
        <ele>218.4</ele>
        <time>2022-04-04T11:53:21Z</time>
      </trkpt>
      <trkpt lat="46.37487" lon="5.31257">
        <ele>218.4</ele>
        <time>2022-04-04T11:53:24Z</time>
      </trkpt>
      <trkpt lat="46.37462" lon="5.3122">
        <ele>218.2</ele>
        <time>2022-04-04T11:53:29Z</time>
      </trkpt>
      <trkpt lat="46.37427" lon="5.31169">
        <ele>218.2</ele>
        <time>2022-04-04T11:53:36Z</time>
      </trkpt>
      <trkpt lat="46.37385" lon="5.31105">
        <ele>217.8</ele>
        <time>2022-04-04T11:53:44Z</time>
      </trkpt>
      <trkpt lat="46.37379" lon="5.31097">
        <ele>217.8</ele>
        <time>2022-04-04T11:53:45Z</time>
      </trkpt>
      <trkpt lat="46.37357" lon="5.31065">
        <ele>217.4</ele>
        <time>2022-04-04T11:53:49Z</time>
      </trkpt>
      <trkpt lat="46.37336" lon="5.31034">
        <ele>217.2</ele>
        <time>2022-04-04T11:53:53Z</time>
      </trkpt>
      <trkpt lat="46.37294" lon="5.30976">
        <ele>216.8</ele>
        <time>2022-04-04T11:54:01Z</time>
      </trkpt>
      <trkpt lat="46.37289" lon="5.30968">
        <ele>216.6</ele>
        <time>2022-04-04T11:54:02Z</time>
      </trkpt>
      <trkpt lat="46.3725" lon="5.3091">
        <ele>216.4</ele>
        <time>2022-04-04T11:54:10Z</time>
      </trkpt>
      <trkpt lat="46.37245" lon="5.30903">
        <ele>216.4</ele>
        <time>2022-04-04T11:54:11Z</time>
      </trkpt>
      <trkpt lat="46.37204" lon="5.30844">
        <ele>216.4</ele>
        <time>2022-04-04T11:54:19Z</time>
      </trkpt>
      <trkpt lat="46.37185" lon="5.30815">
        <ele>216.4</ele>
        <time>2022-04-04T11:54:23Z</time>
      </trkpt>
      <trkpt lat="46.37177" lon="5.308">
        <ele>216.4</ele>
        <time>2022-04-04T11:54:25Z</time>
      </trkpt>
      <trkpt lat="46.37153" lon="5.30742">
        <ele>216.4</ele>
        <time>2022-04-04T11:54:32Z</time>
      </trkpt>
      <trkpt lat="46.3713" lon="5.3067">
        <ele>216.6</ele>
        <time>2022-04-04T11:54:40Z</time>
      </trkpt>
      <trkpt lat="46.37118" lon="5.30591">
        <ele>216.4</ele>
        <time>2022-04-04T11:54:48Z</time>
      </trkpt>
      <trkpt lat="46.37121" lon="5.30531">
        <ele>216.4</ele>
        <time>2022-04-04T11:54:54Z</time>
      </trkpt>
      <trkpt lat="46.37128" lon="5.30444">
        <ele>216.4</ele>
        <time>2022-04-04T11:55:03Z</time>
      </trkpt>
      <trkpt lat="46.37134" lon="5.30372">
        <ele>216.4</ele>
        <time>2022-04-04T11:55:11Z</time>
      </trkpt>
      <trkpt lat="46.3714" lon="5.30295">
        <ele>217</ele>
        <time>2022-04-04T11:55:20Z</time>
      </trkpt>
      <trkpt lat="46.37143" lon="5.3027">
        <ele>217.4</ele>
        <time>2022-04-04T11:55:23Z</time>
      </trkpt>
      <trkpt lat="46.37148" lon="5.30255">
        <ele>217.6</ele>
        <time>2022-04-04T11:55:25Z</time>
      </trkpt>
      <trkpt lat="46.37151" lon="5.30249">
        <ele>217.6</ele>
        <time>2022-04-04T11:55:26Z</time>
      </trkpt>
      <trkpt lat="46.37155" lon="5.30243">
        <ele>217.8</ele>
        <time>2022-04-04T11:55:27Z</time>
      </trkpt>
      <trkpt lat="46.37162" lon="5.30234">
        <ele>218</ele>
        <time>2022-04-04T11:55:29Z</time>
      </trkpt>
      <trkpt lat="46.3717" lon="5.30229">
        <ele>218.8</ele>
        <time>2022-04-04T11:55:31Z</time>
      </trkpt>
      <trkpt lat="46.37183" lon="5.30222">
        <ele>219.2</ele>
        <time>2022-04-04T11:55:34Z</time>
      </trkpt>
      <trkpt lat="46.37195" lon="5.30217">
        <ele>220</ele>
        <time>2022-04-04T11:55:37Z</time>
      </trkpt>
      <trkpt lat="46.37211" lon="5.30209">
        <ele>221</ele>
        <time>2022-04-04T11:55:41Z</time>
      </trkpt>
      <trkpt lat="46.37218" lon="5.30206">
        <ele>221.6</ele>
        <time>2022-04-04T11:55:43Z</time>
      </trkpt>
      <trkpt lat="46.37231" lon="5.302">
        <ele>222.4</ele>
        <time>2022-04-04T11:55:46Z</time>
      </trkpt>
      <trkpt lat="46.3724" lon="5.30192">
        <ele>223.2</ele>
        <time>2022-04-04T11:55:49Z</time>
      </trkpt>
      <trkpt lat="46.37246" lon="5.30185">
        <ele>223.6</ele>
        <time>2022-04-04T11:55:51Z</time>
      </trkpt>
      <trkpt lat="46.37256" lon="5.30167">
        <ele>224.6</ele>
        <time>2022-04-04T11:55:55Z</time>
      </trkpt>
      <trkpt lat="46.37258" lon="5.30162">
        <ele>224.8</ele>
        <time>2022-04-04T11:55:56Z</time>
      </trkpt>
      <trkpt lat="46.37264" lon="5.30139">
        <ele>225.6</ele>
        <time>2022-04-04T11:56:00Z</time>
      </trkpt>
      <trkpt lat="46.37264" lon="5.30132">
        <ele>225.8</ele>
        <time>2022-04-04T11:56:01Z</time>
      </trkpt>
      <trkpt lat="46.37264" lon="5.30096">
        <ele>227</ele>
        <time>2022-04-04T11:56:07Z</time>
      </trkpt>
      <trkpt lat="46.37263" lon="5.30084">
        <ele>227.4</ele>
        <time>2022-04-04T11:56:09Z</time>
      </trkpt>
      <trkpt lat="46.37262" lon="5.30066">
        <ele>228.2</ele>
        <time>2022-04-04T11:56:12Z</time>
      </trkpt>
      <trkpt lat="46.37261" lon="5.30032">
        <ele>229.2</ele>
        <time>2022-04-04T11:56:18Z</time>
      </trkpt>
      <trkpt lat="46.37265" lon="5.30006">
        <ele>230.2</ele>
        <time>2022-04-04T11:56:23Z</time>
      </trkpt>
      <trkpt lat="46.37267" lon="5.30002">
        <ele>230.4</ele>
        <time>2022-04-04T11:56:24Z</time>
      </trkpt>
      <trkpt lat="46.37282" lon="5.29985">
        <ele>231.4</ele>
        <time>2022-04-04T11:56:29Z</time>
      </trkpt>
      <trkpt lat="46.37297" lon="5.29976">
        <ele>232.4</ele>
        <time>2022-04-04T11:56:33Z</time>
      </trkpt>
      <trkpt lat="46.3731" lon="5.29966">
        <ele>233.4</ele>
        <time>2022-04-04T11:56:37Z</time>
      </trkpt>
      <trkpt lat="46.37313" lon="5.29964">
        <ele>233.8</ele>
        <time>2022-04-04T11:56:38Z</time>
      </trkpt>
      <trkpt lat="46.37319" lon="5.29948">
        <ele>234.6</ele>
        <time>2022-04-04T11:56:41Z</time>
      </trkpt>
      <trkpt lat="46.37319" lon="5.29941">
        <ele>234.8</ele>
        <time>2022-04-04T11:56:42Z</time>
      </trkpt>
      <trkpt lat="46.37315" lon="5.29925">
        <ele>235.4</ele>
        <time>2022-04-04T11:56:45Z</time>
      </trkpt>
      <trkpt lat="46.3731" lon="5.29919">
        <ele>236.2</ele>
        <time>2022-04-04T11:56:47Z</time>
      </trkpt>
      <trkpt lat="46.373" lon="5.29909">
        <ele>236.8</ele>
        <time>2022-04-04T11:56:50Z</time>
      </trkpt>
      <trkpt lat="46.37296" lon="5.29907">
        <ele>237.4</ele>
        <time>2022-04-04T11:56:51Z</time>
      </trkpt>
      <trkpt lat="46.37277" lon="5.29904">
        <ele>238.6</ele>
        <time>2022-04-04T11:56:56Z</time>
      </trkpt>
      <trkpt lat="46.37259" lon="5.29908">
        <ele>239.6</ele>
        <time>2022-04-04T11:57:01Z</time>
      </trkpt>
      <trkpt lat="46.37247" lon="5.29911">
        <ele>240.4</ele>
        <time>2022-04-04T11:57:04Z</time>
      </trkpt>
      <trkpt lat="46.37243" lon="5.29912">
        <ele>240.8</ele>
        <time>2022-04-04T11:57:05Z</time>
      </trkpt>
      <trkpt lat="46.37218" lon="5.29923">
        <ele>241.8</ele>
        <time>2022-04-04T11:57:11Z</time>
      </trkpt>
      <trkpt lat="46.37214" lon="5.29925">
        <ele>241.8</ele>
        <time>2022-04-04T11:57:12Z</time>
      </trkpt>
      <trkpt lat="46.37196" lon="5.29932">
        <ele>242.8</ele>
        <time>2022-04-04T11:57:16Z</time>
      </trkpt>
      <trkpt lat="46.37186" lon="5.29931">
        <ele>243</ele>
        <time>2022-04-04T11:57:18Z</time>
      </trkpt>
      <trkpt lat="46.37167" lon="5.29925">
        <ele>243</ele>
        <time>2022-04-04T11:57:22Z</time>
      </trkpt>
      <trkpt lat="46.37158" lon="5.2992">
        <ele>243.2</ele>
        <time>2022-04-04T11:57:24Z</time>
      </trkpt>
      <trkpt lat="46.37154" lon="5.29917">
        <ele>243.2</ele>
        <time>2022-04-04T11:57:25Z</time>
      </trkpt>
      <trkpt lat="46.37129" lon="5.29899">
        <ele>243.4</ele>
        <time>2022-04-04T11:57:30Z</time>
      </trkpt>
      <trkpt lat="46.37098" lon="5.29876">
        <ele>242.6</ele>
        <time>2022-04-04T11:57:35Z</time>
      </trkpt>
      <trkpt lat="46.37079" lon="5.29863">
        <ele>241.8</ele>
        <time>2022-04-04T11:57:38Z</time>
      </trkpt>
      <trkpt lat="46.37054" lon="5.29842">
        <ele>240.6</ele>
        <time>2022-04-04T11:57:42Z</time>
      </trkpt>
      <trkpt lat="46.3704" lon="5.2983">
        <ele>240.2</ele>
        <time>2022-04-04T11:57:44Z</time>
      </trkpt>
      <trkpt lat="46.37034" lon="5.29822">
        <ele>240.2</ele>
        <time>2022-04-04T11:57:45Z</time>
      </trkpt>
      <trkpt lat="46.37025" lon="5.29802">
        <ele>239.6</ele>
        <time>2022-04-04T11:57:47Z</time>
      </trkpt>
      <trkpt lat="46.37023" lon="5.2979">
        <ele>239.2</ele>
        <time>2022-04-04T11:57:48Z</time>
      </trkpt>
      <trkpt lat="46.37021" lon="5.29778">
        <ele>238.8</ele>
        <time>2022-04-04T11:57:49Z</time>
      </trkpt>
      <trkpt lat="46.3702" lon="5.29765">
        <ele>238.6</ele>
        <time>2022-04-04T11:57:50Z</time>
      </trkpt>
      <trkpt lat="46.37019" lon="5.29753">
        <ele>238</ele>
        <time>2022-04-04T11:57:51Z</time>
      </trkpt>
      <trkpt lat="46.37019" lon="5.29715">
        <ele>237</ele>
        <time>2022-04-04T11:57:54Z</time>
      </trkpt>
      <trkpt lat="46.37018" lon="5.2969">
        <ele>236.2</ele>
        <time>2022-04-04T11:57:56Z</time>
      </trkpt>
      <trkpt lat="46.37018" lon="5.29664">
        <ele>235.6</ele>
        <time>2022-04-04T11:57:58Z</time>
      </trkpt>
      <trkpt lat="46.37017" lon="5.29623">
        <ele>234.4</ele>
        <time>2022-04-04T11:58:01Z</time>
      </trkpt>
      <trkpt lat="46.37016" lon="5.29608">
        <ele>233.8</ele>
        <time>2022-04-04T11:58:02Z</time>
      </trkpt>
      <trkpt lat="46.37016" lon="5.29594">
        <ele>233.4</ele>
        <time>2022-04-04T11:58:03Z</time>
      </trkpt>
      <trkpt lat="46.37015" lon="5.29565">
        <ele>231.8</ele>
        <time>2022-04-04T11:58:05Z</time>
      </trkpt>
      <trkpt lat="46.37013" lon="5.29524">
        <ele>230.6</ele>
        <time>2022-04-04T11:58:08Z</time>
      </trkpt>
      <trkpt lat="46.37012" lon="5.29511">
        <ele>230</ele>
        <time>2022-04-04T11:58:09Z</time>
      </trkpt>
      <trkpt lat="46.37009" lon="5.29498">
        <ele>229.4</ele>
        <time>2022-04-04T11:58:10Z</time>
      </trkpt>
      <trkpt lat="46.37005" lon="5.29487">
        <ele>229</ele>
        <time>2022-04-04T11:58:11Z</time>
      </trkpt>
      <trkpt lat="46.37001" lon="5.29476">
        <ele>228.4</ele>
        <time>2022-04-04T11:58:12Z</time>
      </trkpt>
      <trkpt lat="46.36973" lon="5.29436">
        <ele>227.2</ele>
        <time>2022-04-04T11:58:17Z</time>
      </trkpt>
      <trkpt lat="46.36946" lon="5.29399">
        <ele>227.8</ele>
        <time>2022-04-04T11:58:23Z</time>
      </trkpt>
      <trkpt lat="46.36935" lon="5.29384">
        <ele>228.4</ele>
        <time>2022-04-04T11:58:26Z</time>
      </trkpt>
      <trkpt lat="46.36928" lon="5.29373">
        <ele>229</ele>
        <time>2022-04-04T11:58:28Z</time>
      </trkpt>
      <trkpt lat="46.36922" lon="5.29361">
        <ele>229.4</ele>
        <time>2022-04-04T11:58:30Z</time>
      </trkpt>
      <trkpt lat="46.3692" lon="5.29354">
        <ele>229.4</ele>
        <time>2022-04-04T11:58:31Z</time>
      </trkpt>
      <trkpt lat="46.3691" lon="5.29329">
        <ele>231</ele>
        <time>2022-04-04T11:58:35Z</time>
      </trkpt>
      <trkpt lat="46.36901" lon="5.29305">
        <ele>231.6</ele>
        <time>2022-04-04T11:58:39Z</time>
      </trkpt>
      <trkpt lat="46.36898" lon="5.29299">
        <ele>231.8</ele>
        <time>2022-04-04T11:58:40Z</time>
      </trkpt>
      <trkpt lat="46.36887" lon="5.29271">
        <ele>232.8</ele>
        <time>2022-04-04T11:58:45Z</time>
      </trkpt>
      <trkpt lat="46.36879" lon="5.29253">
        <ele>233.4</ele>
        <time>2022-04-04T11:58:48Z</time>
      </trkpt>
      <trkpt lat="46.36875" lon="5.29239">
        <ele>234</ele>
        <time>2022-04-04T11:58:50Z</time>
      </trkpt>
      <trkpt lat="46.3686" lon="5.29203">
        <ele>235</ele>
        <time>2022-04-04T11:58:56Z</time>
      </trkpt>
      <trkpt lat="46.36858" lon="5.29199">
        <ele>235.2</ele>
        <time>2022-04-04T11:58:57Z</time>
      </trkpt>
      <trkpt lat="46.36855" lon="5.29194">
        <ele>235.2</ele>
        <time>2022-04-04T11:58:58Z</time>
      </trkpt>
      <trkpt lat="46.36841" lon="5.29168">
        <ele>236</ele>
        <time>2022-04-04T11:59:03Z</time>
      </trkpt>
      <trkpt lat="46.36839" lon="5.29164">
        <ele>236.2</ele>
        <time>2022-04-04T11:59:04Z</time>
      </trkpt>
      <trkpt lat="46.36827" lon="5.29142">
        <ele>237.6</ele>
        <time>2022-04-04T11:59:09Z</time>
      </trkpt>
      <trkpt lat="46.36824" lon="5.29138">
        <ele>237.8</ele>
        <time>2022-04-04T11:59:10Z</time>
      </trkpt>
      <trkpt lat="46.36816" lon="5.29129">
        <ele>238.6</ele>
        <time>2022-04-04T11:59:13Z</time>
      </trkpt>
      <trkpt lat="46.36806" lon="5.29115">
        <ele>239.8</ele>
        <time>2022-04-04T11:59:17Z</time>
      </trkpt>
      <trkpt lat="46.36795" lon="5.29102">
        <ele>240.8</ele>
        <time>2022-04-04T11:59:21Z</time>
      </trkpt>
      <trkpt lat="46.36789" lon="5.29091">
        <ele>241.2</ele>
        <time>2022-04-04T11:59:24Z</time>
      </trkpt>
      <trkpt lat="46.36794" lon="5.2908">
        <ele>241.6</ele>
        <time>2022-04-04T11:59:27Z</time>
      </trkpt>
      <trkpt lat="46.36797" lon="5.29078">
        <ele>242</ele>
        <time>2022-04-04T11:59:28Z</time>
      </trkpt>
      <trkpt lat="46.36816" lon="5.29073">
        <ele>243</ele>
        <time>2022-04-04T11:59:33Z</time>
      </trkpt>
      <trkpt lat="46.36846" lon="5.29076">
        <ele>244.2</ele>
        <time>2022-04-04T11:59:40Z</time>
      </trkpt>
      <trkpt lat="46.36855" lon="5.29078">
        <ele>244.4</ele>
        <time>2022-04-04T11:59:42Z</time>
      </trkpt>
      <trkpt lat="46.36875" lon="5.29087">
        <ele>245</ele>
        <time>2022-04-04T11:59:47Z</time>
      </trkpt>
      <trkpt lat="46.36884" lon="5.29093">
        <ele>245.2</ele>
        <time>2022-04-04T11:59:49Z</time>
      </trkpt>
      <trkpt lat="46.36887" lon="5.29096">
        <ele>245.2</ele>
        <time>2022-04-04T11:59:50Z</time>
      </trkpt>
      <trkpt lat="46.36895" lon="5.29103">
        <ele>245.2</ele>
        <time>2022-04-04T11:59:52Z</time>
      </trkpt>
      <trkpt lat="46.36898" lon="5.29107">
        <ele>245.4</ele>
        <time>2022-04-04T11:59:53Z</time>
      </trkpt>
      <trkpt lat="46.36931" lon="5.29146">
        <ele>246</ele>
        <time>2022-04-04T12:00:01Z</time>
      </trkpt>
      <trkpt lat="46.3694" lon="5.29155">
        <ele>246.2</ele>
        <time>2022-04-04T12:00:03Z</time>
      </trkpt>
      <trkpt lat="46.36945" lon="5.29158">
        <ele>246.2</ele>
        <time>2022-04-04T12:00:04Z</time>
      </trkpt>
      <trkpt lat="46.3695" lon="5.29162">
        <ele>246.4</ele>
        <time>2022-04-04T12:00:05Z</time>
      </trkpt>
      <trkpt lat="46.36956" lon="5.29164">
        <ele>246.4</ele>
        <time>2022-04-04T12:00:06Z</time>
      </trkpt>
      <trkpt lat="46.36989" lon="5.2917">
        <ele>246.6</ele>
        <time>2022-04-04T12:00:12Z</time>
      </trkpt>
      <trkpt lat="46.37021" lon="5.29169">
        <ele>247.4</ele>
        <time>2022-04-04T12:00:18Z</time>
      </trkpt>
      <trkpt lat="46.37037" lon="5.29169">
        <ele>247.8</ele>
        <time>2022-04-04T12:00:21Z</time>
      </trkpt>
      <trkpt lat="46.37043" lon="5.29167">
        <ele>247.8</ele>
        <time>2022-04-04T12:00:22Z</time>
      </trkpt>
      <trkpt lat="46.37054" lon="5.29159">
        <ele>247.8</ele>
        <time>2022-04-04T12:00:24Z</time>
      </trkpt>
      <trkpt lat="46.3706" lon="5.29145">
        <ele>247.8</ele>
        <time>2022-04-04T12:00:26Z</time>
      </trkpt>
      <trkpt lat="46.37059" lon="5.29137">
        <ele>247.6</ele>
        <time>2022-04-04T12:00:27Z</time>
      </trkpt>
      <trkpt lat="46.37046" lon="5.2908">
        <ele>247.4</ele>
        <time>2022-04-04T12:00:34Z</time>
      </trkpt>
      <trkpt lat="46.3704" lon="5.29047">
        <ele>247.4</ele>
        <time>2022-04-04T12:00:38Z</time>
      </trkpt>
      <trkpt lat="46.37043" lon="5.29031">
        <ele>247.4</ele>
        <time>2022-04-04T12:00:40Z</time>
      </trkpt>
      <trkpt lat="46.37052" lon="5.29023">
        <ele>247.4</ele>
        <time>2022-04-04T12:00:42Z</time>
      </trkpt>
      <trkpt lat="46.37058" lon="5.29021">
        <ele>247.4</ele>
        <time>2022-04-04T12:00:43Z</time>
      </trkpt>
      <trkpt lat="46.37105" lon="5.29013">
        <ele>247.4</ele>
        <time>2022-04-04T12:00:51Z</time>
      </trkpt>
      <trkpt lat="46.37111" lon="5.29012">
        <ele>247.8</ele>
        <time>2022-04-04T12:00:52Z</time>
      </trkpt>
      <trkpt lat="46.37135" lon="5.29011">
        <ele>248</ele>
        <time>2022-04-04T12:00:56Z</time>
      </trkpt>
      <trkpt lat="46.37147" lon="5.29016">
        <ele>248.2</ele>
        <time>2022-04-04T12:00:58Z</time>
      </trkpt>
      <trkpt lat="46.37157" lon="5.29026">
        <ele>248.2</ele>
        <time>2022-04-04T12:01:00Z</time>
      </trkpt>
      <trkpt lat="46.37162" lon="5.29041">
        <ele>248</ele>
        <time>2022-04-04T12:01:02Z</time>
      </trkpt>
      <trkpt lat="46.37164" lon="5.2905">
        <ele>248</ele>
        <time>2022-04-04T12:01:03Z</time>
      </trkpt>
      <trkpt lat="46.37167" lon="5.29057">
        <ele>247.6</ele>
        <time>2022-04-04T12:01:04Z</time>
      </trkpt>
      <trkpt lat="46.37176" lon="5.29067">
        <ele>247.8</ele>
        <time>2022-04-04T12:01:06Z</time>
      </trkpt>
      <trkpt lat="46.37188" lon="5.2907">
        <ele>247.8</ele>
        <time>2022-04-04T12:01:08Z</time>
      </trkpt>
      <trkpt lat="46.37201" lon="5.2907">
        <ele>247.8</ele>
        <time>2022-04-04T12:01:10Z</time>
      </trkpt>
      <trkpt lat="46.37234" lon="5.29066">
        <ele>248</ele>
        <time>2022-04-04T12:01:15Z</time>
      </trkpt>
      <trkpt lat="46.37247" lon="5.29058">
        <ele>248</ele>
        <time>2022-04-04T12:01:17Z</time>
      </trkpt>
      <trkpt lat="46.37253" lon="5.29053">
        <ele>248.2</ele>
        <time>2022-04-04T12:01:18Z</time>
      </trkpt>
      <trkpt lat="46.37272" lon="5.29039">
        <ele>248</ele>
        <time>2022-04-04T12:01:21Z</time>
      </trkpt>
      <trkpt lat="46.37286" lon="5.29035">
        <ele>247.8</ele>
        <time>2022-04-04T12:01:23Z</time>
      </trkpt>
      <trkpt lat="46.37294" lon="5.29036">
        <ele>247.8</ele>
        <time>2022-04-04T12:01:24Z</time>
      </trkpt>
      <trkpt lat="46.37329" lon="5.2905">
        <ele>247.2</ele>
        <time>2022-04-04T12:01:29Z</time>
      </trkpt>
      <trkpt lat="46.37336" lon="5.29055">
        <ele>247</ele>
        <time>2022-04-04T12:01:30Z</time>
      </trkpt>
      <trkpt lat="46.37342" lon="5.29062">
        <ele>247</ele>
        <time>2022-04-04T12:01:31Z</time>
      </trkpt>
      <trkpt lat="46.37352" lon="5.2908">
        <ele>246.8</ele>
        <time>2022-04-04T12:01:33Z</time>
      </trkpt>
      <trkpt lat="46.37354" lon="5.2909">
        <ele>246.4</ele>
        <time>2022-04-04T12:01:34Z</time>
      </trkpt>
      <trkpt lat="46.37359" lon="5.29112">
        <ele>245.8</ele>
        <time>2022-04-04T12:01:36Z</time>
      </trkpt>
      <trkpt lat="46.37362" lon="5.29122">
        <ele>245.4</ele>
        <time>2022-04-04T12:01:37Z</time>
      </trkpt>
      <trkpt lat="46.37366" lon="5.29131">
        <ele>245.4</ele>
        <time>2022-04-04T12:01:38Z</time>
      </trkpt>
      <trkpt lat="46.37383" lon="5.29156">
        <ele>244.8</ele>
        <time>2022-04-04T12:01:41Z</time>
      </trkpt>
      <trkpt lat="46.37399" lon="5.29182">
        <ele>244.4</ele>
        <time>2022-04-04T12:01:44Z</time>
      </trkpt>
      <trkpt lat="46.37408" lon="5.29202">
        <ele>244.2</ele>
        <time>2022-04-04T12:01:46Z</time>
      </trkpt>
      <trkpt lat="46.37416" lon="5.29233">
        <ele>244.2</ele>
        <time>2022-04-04T12:01:49Z</time>
      </trkpt>
      <trkpt lat="46.37419" lon="5.29242">
        <ele>244</ele>
        <time>2022-04-04T12:01:50Z</time>
      </trkpt>
      <trkpt lat="46.37424" lon="5.29251">
        <ele>243.8</ele>
        <time>2022-04-04T12:01:51Z</time>
      </trkpt>
      <trkpt lat="46.37435" lon="5.29266">
        <ele>243.6</ele>
        <time>2022-04-04T12:01:53Z</time>
      </trkpt>
      <trkpt lat="46.37446" lon="5.2928">
        <ele>243.6</ele>
        <time>2022-04-04T12:01:55Z</time>
      </trkpt>
      <trkpt lat="46.37452" lon="5.29282">
        <ele>243.6</ele>
        <time>2022-04-04T12:01:56Z</time>
      </trkpt>
      <trkpt lat="46.37459" lon="5.2928">
        <ele>243.4</ele>
        <time>2022-04-04T12:01:57Z</time>
      </trkpt>
      <trkpt lat="46.37464" lon="5.29273">
        <ele>243.2</ele>
        <time>2022-04-04T12:01:58Z</time>
      </trkpt>
      <trkpt lat="46.37468" lon="5.29262">
        <ele>243.2</ele>
        <time>2022-04-04T12:01:59Z</time>
      </trkpt>
      <trkpt lat="46.37472" lon="5.29237">
        <ele>242.8</ele>
        <time>2022-04-04T12:02:01Z</time>
      </trkpt>
      <trkpt lat="46.37481" lon="5.29196">
        <ele>242.2</ele>
        <time>2022-04-04T12:02:04Z</time>
      </trkpt>
      <trkpt lat="46.37487" lon="5.29168">
        <ele>241.4</ele>
        <time>2022-04-04T12:02:06Z</time>
      </trkpt>
      <trkpt lat="46.37491" lon="5.29154">
        <ele>240.8</ele>
        <time>2022-04-04T12:02:07Z</time>
      </trkpt>
      <trkpt lat="46.37502" lon="5.29129">
        <ele>239.6</ele>
        <time>2022-04-04T12:02:09Z</time>
      </trkpt>
      <trkpt lat="46.37524" lon="5.29099">
        <ele>238.4</ele>
        <time>2022-04-04T12:02:12Z</time>
      </trkpt>
      <trkpt lat="46.37531" lon="5.2909">
        <ele>238</ele>
        <time>2022-04-04T12:02:13Z</time>
      </trkpt>
      <trkpt lat="46.37566" lon="5.2905">
        <ele>237.4</ele>
        <time>2022-04-04T12:02:18Z</time>
      </trkpt>
      <trkpt lat="46.37591" lon="5.29022">
        <ele>237.4</ele>
        <time>2022-04-04T12:02:22Z</time>
      </trkpt>
      <trkpt lat="46.37602" lon="5.29009">
        <ele>237.4</ele>
        <time>2022-04-04T12:02:24Z</time>
      </trkpt>
      <trkpt lat="46.37642" lon="5.2896">
        <ele>238.4</ele>
        <time>2022-04-04T12:02:31Z</time>
      </trkpt>
      <trkpt lat="46.37647" lon="5.28953">
        <ele>238.6</ele>
        <time>2022-04-04T12:02:32Z</time>
      </trkpt>
      <trkpt lat="46.37652" lon="5.28947">
        <ele>238.8</ele>
        <time>2022-04-04T12:02:33Z</time>
      </trkpt>
      <trkpt lat="46.37664" lon="5.28937">
        <ele>239</ele>
        <time>2022-04-04T12:02:35Z</time>
      </trkpt>
      <trkpt lat="46.377" lon="5.28915">
        <ele>239</ele>
        <time>2022-04-04T12:02:40Z</time>
      </trkpt>
      <trkpt lat="46.37708" lon="5.28909">
        <ele>239</ele>
        <time>2022-04-04T12:02:41Z</time>
      </trkpt>
      <trkpt lat="46.37733" lon="5.28885">
        <ele>238.2</ele>
        <time>2022-04-04T12:02:44Z</time>
      </trkpt>
      <trkpt lat="46.3774" lon="5.28875">
        <ele>237.4</ele>
        <time>2022-04-04T12:02:45Z</time>
      </trkpt>
      <trkpt lat="46.37757" lon="5.2884">
        <ele>235.8</ele>
        <time>2022-04-04T12:02:48Z</time>
      </trkpt>
      <trkpt lat="46.37769" lon="5.28803">
        <ele>234.6</ele>
        <time>2022-04-04T12:02:51Z</time>
      </trkpt>
      <trkpt lat="46.37773" lon="5.2879">
        <ele>233.6</ele>
        <time>2022-04-04T12:02:52Z</time>
      </trkpt>
      <trkpt lat="46.3778" lon="5.28764">
        <ele>232.4</ele>
        <time>2022-04-04T12:02:54Z</time>
      </trkpt>
      <trkpt lat="46.3779" lon="5.28723">
        <ele>231.4</ele>
        <time>2022-04-04T12:02:57Z</time>
      </trkpt>
      <trkpt lat="46.37803" lon="5.28679">
        <ele>229.6</ele>
        <time>2022-04-04T12:03:00Z</time>
      </trkpt>
      <trkpt lat="46.37813" lon="5.28652">
        <ele>227.8</ele>
        <time>2022-04-04T12:03:02Z</time>
      </trkpt>
      <trkpt lat="46.37824" lon="5.28628">
        <ele>226.4</ele>
        <time>2022-04-04T12:03:04Z</time>
      </trkpt>
      <trkpt lat="46.3783" lon="5.28616">
        <ele>226</ele>
        <time>2022-04-04T12:03:05Z</time>
      </trkpt>
      <trkpt lat="46.37835" lon="5.28603">
        <ele>225.4</ele>
        <time>2022-04-04T12:03:06Z</time>
      </trkpt>
      <trkpt lat="46.37838" lon="5.2859">
        <ele>225.2</ele>
        <time>2022-04-04T12:03:07Z</time>
      </trkpt>
      <trkpt lat="46.37841" lon="5.28577">
        <ele>224.6</ele>
        <time>2022-04-04T12:03:08Z</time>
      </trkpt>
      <trkpt lat="46.37843" lon="5.28564">
        <ele>224</ele>
        <time>2022-04-04T12:03:09Z</time>
      </trkpt>
      <trkpt lat="46.37849" lon="5.28514">
        <ele>223.2</ele>
        <time>2022-04-04T12:03:13Z</time>
      </trkpt>
      <trkpt lat="46.3786" lon="5.28465">
        <ele>223.4</ele>
        <time>2022-04-04T12:03:18Z</time>
      </trkpt>
      <trkpt lat="46.37872" lon="5.28423">
        <ele>224.8</ele>
        <time>2022-04-04T12:03:24Z</time>
      </trkpt>
      <trkpt lat="46.37875" lon="5.28416">
        <ele>225.4</ele>
        <time>2022-04-04T12:03:25Z</time>
      </trkpt>
      <trkpt lat="46.37884" lon="5.28394">
        <ele>226.6</ele>
        <time>2022-04-04T12:03:29Z</time>
      </trkpt>
      <trkpt lat="46.37886" lon="5.28389">
        <ele>227</ele>
        <time>2022-04-04T12:03:30Z</time>
      </trkpt>
      <trkpt lat="46.37888" lon="5.28384">
        <ele>227.8</ele>
        <time>2022-04-04T12:03:31Z</time>
      </trkpt>
      <trkpt lat="46.37895" lon="5.28371">
        <ele>229.2</ele>
        <time>2022-04-04T12:03:34Z</time>
      </trkpt>
      <trkpt lat="46.37899" lon="5.28361">
        <ele>230.2</ele>
        <time>2022-04-04T12:03:36Z</time>
      </trkpt>
      <trkpt lat="46.37901" lon="5.28357">
        <ele>230.8</ele>
        <time>2022-04-04T12:03:37Z</time>
      </trkpt>
      <trkpt lat="46.37904" lon="5.28353">
        <ele>231.4</ele>
        <time>2022-04-04T12:03:38Z</time>
      </trkpt>
      <trkpt lat="46.37914" lon="5.28337">
        <ele>232.6</ele>
        <time>2022-04-04T12:03:42Z</time>
      </trkpt>
      <trkpt lat="46.37921" lon="5.28325">
        <ele>233.8</ele>
        <time>2022-04-04T12:03:45Z</time>
      </trkpt>
      <trkpt lat="46.37928" lon="5.28312">
        <ele>234.8</ele>
        <time>2022-04-04T12:03:48Z</time>
      </trkpt>
      <trkpt lat="46.37937" lon="5.28288">
        <ele>235.8</ele>
        <time>2022-04-04T12:03:53Z</time>
      </trkpt>
      <trkpt lat="46.3794" lon="5.28283">
        <ele>236.2</ele>
        <time>2022-04-04T12:03:54Z</time>
      </trkpt>
      <trkpt lat="46.37956" lon="5.28254">
        <ele>236</ele>
        <time>2022-04-04T12:03:59Z</time>
      </trkpt>
      <trkpt lat="46.37981" lon="5.28214">
        <ele>235.4</ele>
        <time>2022-04-04T12:04:04Z</time>
      </trkpt>
      <trkpt lat="46.37996" lon="5.28199">
        <ele>234.6</ele>
        <time>2022-04-04T12:04:06Z</time>
      </trkpt>
      <trkpt lat="46.38005" lon="5.28193">
        <ele>234.2</ele>
        <time>2022-04-04T12:04:07Z</time>
      </trkpt>
      <trkpt lat="46.38013" lon="5.28186">
        <ele>233.6</ele>
        <time>2022-04-04T12:04:08Z</time>
      </trkpt>
      <trkpt lat="46.38022" lon="5.28179">
        <ele>232.2</ele>
        <time>2022-04-04T12:04:09Z</time>
      </trkpt>
      <trkpt lat="46.38039" lon="5.28162">
        <ele>231</ele>
        <time>2022-04-04T12:04:11Z</time>
      </trkpt>
      <trkpt lat="46.38048" lon="5.28151">
        <ele>230.6</ele>
        <time>2022-04-04T12:04:12Z</time>
      </trkpt>
      <trkpt lat="46.38063" lon="5.28128">
        <ele>230</ele>
        <time>2022-04-04T12:04:14Z</time>
      </trkpt>
      <trkpt lat="46.38078" lon="5.28105">
        <ele>228.8</ele>
        <time>2022-04-04T12:04:16Z</time>
      </trkpt>
      <trkpt lat="46.38086" lon="5.28094">
        <ele>227.6</ele>
        <time>2022-04-04T12:04:17Z</time>
      </trkpt>
      <trkpt lat="46.38093" lon="5.28082">
        <ele>226.6</ele>
        <time>2022-04-04T12:04:18Z</time>
      </trkpt>
      <trkpt lat="46.38099" lon="5.28074">
        <ele>226.2</ele>
        <time>2022-04-04T12:04:19Z</time>
      </trkpt>
      <trkpt lat="46.38123" lon="5.28039">
        <ele>224.8</ele>
        <time>2022-04-04T12:04:22Z</time>
      </trkpt>
      <trkpt lat="46.38144" lon="5.28011">
        <ele>223.8</ele>
        <time>2022-04-04T12:04:25Z</time>
      </trkpt>
      <trkpt lat="46.38157" lon="5.27991">
        <ele>223.4</ele>
        <time>2022-04-04T12:04:27Z</time>
      </trkpt>
      <trkpt lat="46.38162" lon="5.2798">
        <ele>223.2</ele>
        <time>2022-04-04T12:04:28Z</time>
      </trkpt>
      <trkpt lat="46.38166" lon="5.27968">
        <ele>223</ele>
        <time>2022-04-04T12:04:29Z</time>
      </trkpt>
      <trkpt lat="46.3817" lon="5.27942">
        <ele>222.4</ele>
        <time>2022-04-04T12:04:31Z</time>
      </trkpt>
      <trkpt lat="46.38178" lon="5.27878">
        <ele>221.4</ele>
        <time>2022-04-04T12:04:36Z</time>
      </trkpt>
      <trkpt lat="46.3818" lon="5.27854">
        <ele>221</ele>
        <time>2022-04-04T12:04:38Z</time>
      </trkpt>
      <trkpt lat="46.38185" lon="5.27798">
        <ele>220.8</ele>
        <time>2022-04-04T12:04:43Z</time>
      </trkpt>
      <trkpt lat="46.38188" lon="5.27788">
        <ele>220.6</ele>
        <time>2022-04-04T12:04:44Z</time>
      </trkpt>
      <trkpt lat="46.38192" lon="5.2778">
        <ele>220.6</ele>
        <time>2022-04-04T12:04:45Z</time>
      </trkpt>
      <trkpt lat="46.38203" lon="5.27768">
        <ele>220.6</ele>
        <time>2022-04-04T12:04:47Z</time>
      </trkpt>
      <trkpt lat="46.38244" lon="5.27741">
        <ele>221</ele>
        <time>2022-04-04T12:04:54Z</time>
      </trkpt>
      <trkpt lat="46.38287" lon="5.27729">
        <ele>221.6</ele>
        <time>2022-04-04T12:05:01Z</time>
      </trkpt>
      <trkpt lat="46.38292" lon="5.27727">
        <ele>221.8</ele>
        <time>2022-04-04T12:05:02Z</time>
      </trkpt>
      <trkpt lat="46.38316" lon="5.27717">
        <ele>222.2</ele>
        <time>2022-04-04T12:05:06Z</time>
      </trkpt>
      <trkpt lat="46.38327" lon="5.2771">
        <ele>222.4</ele>
        <time>2022-04-04T12:05:08Z</time>
      </trkpt>
      <trkpt lat="46.38361" lon="5.27685">
        <ele>223</ele>
        <time>2022-04-04T12:05:15Z</time>
      </trkpt>
      <trkpt lat="46.38385" lon="5.27669">
        <ele>223.4</ele>
        <time>2022-04-04T12:05:20Z</time>
      </trkpt>
      <trkpt lat="46.38397" lon="5.2766">
        <ele>223.6</ele>
        <time>2022-04-04T12:05:23Z</time>
      </trkpt>
      <trkpt lat="46.3842" lon="5.27635">
        <ele>224.6</ele>
        <time>2022-04-04T12:05:29Z</time>
      </trkpt>
      <trkpt lat="46.38423" lon="5.27631">
        <ele>224.8</ele>
        <time>2022-04-04T12:05:30Z</time>
      </trkpt>
      <trkpt lat="46.38436" lon="5.27614">
        <ele>225.8</ele>
        <time>2022-04-04T12:05:34Z</time>
      </trkpt>
      <trkpt lat="46.3846" lon="5.27585">
        <ele>226.8</ele>
        <time>2022-04-04T12:05:41Z</time>
      </trkpt>
      <trkpt lat="46.38482" lon="5.27558">
        <ele>228</ele>
        <time>2022-04-04T12:05:47Z</time>
      </trkpt>
      <trkpt lat="46.38492" lon="5.27547">
        <ele>228.6</ele>
        <time>2022-04-04T12:05:50Z</time>
      </trkpt>
      <trkpt lat="46.38502" lon="5.27537">
        <ele>229</ele>
        <time>2022-04-04T12:05:53Z</time>
      </trkpt>
      <trkpt lat="46.38514" lon="5.27524">
        <ele>230.4</ele>
        <time>2022-04-04T12:05:57Z</time>
      </trkpt>
      <trkpt lat="46.38517" lon="5.27522">
        <ele>230.6</ele>
        <time>2022-04-04T12:05:58Z</time>
      </trkpt>
      <trkpt lat="46.38527" lon="5.27517">
        <ele>231.8</ele>
        <time>2022-04-04T12:06:01Z</time>
      </trkpt>
      <trkpt lat="46.38535" lon="5.27512">
        <ele>233</ele>
        <time>2022-04-04T12:06:04Z</time>
      </trkpt>
      <trkpt lat="46.38538" lon="5.27511">
        <ele>233.4</ele>
        <time>2022-04-04T12:06:05Z</time>
      </trkpt>
      <trkpt lat="46.38544" lon="5.27508">
        <ele>234</ele>
        <time>2022-04-04T12:06:07Z</time>
      </trkpt>
      <trkpt lat="46.38553" lon="5.27505">
        <ele>235.2</ele>
        <time>2022-04-04T12:06:10Z</time>
      </trkpt>
      <trkpt lat="46.38556" lon="5.27505">
        <ele>235.4</ele>
        <time>2022-04-04T12:06:11Z</time>
      </trkpt>
      <trkpt lat="46.38562" lon="5.27501">
        <ele>236.4</ele>
        <time>2022-04-04T12:06:13Z</time>
      </trkpt>
      <trkpt lat="46.38574" lon="5.27491">
        <ele>237.8</ele>
        <time>2022-04-04T12:06:17Z</time>
      </trkpt>
      <trkpt lat="46.38588" lon="5.2748">
        <ele>238.8</ele>
        <time>2022-04-04T12:06:21Z</time>
      </trkpt>
      <trkpt lat="46.38597" lon="5.2747">
        <ele>239.6</ele>
        <time>2022-04-04T12:06:24Z</time>
      </trkpt>
      <trkpt lat="46.386" lon="5.27466">
        <ele>239.8</ele>
        <time>2022-04-04T12:06:25Z</time>
      </trkpt>
      <trkpt lat="46.38609" lon="5.27456">
        <ele>240.8</ele>
        <time>2022-04-04T12:06:28Z</time>
      </trkpt>
      <trkpt lat="46.38612" lon="5.27452">
        <ele>241</ele>
        <time>2022-04-04T12:06:29Z</time>
      </trkpt>
      <trkpt lat="46.3862" lon="5.27437">
        <ele>242</ele>
        <time>2022-04-04T12:06:33Z</time>
      </trkpt>
      <trkpt lat="46.38622" lon="5.27433">
        <ele>242.2</ele>
        <time>2022-04-04T12:06:34Z</time>
      </trkpt>
      <trkpt lat="46.38629" lon="5.27421">
        <ele>243</ele>
        <time>2022-04-04T12:06:37Z</time>
      </trkpt>
      <trkpt lat="46.38638" lon="5.27413">
        <ele>243.4</ele>
        <time>2022-04-04T12:06:40Z</time>
      </trkpt>
      <trkpt lat="46.38642" lon="5.27412">
        <ele>243.4</ele>
        <time>2022-04-04T12:06:41Z</time>
      </trkpt>
      <trkpt lat="46.38651" lon="5.27414">
        <ele>244</ele>
        <time>2022-04-04T12:06:43Z</time>
      </trkpt>
      <trkpt lat="46.38655" lon="5.27416">
        <ele>244</ele>
        <time>2022-04-04T12:06:44Z</time>
      </trkpt>
      <trkpt lat="46.38682" lon="5.27437">
        <ele>245</ele>
        <time>2022-04-04T12:06:50Z</time>
      </trkpt>
      <trkpt lat="46.38713" lon="5.27464">
        <ele>245</ele>
        <time>2022-04-04T12:06:56Z</time>
      </trkpt>
      <trkpt lat="46.38724" lon="5.27473">
        <ele>245</ele>
        <time>2022-04-04T12:06:58Z</time>
      </trkpt>
      <trkpt lat="46.38755" lon="5.27494">
        <ele>244.6</ele>
        <time>2022-04-04T12:07:03Z</time>
      </trkpt>
      <trkpt lat="46.38784" lon="5.27506">
        <ele>244.2</ele>
        <time>2022-04-04T12:07:07Z</time>
      </trkpt>
      <trkpt lat="46.38798" lon="5.27511">
        <ele>244.2</ele>
        <time>2022-04-04T12:07:09Z</time>
      </trkpt>
      <trkpt lat="46.38847" lon="5.27536">
        <ele>244.2</ele>
        <time>2022-04-04T12:07:16Z</time>
      </trkpt>
      <trkpt lat="46.38885" lon="5.27559">
        <ele>244.2</ele>
        <time>2022-04-04T12:07:22Z</time>
      </trkpt>
      <trkpt lat="46.38907" lon="5.2757">
        <ele>244.2</ele>
        <time>2022-04-04T12:07:25Z</time>
      </trkpt>
      <trkpt lat="46.38914" lon="5.27572">
        <ele>244.2</ele>
        <time>2022-04-04T12:07:26Z</time>
      </trkpt>
      <trkpt lat="46.38921" lon="5.27571">
        <ele>244</ele>
        <time>2022-04-04T12:07:27Z</time>
      </trkpt>
      <trkpt lat="46.38934" lon="5.27568">
        <ele>243.6</ele>
        <time>2022-04-04T12:07:29Z</time>
      </trkpt>
      <trkpt lat="46.3894" lon="5.27566">
        <ele>243.6</ele>
        <time>2022-04-04T12:07:30Z</time>
      </trkpt>
      <trkpt lat="46.38946" lon="5.27563">
        <ele>243.6</ele>
        <time>2022-04-04T12:07:31Z</time>
      </trkpt>
      <trkpt lat="46.38971" lon="5.2755">
        <ele>243.4</ele>
        <time>2022-04-04T12:07:35Z</time>
      </trkpt>
      <trkpt lat="46.38977" lon="5.27547">
        <ele>243.6</ele>
        <time>2022-04-04T12:07:36Z</time>
      </trkpt>
      <trkpt lat="46.38989" lon="5.27535">
        <ele>243.6</ele>
        <time>2022-04-04T12:07:38Z</time>
      </trkpt>
      <trkpt lat="46.39004" lon="5.27528">
        <ele>243.6</ele>
        <time>2022-04-04T12:07:40Z</time>
      </trkpt>
      <trkpt lat="46.39033" lon="5.27509">
        <ele>243.4</ele>
        <time>2022-04-04T12:07:44Z</time>
      </trkpt>
      <trkpt lat="46.3904" lon="5.27505">
        <ele>243.4</ele>
        <time>2022-04-04T12:07:45Z</time>
      </trkpt>
      <trkpt lat="46.39061" lon="5.2749">
        <ele>243.2</ele>
        <time>2022-04-04T12:07:48Z</time>
      </trkpt>
      <trkpt lat="46.39076" lon="5.27481">
        <ele>242.6</ele>
        <time>2022-04-04T12:07:50Z</time>
      </trkpt>
      <trkpt lat="46.39103" lon="5.27461">
        <ele>241.6</ele>
        <time>2022-04-04T12:07:54Z</time>
      </trkpt>
      <trkpt lat="46.3911" lon="5.27455">
        <ele>241.6</ele>
        <time>2022-04-04T12:07:55Z</time>
      </trkpt>
      <trkpt lat="46.39132" lon="5.2744">
        <ele>241.6</ele>
        <time>2022-04-04T12:07:59Z</time>
      </trkpt>
      <trkpt lat="46.39166" lon="5.27415">
        <ele>242</ele>
        <time>2022-04-04T12:08:04Z</time>
      </trkpt>
      <trkpt lat="46.39191" lon="5.27391">
        <ele>241.8</ele>
        <time>2022-04-04T12:08:08Z</time>
      </trkpt>
      <trkpt lat="46.39196" lon="5.27384">
        <ele>241.8</ele>
        <time>2022-04-04T12:08:09Z</time>
      </trkpt>
      <trkpt lat="46.39208" lon="5.27357">
        <ele>241.6</ele>
        <time>2022-04-04T12:08:12Z</time>
      </trkpt>
      <trkpt lat="46.39215" lon="5.27339">
        <ele>241.4</ele>
        <time>2022-04-04T12:08:14Z</time>
      </trkpt>
      <trkpt lat="46.39217" lon="5.2733">
        <ele>241.4</ele>
        <time>2022-04-04T12:08:15Z</time>
      </trkpt>
      <trkpt lat="46.39243" lon="5.27254">
        <ele>241.2</ele>
        <time>2022-04-04T12:08:23Z</time>
      </trkpt>
      <trkpt lat="46.39247" lon="5.27246">
        <ele>241</ele>
        <time>2022-04-04T12:08:24Z</time>
      </trkpt>
      <trkpt lat="46.39252" lon="5.27238">
        <ele>240.8</ele>
        <time>2022-04-04T12:08:25Z</time>
      </trkpt>
      <trkpt lat="46.39257" lon="5.2723">
        <ele>240.6</ele>
        <time>2022-04-04T12:08:26Z</time>
      </trkpt>
      <trkpt lat="46.39263" lon="5.27223">
        <ele>240.4</ele>
        <time>2022-04-04T12:08:27Z</time>
      </trkpt>
      <trkpt lat="46.3927" lon="5.27218">
        <ele>240.2</ele>
        <time>2022-04-04T12:08:28Z</time>
      </trkpt>
      <trkpt lat="46.39316" lon="5.2719">
        <ele>239.6</ele>
        <time>2022-04-04T12:08:35Z</time>
      </trkpt>
      <trkpt lat="46.39324" lon="5.27185">
        <ele>239.4</ele>
        <time>2022-04-04T12:08:36Z</time>
      </trkpt>
      <trkpt lat="46.39366" lon="5.27163">
        <ele>239</ele>
        <time>2022-04-04T12:08:42Z</time>
      </trkpt>
      <trkpt lat="46.39405" lon="5.27133">
        <ele>238.6</ele>
        <time>2022-04-04T12:08:48Z</time>
      </trkpt>
      <trkpt lat="46.39432" lon="5.27117">
        <ele>238.4</ele>
        <time>2022-04-04T12:08:52Z</time>
      </trkpt>
      <trkpt lat="46.39445" lon="5.27108">
        <ele>238.2</ele>
        <time>2022-04-04T12:08:54Z</time>
      </trkpt>
      <trkpt lat="46.3945" lon="5.27102">
        <ele>238.2</ele>
        <time>2022-04-04T12:08:55Z</time>
      </trkpt>
      <trkpt lat="46.39455" lon="5.27095">
        <ele>238.2</ele>
        <time>2022-04-04T12:08:56Z</time>
      </trkpt>
      <trkpt lat="46.39462" lon="5.27077">
        <ele>238</ele>
        <time>2022-04-04T12:08:58Z</time>
      </trkpt>
      <trkpt lat="46.39484" lon="5.27005">
        <ele>237.6</ele>
        <time>2022-04-04T12:09:06Z</time>
      </trkpt>
      <trkpt lat="46.39511" lon="5.26944">
        <ele>237.8</ele>
        <time>2022-04-04T12:09:14Z</time>
      </trkpt>
      <trkpt lat="46.39516" lon="5.26938">
        <ele>238</ele>
        <time>2022-04-04T12:09:15Z</time>
      </trkpt>
      <trkpt lat="46.39526" lon="5.26928">
        <ele>238.2</ele>
        <time>2022-04-04T12:09:17Z</time>
      </trkpt>
      <trkpt lat="46.39532" lon="5.26924">
        <ele>238.2</ele>
        <time>2022-04-04T12:09:18Z</time>
      </trkpt>
      <trkpt lat="46.39567" lon="5.26907">
        <ele>239.6</ele>
        <time>2022-04-04T12:09:24Z</time>
      </trkpt>
      <trkpt lat="46.39572" lon="5.26903">
        <ele>239.6</ele>
        <time>2022-04-04T12:09:25Z</time>
      </trkpt>
      <trkpt lat="46.39589" lon="5.26885">
        <ele>239.8</ele>
        <time>2022-04-04T12:09:28Z</time>
      </trkpt>
      <trkpt lat="46.39593" lon="5.26877">
        <ele>240</ele>
        <time>2022-04-04T12:09:29Z</time>
      </trkpt>
      <trkpt lat="46.39596" lon="5.26868">
        <ele>240</ele>
        <time>2022-04-04T12:09:30Z</time>
      </trkpt>
      <trkpt lat="46.39602" lon="5.2685">
        <ele>240</ele>
        <time>2022-04-04T12:09:32Z</time>
      </trkpt>
      <trkpt lat="46.39607" lon="5.26841">
        <ele>240</ele>
        <time>2022-04-04T12:09:33Z</time>
      </trkpt>
      <trkpt lat="46.39613" lon="5.26835">
        <ele>240</ele>
        <time>2022-04-04T12:09:34Z</time>
      </trkpt>
      <trkpt lat="46.39627" lon="5.26829">
        <ele>239.6</ele>
        <time>2022-04-04T12:09:36Z</time>
      </trkpt>
      <trkpt lat="46.39657" lon="5.26834">
        <ele>238.8</ele>
        <time>2022-04-04T12:09:40Z</time>
      </trkpt>
      <trkpt lat="46.39681" lon="5.26839">
        <ele>238.6</ele>
        <time>2022-04-04T12:09:43Z</time>
      </trkpt>
      <trkpt lat="46.39723" lon="5.26842">
        <ele>237.8</ele>
        <time>2022-04-04T12:09:48Z</time>
      </trkpt>
      <trkpt lat="46.3974" lon="5.26839">
        <ele>237.2</ele>
        <time>2022-04-04T12:09:50Z</time>
      </trkpt>
      <trkpt lat="46.39767" lon="5.26832">
        <ele>236.4</ele>
        <time>2022-04-04T12:09:53Z</time>
      </trkpt>
      <trkpt lat="46.39775" lon="5.26828">
        <ele>236</ele>
        <time>2022-04-04T12:09:54Z</time>
      </trkpt>
      <trkpt lat="46.39825" lon="5.26815">
        <ele>235</ele>
        <time>2022-04-04T12:10:00Z</time>
      </trkpt>
      <trkpt lat="46.39833" lon="5.26815">
        <ele>235</ele>
        <time>2022-04-04T12:10:01Z</time>
      </trkpt>
      <trkpt lat="46.39871" lon="5.26812">
        <ele>234.6</ele>
        <time>2022-04-04T12:10:06Z</time>
      </trkpt>
      <trkpt lat="46.39902" lon="5.26817">
        <ele>234.6</ele>
        <time>2022-04-04T12:10:11Z</time>
      </trkpt>
      <trkpt lat="46.39934" lon="5.2683">
        <ele>235</ele>
        <time>2022-04-04T12:10:17Z</time>
      </trkpt>
      <trkpt lat="46.39953" lon="5.2684">
        <ele>236</ele>
        <time>2022-04-04T12:10:21Z</time>
      </trkpt>
      <trkpt lat="46.39967" lon="5.26846">
        <ele>237</ele>
        <time>2022-04-04T12:10:24Z</time>
      </trkpt>
      <trkpt lat="46.39972" lon="5.26847">
        <ele>237.2</ele>
        <time>2022-04-04T12:10:25Z</time>
      </trkpt>
      <trkpt lat="46.3999" lon="5.26856">
        <ele>238.4</ele>
        <time>2022-04-04T12:10:29Z</time>
      </trkpt>
      <trkpt lat="46.40008" lon="5.26866">
        <ele>239.2</ele>
        <time>2022-04-04T12:10:33Z</time>
      </trkpt>
      <trkpt lat="46.40018" lon="5.26871">
        <ele>239.4</ele>
        <time>2022-04-04T12:10:35Z</time>
      </trkpt>
      <trkpt lat="46.40051" lon="5.26885">
        <ele>239.8</ele>
        <time>2022-04-04T12:10:41Z</time>
      </trkpt>
      <trkpt lat="46.40057" lon="5.26887">
        <ele>239.8</ele>
        <time>2022-04-04T12:10:42Z</time>
      </trkpt>
      <trkpt lat="46.40088" lon="5.26898">
        <ele>239.6</ele>
        <time>2022-04-04T12:10:47Z</time>
      </trkpt>
      <trkpt lat="46.40129" lon="5.26904">
        <ele>239.2</ele>
        <time>2022-04-04T12:10:53Z</time>
      </trkpt>
      <trkpt lat="46.40166" lon="5.26903">
        <ele>238.2</ele>
        <time>2022-04-04T12:10:58Z</time>
      </trkpt>
      <trkpt lat="46.40194" lon="5.26901">
        <ele>237.6</ele>
        <time>2022-04-04T12:11:02Z</time>
      </trkpt>
      <trkpt lat="46.40226" lon="5.26899">
        <ele>237.2</ele>
        <time>2022-04-04T12:11:06Z</time>
      </trkpt>
      <trkpt lat="46.40263" lon="5.26897">
        <ele>236.4</ele>
        <time>2022-04-04T12:11:11Z</time>
      </trkpt>
      <trkpt lat="46.40271" lon="5.26896">
        <ele>236.2</ele>
        <time>2022-04-04T12:11:12Z</time>
      </trkpt>
      <trkpt lat="46.40324" lon="5.26893">
        <ele>235.2</ele>
        <time>2022-04-04T12:11:19Z</time>
      </trkpt>
      <trkpt lat="46.4034" lon="5.26892">
        <ele>235.2</ele>
        <time>2022-04-04T12:11:21Z</time>
      </trkpt>
      <trkpt lat="46.40394" lon="5.26881">
        <ele>234.6</ele>
        <time>2022-04-04T12:11:28Z</time>
      </trkpt>
      <trkpt lat="46.40401" lon="5.2688">
        <ele>234.6</ele>
        <time>2022-04-04T12:11:29Z</time>
      </trkpt>
      <trkpt lat="46.40454" lon="5.26885">
        <ele>234.4</ele>
        <time>2022-04-04T12:11:36Z</time>
      </trkpt>
      <trkpt lat="46.40485" lon="5.26889">
        <ele>234.2</ele>
        <time>2022-04-04T12:11:40Z</time>
      </trkpt>
      <trkpt lat="46.40531" lon="5.26897">
        <ele>234</ele>
        <time>2022-04-04T12:11:46Z</time>
      </trkpt>
      <trkpt lat="46.40567" lon="5.26911">
        <ele>233.8</ele>
        <time>2022-04-04T12:11:51Z</time>
      </trkpt>
      <trkpt lat="46.40609" lon="5.26934">
        <ele>234.2</ele>
        <time>2022-04-04T12:11:58Z</time>
      </trkpt>
      <trkpt lat="46.40656" lon="5.2696">
        <ele>235</ele>
        <time>2022-04-04T12:12:06Z</time>
      </trkpt>
      <trkpt lat="46.40713" lon="5.26975">
        <ele>235.2</ele>
        <time>2022-04-04T12:12:15Z</time>
      </trkpt>
      <trkpt lat="46.40762" lon="5.26984">
        <ele>234.6</ele>
        <time>2022-04-04T12:12:22Z</time>
      </trkpt>
      <trkpt lat="46.40781" lon="5.26989">
        <ele>233.8</ele>
        <time>2022-04-04T12:12:25Z</time>
      </trkpt>
      <trkpt lat="46.40792" lon="5.26991">
        <ele>233.4</ele>
        <time>2022-04-04T12:12:27Z</time>
      </trkpt>
      <trkpt lat="46.40803" lon="5.26988">
        <ele>233.2</ele>
        <time>2022-04-04T12:12:29Z</time>
      </trkpt>
      <trkpt lat="46.40815" lon="5.26981">
        <ele>233</ele>
        <time>2022-04-04T12:12:31Z</time>
      </trkpt>
      <trkpt lat="46.40861" lon="5.26957">
        <ele>233</ele>
        <time>2022-04-04T12:12:38Z</time>
      </trkpt>
      <trkpt lat="46.40906" lon="5.26935">
        <ele>233.8</ele>
        <time>2022-04-04T12:12:45Z</time>
      </trkpt>
      <trkpt lat="46.40937" lon="5.26926">
        <ele>234.2</ele>
        <time>2022-04-04T12:12:50Z</time>
      </trkpt>
      <trkpt lat="46.40956" lon="5.26921">
        <ele>234.6</ele>
        <time>2022-04-04T12:12:53Z</time>
      </trkpt>
      <trkpt lat="46.40997" lon="5.26914">
        <ele>235.4</ele>
        <time>2022-04-04T12:13:00Z</time>
      </trkpt>
      <trkpt lat="46.41003" lon="5.26913">
        <ele>235.4</ele>
        <time>2022-04-04T12:13:01Z</time>
      </trkpt>
      <trkpt lat="46.41043" lon="5.26909">
        <ele>236.2</ele>
        <time>2022-04-04T12:13:08Z</time>
      </trkpt>
      <trkpt lat="46.41059" lon="5.2691">
        <ele>236.4</ele>
        <time>2022-04-04T12:13:11Z</time>
      </trkpt>
      <trkpt lat="46.41085" lon="5.26912">
        <ele>237.2</ele>
        <time>2022-04-04T12:13:16Z</time>
      </trkpt>
      <trkpt lat="46.41096" lon="5.26912">
        <ele>237.6</ele>
        <time>2022-04-04T12:13:18Z</time>
      </trkpt>
      <trkpt lat="46.41122" lon="5.26907">
        <ele>238.4</ele>
        <time>2022-04-04T12:13:23Z</time>
      </trkpt>
      <trkpt lat="46.4116" lon="5.26898">
        <ele>238.8</ele>
        <time>2022-04-04T12:13:30Z</time>
      </trkpt>
      <trkpt lat="46.41172" lon="5.26897">
        <ele>238.8</ele>
        <time>2022-04-04T12:13:32Z</time>
      </trkpt>
      <trkpt lat="46.41177" lon="5.26898">
        <ele>238.8</ele>
        <time>2022-04-04T12:13:33Z</time>
      </trkpt>
      <trkpt lat="46.41183" lon="5.269">
        <ele>238.8</ele>
        <time>2022-04-04T12:13:34Z</time>
      </trkpt>
      <trkpt lat="46.41194" lon="5.26905">
        <ele>238.8</ele>
        <time>2022-04-04T12:13:36Z</time>
      </trkpt>
      <trkpt lat="46.412" lon="5.26904">
        <ele>238.8</ele>
        <time>2022-04-04T12:13:37Z</time>
      </trkpt>
      <trkpt lat="46.41205" lon="5.26901">
        <ele>238.8</ele>
        <time>2022-04-04T12:13:38Z</time>
      </trkpt>
      <trkpt lat="46.41214" lon="5.2689">
        <ele>238.8</ele>
        <time>2022-04-04T12:13:40Z</time>
      </trkpt>
      <trkpt lat="46.41215" lon="5.26873">
        <ele>238.8</ele>
        <time>2022-04-04T12:13:42Z</time>
      </trkpt>
      <trkpt lat="46.41214" lon="5.26865">
        <ele>238.8</ele>
        <time>2022-04-04T12:13:43Z</time>
      </trkpt>
      <trkpt lat="46.4121" lon="5.26858">
        <ele>238.6</ele>
        <time>2022-04-04T12:13:44Z</time>
      </trkpt>
      <trkpt lat="46.41204" lon="5.26853">
        <ele>238.4</ele>
        <time>2022-04-04T12:13:45Z</time>
      </trkpt>
      <trkpt lat="46.41166" lon="5.26826">
        <ele>237.4</ele>
        <time>2022-04-04T12:13:51Z</time>
      </trkpt>
      <trkpt lat="46.4116" lon="5.2682">
        <ele>237.4</ele>
        <time>2022-04-04T12:13:52Z</time>
      </trkpt>
      <trkpt lat="46.41148" lon="5.26802">
        <ele>237.2</ele>
        <time>2022-04-04T12:13:54Z</time>
      </trkpt>
      <trkpt lat="46.41136" lon="5.2677">
        <ele>236.4</ele>
        <time>2022-04-04T12:13:57Z</time>
      </trkpt>
      <trkpt lat="46.41133" lon="5.26758">
        <ele>236.2</ele>
        <time>2022-04-04T12:13:58Z</time>
      </trkpt>
      <trkpt lat="46.41119" lon="5.26707">
        <ele>235.2</ele>
        <time>2022-04-04T12:14:02Z</time>
      </trkpt>
      <trkpt lat="46.41112" lon="5.2668">
        <ele>234.2</ele>
        <time>2022-04-04T12:14:04Z</time>
      </trkpt>
      <trkpt lat="46.41108" lon="5.26666">
        <ele>234</ele>
        <time>2022-04-04T12:14:05Z</time>
      </trkpt>
      <trkpt lat="46.41101" lon="5.26638">
        <ele>232.8</ele>
        <time>2022-04-04T12:14:07Z</time>
      </trkpt>
      <trkpt lat="46.41093" lon="5.2661">
        <ele>231.4</ele>
        <time>2022-04-04T12:14:09Z</time>
      </trkpt>
      <trkpt lat="46.41086" lon="5.26583">
        <ele>230.2</ele>
        <time>2022-04-04T12:14:11Z</time>
      </trkpt>
      <trkpt lat="46.41082" lon="5.26569">
        <ele>229.8</ele>
        <time>2022-04-04T12:14:12Z</time>
      </trkpt>
      <trkpt lat="46.41078" lon="5.26555">
        <ele>229</ele>
        <time>2022-04-04T12:14:13Z</time>
      </trkpt>
      <trkpt lat="46.41071" lon="5.26528">
        <ele>227.6</ele>
        <time>2022-04-04T12:14:15Z</time>
      </trkpt>
      <trkpt lat="46.4106" lon="5.26491">
        <ele>226</ele>
        <time>2022-04-04T12:14:18Z</time>
      </trkpt>
      <trkpt lat="46.41057" lon="5.26479">
        <ele>225.6</ele>
        <time>2022-04-04T12:14:19Z</time>
      </trkpt>
      <trkpt lat="46.41051" lon="5.26456">
        <ele>225</ele>
        <time>2022-04-04T12:14:21Z</time>
      </trkpt>
      <trkpt lat="46.41038" lon="5.26411">
        <ele>224.4</ele>
        <time>2022-04-04T12:14:25Z</time>
      </trkpt>
      <trkpt lat="46.41031" lon="5.26387">
        <ele>223.8</ele>
        <time>2022-04-04T12:14:27Z</time>
      </trkpt>
      <trkpt lat="46.41017" lon="5.26341">
        <ele>222.8</ele>
        <time>2022-04-04T12:14:31Z</time>
      </trkpt>
      <trkpt lat="46.41014" lon="5.26329">
        <ele>222.6</ele>
        <time>2022-04-04T12:14:32Z</time>
      </trkpt>
      <trkpt lat="46.41001" lon="5.26279">
        <ele>221.6</ele>
        <time>2022-04-04T12:14:36Z</time>
      </trkpt>
      <trkpt lat="46.40991" lon="5.26239">
        <ele>220.4</ele>
        <time>2022-04-04T12:14:39Z</time>
      </trkpt>
      <trkpt lat="46.40981" lon="5.262">
        <ele>219.2</ele>
        <time>2022-04-04T12:14:42Z</time>
      </trkpt>
      <trkpt lat="46.40974" lon="5.26174">
        <ele>218.2</ele>
        <time>2022-04-04T12:14:44Z</time>
      </trkpt>
      <trkpt lat="46.40967" lon="5.2615">
        <ele>217.4</ele>
        <time>2022-04-04T12:14:46Z</time>
      </trkpt>
      <trkpt lat="46.40963" lon="5.26137">
        <ele>217.2</ele>
        <time>2022-04-04T12:14:47Z</time>
      </trkpt>
      <trkpt lat="46.40946" lon="5.26078">
        <ele>216</ele>
        <time>2022-04-04T12:14:52Z</time>
      </trkpt>
      <trkpt lat="46.40943" lon="5.26066">
        <ele>215.8</ele>
        <time>2022-04-04T12:14:53Z</time>
      </trkpt>
      <trkpt lat="46.40922" lon="5.25989">
        <ele>215</ele>
        <time>2022-04-04T12:15:00Z</time>
      </trkpt>
      <trkpt lat="46.4092" lon="5.25979">
        <ele>215</ele>
        <time>2022-04-04T12:15:01Z</time>
      </trkpt>
      <trkpt lat="46.40906" lon="5.25923">
        <ele>215</ele>
        <time>2022-04-04T12:15:07Z</time>
      </trkpt>
      <trkpt lat="46.40893" lon="5.25881">
        <ele>215.8</ele>
        <time>2022-04-04T12:15:12Z</time>
      </trkpt>
      <trkpt lat="46.40891" lon="5.25872">
        <ele>216</ele>
        <time>2022-04-04T12:15:13Z</time>
      </trkpt>
      <trkpt lat="46.40871" lon="5.25796">
        <ele>216.6</ele>
        <time>2022-04-04T12:15:22Z</time>
      </trkpt>
      <trkpt lat="46.4085" lon="5.2572">
        <ele>216.4</ele>
        <time>2022-04-04T12:15:30Z</time>
      </trkpt>
      <trkpt lat="46.40847" lon="5.2571">
        <ele>216.2</ele>
        <time>2022-04-04T12:15:31Z</time>
      </trkpt>
      <trkpt lat="46.40826" lon="5.25633">
        <ele>215</ele>
        <time>2022-04-04T12:15:38Z</time>
      </trkpt>
      <trkpt lat="46.40823" lon="5.2562">
        <ele>215</ele>
        <time>2022-04-04T12:15:39Z</time>
      </trkpt>
      <trkpt lat="46.40809" lon="5.2557">
        <ele>213.4</ele>
        <time>2022-04-04T12:15:43Z</time>
      </trkpt>
      <trkpt lat="46.40802" lon="5.25544">
        <ele>212.6</ele>
        <time>2022-04-04T12:15:45Z</time>
      </trkpt>
      <trkpt lat="46.40799" lon="5.25532">
        <ele>212.2</ele>
        <time>2022-04-04T12:15:46Z</time>
      </trkpt>
      <trkpt lat="46.40788" lon="5.25494">
        <ele>211.2</ele>
        <time>2022-04-04T12:15:49Z</time>
      </trkpt>
      <trkpt lat="46.40775" lon="5.2545">
        <ele>210.4</ele>
        <time>2022-04-04T12:15:53Z</time>
      </trkpt>
      <trkpt lat="46.40756" lon="5.2538">
        <ele>210.6</ele>
        <time>2022-04-04T12:16:00Z</time>
      </trkpt>
      <trkpt lat="46.40738" lon="5.25306">
        <ele>210.6</ele>
        <time>2022-04-04T12:16:07Z</time>
      </trkpt>
      <trkpt lat="46.4073" lon="5.25275">
        <ele>210</ele>
        <time>2022-04-04T12:16:10Z</time>
      </trkpt>
      <trkpt lat="46.40728" lon="5.25265">
        <ele>209.8</ele>
        <time>2022-04-04T12:16:11Z</time>
      </trkpt>
      <trkpt lat="46.40709" lon="5.25187">
        <ele>209.4</ele>
        <time>2022-04-04T12:16:19Z</time>
      </trkpt>
      <trkpt lat="46.40707" lon="5.25177">
        <ele>209.8</ele>
        <time>2022-04-04T12:16:20Z</time>
      </trkpt>
      <trkpt lat="46.40694" lon="5.25123">
        <ele>210.4</ele>
        <time>2022-04-04T12:16:26Z</time>
      </trkpt>
      <trkpt lat="46.40686" lon="5.25087">
        <ele>211.4</ele>
        <time>2022-04-04T12:16:31Z</time>
      </trkpt>
      <trkpt lat="46.40683" lon="5.25075">
        <ele>212</ele>
        <time>2022-04-04T12:16:33Z</time>
      </trkpt>
      <trkpt lat="46.40681" lon="5.25069">
        <ele>212.4</ele>
        <time>2022-04-04T12:16:34Z</time>
      </trkpt>
      <trkpt lat="46.40676" lon="5.25047">
        <ele>213.6</ele>
        <time>2022-04-04T12:16:38Z</time>
      </trkpt>
      <trkpt lat="46.40674" lon="5.25042">
        <ele>213.8</ele>
        <time>2022-04-04T12:16:39Z</time>
      </trkpt>
      <trkpt lat="46.40672" lon="5.2503">
        <ele>214.4</ele>
        <time>2022-04-04T12:16:41Z</time>
      </trkpt>
      <trkpt lat="46.40669" lon="5.25019">
        <ele>214.8</ele>
        <time>2022-04-04T12:16:43Z</time>
      </trkpt>
      <trkpt lat="46.40662" lon="5.24989">
        <ele>216.2</ele>
        <time>2022-04-04T12:16:49Z</time>
      </trkpt>
      <trkpt lat="46.40661" lon="5.24983">
        <ele>216.6</ele>
        <time>2022-04-04T12:16:50Z</time>
      </trkpt>
      <trkpt lat="46.40658" lon="5.24973">
        <ele>217.2</ele>
        <time>2022-04-04T12:16:52Z</time>
      </trkpt>
      <trkpt lat="46.40652" lon="5.24949">
        <ele>218.4</ele>
        <time>2022-04-04T12:16:57Z</time>
      </trkpt>
      <trkpt lat="46.40649" lon="5.24935">
        <ele>219.4</ele>
        <time>2022-04-04T12:17:00Z</time>
      </trkpt>
      <trkpt lat="46.40644" lon="5.24912">
        <ele>220.6</ele>
        <time>2022-04-04T12:17:05Z</time>
      </trkpt>
      <trkpt lat="46.4064" lon="5.24897">
        <ele>221.8</ele>
        <time>2022-04-04T12:17:08Z</time>
      </trkpt>
      <trkpt lat="46.40633" lon="5.24869">
        <ele>223.2</ele>
        <time>2022-04-04T12:17:14Z</time>
      </trkpt>
      <trkpt lat="46.4063" lon="5.24855">
        <ele>224.2</ele>
        <time>2022-04-04T12:17:17Z</time>
      </trkpt>
      <trkpt lat="46.40629" lon="5.2485">
        <ele>224.2</ele>
        <time>2022-04-04T12:17:18Z</time>
      </trkpt>
      <trkpt lat="46.40624" lon="5.24832">
        <ele>225.6</ele>
        <time>2022-04-04T12:17:22Z</time>
      </trkpt>
      <trkpt lat="46.4062" lon="5.24813">
        <ele>226.6</ele>
        <time>2022-04-04T12:17:26Z</time>
      </trkpt>
      <trkpt lat="46.40615" lon="5.24794">
        <ele>227.4</ele>
        <time>2022-04-04T12:17:30Z</time>
      </trkpt>
      <trkpt lat="46.40614" lon="5.2479">
        <ele>227.8</ele>
        <time>2022-04-04T12:17:31Z</time>
      </trkpt>
      <trkpt lat="46.40609" lon="5.24766">
        <ele>229</ele>
        <time>2022-04-04T12:17:36Z</time>
      </trkpt>
      <trkpt lat="46.40604" lon="5.24747">
        <ele>229.8</ele>
        <time>2022-04-04T12:17:40Z</time>
      </trkpt>
      <trkpt lat="46.40603" lon="5.24742">
        <ele>230</ele>
        <time>2022-04-04T12:17:41Z</time>
      </trkpt>
      <trkpt lat="46.40597" lon="5.24719">
        <ele>230.8</ele>
        <time>2022-04-04T12:17:46Z</time>
      </trkpt>
      <trkpt lat="46.40596" lon="5.24715">
        <ele>231.2</ele>
        <time>2022-04-04T12:17:47Z</time>
      </trkpt>
      <trkpt lat="46.4059" lon="5.2469">
        <ele>232.2</ele>
        <time>2022-04-04T12:17:52Z</time>
      </trkpt>
      <trkpt lat="46.40588" lon="5.24681">
        <ele>232.6</ele>
        <time>2022-04-04T12:17:54Z</time>
      </trkpt>
      <trkpt lat="46.40584" lon="5.24662">
        <ele>233.4</ele>
        <time>2022-04-04T12:17:58Z</time>
      </trkpt>
      <trkpt lat="46.40582" lon="5.24653">
        <ele>233.6</ele>
        <time>2022-04-04T12:18:00Z</time>
      </trkpt>
      <trkpt lat="46.40579" lon="5.24638">
        <ele>234.4</ele>
        <time>2022-04-04T12:18:03Z</time>
      </trkpt>
      <trkpt lat="46.40574" lon="5.24613">
        <ele>235.6</ele>
        <time>2022-04-04T12:18:08Z</time>
      </trkpt>
      <trkpt lat="46.40572" lon="5.24607">
        <ele>235.6</ele>
        <time>2022-04-04T12:18:09Z</time>
      </trkpt>
      <trkpt lat="46.40568" lon="5.24589">
        <ele>236</ele>
        <time>2022-04-04T12:18:12Z</time>
      </trkpt>
      <trkpt lat="46.40565" lon="5.24575">
        <ele>236</ele>
        <time>2022-04-04T12:18:14Z</time>
      </trkpt>
      <trkpt lat="46.40557" lon="5.2454">
        <ele>235.8</ele>
        <time>2022-04-04T12:18:18Z</time>
      </trkpt>
      <trkpt lat="46.40554" lon="5.2453">
        <ele>235.8</ele>
        <time>2022-04-04T12:18:19Z</time>
      </trkpt>
      <trkpt lat="46.40542" lon="5.24476">
        <ele>234.6</ele>
        <time>2022-04-04T12:18:24Z</time>
      </trkpt>
      <trkpt lat="46.40539" lon="5.24464">
        <ele>234.2</ele>
        <time>2022-04-04T12:18:25Z</time>
      </trkpt>
      <trkpt lat="46.4053" lon="5.24428">
        <ele>233.2</ele>
        <time>2022-04-04T12:18:28Z</time>
      </trkpt>
      <trkpt lat="46.40524" lon="5.24403">
        <ele>232.2</ele>
        <time>2022-04-04T12:18:30Z</time>
      </trkpt>
      <trkpt lat="46.40517" lon="5.24377">
        <ele>231</ele>
        <time>2022-04-04T12:18:32Z</time>
      </trkpt>
      <trkpt lat="46.40511" lon="5.2435">
        <ele>229.8</ele>
        <time>2022-04-04T12:18:34Z</time>
      </trkpt>
      <trkpt lat="46.40501" lon="5.24309">
        <ele>228.6</ele>
        <time>2022-04-04T12:18:37Z</time>
      </trkpt>
      <trkpt lat="46.40495" lon="5.24282">
        <ele>227.4</ele>
        <time>2022-04-04T12:18:39Z</time>
      </trkpt>
      <trkpt lat="46.40486" lon="5.24243">
        <ele>225.8</ele>
        <time>2022-04-04T12:18:42Z</time>
      </trkpt>
      <trkpt lat="46.40476" lon="5.24194">
        <ele>224.6</ele>
        <time>2022-04-04T12:18:46Z</time>
      </trkpt>
      <trkpt lat="46.4047" lon="5.24161">
        <ele>223.6</ele>
        <time>2022-04-04T12:18:49Z</time>
      </trkpt>
      <trkpt lat="46.40468" lon="5.24141">
        <ele>223</ele>
        <time>2022-04-04T12:18:51Z</time>
      </trkpt>
      <trkpt lat="46.40467" lon="5.24115">
        <ele>222.8</ele>
        <time>2022-04-04T12:18:55Z</time>
      </trkpt>
      <trkpt lat="46.40469" lon="5.24106">
        <ele>222.8</ele>
        <time>2022-04-04T12:18:59Z</time>
      </trkpt>
      <trkpt lat="46.40468" lon="5.24099">
        <ele>222.8</ele>
        <time>2022-04-04T12:19:01Z</time>
      </trkpt>
      <trkpt lat="46.40466" lon="5.24094">
        <ele>222.8</ele>
        <time>2022-04-04T12:19:02Z</time>
      </trkpt>
      <trkpt lat="46.40458" lon="5.24086">
        <ele>222.8</ele>
        <time>2022-04-04T12:19:04Z</time>
      </trkpt>
      <trkpt lat="46.40452" lon="5.24074">
        <ele>222.8</ele>
        <time>2022-04-04T12:19:06Z</time>
      </trkpt>
      <trkpt lat="46.40441" lon="5.24043">
        <ele>222.8</ele>
        <time>2022-04-04T12:19:10Z</time>
      </trkpt>
      <trkpt lat="46.40434" lon="5.24029">
        <ele>222.8</ele>
        <time>2022-04-04T12:19:12Z</time>
      </trkpt>
      <trkpt lat="46.4043" lon="5.24022">
        <ele>222.8</ele>
        <time>2022-04-04T12:19:13Z</time>
      </trkpt>
      <trkpt lat="46.4041" lon="5.23999">
        <ele>223.2</ele>
        <time>2022-04-04T12:19:17Z</time>
      </trkpt>
      <trkpt lat="46.4038" lon="5.2395">
        <ele>224.2</ele>
        <time>2022-04-04T12:19:24Z</time>
      </trkpt>
      <trkpt lat="46.40372" lon="5.23935">
        <ele>224.6</ele>
        <time>2022-04-04T12:19:26Z</time>
      </trkpt>
      <trkpt lat="46.40352" lon="5.23899">
        <ele>225</ele>
        <time>2022-04-04T12:19:31Z</time>
      </trkpt>
      <trkpt lat="46.40326" lon="5.23842">
        <ele>225</ele>
        <time>2022-04-04T12:19:39Z</time>
      </trkpt>
      <trkpt lat="46.40308" lon="5.23797">
        <ele>224.6</ele>
        <time>2022-04-04T12:19:44Z</time>
      </trkpt>
      <trkpt lat="46.40295" lon="5.2374">
        <ele>223</ele>
        <time>2022-04-04T12:19:49Z</time>
      </trkpt>
      <trkpt lat="46.40294" lon="5.23702">
        <ele>221.8</ele>
        <time>2022-04-04T12:19:52Z</time>
      </trkpt>
      <trkpt lat="46.40296" lon="5.23674">
        <ele>220.8</ele>
        <time>2022-04-04T12:19:54Z</time>
      </trkpt>
      <trkpt lat="46.40298" lon="5.23645">
        <ele>219.4</ele>
        <time>2022-04-04T12:19:56Z</time>
      </trkpt>
      <trkpt lat="46.403" lon="5.23616">
        <ele>218.2</ele>
        <time>2022-04-04T12:19:58Z</time>
      </trkpt>
      <trkpt lat="46.40304" lon="5.23572">
        <ele>217</ele>
        <time>2022-04-04T12:20:01Z</time>
      </trkpt>
      <trkpt lat="46.40307" lon="5.23542">
        <ele>215.6</ele>
        <time>2022-04-04T12:20:03Z</time>
      </trkpt>
      <trkpt lat="46.40311" lon="5.23499">
        <ele>214.4</ele>
        <time>2022-04-04T12:20:06Z</time>
      </trkpt>
      <trkpt lat="46.40315" lon="5.23457">
        <ele>213.2</ele>
        <time>2022-04-04T12:20:09Z</time>
      </trkpt>
      <trkpt lat="46.40318" lon="5.2343">
        <ele>213</ele>
        <time>2022-04-04T12:20:11Z</time>
      </trkpt>
      <trkpt lat="46.40323" lon="5.23358">
        <ele>212.4</ele>
        <time>2022-04-04T12:20:17Z</time>
      </trkpt>
      <trkpt lat="46.40326" lon="5.23326">
        <ele>212.4</ele>
        <time>2022-04-04T12:20:20Z</time>
      </trkpt>
      <trkpt lat="46.40328" lon="5.23296">
        <ele>212.4</ele>
        <time>2022-04-04T12:20:23Z</time>
      </trkpt>
      <trkpt lat="46.40332" lon="5.23243">
        <ele>213</ele>
        <time>2022-04-04T12:20:29Z</time>
      </trkpt>
      <trkpt lat="46.40338" lon="5.23168">
        <ele>214.4</ele>
        <time>2022-04-04T12:20:38Z</time>
      </trkpt>
      <trkpt lat="46.40339" lon="5.23159">
        <ele>214.6</ele>
        <time>2022-04-04T12:20:39Z</time>
      </trkpt>
      <trkpt lat="46.40345" lon="5.23091">
        <ele>215.2</ele>
        <time>2022-04-04T12:20:46Z</time>
      </trkpt>
      <trkpt lat="46.40351" lon="5.23017">
        <ele>214.2</ele>
        <time>2022-04-04T12:20:53Z</time>
      </trkpt>
      <trkpt lat="46.40355" lon="5.2297">
        <ele>213.2</ele>
        <time>2022-04-04T12:20:57Z</time>
      </trkpt>
      <trkpt lat="46.40357" lon="5.22932">
        <ele>212.6</ele>
        <time>2022-04-04T12:21:00Z</time>
      </trkpt>
      <trkpt lat="46.40361" lon="5.22889">
        <ele>212</ele>
        <time>2022-04-04T12:21:04Z</time>
      </trkpt>
      <trkpt lat="46.40365" lon="5.22857">
        <ele>212</ele>
        <time>2022-04-04T12:21:07Z</time>
      </trkpt>
      <trkpt lat="46.40368" lon="5.22802">
        <ele>212</ele>
        <time>2022-04-04T12:21:13Z</time>
      </trkpt>
      <trkpt lat="46.40374" lon="5.22733">
        <ele>212.6</ele>
        <time>2022-04-04T12:21:20Z</time>
      </trkpt>
      <trkpt lat="46.4038" lon="5.22658">
        <ele>212.2</ele>
        <time>2022-04-04T12:21:27Z</time>
      </trkpt>
      <trkpt lat="46.40388" lon="5.22576">
        <ele>212.2</ele>
        <time>2022-04-04T12:21:35Z</time>
      </trkpt>
      <trkpt lat="46.40389" lon="5.22557">
        <ele>212.2</ele>
        <time>2022-04-04T12:21:37Z</time>
      </trkpt>
      <trkpt lat="46.40393" lon="5.22515">
        <ele>212.6</ele>
        <time>2022-04-04T12:21:42Z</time>
      </trkpt>
      <trkpt lat="46.40395" lon="5.22467">
        <ele>213.4</ele>
        <time>2022-04-04T12:21:48Z</time>
      </trkpt>
      <trkpt lat="46.40396" lon="5.2246">
        <ele>213.6</ele>
        <time>2022-04-04T12:21:49Z</time>
      </trkpt>
      <trkpt lat="46.40399" lon="5.2243">
        <ele>214.6</ele>
        <time>2022-04-04T12:21:53Z</time>
      </trkpt>
      <trkpt lat="46.40402" lon="5.2239">
        <ele>215.6</ele>
        <time>2022-04-04T12:21:58Z</time>
      </trkpt>
      <trkpt lat="46.40407" lon="5.22335">
        <ele>216.8</ele>
        <time>2022-04-04T12:22:05Z</time>
      </trkpt>
      <trkpt lat="46.40408" lon="5.22306">
        <ele>217.2</ele>
        <time>2022-04-04T12:22:09Z</time>
      </trkpt>
      <trkpt lat="46.40413" lon="5.22237">
        <ele>217.8</ele>
        <time>2022-04-04T12:22:18Z</time>
      </trkpt>
      <trkpt lat="46.40414" lon="5.22222">
        <ele>217.8</ele>
        <time>2022-04-04T12:22:20Z</time>
      </trkpt>
      <trkpt lat="46.40418" lon="5.22169">
        <ele>218.6</ele>
        <time>2022-04-04T12:22:27Z</time>
      </trkpt>
      <trkpt lat="46.40422" lon="5.2212">
        <ele>218.8</ele>
        <time>2022-04-04T12:22:33Z</time>
      </trkpt>
      <trkpt lat="46.40426" lon="5.22051">
        <ele>218.4</ele>
        <time>2022-04-04T12:22:40Z</time>
      </trkpt>
      <trkpt lat="46.40434" lon="5.21968">
        <ele>217.2</ele>
        <time>2022-04-04T12:22:48Z</time>
      </trkpt>
      <trkpt lat="46.40436" lon="5.21936">
        <ele>216.8</ele>
        <time>2022-04-04T12:22:51Z</time>
      </trkpt>
      <trkpt lat="46.40438" lon="5.21915">
        <ele>216.6</ele>
        <time>2022-04-04T12:22:53Z</time>
      </trkpt>
      <trkpt lat="46.40439" lon="5.21894">
        <ele>216.4</ele>
        <time>2022-04-04T12:22:55Z</time>
      </trkpt>
      <trkpt lat="46.40445" lon="5.21822">
        <ele>216</ele>
        <time>2022-04-04T12:23:02Z</time>
      </trkpt>
      <trkpt lat="46.40447" lon="5.21801">
        <ele>215.8</ele>
        <time>2022-04-04T12:23:04Z</time>
      </trkpt>
      <trkpt lat="46.40453" lon="5.21717">
        <ele>215.2</ele>
        <time>2022-04-04T12:23:12Z</time>
      </trkpt>
      <trkpt lat="46.40454" lon="5.21707">
        <ele>215.2</ele>
        <time>2022-04-04T12:23:13Z</time>
      </trkpt>
      <trkpt lat="46.4046" lon="5.21628">
        <ele>215.4</ele>
        <time>2022-04-04T12:23:21Z</time>
      </trkpt>
      <trkpt lat="46.40462" lon="5.21595">
        <ele>215.4</ele>
        <time>2022-04-04T12:23:24Z</time>
      </trkpt>
      <trkpt lat="46.40468" lon="5.21516">
        <ele>215.8</ele>
        <time>2022-04-04T12:23:32Z</time>
      </trkpt>
      <trkpt lat="46.40474" lon="5.21433">
        <ele>216.4</ele>
        <time>2022-04-04T12:23:41Z</time>
      </trkpt>
      <trkpt lat="46.40479" lon="5.21372">
        <ele>217</ele>
        <time>2022-04-04T12:23:48Z</time>
      </trkpt>
      <trkpt lat="46.40481" lon="5.21346">
        <ele>217.2</ele>
        <time>2022-04-04T12:23:51Z</time>
      </trkpt>
      <trkpt lat="46.40484" lon="5.21295">
        <ele>218</ele>
        <time>2022-04-04T12:23:57Z</time>
      </trkpt>
      <trkpt lat="46.40487" lon="5.21259">
        <ele>218.2</ele>
        <time>2022-04-04T12:24:01Z</time>
      </trkpt>
      <trkpt lat="46.40492" lon="5.21181">
        <ele>218</ele>
        <time>2022-04-04T12:24:09Z</time>
      </trkpt>
      <trkpt lat="46.40496" lon="5.21109">
        <ele>217.4</ele>
        <time>2022-04-04T12:24:16Z</time>
      </trkpt>
      <trkpt lat="46.40499" lon="5.2107">
        <ele>217</ele>
        <time>2022-04-04T12:24:20Z</time>
      </trkpt>
      <trkpt lat="46.40502" lon="5.21032">
        <ele>216.8</ele>
        <time>2022-04-04T12:24:24Z</time>
      </trkpt>
      <trkpt lat="46.40505" lon="5.20975">
        <ele>216.8</ele>
        <time>2022-04-04T12:24:30Z</time>
      </trkpt>
      <trkpt lat="46.40506" lon="5.20957">
        <ele>217</ele>
        <time>2022-04-04T12:24:32Z</time>
      </trkpt>
      <trkpt lat="46.4051" lon="5.20901">
        <ele>217.4</ele>
        <time>2022-04-04T12:24:38Z</time>
      </trkpt>
      <trkpt lat="46.40514" lon="5.20853">
        <ele>218</ele>
        <time>2022-04-04T12:24:43Z</time>
      </trkpt>
      <trkpt lat="46.40517" lon="5.20806">
        <ele>218.6</ele>
        <time>2022-04-04T12:24:48Z</time>
      </trkpt>
      <trkpt lat="46.4052" lon="5.20773">
        <ele>219</ele>
        <time>2022-04-04T12:24:52Z</time>
      </trkpt>
      <trkpt lat="46.40521" lon="5.20757">
        <ele>219.4</ele>
        <time>2022-04-04T12:24:54Z</time>
      </trkpt>
      <trkpt lat="46.40524" lon="5.20724">
        <ele>220.2</ele>
        <time>2022-04-04T12:24:59Z</time>
      </trkpt>
      <trkpt lat="46.40524" lon="5.20709">
        <ele>220.6</ele>
        <time>2022-04-04T12:25:01Z</time>
      </trkpt>
      <trkpt lat="46.40525" lon="5.20702">
        <ele>221</ele>
        <time>2022-04-04T12:25:02Z</time>
      </trkpt>
      <trkpt lat="46.40526" lon="5.20696">
        <ele>221.4</ele>
        <time>2022-04-04T12:25:03Z</time>
      </trkpt>
      <trkpt lat="46.40527" lon="5.20662">
        <ele>222.4</ele>
        <time>2022-04-04T12:25:08Z</time>
      </trkpt>
      <trkpt lat="46.40528" lon="5.20643">
        <ele>223.2</ele>
        <time>2022-04-04T12:25:11Z</time>
      </trkpt>
      <trkpt lat="46.40529" lon="5.20637">
        <ele>223.2</ele>
        <time>2022-04-04T12:25:12Z</time>
      </trkpt>
      <trkpt lat="46.40529" lon="5.20632">
        <ele>223.8</ele>
        <time>2022-04-04T12:25:13Z</time>
      </trkpt>
      <trkpt lat="46.40531" lon="5.20609">
        <ele>224.6</ele>
        <time>2022-04-04T12:25:17Z</time>
      </trkpt>
      <trkpt lat="46.40531" lon="5.20603">
        <ele>225</ele>
        <time>2022-04-04T12:25:18Z</time>
      </trkpt>
      <trkpt lat="46.40533" lon="5.2058">
        <ele>226</ele>
        <time>2022-04-04T12:25:22Z</time>
      </trkpt>
      <trkpt lat="46.40534" lon="5.20569">
        <ele>226.2</ele>
        <time>2022-04-04T12:25:24Z</time>
      </trkpt>
      <trkpt lat="46.40534" lon="5.20564">
        <ele>226.4</ele>
        <time>2022-04-04T12:25:25Z</time>
      </trkpt>
      <trkpt lat="46.40535" lon="5.20545">
        <ele>227.4</ele>
        <time>2022-04-04T12:25:28Z</time>
      </trkpt>
      <trkpt lat="46.40537" lon="5.20515">
        <ele>228.6</ele>
        <time>2022-04-04T12:25:33Z</time>
      </trkpt>
      <trkpt lat="46.40538" lon="5.20505">
        <ele>229</ele>
        <time>2022-04-04T12:25:35Z</time>
      </trkpt>
      <trkpt lat="46.40539" lon="5.20488">
        <ele>229.8</ele>
        <time>2022-04-04T12:25:38Z</time>
      </trkpt>
      <trkpt lat="46.40541" lon="5.20465">
        <ele>231</ele>
        <time>2022-04-04T12:25:42Z</time>
      </trkpt>
      <trkpt lat="46.40542" lon="5.20448">
        <ele>231.6</ele>
        <time>2022-04-04T12:25:45Z</time>
      </trkpt>
      <trkpt lat="46.40543" lon="5.20438">
        <ele>232</ele>
        <time>2022-04-04T12:25:47Z</time>
      </trkpt>
      <trkpt lat="46.40546" lon="5.20416">
        <ele>233.2</ele>
        <time>2022-04-04T12:25:51Z</time>
      </trkpt>
      <trkpt lat="46.40546" lon="5.20405">
        <ele>233.8</ele>
        <time>2022-04-04T12:25:53Z</time>
      </trkpt>
      <trkpt lat="46.40547" lon="5.20399">
        <ele>234.2</ele>
        <time>2022-04-04T12:25:54Z</time>
      </trkpt>
      <trkpt lat="46.40548" lon="5.20375">
        <ele>235.2</ele>
        <time>2022-04-04T12:25:58Z</time>
      </trkpt>
      <trkpt lat="46.40548" lon="5.20369">
        <ele>235.4</ele>
        <time>2022-04-04T12:25:59Z</time>
      </trkpt>
      <trkpt lat="46.40549" lon="5.20363">
        <ele>235.6</ele>
        <time>2022-04-04T12:26:00Z</time>
      </trkpt>
      <trkpt lat="46.40551" lon="5.20337">
        <ele>236.6</ele>
        <time>2022-04-04T12:26:04Z</time>
      </trkpt>
      <trkpt lat="46.40553" lon="5.20307">
        <ele>236.6</ele>
        <time>2022-04-04T12:26:08Z</time>
      </trkpt>
      <trkpt lat="46.40557" lon="5.20253">
        <ele>237.2</ele>
        <time>2022-04-04T12:26:15Z</time>
      </trkpt>
      <trkpt lat="46.40562" lon="5.20177">
        <ele>237.4</ele>
        <time>2022-04-04T12:26:24Z</time>
      </trkpt>
      <trkpt lat="46.40566" lon="5.20106">
        <ele>237.2</ele>
        <time>2022-04-04T12:26:32Z</time>
      </trkpt>
      <trkpt lat="46.40569" lon="5.20021">
        <ele>236.4</ele>
        <time>2022-04-04T12:26:41Z</time>
      </trkpt>
      <trkpt lat="46.4057" lon="5.19993">
        <ele>236.4</ele>
        <time>2022-04-04T12:26:44Z</time>
      </trkpt>
      <trkpt lat="46.40572" lon="5.19938">
        <ele>236.6</ele>
        <time>2022-04-04T12:26:50Z</time>
      </trkpt>
      <trkpt lat="46.40572" lon="5.19901">
        <ele>236.6</ele>
        <time>2022-04-04T12:26:54Z</time>
      </trkpt>
      <trkpt lat="46.40575" lon="5.19818">
        <ele>236.2</ele>
        <time>2022-04-04T12:27:03Z</time>
      </trkpt>
      <trkpt lat="46.40575" lon="5.19808">
        <ele>236</ele>
        <time>2022-04-04T12:27:04Z</time>
      </trkpt>
      <trkpt lat="46.40576" lon="5.19779">
        <ele>235.6</ele>
        <time>2022-04-04T12:27:07Z</time>
      </trkpt>
      <trkpt lat="46.40577" lon="5.19716">
        <ele>234.8</ele>
        <time>2022-04-04T12:27:13Z</time>
      </trkpt>
      <trkpt lat="46.40578" lon="5.19693">
        <ele>234.6</ele>
        <time>2022-04-04T12:27:15Z</time>
      </trkpt>
      <trkpt lat="46.4058" lon="5.19633">
        <ele>233.4</ele>
        <time>2022-04-04T12:27:20Z</time>
      </trkpt>
      <trkpt lat="46.40581" lon="5.19595">
        <ele>232.2</ele>
        <time>2022-04-04T12:27:23Z</time>
      </trkpt>
      <trkpt lat="46.40582" lon="5.19542">
        <ele>230.8</ele>
        <time>2022-04-04T12:27:27Z</time>
      </trkpt>
      <trkpt lat="46.40583" lon="5.19529">
        <ele>230.6</ele>
        <time>2022-04-04T12:27:28Z</time>
      </trkpt>
      <trkpt lat="46.40583" lon="5.19501">
        <ele>229.8</ele>
        <time>2022-04-04T12:27:30Z</time>
      </trkpt>
      <trkpt lat="46.40584" lon="5.19474">
        <ele>228.4</ele>
        <time>2022-04-04T12:27:32Z</time>
      </trkpt>
      <trkpt lat="46.40584" lon="5.19446">
        <ele>227.4</ele>
        <time>2022-04-04T12:27:34Z</time>
      </trkpt>
      <trkpt lat="46.40585" lon="5.19419">
        <ele>226</ele>
        <time>2022-04-04T12:27:36Z</time>
      </trkpt>
      <trkpt lat="46.40586" lon="5.19377">
        <ele>224.8</ele>
        <time>2022-04-04T12:27:39Z</time>
      </trkpt>
      <trkpt lat="46.40587" lon="5.19364">
        <ele>223.8</ele>
        <time>2022-04-04T12:27:40Z</time>
      </trkpt>
      <trkpt lat="46.40588" lon="5.19323">
        <ele>222.8</ele>
        <time>2022-04-04T12:27:43Z</time>
      </trkpt>
      <trkpt lat="46.40589" lon="5.19296">
        <ele>222.2</ele>
        <time>2022-04-04T12:27:45Z</time>
      </trkpt>
      <trkpt lat="46.4059" lon="5.19269">
        <ele>221.6</ele>
        <time>2022-04-04T12:27:47Z</time>
      </trkpt>
      <trkpt lat="46.4059" lon="5.19256">
        <ele>221.4</ele>
        <time>2022-04-04T12:27:48Z</time>
      </trkpt>
      <trkpt lat="46.40591" lon="5.19219">
        <ele>220.6</ele>
        <time>2022-04-04T12:27:51Z</time>
      </trkpt>
      <trkpt lat="46.40593" lon="5.19159">
        <ele>219.8</ele>
        <time>2022-04-04T12:27:56Z</time>
      </trkpt>
      <trkpt lat="46.40595" lon="5.19102">
        <ele>219.4</ele>
        <time>2022-04-04T12:28:01Z</time>
      </trkpt>
      <trkpt lat="46.40596" lon="5.19057">
        <ele>219.4</ele>
        <time>2022-04-04T12:28:05Z</time>
      </trkpt>
      <trkpt lat="46.40599" lon="5.18969">
        <ele>219.8</ele>
        <time>2022-04-04T12:28:13Z</time>
      </trkpt>
      <trkpt lat="46.406" lon="5.18947">
        <ele>220</ele>
        <time>2022-04-04T12:28:15Z</time>
      </trkpt>
      <trkpt lat="46.40603" lon="5.18864">
        <ele>220.6</ele>
        <time>2022-04-04T12:28:23Z</time>
      </trkpt>
      <trkpt lat="46.40603" lon="5.18855">
        <ele>220.6</ele>
        <time>2022-04-04T12:28:24Z</time>
      </trkpt>
      <trkpt lat="46.40603" lon="5.18836">
        <ele>220.8</ele>
        <time>2022-04-04T12:28:26Z</time>
      </trkpt>
      <trkpt lat="46.40604" lon="5.18781">
        <ele>221</ele>
        <time>2022-04-04T12:28:32Z</time>
      </trkpt>
      <trkpt lat="46.40607" lon="5.18711">
        <ele>221.8</ele>
        <time>2022-04-04T12:28:40Z</time>
      </trkpt>
      <trkpt lat="46.40607" lon="5.18702">
        <ele>222</ele>
        <time>2022-04-04T12:28:41Z</time>
      </trkpt>
      <trkpt lat="46.40609" lon="5.18637">
        <ele>223</ele>
        <time>2022-04-04T12:28:49Z</time>
      </trkpt>
      <trkpt lat="46.4061" lon="5.18605">
        <ele>223.2</ele>
        <time>2022-04-04T12:28:53Z</time>
      </trkpt>
      <trkpt lat="46.40612" lon="5.18533">
        <ele>223.6</ele>
        <time>2022-04-04T12:29:01Z</time>
      </trkpt>
      <trkpt lat="46.40614" lon="5.18445">
        <ele>223.8</ele>
        <time>2022-04-04T12:29:10Z</time>
      </trkpt>
      <trkpt lat="46.40617" lon="5.1838">
        <ele>223.6</ele>
        <time>2022-04-04T12:29:17Z</time>
      </trkpt>
      <trkpt lat="46.40618" lon="5.18355">
        <ele>224</ele>
        <time>2022-04-04T12:29:20Z</time>
      </trkpt>
      <trkpt lat="46.40618" lon="5.18332">
        <ele>225.2</ele>
        <time>2022-04-04T12:29:23Z</time>
      </trkpt>
      <trkpt lat="46.40618" lon="5.18325">
        <ele>225.4</ele>
        <time>2022-04-04T12:29:24Z</time>
      </trkpt>
      <trkpt lat="46.40619" lon="5.18306">
        <ele>226.2</ele>
        <time>2022-04-04T12:29:27Z</time>
      </trkpt>
      <trkpt lat="46.40619" lon="5.18285">
        <ele>227</ele>
        <time>2022-04-04T12:29:30Z</time>
      </trkpt>
      <trkpt lat="46.40619" lon="5.18279">
        <ele>227.4</ele>
        <time>2022-04-04T12:29:31Z</time>
      </trkpt>
      <trkpt lat="46.4062" lon="5.18248">
        <ele>228.4</ele>
        <time>2022-04-04T12:29:36Z</time>
      </trkpt>
      <trkpt lat="46.4062" lon="5.18241">
        <ele>228.8</ele>
        <time>2022-04-04T12:29:37Z</time>
      </trkpt>
      <trkpt lat="46.40621" lon="5.18221">
        <ele>229.4</ele>
        <time>2022-04-04T12:29:40Z</time>
      </trkpt>
      <trkpt lat="46.40622" lon="5.18183">
        <ele>230.4</ele>
        <time>2022-04-04T12:29:45Z</time>
      </trkpt>
      <trkpt lat="46.40623" lon="5.18175">
        <ele>230.8</ele>
        <time>2022-04-04T12:29:46Z</time>
      </trkpt>
      <trkpt lat="46.40624" lon="5.18119">
        <ele>231</ele>
        <time>2022-04-04T12:29:52Z</time>
      </trkpt>
      <trkpt lat="46.40625" lon="5.18076">
        <ele>230.6</ele>
        <time>2022-04-04T12:29:56Z</time>
      </trkpt>
      <trkpt lat="46.40626" lon="5.18042">
        <ele>229.8</ele>
        <time>2022-04-04T12:29:59Z</time>
      </trkpt>
      <trkpt lat="46.40627" lon="5.18031">
        <ele>229.4</ele>
        <time>2022-04-04T12:30:00Z</time>
      </trkpt>
      <trkpt lat="46.40628" lon="5.1798">
        <ele>228.6</ele>
        <time>2022-04-04T12:30:04Z</time>
      </trkpt>
      <trkpt lat="46.40629" lon="5.17951">
        <ele>228.2</ele>
        <time>2022-04-04T12:30:06Z</time>
      </trkpt>
      <trkpt lat="46.4063" lon="5.17923">
        <ele>226.8</ele>
        <time>2022-04-04T12:30:08Z</time>
      </trkpt>
      <trkpt lat="46.40631" lon="5.17893">
        <ele>225.6</ele>
        <time>2022-04-04T12:30:10Z</time>
      </trkpt>
      <trkpt lat="46.40632" lon="5.17865">
        <ele>224.4</ele>
        <time>2022-04-04T12:30:12Z</time>
      </trkpt>
      <trkpt lat="46.40632" lon="5.17836">
        <ele>223</ele>
        <time>2022-04-04T12:30:14Z</time>
      </trkpt>
      <trkpt lat="46.40634" lon="5.17796">
        <ele>222</ele>
        <time>2022-04-04T12:30:17Z</time>
      </trkpt>
      <trkpt lat="46.40634" lon="5.17782">
        <ele>221.8</ele>
        <time>2022-04-04T12:30:18Z</time>
      </trkpt>
      <trkpt lat="46.40635" lon="5.17734">
        <ele>220.8</ele>
        <time>2022-04-04T12:30:22Z</time>
      </trkpt>
      <trkpt lat="46.40636" lon="5.17711">
        <ele>220.6</ele>
        <time>2022-04-04T12:30:24Z</time>
      </trkpt>
      <trkpt lat="46.40637" lon="5.17646">
        <ele>220.4</ele>
        <time>2022-04-04T12:30:30Z</time>
      </trkpt>
      <trkpt lat="46.40638" lon="5.17588">
        <ele>220.2</ele>
        <time>2022-04-04T12:30:36Z</time>
      </trkpt>
      <trkpt lat="46.4064" lon="5.17506">
        <ele>220.6</ele>
        <time>2022-04-04T12:30:45Z</time>
      </trkpt>
      <trkpt lat="46.40641" lon="5.17454">
        <ele>221.8</ele>
        <time>2022-04-04T12:30:52Z</time>
      </trkpt>
      <trkpt lat="46.40642" lon="5.17447">
        <ele>222</ele>
        <time>2022-04-04T12:30:53Z</time>
      </trkpt>
      <trkpt lat="46.40642" lon="5.17403">
        <ele>223.2</ele>
        <time>2022-04-04T12:31:00Z</time>
      </trkpt>
      <trkpt lat="46.40643" lon="5.17378">
        <ele>224.2</ele>
        <time>2022-04-04T12:31:04Z</time>
      </trkpt>
      <trkpt lat="46.40644" lon="5.17359">
        <ele>225.2</ele>
        <time>2022-04-04T12:31:07Z</time>
      </trkpt>
      <trkpt lat="46.40644" lon="5.17353">
        <ele>225.4</ele>
        <time>2022-04-04T12:31:08Z</time>
      </trkpt>
      <trkpt lat="46.40645" lon="5.17337">
        <ele>226.4</ele>
        <time>2022-04-04T12:31:11Z</time>
      </trkpt>
      <trkpt lat="46.40644" lon="5.1732">
        <ele>227.4</ele>
        <time>2022-04-04T12:31:14Z</time>
      </trkpt>
      <trkpt lat="46.40645" lon="5.1729">
        <ele>228.2</ele>
        <time>2022-04-04T12:31:20Z</time>
      </trkpt>
      <trkpt lat="46.40645" lon="5.17285">
        <ele>228.6</ele>
        <time>2022-04-04T12:31:21Z</time>
      </trkpt>
      <trkpt lat="46.40646" lon="5.17249">
        <ele>230</ele>
        <time>2022-04-04T12:31:26Z</time>
      </trkpt>
      <trkpt lat="46.40646" lon="5.17242">
        <ele>230</ele>
        <time>2022-04-04T12:31:27Z</time>
      </trkpt>
      <trkpt lat="46.40646" lon="5.1722">
        <ele>231</ele>
        <time>2022-04-04T12:31:30Z</time>
      </trkpt>
      <trkpt lat="46.40646" lon="5.17212">
        <ele>231.2</ele>
        <time>2022-04-04T12:31:31Z</time>
      </trkpt>
      <trkpt lat="46.40645" lon="5.17197">
        <ele>231.8</ele>
        <time>2022-04-04T12:31:33Z</time>
      </trkpt>
      <trkpt lat="46.40645" lon="5.17175">
        <ele>232.2</ele>
        <time>2022-04-04T12:31:36Z</time>
      </trkpt>
      <trkpt lat="46.40645" lon="5.17166">
        <ele>232.2</ele>
        <time>2022-04-04T12:31:37Z</time>
      </trkpt>
      <trkpt lat="46.40645" lon="5.17144">
        <ele>232.4</ele>
        <time>2022-04-04T12:31:40Z</time>
      </trkpt>
      <trkpt lat="46.40648" lon="5.17121">
        <ele>232.8</ele>
        <time>2022-04-04T12:31:43Z</time>
      </trkpt>
      <trkpt lat="46.4065" lon="5.17073">
        <ele>233.2</ele>
        <time>2022-04-04T12:31:49Z</time>
      </trkpt>
      <trkpt lat="46.40651" lon="5.17066">
        <ele>233.4</ele>
        <time>2022-04-04T12:31:50Z</time>
      </trkpt>
      <trkpt lat="46.40652" lon="5.16985">
        <ele>233.6</ele>
        <time>2022-04-04T12:32:00Z</time>
      </trkpt>
      <trkpt lat="46.40655" lon="5.16911">
        <ele>233.8</ele>
        <time>2022-04-04T12:32:09Z</time>
      </trkpt>
      <trkpt lat="46.40656" lon="5.16856">
        <ele>234.2</ele>
        <time>2022-04-04T12:32:15Z</time>
      </trkpt>
      <trkpt lat="46.40657" lon="5.16839">
        <ele>234.2</ele>
        <time>2022-04-04T12:32:17Z</time>
      </trkpt>
      <trkpt lat="46.40659" lon="5.16756">
        <ele>233.6</ele>
        <time>2022-04-04T12:32:25Z</time>
      </trkpt>
      <trkpt lat="46.40659" lon="5.16723">
        <ele>233</ele>
        <time>2022-04-04T12:32:28Z</time>
      </trkpt>
      <trkpt lat="46.40659" lon="5.16691">
        <ele>232.4</ele>
        <time>2022-04-04T12:32:31Z</time>
      </trkpt>
      <trkpt lat="46.40658" lon="5.16634">
        <ele>232.2</ele>
        <time>2022-04-04T12:32:37Z</time>
      </trkpt>
      <trkpt lat="46.4066" lon="5.16554">
        <ele>233.2</ele>
        <time>2022-04-04T12:32:46Z</time>
      </trkpt>
      <trkpt lat="46.40663" lon="5.16474">
        <ele>234</ele>
        <time>2022-04-04T12:32:55Z</time>
      </trkpt>
      <trkpt lat="46.40663" lon="5.16465">
        <ele>234.2</ele>
        <time>2022-04-04T12:32:56Z</time>
      </trkpt>
      <trkpt lat="46.40665" lon="5.16399">
        <ele>234.2</ele>
        <time>2022-04-04T12:33:03Z</time>
      </trkpt>
      <trkpt lat="46.40667" lon="5.16324">
        <ele>233.6</ele>
        <time>2022-04-04T12:33:10Z</time>
      </trkpt>
      <trkpt lat="46.40667" lon="5.16288">
        <ele>233</ele>
        <time>2022-04-04T12:33:13Z</time>
      </trkpt>
      <trkpt lat="46.40667" lon="5.1625">
        <ele>231.8</ele>
        <time>2022-04-04T12:33:16Z</time>
      </trkpt>
      <trkpt lat="46.40667" lon="5.16238">
        <ele>231.6</ele>
        <time>2022-04-04T12:33:17Z</time>
      </trkpt>
      <trkpt lat="46.40667" lon="5.16214">
        <ele>230.6</ele>
        <time>2022-04-04T12:33:19Z</time>
      </trkpt>
      <trkpt lat="46.40668" lon="5.16157">
        <ele>229.4</ele>
        <time>2022-04-04T12:33:24Z</time>
      </trkpt>
      <trkpt lat="46.40668" lon="5.16147">
        <ele>229.4</ele>
        <time>2022-04-04T12:33:25Z</time>
      </trkpt>
      <trkpt lat="46.40669" lon="5.16092">
        <ele>229.4</ele>
        <time>2022-04-04T12:33:31Z</time>
      </trkpt>
      <trkpt lat="46.4067" lon="5.16039">
        <ele>230.4</ele>
        <time>2022-04-04T12:33:38Z</time>
      </trkpt>
      <trkpt lat="46.40671" lon="5.16032">
        <ele>230.6</ele>
        <time>2022-04-04T12:33:39Z</time>
      </trkpt>
      <trkpt lat="46.40673" lon="5.15983">
        <ele>231.8</ele>
        <time>2022-04-04T12:33:46Z</time>
      </trkpt>
      <trkpt lat="46.40673" lon="5.15975">
        <ele>231.8</ele>
        <time>2022-04-04T12:33:47Z</time>
      </trkpt>
      <trkpt lat="46.40673" lon="5.1593">
        <ele>232.8</ele>
        <time>2022-04-04T12:33:53Z</time>
      </trkpt>
      <trkpt lat="46.40674" lon="5.15908">
        <ele>233.2</ele>
        <time>2022-04-04T12:33:56Z</time>
      </trkpt>
      <trkpt lat="46.40674" lon="5.15838">
        <ele>233.8</ele>
        <time>2022-04-04T12:34:04Z</time>
      </trkpt>
      <trkpt lat="46.40675" lon="5.15773">
        <ele>233</ele>
        <time>2022-04-04T12:34:10Z</time>
      </trkpt>
      <trkpt lat="46.40675" lon="5.15761">
        <ele>232.8</ele>
        <time>2022-04-04T12:34:11Z</time>
      </trkpt>
      <trkpt lat="46.40676" lon="5.15724">
        <ele>231.6</ele>
        <time>2022-04-04T12:34:14Z</time>
      </trkpt>
      <trkpt lat="46.40676" lon="5.15686">
        <ele>231</ele>
        <time>2022-04-04T12:34:17Z</time>
      </trkpt>
      <trkpt lat="46.40677" lon="5.15649">
        <ele>230.4</ele>
        <time>2022-04-04T12:34:20Z</time>
      </trkpt>
      <trkpt lat="46.40678" lon="5.15584">
        <ele>229.8</ele>
        <time>2022-04-04T12:34:26Z</time>
      </trkpt>
      <trkpt lat="46.40678" lon="5.1552">
        <ele>230.8</ele>
        <time>2022-04-04T12:34:33Z</time>
      </trkpt>
      <trkpt lat="46.40679" lon="5.15484">
        <ele>231.4</ele>
        <time>2022-04-04T12:34:37Z</time>
      </trkpt>
      <trkpt lat="46.4068" lon="5.15458">
        <ele>231.6</ele>
        <time>2022-04-04T12:34:40Z</time>
      </trkpt>
      <trkpt lat="46.40681" lon="5.15384">
        <ele>232.6</ele>
        <time>2022-04-04T12:34:49Z</time>
      </trkpt>
      <trkpt lat="46.40681" lon="5.15376">
        <ele>232.8</ele>
        <time>2022-04-04T12:34:50Z</time>
      </trkpt>
      <trkpt lat="46.40682" lon="5.15293">
        <ele>233.6</ele>
        <time>2022-04-04T12:35:00Z</time>
      </trkpt>
      <trkpt lat="46.40682" lon="5.15285">
        <ele>233.8</ele>
        <time>2022-04-04T12:35:01Z</time>
      </trkpt>
      <trkpt lat="46.40682" lon="5.15277">
        <ele>233.8</ele>
        <time>2022-04-04T12:35:02Z</time>
      </trkpt>
      <trkpt lat="46.40684" lon="5.15215">
        <ele>234.8</ele>
        <time>2022-04-04T12:35:10Z</time>
      </trkpt>
      <trkpt lat="46.40685" lon="5.1519">
        <ele>234.8</ele>
        <time>2022-04-04T12:35:13Z</time>
      </trkpt>
      <trkpt lat="46.40685" lon="5.15175">
        <ele>235</ele>
        <time>2022-04-04T12:35:15Z</time>
      </trkpt>
      <trkpt lat="46.40686" lon="5.15121">
        <ele>235.2</ele>
        <time>2022-04-04T12:35:21Z</time>
      </trkpt>
      <trkpt lat="46.40687" lon="5.15053">
        <ele>235.4</ele>
        <time>2022-04-04T12:35:29Z</time>
      </trkpt>
      <trkpt lat="46.40688" lon="5.14967">
        <ele>235.2</ele>
        <time>2022-04-04T12:35:38Z</time>
      </trkpt>
      <trkpt lat="46.40689" lon="5.14891">
        <ele>233.6</ele>
        <time>2022-04-04T12:35:45Z</time>
      </trkpt>
      <trkpt lat="46.4069" lon="5.14832">
        <ele>232.2</ele>
        <time>2022-04-04T12:35:50Z</time>
      </trkpt>
      <trkpt lat="46.4069" lon="5.14821">
        <ele>232</ele>
        <time>2022-04-04T12:35:51Z</time>
      </trkpt>
      <trkpt lat="46.4069" lon="5.14777">
        <ele>231.2</ele>
        <time>2022-04-04T12:35:55Z</time>
      </trkpt>
      <trkpt lat="46.4069" lon="5.14742">
        <ele>230.6</ele>
        <time>2022-04-04T12:35:58Z</time>
      </trkpt>
      <trkpt lat="46.4069" lon="5.14721">
        <ele>230</ele>
        <time>2022-04-04T12:36:00Z</time>
      </trkpt>
      <trkpt lat="46.40692" lon="5.14704">
        <ele>229.6</ele>
        <time>2022-04-04T12:36:02Z</time>
      </trkpt>
      <trkpt lat="46.40701" lon="5.14692">
        <ele>229</ele>
        <time>2022-04-04T12:36:04Z</time>
      </trkpt>
      <trkpt lat="46.40712" lon="5.14695">
        <ele>228.4</ele>
        <time>2022-04-04T12:36:06Z</time>
      </trkpt>
      <trkpt lat="46.40718" lon="5.14698">
        <ele>228.2</ele>
        <time>2022-04-04T12:36:07Z</time>
      </trkpt>
      <trkpt lat="46.40732" lon="5.14704">
        <ele>228</ele>
        <time>2022-04-04T12:36:09Z</time>
      </trkpt>
      <trkpt lat="46.40737" lon="5.14705">
        <ele>228</ele>
        <time>2022-04-04T12:36:10Z</time>
      </trkpt>
      <trkpt lat="46.40743" lon="5.14707">
        <ele>228</ele>
        <time>2022-04-04T12:36:11Z</time>
      </trkpt>
      <trkpt lat="46.40789" lon="5.14724">
        <ele>228.6</ele>
        <time>2022-04-04T12:36:19Z</time>
      </trkpt>
      <trkpt lat="46.40799" lon="5.14728">
        <ele>229</ele>
        <time>2022-04-04T12:36:21Z</time>
      </trkpt>
      <trkpt lat="46.40804" lon="5.14731">
        <ele>229.4</ele>
        <time>2022-04-04T12:36:22Z</time>
      </trkpt>
      <trkpt lat="46.40809" lon="5.14734">
        <ele>229.8</ele>
        <time>2022-04-04T12:36:23Z</time>
      </trkpt>
      <trkpt lat="46.40817" lon="5.1474">
        <ele>230.8</ele>
        <time>2022-04-04T12:36:25Z</time>
      </trkpt>
      <trkpt lat="46.40822" lon="5.14745">
        <ele>231.2</ele>
        <time>2022-04-04T12:36:26Z</time>
      </trkpt>
      <trkpt lat="46.4083" lon="5.14756">
        <ele>231.6</ele>
        <time>2022-04-04T12:36:28Z</time>
      </trkpt>
      <trkpt lat="46.40833" lon="5.14761">
        <ele>231.8</ele>
        <time>2022-04-04T12:36:29Z</time>
      </trkpt>
      <trkpt lat="46.4084" lon="5.14776">
        <ele>232</ele>
        <time>2022-04-04T12:36:31Z</time>
      </trkpt>
      <trkpt lat="46.40844" lon="5.14786">
        <ele>232</ele>
        <time>2022-04-04T12:36:32Z</time>
      </trkpt>
      <trkpt lat="46.4085" lon="5.14802">
        <ele>232</ele>
        <time>2022-04-04T12:36:34Z</time>
      </trkpt>
      <trkpt lat="46.40871" lon="5.14859">
        <ele>231.2</ele>
        <time>2022-04-04T12:36:40Z</time>
      </trkpt>
      <trkpt lat="46.40882" lon="5.14873">
        <ele>231.2</ele>
        <time>2022-04-04T12:36:42Z</time>
      </trkpt>
      <trkpt lat="46.40888" lon="5.14878">
        <ele>231</ele>
        <time>2022-04-04T12:36:43Z</time>
      </trkpt>
      <trkpt lat="46.40902" lon="5.14884">
        <ele>230.8</ele>
        <time>2022-04-04T12:36:45Z</time>
      </trkpt>
      <trkpt lat="46.40922" lon="5.14888">
        <ele>230.8</ele>
        <time>2022-04-04T12:36:48Z</time>
      </trkpt>
      <trkpt lat="46.4097" lon="5.14908">
        <ele>231</ele>
        <time>2022-04-04T12:36:55Z</time>
      </trkpt>
      <trkpt lat="46.41004" lon="5.14935">
        <ele>230.8</ele>
        <time>2022-04-04T12:37:01Z</time>
      </trkpt>
      <trkpt lat="46.41026" lon="5.14953">
        <ele>230.8</ele>
        <time>2022-04-04T12:37:05Z</time>
      </trkpt>
      <trkpt lat="46.41031" lon="5.14955">
        <ele>230.8</ele>
        <time>2022-04-04T12:37:06Z</time>
      </trkpt>
      <trkpt lat="46.41037" lon="5.14956">
        <ele>230.8</ele>
        <time>2022-04-04T12:37:07Z</time>
      </trkpt>
      <trkpt lat="46.41056" lon="5.14954">
        <ele>230.8</ele>
        <time>2022-04-04T12:37:10Z</time>
      </trkpt>
      <trkpt lat="46.41102" lon="5.14938">
        <ele>231</ele>
        <time>2022-04-04T12:37:17Z</time>
      </trkpt>
      <trkpt lat="46.41121" lon="5.14935">
        <ele>231</ele>
        <time>2022-04-04T12:37:20Z</time>
      </trkpt>
      <trkpt lat="46.41146" lon="5.14934">
        <ele>231</ele>
        <time>2022-04-04T12:37:24Z</time>
      </trkpt>
      <trkpt lat="46.41175" lon="5.14935">
        <ele>231.4</ele>
        <time>2022-04-04T12:37:29Z</time>
      </trkpt>
      <trkpt lat="46.41188" lon="5.14934">
        <ele>231.8</ele>
        <time>2022-04-04T12:37:31Z</time>
      </trkpt>
      <trkpt lat="46.41219" lon="5.14937">
        <ele>232.8</ele>
        <time>2022-04-04T12:37:36Z</time>
      </trkpt>
      <trkpt lat="46.41258" lon="5.14944">
        <ele>234</ele>
        <time>2022-04-04T12:37:43Z</time>
      </trkpt>
      <trkpt lat="46.41264" lon="5.14945">
        <ele>234.2</ele>
        <time>2022-04-04T12:37:44Z</time>
      </trkpt>
      <trkpt lat="46.41298" lon="5.14952">
        <ele>235</ele>
        <time>2022-04-04T12:37:50Z</time>
      </trkpt>
      <trkpt lat="46.41322" lon="5.14956">
        <ele>235.4</ele>
        <time>2022-04-04T12:37:54Z</time>
      </trkpt>
      <trkpt lat="46.41341" lon="5.14958">
        <ele>235.6</ele>
        <time>2022-04-04T12:37:57Z</time>
      </trkpt>
      <trkpt lat="46.41372" lon="5.14958">
        <ele>235.8</ele>
        <time>2022-04-04T12:38:02Z</time>
      </trkpt>
      <trkpt lat="46.41412" lon="5.1495">
        <ele>235.8</ele>
        <time>2022-04-04T12:38:08Z</time>
      </trkpt>
      <trkpt lat="46.41418" lon="5.14947">
        <ele>235.8</ele>
        <time>2022-04-04T12:38:09Z</time>
      </trkpt>
      <trkpt lat="46.41429" lon="5.14937">
        <ele>235.8</ele>
        <time>2022-04-04T12:38:11Z</time>
      </trkpt>
      <trkpt lat="46.41436" lon="5.1492">
        <ele>235.6</ele>
        <time>2022-04-04T12:38:13Z</time>
      </trkpt>
      <trkpt lat="46.41438" lon="5.14911">
        <ele>235.4</ele>
        <time>2022-04-04T12:38:14Z</time>
      </trkpt>
      <trkpt lat="46.41446" lon="5.14854">
        <ele>235</ele>
        <time>2022-04-04T12:38:20Z</time>
      </trkpt>
      <trkpt lat="46.41462" lon="5.1478">
        <ele>234.2</ele>
        <time>2022-04-04T12:38:27Z</time>
      </trkpt>
      <trkpt lat="46.41474" lon="5.1475">
        <ele>233.8</ele>
        <time>2022-04-04T12:38:30Z</time>
      </trkpt>
      <trkpt lat="46.4148" lon="5.1474">
        <ele>233.8</ele>
        <time>2022-04-04T12:38:31Z</time>
      </trkpt>
      <trkpt lat="46.41485" lon="5.14731">
        <ele>233.6</ele>
        <time>2022-04-04T12:38:32Z</time>
      </trkpt>
      <trkpt lat="46.41512" lon="5.14695">
        <ele>233.6</ele>
        <time>2022-04-04T12:38:37Z</time>
      </trkpt>
      <trkpt lat="46.41542" lon="5.14652">
        <ele>233.8</ele>
        <time>2022-04-04T12:38:43Z</time>
      </trkpt>
      <trkpt lat="46.41554" lon="5.14636">
        <ele>233.8</ele>
        <time>2022-04-04T12:38:45Z</time>
      </trkpt>
      <trkpt lat="46.4156" lon="5.14629">
        <ele>233.8</ele>
        <time>2022-04-04T12:38:46Z</time>
      </trkpt>
      <trkpt lat="46.41573" lon="5.1462">
        <ele>233.8</ele>
        <time>2022-04-04T12:38:48Z</time>
      </trkpt>
      <trkpt lat="46.41598" lon="5.14614">
        <ele>233.8</ele>
        <time>2022-04-04T12:38:51Z</time>
      </trkpt>
      <trkpt lat="46.41634" lon="5.14611">
        <ele>234</ele>
        <time>2022-04-04T12:38:56Z</time>
      </trkpt>
      <trkpt lat="46.41683" lon="5.14598">
        <ele>234.6</ele>
        <time>2022-04-04T12:39:03Z</time>
      </trkpt>
      <trkpt lat="46.41699" lon="5.14586">
        <ele>234.8</ele>
        <time>2022-04-04T12:39:06Z</time>
      </trkpt>
      <trkpt lat="46.41712" lon="5.14572">
        <ele>234.8</ele>
        <time>2022-04-04T12:39:08Z</time>
      </trkpt>
      <trkpt lat="46.41718" lon="5.14566">
        <ele>234.8</ele>
        <time>2022-04-04T12:39:09Z</time>
      </trkpt>
      <trkpt lat="46.41729" lon="5.14557">
        <ele>234.8</ele>
        <time>2022-04-04T12:39:11Z</time>
      </trkpt>
      <trkpt lat="46.41744" lon="5.14549">
        <ele>235</ele>
        <time>2022-04-04T12:39:13Z</time>
      </trkpt>
      <trkpt lat="46.41784" lon="5.14528">
        <ele>234.8</ele>
        <time>2022-04-04T12:39:19Z</time>
      </trkpt>
      <trkpt lat="46.41833" lon="5.14507">
        <ele>234.8</ele>
        <time>2022-04-04T12:39:26Z</time>
      </trkpt>
      <trkpt lat="46.41847" lon="5.14495">
        <ele>235</ele>
        <time>2022-04-04T12:39:28Z</time>
      </trkpt>
      <trkpt lat="46.41857" lon="5.14482">
        <ele>235</ele>
        <time>2022-04-04T12:39:30Z</time>
      </trkpt>
      <trkpt lat="46.41866" lon="5.14464">
        <ele>234.6</ele>
        <time>2022-04-04T12:39:32Z</time>
      </trkpt>
      <trkpt lat="46.41872" lon="5.14448">
        <ele>234.8</ele>
        <time>2022-04-04T12:39:34Z</time>
      </trkpt>
      <trkpt lat="46.41882" lon="5.14419">
        <ele>234.4</ele>
        <time>2022-04-04T12:39:37Z</time>
      </trkpt>
      <trkpt lat="46.41891" lon="5.14403">
        <ele>234</ele>
        <time>2022-04-04T12:39:39Z</time>
      </trkpt>
      <trkpt lat="46.41896" lon="5.14398">
        <ele>233.8</ele>
        <time>2022-04-04T12:39:40Z</time>
      </trkpt>
      <trkpt lat="46.41905" lon="5.14391">
        <ele>233.8</ele>
        <time>2022-04-04T12:39:41Z</time>
      </trkpt>
      <trkpt lat="46.41921" lon="5.14383">
        <ele>233.4</ele>
        <time>2022-04-04T12:39:43Z</time>
      </trkpt>
      <trkpt lat="46.41947" lon="5.14375">
        <ele>232.6</ele>
        <time>2022-04-04T12:39:46Z</time>
      </trkpt>
      <trkpt lat="46.41963" lon="5.14373">
        <ele>232.4</ele>
        <time>2022-04-04T12:39:48Z</time>
      </trkpt>
      <trkpt lat="46.42011" lon="5.14371">
        <ele>231.6</ele>
        <time>2022-04-04T12:39:53Z</time>
      </trkpt>
      <trkpt lat="46.42037" lon="5.14366">
        <ele>231.2</ele>
        <time>2022-04-04T12:39:56Z</time>
      </trkpt>
      <trkpt lat="46.4207" lon="5.14349">
        <ele>231</ele>
        <time>2022-04-04T12:40:00Z</time>
      </trkpt>
      <trkpt lat="46.42109" lon="5.14332">
        <ele>230.6</ele>
        <time>2022-04-04T12:40:05Z</time>
      </trkpt>
      <trkpt lat="46.42117" lon="5.14331">
        <ele>230.4</ele>
        <time>2022-04-04T12:40:06Z</time>
      </trkpt>
      <trkpt lat="46.42149" lon="5.1433">
        <ele>230.4</ele>
        <time>2022-04-04T12:40:10Z</time>
      </trkpt>
      <trkpt lat="46.42179" lon="5.14321">
        <ele>230.2</ele>
        <time>2022-04-04T12:40:14Z</time>
      </trkpt>
      <trkpt lat="46.42187" lon="5.14316">
        <ele>230.2</ele>
        <time>2022-04-04T12:40:15Z</time>
      </trkpt>
      <trkpt lat="46.42225" lon="5.14282">
        <ele>229.8</ele>
        <time>2022-04-04T12:40:20Z</time>
      </trkpt>
      <trkpt lat="46.4224" lon="5.1427">
        <ele>229.2</ele>
        <time>2022-04-04T12:40:22Z</time>
      </trkpt>
      <trkpt lat="46.42264" lon="5.14253">
        <ele>228</ele>
        <time>2022-04-04T12:40:25Z</time>
      </trkpt>
      <trkpt lat="46.4228" lon="5.14244">
        <ele>227.4</ele>
        <time>2022-04-04T12:40:27Z</time>
      </trkpt>
      <trkpt lat="46.42289" lon="5.14242">
        <ele>227.2</ele>
        <time>2022-04-04T12:40:28Z</time>
      </trkpt>
      <trkpt lat="46.42308" lon="5.1424">
        <ele>226.8</ele>
        <time>2022-04-04T12:40:30Z</time>
      </trkpt>
      <trkpt lat="46.42318" lon="5.14241">
        <ele>226.6</ele>
        <time>2022-04-04T12:40:31Z</time>
      </trkpt>
      <trkpt lat="46.42337" lon="5.14243">
        <ele>225.8</ele>
        <time>2022-04-04T12:40:33Z</time>
      </trkpt>
      <trkpt lat="46.42365" lon="5.14249">
        <ele>225</ele>
        <time>2022-04-04T12:40:36Z</time>
      </trkpt>
      <trkpt lat="46.42374" lon="5.1425">
        <ele>224.4</ele>
        <time>2022-04-04T12:40:37Z</time>
      </trkpt>
      <trkpt lat="46.42403" lon="5.14257">
        <ele>223.4</ele>
        <time>2022-04-04T12:40:40Z</time>
      </trkpt>
      <trkpt lat="46.42413" lon="5.14261">
        <ele>223.2</ele>
        <time>2022-04-04T12:40:41Z</time>
      </trkpt>
      <trkpt lat="46.42439" lon="5.14279">
        <ele>222.2</ele>
        <time>2022-04-04T12:40:44Z</time>
      </trkpt>
      <trkpt lat="46.42456" lon="5.14289">
        <ele>221.6</ele>
        <time>2022-04-04T12:40:46Z</time>
      </trkpt>
      <trkpt lat="46.42465" lon="5.14292">
        <ele>221.6</ele>
        <time>2022-04-04T12:40:47Z</time>
      </trkpt>
      <trkpt lat="46.42483" lon="5.14294">
        <ele>221.6</ele>
        <time>2022-04-04T12:40:49Z</time>
      </trkpt>
      <trkpt lat="46.42491" lon="5.14292">
        <ele>221.4</ele>
        <time>2022-04-04T12:40:50Z</time>
      </trkpt>
      <trkpt lat="46.42524" lon="5.14284">
        <ele>221.2</ele>
        <time>2022-04-04T12:40:54Z</time>
      </trkpt>
      <trkpt lat="46.42569" lon="5.14278">
        <ele>221.6</ele>
        <time>2022-04-04T12:41:00Z</time>
      </trkpt>
      <trkpt lat="46.42576" lon="5.14276">
        <ele>221.6</ele>
        <time>2022-04-04T12:41:01Z</time>
      </trkpt>
      <trkpt lat="46.42596" lon="5.14266">
        <ele>222.2</ele>
        <time>2022-04-04T12:41:04Z</time>
      </trkpt>
      <trkpt lat="46.42616" lon="5.14256">
        <ele>222.6</ele>
        <time>2022-04-04T12:41:07Z</time>
      </trkpt>
      <trkpt lat="46.42647" lon="5.14242">
        <ele>222.6</ele>
        <time>2022-04-04T12:41:12Z</time>
      </trkpt>
      <trkpt lat="46.42672" lon="5.14231">
        <ele>222.8</ele>
        <time>2022-04-04T12:41:16Z</time>
      </trkpt>
      <trkpt lat="46.42682" lon="5.14223">
        <ele>222.8</ele>
        <time>2022-04-04T12:41:18Z</time>
      </trkpt>
      <trkpt lat="46.42704" lon="5.14204">
        <ele>223</ele>
        <time>2022-04-04T12:41:22Z</time>
      </trkpt>
      <trkpt lat="46.42716" lon="5.14198">
        <ele>223</ele>
        <time>2022-04-04T12:41:24Z</time>
      </trkpt>
      <trkpt lat="46.42743" lon="5.14194">
        <ele>222.8</ele>
        <time>2022-04-04T12:41:28Z</time>
      </trkpt>
      <trkpt lat="46.42787" lon="5.14196">
        <ele>222</ele>
        <time>2022-04-04T12:41:35Z</time>
      </trkpt>
      <trkpt lat="46.42832" lon="5.14206">
        <ele>223</ele>
        <time>2022-04-04T12:41:42Z</time>
      </trkpt>
      <trkpt lat="46.4285" lon="5.14211">
        <ele>223.2</ele>
        <time>2022-04-04T12:41:45Z</time>
      </trkpt>
      <trkpt lat="46.42867" lon="5.14219">
        <ele>223.4</ele>
        <time>2022-04-04T12:41:48Z</time>
      </trkpt>
      <trkpt lat="46.42885" lon="5.14232">
        <ele>223.6</ele>
        <time>2022-04-04T12:41:51Z</time>
      </trkpt>
      <trkpt lat="46.42897" lon="5.14243">
        <ele>223.8</ele>
        <time>2022-04-04T12:41:53Z</time>
      </trkpt>
      <trkpt lat="46.42937" lon="5.14278">
        <ele>223.8</ele>
        <time>2022-04-04T12:41:59Z</time>
      </trkpt>
      <trkpt lat="46.42977" lon="5.14322">
        <ele>223.4</ele>
        <time>2022-04-04T12:42:05Z</time>
      </trkpt>
      <trkpt lat="46.43016" lon="5.14384">
        <ele>222.4</ele>
        <time>2022-04-04T12:42:12Z</time>
      </trkpt>
      <trkpt lat="46.43022" lon="5.14393">
        <ele>222.4</ele>
        <time>2022-04-04T12:42:13Z</time>
      </trkpt>
      <trkpt lat="46.43058" lon="5.14452">
        <ele>221.4</ele>
        <time>2022-04-04T12:42:20Z</time>
      </trkpt>
      <trkpt lat="46.43068" lon="5.14468">
        <ele>221.4</ele>
        <time>2022-04-04T12:42:22Z</time>
      </trkpt>
      <trkpt lat="46.43073" lon="5.14475">
        <ele>221.4</ele>
        <time>2022-04-04T12:42:23Z</time>
      </trkpt>
      <trkpt lat="46.43101" lon="5.14519">
        <ele>221.8</ele>
        <time>2022-04-04T12:42:29Z</time>
      </trkpt>
      <trkpt lat="46.43118" lon="5.14547">
        <ele>222.4</ele>
        <time>2022-04-04T12:42:33Z</time>
      </trkpt>
      <trkpt lat="46.43127" lon="5.1456">
        <ele>222.8</ele>
        <time>2022-04-04T12:42:35Z</time>
      </trkpt>
      <trkpt lat="46.43151" lon="5.14595">
        <ele>223.2</ele>
        <time>2022-04-04T12:42:40Z</time>
      </trkpt>
      <trkpt lat="46.43168" lon="5.14616">
        <ele>223.6</ele>
        <time>2022-04-04T12:42:43Z</time>
      </trkpt>
      <trkpt lat="46.4318" lon="5.14632">
        <ele>223.6</ele>
        <time>2022-04-04T12:42:45Z</time>
      </trkpt>
      <trkpt lat="46.43221" lon="5.14685">
        <ele>223.4</ele>
        <time>2022-04-04T12:42:52Z</time>
      </trkpt>
      <trkpt lat="46.43267" lon="5.14736">
        <ele>222.6</ele>
        <time>2022-04-04T12:42:59Z</time>
      </trkpt>
      <trkpt lat="46.43281" lon="5.14748">
        <ele>222.2</ele>
        <time>2022-04-04T12:43:01Z</time>
      </trkpt>
      <trkpt lat="46.43329" lon="5.14786">
        <ele>221.6</ele>
        <time>2022-04-04T12:43:08Z</time>
      </trkpt>
      <trkpt lat="46.43343" lon="5.14797">
        <ele>221.4</ele>
        <time>2022-04-04T12:43:10Z</time>
      </trkpt>
      <trkpt lat="46.43393" lon="5.14838">
        <ele>220.6</ele>
        <time>2022-04-04T12:43:17Z</time>
      </trkpt>
      <trkpt lat="46.43398" lon="5.14843">
        <ele>220.4</ele>
        <time>2022-04-04T12:43:18Z</time>
      </trkpt>
      <trkpt lat="46.43442" lon="5.14889">
        <ele>219.6</ele>
        <time>2022-04-04T12:43:25Z</time>
      </trkpt>
      <trkpt lat="46.43488" lon="5.14944">
        <ele>220.4</ele>
        <time>2022-04-04T12:43:34Z</time>
      </trkpt>
      <trkpt lat="46.43531" lon="5.14994">
        <ele>221.6</ele>
        <time>2022-04-04T12:43:43Z</time>
      </trkpt>
      <trkpt lat="46.43558" lon="5.15026">
        <ele>222.8</ele>
        <time>2022-04-04T12:43:49Z</time>
      </trkpt>
      <trkpt lat="46.43572" lon="5.15043">
        <ele>223.8</ele>
        <time>2022-04-04T12:43:52Z</time>
      </trkpt>
      <trkpt lat="46.43577" lon="5.15049">
        <ele>224</ele>
        <time>2022-04-04T12:43:53Z</time>
      </trkpt>
      <trkpt lat="46.43606" lon="5.15083">
        <ele>225.2</ele>
        <time>2022-04-04T12:43:59Z</time>
      </trkpt>
      <trkpt lat="46.43624" lon="5.15105">
        <ele>226.2</ele>
        <time>2022-04-04T12:44:03Z</time>
      </trkpt>
      <trkpt lat="46.43634" lon="5.15116">
        <ele>226.2</ele>
        <time>2022-04-04T12:44:05Z</time>
      </trkpt>
      <trkpt lat="46.43638" lon="5.15122">
        <ele>226.8</ele>
        <time>2022-04-04T12:44:06Z</time>
      </trkpt>
      <trkpt lat="46.43652" lon="5.15138">
        <ele>227.4</ele>
        <time>2022-04-04T12:44:09Z</time>
      </trkpt>
      <trkpt lat="46.4367" lon="5.1516">
        <ele>228.6</ele>
        <time>2022-04-04T12:44:13Z</time>
      </trkpt>
      <trkpt lat="46.43687" lon="5.1518">
        <ele>229.4</ele>
        <time>2022-04-04T12:44:17Z</time>
      </trkpt>
      <trkpt lat="46.43706" lon="5.15202">
        <ele>230.8</ele>
        <time>2022-04-04T12:44:22Z</time>
      </trkpt>
      <trkpt lat="46.43721" lon="5.1522">
        <ele>231.4</ele>
        <time>2022-04-04T12:44:26Z</time>
      </trkpt>
      <trkpt lat="46.43736" lon="5.15238">
        <ele>231.8</ele>
        <time>2022-04-04T12:44:30Z</time>
      </trkpt>
      <trkpt lat="46.43756" lon="5.15261">
        <ele>233</ele>
        <time>2022-04-04T12:44:35Z</time>
      </trkpt>
      <trkpt lat="46.4376" lon="5.15266">
        <ele>233</ele>
        <time>2022-04-04T12:44:36Z</time>
      </trkpt>
      <trkpt lat="46.43765" lon="5.1527">
        <ele>233.2</ele>
        <time>2022-04-04T12:44:37Z</time>
      </trkpt>
      <trkpt lat="46.43796" lon="5.15305">
        <ele>233.8</ele>
        <time>2022-04-04T12:44:44Z</time>
      </trkpt>
      <trkpt lat="46.43842" lon="5.15341">
        <ele>233.6</ele>
        <time>2022-04-04T12:44:52Z</time>
      </trkpt>
      <trkpt lat="46.43878" lon="5.15355">
        <ele>233</ele>
        <time>2022-04-04T12:44:57Z</time>
      </trkpt>
      <trkpt lat="46.43934" lon="5.1536">
        <ele>231.8</ele>
        <time>2022-04-04T12:45:04Z</time>
      </trkpt>
      <trkpt lat="46.43991" lon="5.15358">
        <ele>230.6</ele>
        <time>2022-04-04T12:45:11Z</time>
      </trkpt>
      <trkpt lat="46.44" lon="5.15358">
        <ele>230.6</ele>
        <time>2022-04-04T12:45:12Z</time>
      </trkpt>
      <trkpt lat="46.4404" lon="5.15356">
        <ele>229.8</ele>
        <time>2022-04-04T12:45:17Z</time>
      </trkpt>
      <trkpt lat="46.44051" lon="5.15356">
        <ele>229.6</ele>
        <time>2022-04-04T12:45:18Z</time>
      </trkpt>
      <trkpt lat="46.44101" lon="5.15357">
        <ele>229.2</ele>
        <time>2022-04-04T12:45:24Z</time>
      </trkpt>
      <trkpt lat="46.44159" lon="5.1536">
        <ele>229.2</ele>
        <time>2022-04-04T12:45:31Z</time>
      </trkpt>
      <trkpt lat="46.44191" lon="5.15362">
        <ele>229</ele>
        <time>2022-04-04T12:45:35Z</time>
      </trkpt>
      <trkpt lat="46.44237" lon="5.15364">
        <ele>229</ele>
        <time>2022-04-04T12:45:41Z</time>
      </trkpt>
      <trkpt lat="46.44259" lon="5.15361">
        <ele>228.8</ele>
        <time>2022-04-04T12:45:44Z</time>
      </trkpt>
      <trkpt lat="46.44274" lon="5.15355">
        <ele>228.8</ele>
        <time>2022-04-04T12:45:46Z</time>
      </trkpt>
      <trkpt lat="46.44313" lon="5.15326">
        <ele>229</ele>
        <time>2022-04-04T12:45:52Z</time>
      </trkpt>
      <trkpt lat="46.44352" lon="5.15299">
        <ele>228.6</ele>
        <time>2022-04-04T12:45:57Z</time>
      </trkpt>
      <trkpt lat="46.4436" lon="5.15296">
        <ele>228.6</ele>
        <time>2022-04-04T12:45:58Z</time>
      </trkpt>
      <trkpt lat="46.44413" lon="5.15282">
        <ele>227.8</ele>
        <time>2022-04-04T12:46:05Z</time>
      </trkpt>
      <trkpt lat="46.44463" lon="5.15272">
        <ele>229</ele>
        <time>2022-04-04T12:46:12Z</time>
      </trkpt>
      <trkpt lat="46.44492" lon="5.15267">
        <ele>229.6</ele>
        <time>2022-04-04T12:46:16Z</time>
      </trkpt>
      <trkpt lat="46.4453" lon="5.15259">
        <ele>230.2</ele>
        <time>2022-04-04T12:46:21Z</time>
      </trkpt>
      <trkpt lat="46.44587" lon="5.15248">
        <ele>230.2</ele>
        <time>2022-04-04T12:46:28Z</time>
      </trkpt>
      <trkpt lat="46.44601" lon="5.15246">
        <ele>230</ele>
        <time>2022-04-04T12:46:30Z</time>
      </trkpt>
      <trkpt lat="46.44658" lon="5.15238">
        <ele>229</ele>
        <time>2022-04-04T12:46:37Z</time>
      </trkpt>
      <trkpt lat="46.44675" lon="5.15237">
        <ele>228.8</ele>
        <time>2022-04-04T12:46:39Z</time>
      </trkpt>
      <trkpt lat="46.44684" lon="5.15237">
        <ele>228.4</ele>
        <time>2022-04-04T12:46:40Z</time>
      </trkpt>
      <trkpt lat="46.44734" lon="5.15244">
        <ele>227.4</ele>
        <time>2022-04-04T12:46:46Z</time>
      </trkpt>
      <trkpt lat="46.44742" lon="5.15246">
        <ele>227.4</ele>
        <time>2022-04-04T12:46:47Z</time>
      </trkpt>
      <trkpt lat="46.44793" lon="5.15266">
        <ele>226.6</ele>
        <time>2022-04-04T12:46:53Z</time>
      </trkpt>
      <trkpt lat="46.44799" lon="5.1527">
        <ele>226.2</ele>
        <time>2022-04-04T12:46:54Z</time>
      </trkpt>
      <trkpt lat="46.44846" lon="5.15302">
        <ele>225.4</ele>
        <time>2022-04-04T12:47:00Z</time>
      </trkpt>
      <trkpt lat="46.44854" lon="5.15308">
        <ele>225</ele>
        <time>2022-04-04T12:47:01Z</time>
      </trkpt>
      <trkpt lat="46.44906" lon="5.15351">
        <ele>224.2</ele>
        <time>2022-04-04T12:47:08Z</time>
      </trkpt>
      <trkpt lat="46.44921" lon="5.15364">
        <ele>223.8</ele>
        <time>2022-04-04T12:47:10Z</time>
      </trkpt>
      <trkpt lat="46.44977" lon="5.15411">
        <ele>222.8</ele>
        <time>2022-04-04T12:47:17Z</time>
      </trkpt>
      <trkpt lat="46.4499" lon="5.15422">
        <ele>222.6</ele>
        <time>2022-04-04T12:47:19Z</time>
      </trkpt>
      <trkpt lat="46.45042" lon="5.15457">
        <ele>222.4</ele>
        <time>2022-04-04T12:47:26Z</time>
      </trkpt>
      <trkpt lat="46.4505" lon="5.1546">
        <ele>222.6</ele>
        <time>2022-04-04T12:47:27Z</time>
      </trkpt>
      <trkpt lat="46.4507" lon="5.15461">
        <ele>223</ele>
        <time>2022-04-04T12:47:30Z</time>
      </trkpt>
      <trkpt lat="46.45104" lon="5.15459">
        <ele>223.4</ele>
        <time>2022-04-04T12:47:35Z</time>
      </trkpt>
      <trkpt lat="46.45128" lon="5.15456">
        <ele>223.8</ele>
        <time>2022-04-04T12:47:39Z</time>
      </trkpt>
      <trkpt lat="46.45152" lon="5.15453">
        <ele>224.8</ele>
        <time>2022-04-04T12:47:43Z</time>
      </trkpt>
      <trkpt lat="46.45157" lon="5.15453">
        <ele>225.2</ele>
        <time>2022-04-04T12:47:44Z</time>
      </trkpt>
      <trkpt lat="46.45196" lon="5.15447">
        <ele>226.2</ele>
        <time>2022-04-04T12:47:51Z</time>
      </trkpt>
      <trkpt lat="46.45219" lon="5.15444">
        <ele>227.4</ele>
        <time>2022-04-04T12:47:55Z</time>
      </trkpt>
      <trkpt lat="46.45238" lon="5.15441">
        <ele>228</ele>
        <time>2022-04-04T12:47:58Z</time>
      </trkpt>
      <trkpt lat="46.45272" lon="5.15436">
        <ele>228</ele>
        <time>2022-04-04T12:48:03Z</time>
      </trkpt>
      <trkpt lat="46.45326" lon="5.15427">
        <ele>227.6</ele>
        <time>2022-04-04T12:48:10Z</time>
      </trkpt>
      <trkpt lat="46.45383" lon="5.1542">
        <ele>227.4</ele>
        <time>2022-04-04T12:48:18Z</time>
      </trkpt>
      <trkpt lat="46.45402" lon="5.15418">
        <ele>227.8</ele>
        <time>2022-04-04T12:48:21Z</time>
      </trkpt>
      <trkpt lat="46.4542" lon="5.15414">
        <ele>228.4</ele>
        <time>2022-04-04T12:48:24Z</time>
      </trkpt>
      <trkpt lat="46.45432" lon="5.15411">
        <ele>229</ele>
        <time>2022-04-04T12:48:26Z</time>
      </trkpt>
      <trkpt lat="46.45448" lon="5.15404">
        <ele>229.4</ele>
        <time>2022-04-04T12:48:29Z</time>
      </trkpt>
      <trkpt lat="46.45459" lon="5.15399">
        <ele>230</ele>
        <time>2022-04-04T12:48:31Z</time>
      </trkpt>
      <trkpt lat="46.45465" lon="5.15395">
        <ele>230.4</ele>
        <time>2022-04-04T12:48:32Z</time>
      </trkpt>
      <trkpt lat="46.45476" lon="5.15389">
        <ele>230.6</ele>
        <time>2022-04-04T12:48:34Z</time>
      </trkpt>
      <trkpt lat="46.45521" lon="5.15364">
        <ele>231.6</ele>
        <time>2022-04-04T12:48:42Z</time>
      </trkpt>
      <trkpt lat="46.45547" lon="5.15346">
        <ele>232.6</ele>
        <time>2022-04-04T12:48:47Z</time>
      </trkpt>
      <trkpt lat="46.45552" lon="5.15342">
        <ele>232.8</ele>
        <time>2022-04-04T12:48:48Z</time>
      </trkpt>
      <trkpt lat="46.45595" lon="5.15306">
        <ele>233.4</ele>
        <time>2022-04-04T12:48:56Z</time>
      </trkpt>
      <trkpt lat="46.45625" lon="5.15277">
        <ele>233.6</ele>
        <time>2022-04-04T12:49:01Z</time>
      </trkpt>
      <trkpt lat="46.45675" lon="5.15224">
        <ele>232.2</ele>
        <time>2022-04-04T12:49:09Z</time>
      </trkpt>
      <trkpt lat="46.45707" lon="5.15191">
        <ele>231.6</ele>
        <time>2022-04-04T12:49:14Z</time>
      </trkpt>
      <trkpt lat="46.45721" lon="5.15179">
        <ele>231.2</ele>
        <time>2022-04-04T12:49:16Z</time>
      </trkpt>
      <trkpt lat="46.45743" lon="5.15165">
        <ele>230.8</ele>
        <time>2022-04-04T12:49:19Z</time>
      </trkpt>
      <trkpt lat="46.45767" lon="5.15155">
        <ele>230.2</ele>
        <time>2022-04-04T12:49:22Z</time>
      </trkpt>
      <trkpt lat="46.45783" lon="5.15151">
        <ele>229.8</ele>
        <time>2022-04-04T12:49:24Z</time>
      </trkpt>
      <trkpt lat="46.45833" lon="5.15153">
        <ele>229.2</ele>
        <time>2022-04-04T12:49:30Z</time>
      </trkpt>
      <trkpt lat="46.45885" lon="5.15161">
        <ele>229.4</ele>
        <time>2022-04-04T12:49:37Z</time>
      </trkpt>
      <trkpt lat="46.45891" lon="5.15164">
        <ele>229.6</ele>
        <time>2022-04-04T12:49:38Z</time>
      </trkpt>
      <trkpt lat="46.4591" lon="5.15175">
        <ele>230.4</ele>
        <time>2022-04-04T12:49:41Z</time>
      </trkpt>
      <trkpt lat="46.45945" lon="5.15212">
        <ele>230.6</ele>
        <time>2022-04-04T12:49:47Z</time>
      </trkpt>
      <trkpt lat="46.45979" lon="5.15264">
        <ele>229.6</ele>
        <time>2022-04-04T12:49:53Z</time>
      </trkpt>
      <trkpt lat="46.45989" lon="5.15279">
        <ele>228.8</ele>
        <time>2022-04-04T12:49:55Z</time>
      </trkpt>
      <trkpt lat="46.45995" lon="5.15289">
        <ele>228.2</ele>
        <time>2022-04-04T12:49:57Z</time>
      </trkpt>
      <trkpt lat="46.45999" lon="5.15295">
        <ele>227.6</ele>
        <time>2022-04-04T12:49:59Z</time>
      </trkpt>
      <trkpt lat="46.45999" lon="5.15296">
        <ele>227</ele>
        <time>2022-04-04T12:50:00Z</time>
      </trkpt>
      <trkpt lat="46.46001" lon="5.15298">
        <ele>226.4</ele>
        <time>2022-04-04T12:50:02Z</time>
      </trkpt>
      <trkpt lat="46.46003" lon="5.15303">
        <ele>225.8</ele>
        <time>2022-04-04T12:50:04Z</time>
      </trkpt>
      <trkpt lat="46.46015" lon="5.1532">
        <ele>225.4</ele>
        <time>2022-04-04T12:50:08Z</time>
      </trkpt>
      <trkpt lat="46.4602" lon="5.15326">
        <ele>225.2</ele>
        <time>2022-04-04T12:50:09Z</time>
      </trkpt>
      <trkpt lat="46.4603" lon="5.15341">
        <ele>225</ele>
        <time>2022-04-04T12:50:11Z</time>
      </trkpt>
      <trkpt lat="46.46047" lon="5.15365">
        <ele>224.4</ele>
        <time>2022-04-04T12:50:14Z</time>
      </trkpt>
      <trkpt lat="46.46065" lon="5.15386">
        <ele>223.8</ele>
        <time>2022-04-04T12:50:17Z</time>
      </trkpt>
      <trkpt lat="46.46084" lon="5.15406">
        <ele>223.2</ele>
        <time>2022-04-04T12:50:20Z</time>
      </trkpt>
      <trkpt lat="46.46112" lon="5.15431">
        <ele>222.6</ele>
        <time>2022-04-04T12:50:24Z</time>
      </trkpt>
      <trkpt lat="46.46147" lon="5.15452">
        <ele>222.2</ele>
        <time>2022-04-04T12:50:29Z</time>
      </trkpt>
      <trkpt lat="46.46154" lon="5.15455">
        <ele>222.2</ele>
        <time>2022-04-04T12:50:30Z</time>
      </trkpt>
      <trkpt lat="46.46208" lon="5.15477">
        <ele>223</ele>
        <time>2022-04-04T12:50:38Z</time>
      </trkpt>
      <trkpt lat="46.46228" lon="5.15485">
        <ele>223.6</ele>
        <time>2022-04-04T12:50:41Z</time>
      </trkpt>
      <trkpt lat="46.46266" lon="5.155">
        <ele>224.4</ele>
        <time>2022-04-04T12:50:47Z</time>
      </trkpt>
      <trkpt lat="46.46273" lon="5.15503">
        <ele>224.6</ele>
        <time>2022-04-04T12:50:48Z</time>
      </trkpt>
      <trkpt lat="46.46317" lon="5.15521">
        <ele>225.2</ele>
        <time>2022-04-04T12:50:55Z</time>
      </trkpt>
      <trkpt lat="46.46373" lon="5.15542">
        <ele>225.4</ele>
        <time>2022-04-04T12:51:04Z</time>
      </trkpt>
      <trkpt lat="46.46391" lon="5.15549">
        <ele>225.4</ele>
        <time>2022-04-04T12:51:07Z</time>
      </trkpt>
      <trkpt lat="46.46446" lon="5.15568">
        <ele>225.4</ele>
        <time>2022-04-04T12:51:16Z</time>
      </trkpt>
      <trkpt lat="46.46452" lon="5.1557">
        <ele>225.6</ele>
        <time>2022-04-04T12:51:17Z</time>
      </trkpt>
      <trkpt lat="46.46458" lon="5.15572">
        <ele>225.6</ele>
        <time>2022-04-04T12:51:18Z</time>
      </trkpt>
      <trkpt lat="46.46511" lon="5.15588">
        <ele>226</ele>
        <time>2022-04-04T12:51:27Z</time>
      </trkpt>
      <trkpt lat="46.46559" lon="5.15602">
        <ele>226.6</ele>
        <time>2022-04-04T12:51:35Z</time>
      </trkpt>
      <trkpt lat="46.46565" lon="5.15604">
        <ele>226.6</ele>
        <time>2022-04-04T12:51:36Z</time>
      </trkpt>
      <trkpt lat="46.46608" lon="5.15617">
        <ele>227.2</ele>
        <time>2022-04-04T12:51:43Z</time>
      </trkpt>
      <trkpt lat="46.46613" lon="5.15619">
        <ele>227.4</ele>
        <time>2022-04-04T12:51:44Z</time>
      </trkpt>
      <trkpt lat="46.46637" lon="5.15629">
        <ele>227.8</ele>
        <time>2022-04-04T12:51:48Z</time>
      </trkpt>
      <trkpt lat="46.46659" lon="5.15642">
        <ele>228.4</ele>
        <time>2022-04-04T12:51:52Z</time>
      </trkpt>
      <trkpt lat="46.46686" lon="5.15661">
        <ele>228.8</ele>
        <time>2022-04-04T12:51:57Z</time>
      </trkpt>
      <trkpt lat="46.46703" lon="5.15674">
        <ele>228.8</ele>
        <time>2022-04-04T12:52:00Z</time>
      </trkpt>
      <trkpt lat="46.46751" lon="5.15711">
        <ele>230</ele>
        <time>2022-04-04T12:52:09Z</time>
      </trkpt>
      <trkpt lat="46.46778" lon="5.15732">
        <ele>230.6</ele>
        <time>2022-04-04T12:52:14Z</time>
      </trkpt>
      <trkpt lat="46.46823" lon="5.15766">
        <ele>231</ele>
        <time>2022-04-04T12:52:22Z</time>
      </trkpt>
      <trkpt lat="46.46835" lon="5.15775">
        <ele>231</ele>
        <time>2022-04-04T12:52:24Z</time>
      </trkpt>
      <trkpt lat="46.46886" lon="5.15814">
        <ele>231.4</ele>
        <time>2022-04-04T12:52:33Z</time>
      </trkpt>
      <trkpt lat="46.46897" lon="5.15823">
        <ele>231.6</ele>
        <time>2022-04-04T12:52:35Z</time>
      </trkpt>
      <trkpt lat="46.46926" lon="5.15846">
        <ele>232</ele>
        <time>2022-04-04T12:52:40Z</time>
      </trkpt>
      <trkpt lat="46.46951" lon="5.15865">
        <ele>232</ele>
        <time>2022-04-04T12:52:44Z</time>
      </trkpt>
      <trkpt lat="46.47001" lon="5.15904">
        <ele>231.6</ele>
        <time>2022-04-04T12:52:52Z</time>
      </trkpt>
      <trkpt lat="46.47043" lon="5.15918">
        <ele>232</ele>
        <time>2022-04-04T12:52:58Z</time>
      </trkpt>
      <trkpt lat="46.47092" lon="5.15918">
        <ele>232.4</ele>
        <time>2022-04-04T12:53:05Z</time>
      </trkpt>
      <trkpt lat="46.47149" lon="5.15915">
        <ele>232.8</ele>
        <time>2022-04-04T12:53:13Z</time>
      </trkpt>
      <trkpt lat="46.47157" lon="5.15914">
        <ele>232.8</ele>
        <time>2022-04-04T12:53:14Z</time>
      </trkpt>
      <trkpt lat="46.47215" lon="5.15911">
        <ele>232.2</ele>
        <time>2022-04-04T12:53:22Z</time>
      </trkpt>
      <trkpt lat="46.4723" lon="5.15911">
        <ele>232.2</ele>
        <time>2022-04-04T12:53:24Z</time>
      </trkpt>
      <trkpt lat="46.47252" lon="5.15914">
        <ele>231.8</ele>
        <time>2022-04-04T12:53:27Z</time>
      </trkpt>
      <trkpt lat="46.47272" lon="5.1592">
        <ele>231.6</ele>
        <time>2022-04-04T12:53:30Z</time>
      </trkpt>
      <trkpt lat="46.47324" lon="5.15946">
        <ele>232</ele>
        <time>2022-04-04T12:53:38Z</time>
      </trkpt>
      <trkpt lat="46.47377" lon="5.15968">
        <ele>232.6</ele>
        <time>2022-04-04T12:53:46Z</time>
      </trkpt>
      <trkpt lat="46.47383" lon="5.1597">
        <ele>232.6</ele>
        <time>2022-04-04T12:53:47Z</time>
      </trkpt>
      <trkpt lat="46.47415" lon="5.15978">
        <ele>232.8</ele>
        <time>2022-04-04T12:53:52Z</time>
      </trkpt>
      <trkpt lat="46.47443" lon="5.15979">
        <ele>233</ele>
        <time>2022-04-04T12:53:57Z</time>
      </trkpt>
      <trkpt lat="46.47456" lon="5.15979">
        <ele>233</ele>
        <time>2022-04-04T12:54:00Z</time>
      </trkpt>
      <trkpt lat="46.47462" lon="5.1598">
        <ele>233</ele>
        <time>2022-04-04T12:54:02Z</time>
      </trkpt>
      <trkpt lat="46.47464" lon="5.15981">
        <ele>233</ele>
        <time>2022-04-04T12:54:05Z</time>
      </trkpt>
      <trkpt lat="46.47473" lon="5.15981">
        <ele>232.8</ele>
        <time>2022-04-04T12:54:09Z</time>
      </trkpt>
      <trkpt lat="46.47487" lon="5.15986">
        <ele>232.8</ele>
        <time>2022-04-04T12:54:12Z</time>
      </trkpt>
      <trkpt lat="46.47497" lon="5.15996">
        <ele>232.4</ele>
        <time>2022-04-04T12:54:14Z</time>
      </trkpt>
      <trkpt lat="46.47501" lon="5.16003">
        <ele>232.4</ele>
        <time>2022-04-04T12:54:15Z</time>
      </trkpt>
      <trkpt lat="46.47505" lon="5.16012">
        <ele>232</ele>
        <time>2022-04-04T12:54:16Z</time>
      </trkpt>
      <trkpt lat="46.47515" lon="5.16042">
        <ele>232</ele>
        <time>2022-04-04T12:54:19Z</time>
      </trkpt>
      <trkpt lat="46.47538" lon="5.16116">
        <ele>231.2</ele>
        <time>2022-04-04T12:54:26Z</time>
      </trkpt>
      <trkpt lat="46.47556" lon="5.16154">
        <ele>230.2</ele>
        <time>2022-04-04T12:54:30Z</time>
      </trkpt>
      <trkpt lat="46.47567" lon="5.16172">
        <ele>230</ele>
        <time>2022-04-04T12:54:32Z</time>
      </trkpt>
      <trkpt lat="46.47585" lon="5.16195">
        <ele>229.8</ele>
        <time>2022-04-04T12:54:35Z</time>
      </trkpt>
      <trkpt lat="46.47592" lon="5.162">
        <ele>229.8</ele>
        <time>2022-04-04T12:54:36Z</time>
      </trkpt>
      <trkpt lat="46.47629" lon="5.1622">
        <ele>229.4</ele>
        <time>2022-04-04T12:54:41Z</time>
      </trkpt>
      <trkpt lat="46.47659" lon="5.16229">
        <ele>229.2</ele>
        <time>2022-04-04T12:54:45Z</time>
      </trkpt>
      <trkpt lat="46.477" lon="5.16238">
        <ele>228.6</ele>
        <time>2022-04-04T12:54:50Z</time>
      </trkpt>
      <trkpt lat="46.47724" lon="5.16246">
        <ele>228</ele>
        <time>2022-04-04T12:54:53Z</time>
      </trkpt>
      <trkpt lat="46.4774" lon="5.16255">
        <ele>227.6</ele>
        <time>2022-04-04T12:54:55Z</time>
      </trkpt>
      <trkpt lat="46.47747" lon="5.1626">
        <ele>227.6</ele>
        <time>2022-04-04T12:54:56Z</time>
      </trkpt>
      <trkpt lat="46.47788" lon="5.163">
        <ele>227</ele>
        <time>2022-04-04T12:55:02Z</time>
      </trkpt>
      <trkpt lat="46.47794" lon="5.16307">
        <ele>226.8</ele>
        <time>2022-04-04T12:55:03Z</time>
      </trkpt>
      <trkpt lat="46.47834" lon="5.1635">
        <ele>226</ele>
        <time>2022-04-04T12:55:09Z</time>
      </trkpt>
      <trkpt lat="46.47847" lon="5.16365">
        <ele>225.8</ele>
        <time>2022-04-04T12:55:11Z</time>
      </trkpt>
      <trkpt lat="46.47881" lon="5.16401">
        <ele>225.8</ele>
        <time>2022-04-04T12:55:16Z</time>
      </trkpt>
      <trkpt lat="46.47927" lon="5.16446">
        <ele>226</ele>
        <time>2022-04-04T12:55:23Z</time>
      </trkpt>
      <trkpt lat="46.4794" lon="5.16458">
        <ele>226</ele>
        <time>2022-04-04T12:55:25Z</time>
      </trkpt>
      <trkpt lat="46.47992" lon="5.16496">
        <ele>226.6</ele>
        <time>2022-04-04T12:55:33Z</time>
      </trkpt>
      <trkpt lat="46.48011" lon="5.1651">
        <ele>226.8</ele>
        <time>2022-04-04T12:55:36Z</time>
      </trkpt>
      <trkpt lat="46.48042" lon="5.16534">
        <ele>228</ele>
        <time>2022-04-04T12:55:41Z</time>
      </trkpt>
      <trkpt lat="46.48092" lon="5.16576">
        <ele>228.6</ele>
        <time>2022-04-04T12:55:49Z</time>
      </trkpt>
      <trkpt lat="46.48123" lon="5.16602">
        <ele>229.2</ele>
        <time>2022-04-04T12:55:54Z</time>
      </trkpt>
      <trkpt lat="46.48143" lon="5.16616">
        <ele>229.6</ele>
        <time>2022-04-04T12:55:57Z</time>
      </trkpt>
      <trkpt lat="46.48197" lon="5.16643">
        <ele>230</ele>
        <time>2022-04-04T12:56:05Z</time>
      </trkpt>
      <trkpt lat="46.48211" lon="5.1665">
        <ele>230.2</ele>
        <time>2022-04-04T12:56:07Z</time>
      </trkpt>
      <trkpt lat="46.48267" lon="5.16674">
        <ele>230.4</ele>
        <time>2022-04-04T12:56:15Z</time>
      </trkpt>
      <trkpt lat="46.48288" lon="5.16685">
        <ele>230.4</ele>
        <time>2022-04-04T12:56:18Z</time>
      </trkpt>
      <trkpt lat="46.48342" lon="5.16717">
        <ele>230.2</ele>
        <time>2022-04-04T12:56:26Z</time>
      </trkpt>
      <trkpt lat="46.48398" lon="5.16753">
        <ele>229.8</ele>
        <time>2022-04-04T12:56:34Z</time>
      </trkpt>
      <trkpt lat="46.48413" lon="5.16762">
        <ele>229.6</ele>
        <time>2022-04-04T12:56:36Z</time>
      </trkpt>
      <trkpt lat="46.48443" lon="5.16783">
        <ele>229</ele>
        <time>2022-04-04T12:56:40Z</time>
      </trkpt>
      <trkpt lat="46.48484" lon="5.16809">
        <ele>228.2</ele>
        <time>2022-04-04T12:56:45Z</time>
      </trkpt>
      <trkpt lat="46.48493" lon="5.16815">
        <ele>228</ele>
        <time>2022-04-04T12:56:46Z</time>
      </trkpt>
      <trkpt lat="46.48528" lon="5.16836">
        <ele>226.8</ele>
        <time>2022-04-04T12:56:50Z</time>
      </trkpt>
      <trkpt lat="46.48546" lon="5.16844">
        <ele>226.2</ele>
        <time>2022-04-04T12:56:52Z</time>
      </trkpt>
      <trkpt lat="46.48565" lon="5.16851">
        <ele>225.8</ele>
        <time>2022-04-04T12:56:54Z</time>
      </trkpt>
      <trkpt lat="46.48601" lon="5.16856">
        <ele>225.4</ele>
        <time>2022-04-04T12:56:58Z</time>
      </trkpt>
      <trkpt lat="46.48652" lon="5.16853">
        <ele>225.4</ele>
        <time>2022-04-04T12:57:04Z</time>
      </trkpt>
      <trkpt lat="46.4871" lon="5.16844">
        <ele>225.2</ele>
        <time>2022-04-04T12:57:11Z</time>
      </trkpt>
      <trkpt lat="46.48726" lon="5.16842">
        <ele>225.2</ele>
        <time>2022-04-04T12:57:13Z</time>
      </trkpt>
      <trkpt lat="46.48781" lon="5.16833">
        <ele>225.6</ele>
        <time>2022-04-04T12:57:20Z</time>
      </trkpt>
      <trkpt lat="46.48804" lon="5.16826">
        <ele>225.6</ele>
        <time>2022-04-04T12:57:23Z</time>
      </trkpt>
      <trkpt lat="46.48848" lon="5.16804">
        <ele>225.4</ele>
        <time>2022-04-04T12:57:29Z</time>
      </trkpt>
      <trkpt lat="46.48902" lon="5.16772">
        <ele>224.6</ele>
        <time>2022-04-04T12:57:36Z</time>
      </trkpt>
      <trkpt lat="46.48918" lon="5.16764">
        <ele>224.4</ele>
        <time>2022-04-04T12:57:38Z</time>
      </trkpt>
      <trkpt lat="46.48966" lon="5.16739">
        <ele>223.4</ele>
        <time>2022-04-04T12:57:44Z</time>
      </trkpt>
      <trkpt lat="46.49006" lon="5.16721">
        <ele>222.8</ele>
        <time>2022-04-04T12:57:49Z</time>
      </trkpt>
      <trkpt lat="46.49037" lon="5.16707">
        <ele>222.4</ele>
        <time>2022-04-04T12:57:53Z</time>
      </trkpt>
      <trkpt lat="46.49068" lon="5.16696">
        <ele>222</ele>
        <time>2022-04-04T12:57:57Z</time>
      </trkpt>
      <trkpt lat="46.49122" lon="5.16676">
        <ele>221.6</ele>
        <time>2022-04-04T12:58:04Z</time>
      </trkpt>
      <trkpt lat="46.49145" lon="5.16667">
        <ele>221.4</ele>
        <time>2022-04-04T12:58:07Z</time>
      </trkpt>
      <trkpt lat="46.49161" lon="5.16661">
        <ele>221.2</ele>
        <time>2022-04-04T12:58:09Z</time>
      </trkpt>
      <trkpt lat="46.49216" lon="5.16641">
        <ele>221.2</ele>
        <time>2022-04-04T12:58:16Z</time>
      </trkpt>
      <trkpt lat="46.49224" lon="5.16639">
        <ele>221.2</ele>
        <time>2022-04-04T12:58:17Z</time>
      </trkpt>
      <trkpt lat="46.49278" lon="5.16634">
        <ele>221.4</ele>
        <time>2022-04-04T12:58:24Z</time>
      </trkpt>
      <trkpt lat="46.49329" lon="5.16635">
        <ele>222.2</ele>
        <time>2022-04-04T12:58:31Z</time>
      </trkpt>
      <trkpt lat="46.49336" lon="5.16635">
        <ele>222.4</ele>
        <time>2022-04-04T12:58:32Z</time>
      </trkpt>
      <trkpt lat="46.49393" lon="5.16637">
        <ele>223.2</ele>
        <time>2022-04-04T12:58:40Z</time>
      </trkpt>
      <trkpt lat="46.49407" lon="5.16637">
        <ele>223.6</ele>
        <time>2022-04-04T12:58:42Z</time>
      </trkpt>
      <trkpt lat="46.49462" lon="5.16636">
        <ele>223.8</ele>
        <time>2022-04-04T12:58:50Z</time>
      </trkpt>
      <trkpt lat="46.49469" lon="5.16636">
        <ele>224.2</ele>
        <time>2022-04-04T12:58:51Z</time>
      </trkpt>
      <trkpt lat="46.49508" lon="5.16625">
        <ele>224.6</ele>
        <time>2022-04-04T12:58:57Z</time>
      </trkpt>
      <trkpt lat="46.49514" lon="5.16623">
        <ele>224.8</ele>
        <time>2022-04-04T12:58:58Z</time>
      </trkpt>
      <trkpt lat="46.49552" lon="5.16607">
        <ele>226</ele>
        <time>2022-04-04T12:59:04Z</time>
      </trkpt>
      <trkpt lat="46.49572" lon="5.166">
        <ele>226.2</ele>
        <time>2022-04-04T12:59:07Z</time>
      </trkpt>
      <trkpt lat="46.49606" lon="5.16587">
        <ele>227</ele>
        <time>2022-04-04T12:59:12Z</time>
      </trkpt>
      <trkpt lat="46.49628" lon="5.16579">
        <ele>226.8</ele>
        <time>2022-04-04T12:59:15Z</time>
      </trkpt>
      <trkpt lat="46.4966" lon="5.16568">
        <ele>225.8</ele>
        <time>2022-04-04T12:59:19Z</time>
      </trkpt>
      <trkpt lat="46.49694" lon="5.16557">
        <ele>224.2</ele>
        <time>2022-04-04T12:59:23Z</time>
      </trkpt>
      <trkpt lat="46.49712" lon="5.16554">
        <ele>223</ele>
        <time>2022-04-04T12:59:25Z</time>
      </trkpt>
      <trkpt lat="46.49741" lon="5.16554">
        <ele>222</ele>
        <time>2022-04-04T12:59:28Z</time>
      </trkpt>
      <trkpt lat="46.4976" lon="5.16556">
        <ele>221.4</ele>
        <time>2022-04-04T12:59:30Z</time>
      </trkpt>
      <trkpt lat="46.49779" lon="5.16559">
        <ele>220.6</ele>
        <time>2022-04-04T12:59:32Z</time>
      </trkpt>
      <trkpt lat="46.49807" lon="5.16565">
        <ele>219.4</ele>
        <time>2022-04-04T12:59:35Z</time>
      </trkpt>
      <trkpt lat="46.49834" lon="5.16569">
        <ele>219</ele>
        <time>2022-04-04T12:59:38Z</time>
      </trkpt>
      <trkpt lat="46.49869" lon="5.16575">
        <ele>218.4</ele>
        <time>2022-04-04T12:59:42Z</time>
      </trkpt>
      <trkpt lat="46.49912" lon="5.16581">
        <ele>217.8</ele>
        <time>2022-04-04T12:59:47Z</time>
      </trkpt>
      <trkpt lat="46.49945" lon="5.16589">
        <ele>217.4</ele>
        <time>2022-04-04T12:59:51Z</time>
      </trkpt>
      <trkpt lat="46.49969" lon="5.16596">
        <ele>217</ele>
        <time>2022-04-04T12:59:54Z</time>
      </trkpt>
      <trkpt lat="46.50026" lon="5.16614">
        <ele>216.4</ele>
        <time>2022-04-04T13:00:01Z</time>
      </trkpt>
      <trkpt lat="46.50034" lon="5.16616">
        <ele>216.2</ele>
        <time>2022-04-04T13:00:02Z</time>
      </trkpt>
      <trkpt lat="46.50075" lon="5.16628">
        <ele>215.2</ele>
        <time>2022-04-04T13:00:07Z</time>
      </trkpt>
      <trkpt lat="46.50101" lon="5.16634">
        <ele>214.8</ele>
        <time>2022-04-04T13:00:10Z</time>
      </trkpt>
      <trkpt lat="46.50127" lon="5.16636">
        <ele>214</ele>
        <time>2022-04-04T13:00:13Z</time>
      </trkpt>
      <trkpt lat="46.50154" lon="5.16635">
        <ele>213</ele>
        <time>2022-04-04T13:00:16Z</time>
      </trkpt>
      <trkpt lat="46.50162" lon="5.16635">
        <ele>213</ele>
        <time>2022-04-04T13:00:17Z</time>
      </trkpt>
      <trkpt lat="46.50206" lon="5.16632">
        <ele>212</ele>
        <time>2022-04-04T13:00:22Z</time>
      </trkpt>
      <trkpt lat="46.50232" lon="5.16629">
        <ele>211.6</ele>
        <time>2022-04-04T13:00:25Z</time>
      </trkpt>
      <trkpt lat="46.50249" lon="5.16628">
        <ele>211.2</ele>
        <time>2022-04-04T13:00:27Z</time>
      </trkpt>
      <trkpt lat="46.50275" lon="5.16628">
        <ele>210.8</ele>
        <time>2022-04-04T13:00:30Z</time>
      </trkpt>
      <trkpt lat="46.50292" lon="5.16634">
        <ele>210.4</ele>
        <time>2022-04-04T13:00:32Z</time>
      </trkpt>
      <trkpt lat="46.50306" lon="5.16647">
        <ele>210.2</ele>
        <time>2022-04-04T13:00:34Z</time>
      </trkpt>
      <trkpt lat="46.50318" lon="5.16662">
        <ele>210.2</ele>
        <time>2022-04-04T13:00:36Z</time>
      </trkpt>
      <trkpt lat="46.50325" lon="5.16669">
        <ele>210</ele>
        <time>2022-04-04T13:00:37Z</time>
      </trkpt>
      <trkpt lat="46.50337" lon="5.16683">
        <ele>210</ele>
        <time>2022-04-04T13:00:39Z</time>
      </trkpt>
      <trkpt lat="46.50352" lon="5.16692">
        <ele>210</ele>
        <time>2022-04-04T13:00:41Z</time>
      </trkpt>
      <trkpt lat="46.50397" lon="5.16709">
        <ele>210</ele>
        <time>2022-04-04T13:00:47Z</time>
      </trkpt>
      <trkpt lat="46.50447" lon="5.16717">
        <ele>210.4</ele>
        <time>2022-04-04T13:00:54Z</time>
      </trkpt>
      <trkpt lat="46.50462" lon="5.16713">
        <ele>210.6</ele>
        <time>2022-04-04T13:00:56Z</time>
      </trkpt>
      <trkpt lat="46.50474" lon="5.16707">
        <ele>210.8</ele>
        <time>2022-04-04T13:00:58Z</time>
      </trkpt>
      <trkpt lat="46.50488" lon="5.16699">
        <ele>211.2</ele>
        <time>2022-04-04T13:01:00Z</time>
      </trkpt>
      <trkpt lat="46.50538" lon="5.16669">
        <ele>211.8</ele>
        <time>2022-04-04T13:01:08Z</time>
      </trkpt>
      <trkpt lat="46.50569" lon="5.1665">
        <ele>212.2</ele>
        <time>2022-04-04T13:01:13Z</time>
      </trkpt>
      <trkpt lat="46.50595" lon="5.16632">
        <ele>212.6</ele>
        <time>2022-04-04T13:01:17Z</time>
      </trkpt>
      <trkpt lat="46.50647" lon="5.1659">
        <ele>212.4</ele>
        <time>2022-04-04T13:01:25Z</time>
      </trkpt>
      <trkpt lat="46.50654" lon="5.16584">
        <ele>212.4</ele>
        <time>2022-04-04T13:01:26Z</time>
      </trkpt>
      <trkpt lat="46.5068" lon="5.16562">
        <ele>211.8</ele>
        <time>2022-04-04T13:01:30Z</time>
      </trkpt>
      <trkpt lat="46.50701" lon="5.1655">
        <ele>211.6</ele>
        <time>2022-04-04T13:01:33Z</time>
      </trkpt>
      <trkpt lat="46.50736" lon="5.16538">
        <ele>211.2</ele>
        <time>2022-04-04T13:01:38Z</time>
      </trkpt>
      <trkpt lat="46.5075" lon="5.16535">
        <ele>211.2</ele>
        <time>2022-04-04T13:01:40Z</time>
      </trkpt>
      <trkpt lat="46.50759" lon="5.16535">
        <ele>211.2</ele>
        <time>2022-04-04T13:01:41Z</time>
      </trkpt>
      <trkpt lat="46.50773" lon="5.16536">
        <ele>211</ele>
        <time>2022-04-04T13:01:43Z</time>
      </trkpt>
      <trkpt lat="46.50815" lon="5.16551">
        <ele>210.6</ele>
        <time>2022-04-04T13:01:49Z</time>
      </trkpt>
      <trkpt lat="46.50869" lon="5.16569">
        <ele>210.4</ele>
        <time>2022-04-04T13:01:57Z</time>
      </trkpt>
      <trkpt lat="46.50876" lon="5.1657">
        <ele>210.2</ele>
        <time>2022-04-04T13:01:58Z</time>
      </trkpt>
      <trkpt lat="46.50883" lon="5.16571">
        <ele>210.2</ele>
        <time>2022-04-04T13:01:59Z</time>
      </trkpt>
      <trkpt lat="46.50925" lon="5.16566">
        <ele>210</ele>
        <time>2022-04-04T13:02:05Z</time>
      </trkpt>
      <trkpt lat="46.50981" lon="5.16561">
        <ele>210.2</ele>
        <time>2022-04-04T13:02:13Z</time>
      </trkpt>
      <trkpt lat="46.50988" lon="5.16564">
        <ele>210.2</ele>
        <time>2022-04-04T13:02:14Z</time>
      </trkpt>
      <trkpt lat="46.51019" lon="5.16591">
        <ele>210.8</ele>
        <time>2022-04-04T13:02:19Z</time>
      </trkpt>
      <trkpt lat="46.51026" lon="5.16596">
        <ele>210.8</ele>
        <time>2022-04-04T13:02:20Z</time>
      </trkpt>
      <trkpt lat="46.51053" lon="5.1661">
        <ele>211</ele>
        <time>2022-04-04T13:02:24Z</time>
      </trkpt>
      <trkpt lat="46.51103" lon="5.16632">
        <ele>211.2</ele>
        <time>2022-04-04T13:02:31Z</time>
      </trkpt>
      <trkpt lat="46.5111" lon="5.16637">
        <ele>211.2</ele>
        <time>2022-04-04T13:02:32Z</time>
      </trkpt>
      <trkpt lat="46.51116" lon="5.16643">
        <ele>211.2</ele>
        <time>2022-04-04T13:02:33Z</time>
      </trkpt>
      <trkpt lat="46.51138" lon="5.1667">
        <ele>211.6</ele>
        <time>2022-04-04T13:02:37Z</time>
      </trkpt>
      <trkpt lat="46.51166" lon="5.16712">
        <ele>212.2</ele>
        <time>2022-04-04T13:02:43Z</time>
      </trkpt>
      <trkpt lat="46.51181" lon="5.16731">
        <ele>212.4</ele>
        <time>2022-04-04T13:02:46Z</time>
      </trkpt>
      <trkpt lat="46.51207" lon="5.16763">
        <ele>213</ele>
        <time>2022-04-04T13:02:51Z</time>
      </trkpt>
      <trkpt lat="46.51213" lon="5.16769">
        <ele>213.2</ele>
        <time>2022-04-04T13:02:52Z</time>
      </trkpt>
      <trkpt lat="46.51233" lon="5.16779">
        <ele>213.2</ele>
        <time>2022-04-04T13:02:55Z</time>
      </trkpt>
      <trkpt lat="46.5124" lon="5.16781">
        <ele>213.4</ele>
        <time>2022-04-04T13:02:56Z</time>
      </trkpt>
      <trkpt lat="46.51248" lon="5.16781">
        <ele>213.6</ele>
        <time>2022-04-04T13:02:57Z</time>
      </trkpt>
      <trkpt lat="46.51262" lon="5.16781">
        <ele>213.8</ele>
        <time>2022-04-04T13:02:59Z</time>
      </trkpt>
      <trkpt lat="46.51269" lon="5.16779">
        <ele>213.8</ele>
        <time>2022-04-04T13:03:00Z</time>
      </trkpt>
      <trkpt lat="46.51289" lon="5.16767">
        <ele>214.4</ele>
        <time>2022-04-04T13:03:03Z</time>
      </trkpt>
      <trkpt lat="46.51302" lon="5.16759">
        <ele>214.8</ele>
        <time>2022-04-04T13:03:05Z</time>
      </trkpt>
      <trkpt lat="46.51335" lon="5.16739">
        <ele>215.2</ele>
        <time>2022-04-04T13:03:10Z</time>
      </trkpt>
      <trkpt lat="46.51385" lon="5.16697">
        <ele>215.6</ele>
        <time>2022-04-04T13:03:18Z</time>
      </trkpt>
      <trkpt lat="46.5141" lon="5.16678">
        <ele>215.6</ele>
        <time>2022-04-04T13:03:22Z</time>
      </trkpt>
      <trkpt lat="46.51417" lon="5.16676">
        <ele>215.6</ele>
        <time>2022-04-04T13:03:23Z</time>
      </trkpt>
      <trkpt lat="46.51455" lon="5.16675">
        <ele>215.6</ele>
        <time>2022-04-04T13:03:28Z</time>
      </trkpt>
      <trkpt lat="46.51507" lon="5.16689">
        <ele>215.4</ele>
        <time>2022-04-04T13:03:35Z</time>
      </trkpt>
      <trkpt lat="46.51541" lon="5.16704">
        <ele>215.4</ele>
        <time>2022-04-04T13:03:40Z</time>
      </trkpt>
      <trkpt lat="46.51548" lon="5.16704">
        <ele>215.4</ele>
        <time>2022-04-04T13:03:41Z</time>
      </trkpt>
      <trkpt lat="46.51555" lon="5.16703">
        <ele>215.4</ele>
        <time>2022-04-04T13:03:42Z</time>
      </trkpt>
      <trkpt lat="46.51575" lon="5.16693">
        <ele>215.6</ele>
        <time>2022-04-04T13:03:45Z</time>
      </trkpt>
      <trkpt lat="46.51587" lon="5.16684">
        <ele>215.8</ele>
        <time>2022-04-04T13:03:47Z</time>
      </trkpt>
      <trkpt lat="46.51623" lon="5.16661">
        <ele>216.6</ele>
        <time>2022-04-04T13:03:53Z</time>
      </trkpt>
      <trkpt lat="46.51629" lon="5.1666">
        <ele>216.8</ele>
        <time>2022-04-04T13:03:54Z</time>
      </trkpt>
      <trkpt lat="46.51664" lon="5.16654">
        <ele>217.2</ele>
        <time>2022-04-04T13:03:59Z</time>
      </trkpt>
      <trkpt lat="46.51691" lon="5.16643">
        <ele>217.2</ele>
        <time>2022-04-04T13:04:03Z</time>
      </trkpt>
      <trkpt lat="46.51698" lon="5.16638">
        <ele>217.2</ele>
        <time>2022-04-04T13:04:04Z</time>
      </trkpt>
      <trkpt lat="46.5173" lon="5.16603">
        <ele>216.8</ele>
        <time>2022-04-04T13:04:09Z</time>
      </trkpt>
      <trkpt lat="46.51745" lon="5.16589">
        <ele>216.6</ele>
        <time>2022-04-04T13:04:11Z</time>
      </trkpt>
      <trkpt lat="46.51762" lon="5.1658">
        <ele>216.2</ele>
        <time>2022-04-04T13:04:13Z</time>
      </trkpt>
      <trkpt lat="46.5178" lon="5.16578">
        <ele>215.6</ele>
        <time>2022-04-04T13:04:15Z</time>
      </trkpt>
      <trkpt lat="46.51789" lon="5.16579">
        <ele>215.6</ele>
        <time>2022-04-04T13:04:16Z</time>
      </trkpt>
      <trkpt lat="46.51816" lon="5.16581">
        <ele>214.4</ele>
        <time>2022-04-04T13:04:19Z</time>
      </trkpt>
      <trkpt lat="46.51849" lon="5.16582">
        <ele>214.2</ele>
        <time>2022-04-04T13:04:23Z</time>
      </trkpt>
      <trkpt lat="46.51895" lon="5.16575">
        <ele>214.4</ele>
        <time>2022-04-04T13:04:29Z</time>
      </trkpt>
      <trkpt lat="46.51943" lon="5.16565">
        <ele>215.8</ele>
        <time>2022-04-04T13:04:36Z</time>
      </trkpt>
      <trkpt lat="46.5195" lon="5.16564">
        <ele>216.2</ele>
        <time>2022-04-04T13:04:37Z</time>
      </trkpt>
      <trkpt lat="46.51964" lon="5.16561">
        <ele>216.6</ele>
        <time>2022-04-04T13:04:39Z</time>
      </trkpt>
      <trkpt lat="46.51984" lon="5.16557">
        <ele>218.4</ele>
        <time>2022-04-04T13:04:42Z</time>
      </trkpt>
      <trkpt lat="46.52012" lon="5.16553">
        <ele>219.6</ele>
        <time>2022-04-04T13:04:46Z</time>
      </trkpt>
      <trkpt lat="46.52025" lon="5.1655">
        <ele>220.2</ele>
        <time>2022-04-04T13:04:48Z</time>
      </trkpt>
      <trkpt lat="46.52039" lon="5.16549">
        <ele>220.8</ele>
        <time>2022-04-04T13:04:50Z</time>
      </trkpt>
      <trkpt lat="46.52059" lon="5.1655">
        <ele>221.4</ele>
        <time>2022-04-04T13:04:53Z</time>
      </trkpt>
      <trkpt lat="46.52066" lon="5.16552">
        <ele>221.6</ele>
        <time>2022-04-04T13:04:54Z</time>
      </trkpt>
      <trkpt lat="46.5208" lon="5.16557">
        <ele>222.2</ele>
        <time>2022-04-04T13:04:56Z</time>
      </trkpt>
      <trkpt lat="46.52111" lon="5.16574">
        <ele>222.8</ele>
        <time>2022-04-04T13:05:01Z</time>
      </trkpt>
      <trkpt lat="46.52117" lon="5.16577">
        <ele>223.2</ele>
        <time>2022-04-04T13:05:02Z</time>
      </trkpt>
      <trkpt lat="46.52128" lon="5.16584">
        <ele>223.6</ele>
        <time>2022-04-04T13:05:04Z</time>
      </trkpt>
      <trkpt lat="46.52151" lon="5.16597">
        <ele>223.8</ele>
        <time>2022-04-04T13:05:08Z</time>
      </trkpt>
      <trkpt lat="46.52184" lon="5.16615">
        <ele>224.2</ele>
        <time>2022-04-04T13:05:13Z</time>
      </trkpt>
      <trkpt lat="46.52197" lon="5.16622">
        <ele>224.2</ele>
        <time>2022-04-04T13:05:15Z</time>
      </trkpt>
      <trkpt lat="46.52232" lon="5.16642">
        <ele>224.2</ele>
        <time>2022-04-04T13:05:20Z</time>
      </trkpt>
      <trkpt lat="46.52245" lon="5.16652">
        <ele>224</ele>
        <time>2022-04-04T13:05:22Z</time>
      </trkpt>
      <trkpt lat="46.52251" lon="5.16659">
        <ele>224</ele>
        <time>2022-04-04T13:05:23Z</time>
      </trkpt>
      <trkpt lat="46.52262" lon="5.16673">
        <ele>224</ele>
        <time>2022-04-04T13:05:25Z</time>
      </trkpt>
      <trkpt lat="46.52266" lon="5.16682">
        <ele>224</ele>
        <time>2022-04-04T13:05:26Z</time>
      </trkpt>
      <trkpt lat="46.52276" lon="5.16711">
        <ele>224</ele>
        <time>2022-04-04T13:05:29Z</time>
      </trkpt>
      <trkpt lat="46.52278" lon="5.16721">
        <ele>223.8</ele>
        <time>2022-04-04T13:05:30Z</time>
      </trkpt>
      <trkpt lat="46.52279" lon="5.16733">
        <ele>223.8</ele>
        <time>2022-04-04T13:05:31Z</time>
      </trkpt>
      <trkpt lat="46.5228" lon="5.16777">
        <ele>223.8</ele>
        <time>2022-04-04T13:05:35Z</time>
      </trkpt>
      <trkpt lat="46.52278" lon="5.16839">
        <ele>223.2</ele>
        <time>2022-04-04T13:05:40Z</time>
      </trkpt>
      <trkpt lat="46.52277" lon="5.16887">
        <ele>222.8</ele>
        <time>2022-04-04T13:05:44Z</time>
      </trkpt>
      <trkpt lat="46.52279" lon="5.16924">
        <ele>222.6</ele>
        <time>2022-04-04T13:05:47Z</time>
      </trkpt>
      <trkpt lat="46.52284" lon="5.16948">
        <ele>222</ele>
        <time>2022-04-04T13:05:49Z</time>
      </trkpt>
      <trkpt lat="46.52291" lon="5.1697">
        <ele>221.8</ele>
        <time>2022-04-04T13:05:51Z</time>
      </trkpt>
      <trkpt lat="46.523" lon="5.1699">
        <ele>221.8</ele>
        <time>2022-04-04T13:05:53Z</time>
      </trkpt>
      <trkpt lat="46.52305" lon="5.16999">
        <ele>221.8</ele>
        <time>2022-04-04T13:05:54Z</time>
      </trkpt>
      <trkpt lat="46.52324" lon="5.17022">
        <ele>221.6</ele>
        <time>2022-04-04T13:05:57Z</time>
      </trkpt>
      <trkpt lat="46.52367" lon="5.17073">
        <ele>221.8</ele>
        <time>2022-04-04T13:06:04Z</time>
      </trkpt>
      <trkpt lat="46.5238" lon="5.17087">
        <ele>222</ele>
        <time>2022-04-04T13:06:06Z</time>
      </trkpt>
      <trkpt lat="46.52422" lon="5.17137">
        <ele>222.6</ele>
        <time>2022-04-04T13:06:13Z</time>
      </trkpt>
      <trkpt lat="46.5244" lon="5.17159">
        <ele>222.8</ele>
        <time>2022-04-04T13:06:16Z</time>
      </trkpt>
      <trkpt lat="46.52484" lon="5.1721">
        <ele>223</ele>
        <time>2022-04-04T13:06:23Z</time>
      </trkpt>
      <trkpt lat="46.52496" lon="5.17224">
        <ele>223</ele>
        <time>2022-04-04T13:06:25Z</time>
      </trkpt>
      <trkpt lat="46.5254" lon="5.17274">
        <ele>222.8</ele>
        <time>2022-04-04T13:06:32Z</time>
      </trkpt>
      <trkpt lat="46.52588" lon="5.17327">
        <ele>222</ele>
        <time>2022-04-04T13:06:39Z</time>
      </trkpt>
      <trkpt lat="46.52603" lon="5.17343">
        <ele>221.6</ele>
        <time>2022-04-04T13:06:41Z</time>
      </trkpt>
      <trkpt lat="46.52627" lon="5.1737">
        <ele>220.6</ele>
        <time>2022-04-04T13:06:44Z</time>
      </trkpt>
      <trkpt lat="46.52653" lon="5.17398">
        <ele>219.4</ele>
        <time>2022-04-04T13:06:47Z</time>
      </trkpt>
      <trkpt lat="46.52679" lon="5.17427">
        <ele>218.2</ele>
        <time>2022-04-04T13:06:50Z</time>
      </trkpt>
      <trkpt lat="46.52697" lon="5.17446">
        <ele>216.8</ele>
        <time>2022-04-04T13:06:52Z</time>
      </trkpt>
      <trkpt lat="46.52723" lon="5.17477">
        <ele>215</ele>
        <time>2022-04-04T13:06:55Z</time>
      </trkpt>
      <trkpt lat="46.52739" lon="5.17499">
        <ele>213.8</ele>
        <time>2022-04-04T13:06:57Z</time>
      </trkpt>
      <trkpt lat="46.52754" lon="5.17522">
        <ele>212.6</ele>
        <time>2022-04-04T13:06:59Z</time>
      </trkpt>
      <trkpt lat="46.5276" lon="5.17533">
        <ele>211.8</ele>
        <time>2022-04-04T13:07:00Z</time>
      </trkpt>
      <trkpt lat="46.52766" lon="5.17544">
        <ele>211.6</ele>
        <time>2022-04-04T13:07:01Z</time>
      </trkpt>
      <trkpt lat="46.52784" lon="5.17574">
        <ele>210.2</ele>
        <time>2022-04-04T13:07:04Z</time>
      </trkpt>
      <trkpt lat="46.52795" lon="5.17593">
        <ele>209.8</ele>
        <time>2022-04-04T13:07:06Z</time>
      </trkpt>
      <trkpt lat="46.5282" lon="5.17635">
        <ele>209.4</ele>
        <time>2022-04-04T13:07:11Z</time>
      </trkpt>
      <trkpt lat="46.52825" lon="5.17642">
        <ele>209.4</ele>
        <time>2022-04-04T13:07:12Z</time>
      </trkpt>
      <trkpt lat="46.52838" lon="5.17651">
        <ele>209.4</ele>
        <time>2022-04-04T13:07:14Z</time>
      </trkpt>
      <trkpt lat="46.5288" lon="5.17668">
        <ele>209.6</ele>
        <time>2022-04-04T13:07:20Z</time>
      </trkpt>
      <trkpt lat="46.52922" lon="5.17688">
        <ele>210.6</ele>
        <time>2022-04-04T13:07:26Z</time>
      </trkpt>
      <trkpt lat="46.52951" lon="5.177">
        <ele>211.4</ele>
        <time>2022-04-04T13:07:30Z</time>
      </trkpt>
      <trkpt lat="46.52972" lon="5.17709">
        <ele>211.8</ele>
        <time>2022-04-04T13:07:33Z</time>
      </trkpt>
      <trkpt lat="46.53013" lon="5.17725">
        <ele>212.4</ele>
        <time>2022-04-04T13:07:39Z</time>
      </trkpt>
      <trkpt lat="46.53027" lon="5.17729">
        <ele>212.8</ele>
        <time>2022-04-04T13:07:41Z</time>
      </trkpt>
      <trkpt lat="46.53065" lon="5.17736">
        <ele>213.4</ele>
        <time>2022-04-04T13:07:47Z</time>
      </trkpt>
      <trkpt lat="46.53071" lon="5.17737">
        <ele>213.6</ele>
        <time>2022-04-04T13:07:48Z</time>
      </trkpt>
      <trkpt lat="46.53106" lon="5.1774">
        <ele>214.2</ele>
        <time>2022-04-04T13:07:54Z</time>
      </trkpt>
      <trkpt lat="46.53117" lon="5.17742">
        <ele>214.6</ele>
        <time>2022-04-04T13:07:56Z</time>
      </trkpt>
      <trkpt lat="46.53146" lon="5.17747">
        <ele>215.8</ele>
        <time>2022-04-04T13:08:01Z</time>
      </trkpt>
      <trkpt lat="46.53158" lon="5.1775">
        <ele>216.2</ele>
        <time>2022-04-04T13:08:03Z</time>
      </trkpt>
      <trkpt lat="46.53193" lon="5.17758">
        <ele>217</ele>
        <time>2022-04-04T13:08:09Z</time>
      </trkpt>
      <trkpt lat="46.53211" lon="5.17762">
        <ele>217.8</ele>
        <time>2022-04-04T13:08:12Z</time>
      </trkpt>
      <trkpt lat="46.53223" lon="5.17763">
        <ele>218</ele>
        <time>2022-04-04T13:08:14Z</time>
      </trkpt>
      <trkpt lat="46.53268" lon="5.17768">
        <ele>219</ele>
        <time>2022-04-04T13:08:21Z</time>
      </trkpt>
      <trkpt lat="46.5332" lon="5.17763">
        <ele>218.6</ele>
        <time>2022-04-04T13:08:28Z</time>
      </trkpt>
      <trkpt lat="46.53358" lon="5.17751">
        <ele>217.2</ele>
        <time>2022-04-04T13:08:33Z</time>
      </trkpt>
      <trkpt lat="46.53377" lon="5.17738">
        <ele>217</ele>
        <time>2022-04-04T13:08:36Z</time>
      </trkpt>
      <trkpt lat="46.53396" lon="5.17723">
        <ele>217</ele>
        <time>2022-04-04T13:08:39Z</time>
      </trkpt>
      <trkpt lat="46.53444" lon="5.17687">
        <ele>218</ele>
        <time>2022-04-04T13:08:47Z</time>
      </trkpt>
      <trkpt lat="46.5345" lon="5.17682">
        <ele>218.2</ele>
        <time>2022-04-04T13:08:48Z</time>
      </trkpt>
      <trkpt lat="46.53455" lon="5.17677">
        <ele>218.4</ele>
        <time>2022-04-04T13:08:49Z</time>
      </trkpt>
      <trkpt lat="46.53499" lon="5.17644">
        <ele>218.8</ele>
        <time>2022-04-04T13:08:57Z</time>
      </trkpt>
      <trkpt lat="46.53539" lon="5.17617">
        <ele>218.6</ele>
        <time>2022-04-04T13:09:04Z</time>
      </trkpt>
      <trkpt lat="46.53586" lon="5.17602">
        <ele>218.4</ele>
        <time>2022-04-04T13:09:11Z</time>
      </trkpt>
      <trkpt lat="46.53639" lon="5.17589">
        <ele>218.2</ele>
        <time>2022-04-04T13:09:19Z</time>
      </trkpt>
      <trkpt lat="46.53689" lon="5.17579">
        <ele>218</ele>
        <time>2022-04-04T13:09:27Z</time>
      </trkpt>
      <trkpt lat="46.53745" lon="5.17568">
        <ele>218.4</ele>
        <time>2022-04-04T13:09:36Z</time>
      </trkpt>
      <trkpt lat="46.53797" lon="5.17556">
        <ele>218.2</ele>
        <time>2022-04-04T13:09:44Z</time>
      </trkpt>
      <trkpt lat="46.53825" lon="5.17551">
        <ele>218</ele>
        <time>2022-04-04T13:09:48Z</time>
      </trkpt>
      <trkpt lat="46.5386" lon="5.17542">
        <ele>217.4</ele>
        <time>2022-04-04T13:09:53Z</time>
      </trkpt>
      <trkpt lat="46.53867" lon="5.1754">
        <ele>217.2</ele>
        <time>2022-04-04T13:09:54Z</time>
      </trkpt>
      <trkpt lat="46.53893" lon="5.17524">
        <ele>216.8</ele>
        <time>2022-04-04T13:09:58Z</time>
      </trkpt>
      <trkpt lat="46.53922" lon="5.17502">
        <ele>216.2</ele>
        <time>2022-04-04T13:10:03Z</time>
      </trkpt>
      <trkpt lat="46.53933" lon="5.17494">
        <ele>216.4</ele>
        <time>2022-04-04T13:10:05Z</time>
      </trkpt>
      <trkpt lat="46.53968" lon="5.17467">
        <ele>217.4</ele>
        <time>2022-04-04T13:10:12Z</time>
      </trkpt>
      <trkpt lat="46.53985" lon="5.17454">
        <ele>217.6</ele>
        <time>2022-04-04T13:10:15Z</time>
      </trkpt>
      <trkpt lat="46.54034" lon="5.17416">
        <ele>218</ele>
        <time>2022-04-04T13:10:24Z</time>
      </trkpt>
      <trkpt lat="46.5404" lon="5.17412">
        <ele>218.2</ele>
        <time>2022-04-04T13:10:25Z</time>
      </trkpt>
      <trkpt lat="46.5408" lon="5.17382">
        <ele>218.4</ele>
        <time>2022-04-04T13:10:32Z</time>
      </trkpt>
      <trkpt lat="46.5411" lon="5.17359">
        <ele>218.2</ele>
        <time>2022-04-04T13:10:37Z</time>
      </trkpt>
      <trkpt lat="46.5415" lon="5.17329">
        <ele>217.8</ele>
        <time>2022-04-04T13:10:43Z</time>
      </trkpt>
      <trkpt lat="46.54181" lon="5.17305">
        <ele>216.2</ele>
        <time>2022-04-04T13:10:47Z</time>
      </trkpt>
      <trkpt lat="46.54198" lon="5.17293">
        <ele>215.2</ele>
        <time>2022-04-04T13:10:49Z</time>
      </trkpt>
      <trkpt lat="46.54206" lon="5.17287">
        <ele>214.8</ele>
        <time>2022-04-04T13:10:50Z</time>
      </trkpt>
      <trkpt lat="46.54229" lon="5.17269">
        <ele>213.4</ele>
        <time>2022-04-04T13:10:53Z</time>
      </trkpt>
      <trkpt lat="46.54258" lon="5.17247">
        <ele>212.4</ele>
        <time>2022-04-04T13:10:57Z</time>
      </trkpt>
      <trkpt lat="46.54265" lon="5.17242">
        <ele>212.4</ele>
        <time>2022-04-04T13:10:58Z</time>
      </trkpt>
      <trkpt lat="46.54295" lon="5.17219">
        <ele>212.6</ele>
        <time>2022-04-04T13:11:03Z</time>
      </trkpt>
      <trkpt lat="46.54331" lon="5.17194">
        <ele>213.6</ele>
        <time>2022-04-04T13:11:09Z</time>
      </trkpt>
      <trkpt lat="46.54343" lon="5.17185">
        <ele>214.2</ele>
        <time>2022-04-04T13:11:11Z</time>
      </trkpt>
      <trkpt lat="46.5436" lon="5.17172">
        <ele>214.8</ele>
        <time>2022-04-04T13:11:14Z</time>
      </trkpt>
      <trkpt lat="46.544" lon="5.17143">
        <ele>215.4</ele>
        <time>2022-04-04T13:11:21Z</time>
      </trkpt>
      <trkpt lat="46.54412" lon="5.1714">
        <ele>215.8</ele>
        <time>2022-04-04T13:11:23Z</time>
      </trkpt>
      <trkpt lat="46.54425" lon="5.17139">
        <ele>216.2</ele>
        <time>2022-04-04T13:11:25Z</time>
      </trkpt>
      <trkpt lat="46.54482" lon="5.17139">
        <ele>216.6</ele>
        <time>2022-04-04T13:11:33Z</time>
      </trkpt>
      <trkpt lat="46.5449" lon="5.17139">
        <ele>216.6</ele>
        <time>2022-04-04T13:11:34Z</time>
      </trkpt>
      <trkpt lat="46.5452" lon="5.17139">
        <ele>216.4</ele>
        <time>2022-04-04T13:11:38Z</time>
      </trkpt>
      <trkpt lat="46.54568" lon="5.17139">
        <ele>216</ele>
        <time>2022-04-04T13:11:44Z</time>
      </trkpt>
      <trkpt lat="46.54626" lon="5.17139">
        <ele>215</ele>
        <time>2022-04-04T13:11:51Z</time>
      </trkpt>
      <trkpt lat="46.54643" lon="5.17139">
        <ele>214.6</ele>
        <time>2022-04-04T13:11:53Z</time>
      </trkpt>
      <trkpt lat="46.54695" lon="5.17142">
        <ele>213.6</ele>
        <time>2022-04-04T13:11:59Z</time>
      </trkpt>
      <trkpt lat="46.54713" lon="5.17145">
        <ele>213</ele>
        <time>2022-04-04T13:12:01Z</time>
      </trkpt>
      <trkpt lat="46.54739" lon="5.17151">
        <ele>212.6</ele>
        <time>2022-04-04T13:12:04Z</time>
      </trkpt>
      <trkpt lat="46.54787" lon="5.17159">
        <ele>211</ele>
        <time>2022-04-04T13:12:09Z</time>
      </trkpt>
      <trkpt lat="46.54817" lon="5.17164">
        <ele>209.4</ele>
        <time>2022-04-04T13:12:12Z</time>
      </trkpt>
      <trkpt lat="46.54848" lon="5.17163">
        <ele>208.4</ele>
        <time>2022-04-04T13:12:15Z</time>
      </trkpt>
      <trkpt lat="46.54858" lon="5.17161">
        <ele>207.4</ele>
        <time>2022-04-04T13:12:16Z</time>
      </trkpt>
      <trkpt lat="46.54868" lon="5.17157">
        <ele>207.2</ele>
        <time>2022-04-04T13:12:17Z</time>
      </trkpt>
      <trkpt lat="46.54876" lon="5.1715">
        <ele>206.8</ele>
        <time>2022-04-04T13:12:18Z</time>
      </trkpt>
      <trkpt lat="46.54897" lon="5.17125">
        <ele>205.8</ele>
        <time>2022-04-04T13:12:21Z</time>
      </trkpt>
      <trkpt lat="46.54904" lon="5.17117">
        <ele>205.8</ele>
        <time>2022-04-04T13:12:22Z</time>
      </trkpt>
      <trkpt lat="46.54911" lon="5.17109">
        <ele>205.4</ele>
        <time>2022-04-04T13:12:23Z</time>
      </trkpt>
      <trkpt lat="46.54926" lon="5.17096">
        <ele>205.2</ele>
        <time>2022-04-04T13:12:25Z</time>
      </trkpt>
      <trkpt lat="46.54933" lon="5.17092">
        <ele>205.2</ele>
        <time>2022-04-04T13:12:26Z</time>
      </trkpt>
      <trkpt lat="46.54941" lon="5.17091">
        <ele>205.2</ele>
        <time>2022-04-04T13:12:27Z</time>
      </trkpt>
      <trkpt lat="46.54956" lon="5.17091">
        <ele>205</ele>
        <time>2022-04-04T13:12:29Z</time>
      </trkpt>
      <trkpt lat="46.54963" lon="5.17091">
        <ele>205</ele>
        <time>2022-04-04T13:12:30Z</time>
      </trkpt>
      <trkpt lat="46.54977" lon="5.17086">
        <ele>205.2</ele>
        <time>2022-04-04T13:12:32Z</time>
      </trkpt>
      <trkpt lat="46.55005" lon="5.17064">
        <ele>206</ele>
        <time>2022-04-04T13:12:37Z</time>
      </trkpt>
      <trkpt lat="46.55033" lon="5.17036">
        <ele>207</ele>
        <time>2022-04-04T13:12:43Z</time>
      </trkpt>
      <trkpt lat="46.55037" lon="5.17031">
        <ele>207.6</ele>
        <time>2022-04-04T13:12:44Z</time>
      </trkpt>
      <trkpt lat="46.55044" lon="5.17019">
        <ele>208.2</ele>
        <time>2022-04-04T13:12:46Z</time>
      </trkpt>
      <trkpt lat="46.55047" lon="5.17004">
        <ele>209</ele>
        <time>2022-04-04T13:12:48Z</time>
      </trkpt>
      <trkpt lat="46.55051" lon="5.16987">
        <ele>209.6</ele>
        <time>2022-04-04T13:12:50Z</time>
      </trkpt>
      <trkpt lat="46.55059" lon="5.16945">
        <ele>210.6</ele>
        <time>2022-04-04T13:12:55Z</time>
      </trkpt>
      <trkpt lat="46.55061" lon="5.16937">
        <ele>210.8</ele>
        <time>2022-04-04T13:12:56Z</time>
      </trkpt>
      <trkpt lat="46.55064" lon="5.16929">
        <ele>211</ele>
        <time>2022-04-04T13:12:57Z</time>
      </trkpt>
      <trkpt lat="46.55072" lon="5.16915">
        <ele>211.2</ele>
        <time>2022-04-04T13:12:59Z</time>
      </trkpt>
      <trkpt lat="46.55084" lon="5.16907">
        <ele>211.2</ele>
        <time>2022-04-04T13:13:01Z</time>
      </trkpt>
      <trkpt lat="46.55096" lon="5.16902">
        <ele>211</ele>
        <time>2022-04-04T13:13:03Z</time>
      </trkpt>
      <trkpt lat="46.5514" lon="5.16884">
        <ele>211</ele>
        <time>2022-04-04T13:13:10Z</time>
      </trkpt>
      <trkpt lat="46.55194" lon="5.16856">
        <ele>210.8</ele>
        <time>2022-04-04T13:13:19Z</time>
      </trkpt>
      <trkpt lat="46.55227" lon="5.16827">
        <ele>211</ele>
        <time>2022-04-04T13:13:25Z</time>
      </trkpt>
      <trkpt lat="46.55265" lon="5.16805">
        <ele>210.8</ele>
        <time>2022-04-04T13:13:31Z</time>
      </trkpt>
      <trkpt lat="46.55313" lon="5.16771">
        <ele>210.8</ele>
        <time>2022-04-04T13:13:39Z</time>
      </trkpt>
      <trkpt lat="46.55353" lon="5.16731">
        <ele>210.8</ele>
        <time>2022-04-04T13:13:46Z</time>
      </trkpt>
      <trkpt lat="46.55398" lon="5.16683">
        <ele>210.6</ele>
        <time>2022-04-04T13:13:54Z</time>
      </trkpt>
      <trkpt lat="46.55431" lon="5.16638">
        <ele>210.2</ele>
        <time>2022-04-04T13:14:00Z</time>
      </trkpt>
      <trkpt lat="46.55435" lon="5.1663">
        <ele>210.2</ele>
        <time>2022-04-04T13:14:01Z</time>
      </trkpt>
      <trkpt lat="46.55441" lon="5.16611">
        <ele>210.2</ele>
        <time>2022-04-04T13:14:03Z</time>
      </trkpt>
      <trkpt lat="46.55443" lon="5.16601">
        <ele>210.2</ele>
        <time>2022-04-04T13:14:04Z</time>
      </trkpt>
      <trkpt lat="46.55456" lon="5.16554">
        <ele>210.4</ele>
        <time>2022-04-04T13:14:09Z</time>
      </trkpt>
      <trkpt lat="46.5546" lon="5.16546">
        <ele>210.4</ele>
        <time>2022-04-04T13:14:10Z</time>
      </trkpt>
      <trkpt lat="46.55464" lon="5.1654">
        <ele>210.6</ele>
        <time>2022-04-04T13:14:11Z</time>
      </trkpt>
      <trkpt lat="46.55474" lon="5.1653">
        <ele>210.6</ele>
        <time>2022-04-04T13:14:13Z</time>
      </trkpt>
      <trkpt lat="46.55479" lon="5.16526">
        <ele>211</ele>
        <time>2022-04-04T13:14:14Z</time>
      </trkpt>
      <trkpt lat="46.55483" lon="5.16522">
        <ele>211</ele>
        <time>2022-04-04T13:14:15Z</time>
      </trkpt>
      <trkpt lat="46.55494" lon="5.16507">
        <ele>212</ele>
        <time>2022-04-04T13:14:18Z</time>
      </trkpt>
      <trkpt lat="46.55501" lon="5.16488">
        <ele>212.8</ele>
        <time>2022-04-04T13:14:21Z</time>
      </trkpt>
      <trkpt lat="46.55502" lon="5.16481">
        <ele>213.2</ele>
        <time>2022-04-04T13:14:22Z</time>
      </trkpt>
      <trkpt lat="46.55504" lon="5.16475">
        <ele>213.6</ele>
        <time>2022-04-04T13:14:23Z</time>
      </trkpt>
      <trkpt lat="46.55507" lon="5.16457">
        <ele>214.4</ele>
        <time>2022-04-04T13:14:26Z</time>
      </trkpt>
      <trkpt lat="46.55508" lon="5.16451">
        <ele>214.6</ele>
        <time>2022-04-04T13:14:27Z</time>
      </trkpt>
      <trkpt lat="46.55513" lon="5.16441">
        <ele>215.6</ele>
        <time>2022-04-04T13:14:29Z</time>
      </trkpt>
      <trkpt lat="46.55516" lon="5.16437">
        <ele>216.2</ele>
        <time>2022-04-04T13:14:30Z</time>
      </trkpt>
      <trkpt lat="46.55528" lon="5.16427">
        <ele>216.8</ele>
        <time>2022-04-04T13:14:33Z</time>
      </trkpt>
      <trkpt lat="46.55547" lon="5.1642">
        <ele>217.6</ele>
        <time>2022-04-04T13:14:37Z</time>
      </trkpt>
      <trkpt lat="46.55557" lon="5.1642">
        <ele>217.8</ele>
        <time>2022-04-04T13:14:39Z</time>
      </trkpt>
      <trkpt lat="46.55571" lon="5.1642">
        <ele>218.6</ele>
        <time>2022-04-04T13:14:42Z</time>
      </trkpt>
      <trkpt lat="46.55581" lon="5.16422">
        <ele>218.8</ele>
        <time>2022-04-04T13:14:44Z</time>
      </trkpt>
      <trkpt lat="46.55591" lon="5.16423">
        <ele>219.2</ele>
        <time>2022-04-04T13:14:46Z</time>
      </trkpt>
      <trkpt lat="46.55606" lon="5.16425">
        <ele>219.6</ele>
        <time>2022-04-04T13:14:49Z</time>
      </trkpt>
      <trkpt lat="46.55623" lon="5.16429">
        <ele>220.2</ele>
        <time>2022-04-04T13:14:52Z</time>
      </trkpt>
      <trkpt lat="46.55628" lon="5.1643">
        <ele>220.4</ele>
        <time>2022-04-04T13:14:53Z</time>
      </trkpt>
      <trkpt lat="46.55639" lon="5.16431">
        <ele>220.6</ele>
        <time>2022-04-04T13:14:55Z</time>
      </trkpt>
      <trkpt lat="46.55663" lon="5.16436">
        <ele>221.2</ele>
        <time>2022-04-04T13:14:59Z</time>
      </trkpt>
      <trkpt lat="46.55668" lon="5.16438">
        <ele>221.4</ele>
        <time>2022-04-04T13:15:00Z</time>
      </trkpt>
      <trkpt lat="46.5568" lon="5.16445">
        <ele>221.4</ele>
        <time>2022-04-04T13:15:02Z</time>
      </trkpt>
      <trkpt lat="46.55685" lon="5.1645">
        <ele>221.4</ele>
        <time>2022-04-04T13:15:03Z</time>
      </trkpt>
      <trkpt lat="46.5569" lon="5.16456">
        <ele>221.4</ele>
        <time>2022-04-04T13:15:04Z</time>
      </trkpt>
      <trkpt lat="46.55697" lon="5.1647">
        <ele>221.4</ele>
        <time>2022-04-04T13:15:06Z</time>
      </trkpt>
      <trkpt lat="46.55698" lon="5.16488">
        <ele>221.4</ele>
        <time>2022-04-04T13:15:08Z</time>
      </trkpt>
      <trkpt lat="46.55696" lon="5.16497">
        <ele>221.4</ele>
        <time>2022-04-04T13:15:09Z</time>
      </trkpt>
      <trkpt lat="46.55679" lon="5.1656">
        <ele>220.6</ele>
        <time>2022-04-04T13:15:15Z</time>
      </trkpt>
      <trkpt lat="46.5567" lon="5.16593">
        <ele>220.2</ele>
        <time>2022-04-04T13:15:18Z</time>
      </trkpt>
      <trkpt lat="46.55653" lon="5.16661">
        <ele>219</ele>
        <time>2022-04-04T13:15:24Z</time>
      </trkpt>
      <trkpt lat="46.55642" lon="5.16707">
        <ele>218</ele>
        <time>2022-04-04T13:15:28Z</time>
      </trkpt>
      <trkpt lat="46.55632" lon="5.16748">
        <ele>217.4</ele>
        <time>2022-04-04T13:15:32Z</time>
      </trkpt>
      <trkpt lat="46.55619" lon="5.168">
        <ele>217.6</ele>
        <time>2022-04-04T13:15:38Z</time>
      </trkpt>
      <trkpt lat="46.55607" lon="5.16845">
        <ele>218.8</ele>
        <time>2022-04-04T13:15:44Z</time>
      </trkpt>
      <trkpt lat="46.55603" lon="5.1686">
        <ele>219.2</ele>
        <time>2022-04-04T13:15:46Z</time>
      </trkpt>
      <trkpt lat="46.5559" lon="5.16912">
        <ele>220.2</ele>
        <time>2022-04-04T13:15:53Z</time>
      </trkpt>
      <trkpt lat="46.55575" lon="5.16967">
        <ele>221</ele>
        <time>2022-04-04T13:16:00Z</time>
      </trkpt>
      <trkpt lat="46.55573" lon="5.16975">
        <ele>221.4</ele>
        <time>2022-04-04T13:16:01Z</time>
      </trkpt>
      <trkpt lat="46.55553" lon="5.1703">
        <ele>222.4</ele>
        <time>2022-04-04T13:16:08Z</time>
      </trkpt>
      <trkpt lat="46.55526" lon="5.171">
        <ele>223.2</ele>
        <time>2022-04-04T13:16:17Z</time>
      </trkpt>
      <trkpt lat="46.55498" lon="5.17161">
        <ele>223.2</ele>
        <time>2022-04-04T13:16:25Z</time>
      </trkpt>
      <trkpt lat="46.5547" lon="5.17212">
        <ele>223.6</ele>
        <time>2022-04-04T13:16:32Z</time>
      </trkpt>
      <trkpt lat="46.55463" lon="5.17226">
        <ele>223.6</ele>
        <time>2022-04-04T13:16:34Z</time>
      </trkpt>
      <trkpt lat="46.55444" lon="5.17274">
        <ele>223.6</ele>
        <time>2022-04-04T13:16:40Z</time>
      </trkpt>
      <trkpt lat="46.55431" lon="5.17325">
        <ele>223.6</ele>
        <time>2022-04-04T13:16:45Z</time>
      </trkpt>
      <trkpt lat="46.55421" lon="5.17392">
        <ele>222.8</ele>
        <time>2022-04-04T13:16:51Z</time>
      </trkpt>
      <trkpt lat="46.55415" lon="5.1748">
        <ele>222.8</ele>
        <time>2022-04-04T13:16:59Z</time>
      </trkpt>
      <trkpt lat="46.55414" lon="5.1749">
        <ele>222.8</ele>
        <time>2022-04-04T13:17:00Z</time>
      </trkpt>
      <trkpt lat="46.55408" lon="5.17571">
        <ele>223.4</ele>
        <time>2022-04-04T13:17:08Z</time>
      </trkpt>
      <trkpt lat="46.55407" lon="5.17581">
        <ele>223.4</ele>
        <time>2022-04-04T13:17:09Z</time>
      </trkpt>
      <trkpt lat="46.554" lon="5.17657">
        <ele>224</ele>
        <time>2022-04-04T13:17:17Z</time>
      </trkpt>
      <trkpt lat="46.55398" lon="5.17694">
        <ele>224.6</ele>
        <time>2022-04-04T13:17:21Z</time>
      </trkpt>
      <trkpt lat="46.55393" lon="5.17753">
        <ele>224.6</ele>
        <time>2022-04-04T13:17:27Z</time>
      </trkpt>
      <trkpt lat="46.55393" lon="5.17822">
        <ele>224.4</ele>
        <time>2022-04-04T13:17:34Z</time>
      </trkpt>
      <trkpt lat="46.55394" lon="5.1788">
        <ele>224.2</ele>
        <time>2022-04-04T13:17:39Z</time>
      </trkpt>
      <trkpt lat="46.55395" lon="5.17927">
        <ele>223.6</ele>
        <time>2022-04-04T13:17:43Z</time>
      </trkpt>
      <trkpt lat="46.55398" lon="5.17966">
        <ele>223</ele>
        <time>2022-04-04T13:17:46Z</time>
      </trkpt>
      <trkpt lat="46.55408" lon="5.18012">
        <ele>222.6</ele>
        <time>2022-04-04T13:17:50Z</time>
      </trkpt>
      <trkpt lat="46.55412" lon="5.18022">
        <ele>222.6</ele>
        <time>2022-04-04T13:17:51Z</time>
      </trkpt>
      <trkpt lat="46.55417" lon="5.18032">
        <ele>222.6</ele>
        <time>2022-04-04T13:17:52Z</time>
      </trkpt>
      <trkpt lat="46.55427" lon="5.18049">
        <ele>222.2</ele>
        <time>2022-04-04T13:17:54Z</time>
      </trkpt>
      <trkpt lat="46.55469" lon="5.18107">
        <ele>222.6</ele>
        <time>2022-04-04T13:18:02Z</time>
      </trkpt>
      <trkpt lat="46.55475" lon="5.18115">
        <ele>222.8</ele>
        <time>2022-04-04T13:18:03Z</time>
      </trkpt>
      <trkpt lat="46.55496" lon="5.18144">
        <ele>223.6</ele>
        <time>2022-04-04T13:18:07Z</time>
      </trkpt>
      <trkpt lat="46.5552" lon="5.18179">
        <ele>224.4</ele>
        <time>2022-04-04T13:18:12Z</time>
      </trkpt>
      <trkpt lat="46.55529" lon="5.18193">
        <ele>224.6</ele>
        <time>2022-04-04T13:18:14Z</time>
      </trkpt>
      <trkpt lat="46.5555" lon="5.18236">
        <ele>224.8</ele>
        <time>2022-04-04T13:18:19Z</time>
      </trkpt>
      <trkpt lat="46.55566" lon="5.18294">
        <ele>225.4</ele>
        <time>2022-04-04T13:18:25Z</time>
      </trkpt>
      <trkpt lat="46.55582" lon="5.1838">
        <ele>225.2</ele>
        <time>2022-04-04T13:18:33Z</time>
      </trkpt>
      <trkpt lat="46.55592" lon="5.18432">
        <ele>225</ele>
        <time>2022-04-04T13:18:38Z</time>
      </trkpt>
      <trkpt lat="46.55606" lon="5.18517">
        <ele>225</ele>
        <time>2022-04-04T13:18:46Z</time>
      </trkpt>
      <trkpt lat="46.55607" lon="5.18527">
        <ele>225.2</ele>
        <time>2022-04-04T13:18:47Z</time>
      </trkpt>
      <trkpt lat="46.55622" lon="5.1861">
        <ele>225.4</ele>
        <time>2022-04-04T13:18:55Z</time>
      </trkpt>
      <trkpt lat="46.55626" lon="5.1863">
        <ele>225.4</ele>
        <time>2022-04-04T13:18:57Z</time>
      </trkpt>
      <trkpt lat="46.5564" lon="5.18714">
        <ele>225.6</ele>
        <time>2022-04-04T13:19:05Z</time>
      </trkpt>
      <trkpt lat="46.55644" lon="5.18735">
        <ele>225.6</ele>
        <time>2022-04-04T13:19:07Z</time>
      </trkpt>
      <trkpt lat="46.55659" lon="5.18821">
        <ele>225.4</ele>
        <time>2022-04-04T13:19:15Z</time>
      </trkpt>
      <trkpt lat="46.55664" lon="5.18853">
        <ele>225.4</ele>
        <time>2022-04-04T13:19:18Z</time>
      </trkpt>
      <trkpt lat="46.55678" lon="5.1893">
        <ele>225.6</ele>
        <time>2022-04-04T13:19:25Z</time>
      </trkpt>
      <trkpt lat="46.55684" lon="5.18962">
        <ele>225.6</ele>
        <time>2022-04-04T13:19:28Z</time>
      </trkpt>
      <trkpt lat="46.55698" lon="5.19045">
        <ele>225.6</ele>
        <time>2022-04-04T13:19:36Z</time>
      </trkpt>
      <trkpt lat="46.55701" lon="5.19066">
        <ele>225.4</ele>
        <time>2022-04-04T13:19:37Z</time>
      </trkpt>
      <trkpt lat="46.55713" lon="5.19135">
        <ele>225.8</ele>
        <time>2022-04-04T13:19:45Z</time>
      </trkpt>
      <trkpt lat="46.55716" lon="5.19166">
        <ele>226</ele>
        <time>2022-04-04T13:19:48Z</time>
      </trkpt>
      <trkpt lat="46.55721" lon="5.19246">
        <ele>226.2</ele>
        <time>2022-04-04T13:19:56Z</time>
      </trkpt>
      <trkpt lat="46.55723" lon="5.19287">
        <ele>226.2</ele>
        <time>2022-04-04T13:20:00Z</time>
      </trkpt>
      <trkpt lat="46.55728" lon="5.19369">
        <ele>225.6</ele>
        <time>2022-04-04T13:20:08Z</time>
      </trkpt>
      <trkpt lat="46.55729" lon="5.1939">
        <ele>225.6</ele>
        <time>2022-04-04T13:20:10Z</time>
      </trkpt>
      <trkpt lat="46.55733" lon="5.19471">
        <ele>225.6</ele>
        <time>2022-04-04T13:20:18Z</time>
      </trkpt>
      <trkpt lat="46.55735" lon="5.19511">
        <ele>225.8</ele>
        <time>2022-04-04T13:20:22Z</time>
      </trkpt>
      <trkpt lat="46.5574" lon="5.19593">
        <ele>225.8</ele>
        <time>2022-04-04T13:20:30Z</time>
      </trkpt>
      <trkpt lat="46.55746" lon="5.19633">
        <ele>225.8</ele>
        <time>2022-04-04T13:20:34Z</time>
      </trkpt>
      <trkpt lat="46.55751" lon="5.19652">
        <ele>225.8</ele>
        <time>2022-04-04T13:20:36Z</time>
      </trkpt>
      <trkpt lat="46.55763" lon="5.19679">
        <ele>225.8</ele>
        <time>2022-04-04T13:20:39Z</time>
      </trkpt>
      <trkpt lat="46.55794" lon="5.19738">
        <ele>225.8</ele>
        <time>2022-04-04T13:20:46Z</time>
      </trkpt>
      <trkpt lat="46.55806" lon="5.19789">
        <ele>226</ele>
        <time>2022-04-04T13:20:51Z</time>
      </trkpt>
      <trkpt lat="46.55817" lon="5.19863">
        <ele>226</ele>
        <time>2022-04-04T13:20:58Z</time>
      </trkpt>
      <trkpt lat="46.55829" lon="5.19942">
        <ele>226</ele>
        <time>2022-04-04T13:21:05Z</time>
      </trkpt>
      <trkpt lat="46.55832" lon="5.19966">
        <ele>226</ele>
        <time>2022-04-04T13:21:07Z</time>
      </trkpt>
      <trkpt lat="46.55845" lon="5.20047">
        <ele>225.8</ele>
        <time>2022-04-04T13:21:14Z</time>
      </trkpt>
      <trkpt lat="46.55846" lon="5.20059">
        <ele>225.6</ele>
        <time>2022-04-04T13:21:15Z</time>
      </trkpt>
      <trkpt lat="46.55858" lon="5.2014">
        <ele>225.4</ele>
        <time>2022-04-04T13:21:22Z</time>
      </trkpt>
      <trkpt lat="46.55862" lon="5.20164">
        <ele>225.4</ele>
        <time>2022-04-04T13:21:24Z</time>
      </trkpt>
      <trkpt lat="46.55874" lon="5.20244">
        <ele>225.4</ele>
        <time>2022-04-04T13:21:31Z</time>
      </trkpt>
      <trkpt lat="46.55878" lon="5.20266">
        <ele>225.4</ele>
        <time>2022-04-04T13:21:33Z</time>
      </trkpt>
      <trkpt lat="46.55891" lon="5.20352">
        <ele>225.2</ele>
        <time>2022-04-04T13:21:41Z</time>
      </trkpt>
      <trkpt lat="46.55903" lon="5.20433">
        <ele>225.6</ele>
        <time>2022-04-04T13:21:48Z</time>
      </trkpt>
      <trkpt lat="46.55914" lon="5.20517">
        <ele>225.2</ele>
        <time>2022-04-04T13:21:55Z</time>
      </trkpt>
      <trkpt lat="46.55914" lon="5.20529">
        <ele>225</ele>
        <time>2022-04-04T13:21:56Z</time>
      </trkpt>
      <trkpt lat="46.55912" lon="5.20564">
        <ele>225</ele>
        <time>2022-04-04T13:21:59Z</time>
      </trkpt>
      <trkpt lat="46.5591" lon="5.20575">
        <ele>225</ele>
        <time>2022-04-04T13:22:00Z</time>
      </trkpt>
      <trkpt lat="46.55903" lon="5.20597">
        <ele>224.8</ele>
        <time>2022-04-04T13:22:02Z</time>
      </trkpt>
      <trkpt lat="46.55891" lon="5.20627">
        <ele>224.6</ele>
        <time>2022-04-04T13:22:05Z</time>
      </trkpt>
      <trkpt lat="46.55858" lon="5.20693">
        <ele>224.4</ele>
        <time>2022-04-04T13:22:12Z</time>
      </trkpt>
      <trkpt lat="46.55854" lon="5.20702">
        <ele>224.4</ele>
        <time>2022-04-04T13:22:13Z</time>
      </trkpt>
      <trkpt lat="46.55838" lon="5.20753">
        <ele>224.4</ele>
        <time>2022-04-04T13:22:18Z</time>
      </trkpt>
      <trkpt lat="46.55835" lon="5.20774">
        <ele>224.4</ele>
        <time>2022-04-04T13:22:20Z</time>
      </trkpt>
      <trkpt lat="46.55835" lon="5.20796">
        <ele>224.6</ele>
        <time>2022-04-04T13:22:22Z</time>
      </trkpt>
      <trkpt lat="46.55842" lon="5.20872">
        <ele>225</ele>
        <time>2022-04-04T13:22:29Z</time>
      </trkpt>
      <trkpt lat="46.5585" lon="5.20971">
        <ele>225.4</ele>
        <time>2022-04-04T13:22:37Z</time>
      </trkpt>
      <trkpt lat="46.55851" lon="5.20982">
        <ele>225.4</ele>
        <time>2022-04-04T13:22:39Z</time>
      </trkpt>
      <trkpt lat="46.55856" lon="5.21061">
        <ele>225.2</ele>
        <time>2022-04-04T13:22:46Z</time>
      </trkpt>
      <trkpt lat="46.55859" lon="5.21106">
        <ele>225</ele>
        <time>2022-04-04T13:22:50Z</time>
      </trkpt>
      <trkpt lat="46.55861" lon="5.21185">
        <ele>224.8</ele>
        <time>2022-04-04T13:22:57Z</time>
      </trkpt>
      <trkpt lat="46.55861" lon="5.2123">
        <ele>224.8</ele>
        <time>2022-04-04T13:23:00Z</time>
      </trkpt>
      <trkpt lat="46.55861" lon="5.21309">
        <ele>224.6</ele>
        <time>2022-04-04T13:23:08Z</time>
      </trkpt>
      <trkpt lat="46.55861" lon="5.2132">
        <ele>224.6</ele>
        <time>2022-04-04T13:23:09Z</time>
      </trkpt>
      <trkpt lat="46.5586" lon="5.21407">
        <ele>225</ele>
        <time>2022-04-04T13:23:16Z</time>
      </trkpt>
      <trkpt lat="46.55861" lon="5.21442">
        <ele>225</ele>
        <time>2022-04-04T13:23:19Z</time>
      </trkpt>
      <trkpt lat="46.55861" lon="5.2152">
        <ele>223.8</ele>
        <time>2022-04-04T13:23:26Z</time>
      </trkpt>
      <trkpt lat="46.55862" lon="5.21534">
        <ele>223.6</ele>
        <time>2022-04-04T13:23:27Z</time>
      </trkpt>
      <trkpt lat="46.55866" lon="5.21577">
        <ele>222</ele>
        <time>2022-04-04T13:23:30Z</time>
      </trkpt>
      <trkpt lat="46.55872" lon="5.21621">
        <ele>220.6</ele>
        <time>2022-04-04T13:23:33Z</time>
      </trkpt>
      <trkpt lat="46.55877" lon="5.21668">
        <ele>219.4</ele>
        <time>2022-04-04T13:23:36Z</time>
      </trkpt>
      <trkpt lat="46.55882" lon="5.21717">
        <ele>218.6</ele>
        <time>2022-04-04T13:23:39Z</time>
      </trkpt>
      <trkpt lat="46.55887" lon="5.2175">
        <ele>218</ele>
        <time>2022-04-04T13:23:40Z</time>
      </trkpt>
      <trkpt lat="46.55889" lon="5.21766">
        <ele>216.4</ele>
        <time>2022-04-04T13:23:42Z</time>
      </trkpt>
      <trkpt lat="46.55897" lon="5.21798">
        <ele>215.6</ele>
        <time>2022-04-04T13:23:44Z</time>
      </trkpt>
      <trkpt lat="46.55901" lon="5.21814">
        <ele>215.2</ele>
        <time>2022-04-04T13:23:45Z</time>
      </trkpt>
      <trkpt lat="46.55914" lon="5.21858">
        <ele>213.6</ele>
        <time>2022-04-04T13:23:48Z</time>
      </trkpt>
      <trkpt lat="46.55923" lon="5.21886">
        <ele>212.6</ele>
        <time>2022-04-04T13:23:50Z</time>
      </trkpt>
      <trkpt lat="46.55927" lon="5.219">
        <ele>212.2</ele>
        <time>2022-04-04T13:23:51Z</time>
      </trkpt>
      <trkpt lat="46.55946" lon="5.21965">
        <ele>211.8</ele>
        <time>2022-04-04T13:23:56Z</time>
      </trkpt>
      <trkpt lat="46.5597" lon="5.22045">
        <ele>211.4</ele>
        <time>2022-04-04T13:24:02Z</time>
      </trkpt>
      <trkpt lat="46.55974" lon="5.22059">
        <ele>211.2</ele>
        <time>2022-04-04T13:24:03Z</time>
      </trkpt>
      <trkpt lat="46.55983" lon="5.22085">
        <ele>210.8</ele>
        <time>2022-04-04T13:24:05Z</time>
      </trkpt>
      <trkpt lat="46.56006" lon="5.22163">
        <ele>210.6</ele>
        <time>2022-04-04T13:24:11Z</time>
      </trkpt>
      <trkpt lat="46.56024" lon="5.22224">
        <ele>210.8</ele>
        <time>2022-04-04T13:24:16Z</time>
      </trkpt>
      <trkpt lat="46.56047" lon="5.22299">
        <ele>211</ele>
        <time>2022-04-04T13:24:22Z</time>
      </trkpt>
      <trkpt lat="46.56067" lon="5.22363">
        <ele>210.6</ele>
        <time>2022-04-04T13:24:27Z</time>
      </trkpt>
      <trkpt lat="46.56089" lon="5.22437">
        <ele>210.4</ele>
        <time>2022-04-04T13:24:33Z</time>
      </trkpt>
      <trkpt lat="46.56093" lon="5.2245">
        <ele>210.4</ele>
        <time>2022-04-04T13:24:34Z</time>
      </trkpt>
      <trkpt lat="46.56118" lon="5.22534">
        <ele>210.4</ele>
        <time>2022-04-04T13:24:40Z</time>
      </trkpt>
      <trkpt lat="46.56122" lon="5.22546">
        <ele>210.4</ele>
        <time>2022-04-04T13:24:42Z</time>
      </trkpt>
      <trkpt lat="46.56129" lon="5.2257">
        <ele>210.4</ele>
        <time>2022-04-04T13:24:44Z</time>
      </trkpt>
      <trkpt lat="46.56157" lon="5.22651">
        <ele>210.8</ele>
        <time>2022-04-04T13:24:51Z</time>
      </trkpt>
      <trkpt lat="46.56189" lon="5.22736">
        <ele>211.4</ele>
        <time>2022-04-04T13:24:58Z</time>
      </trkpt>
      <trkpt lat="46.56193" lon="5.22746">
        <ele>211.6</ele>
        <time>2022-04-04T13:25:00Z</time>
      </trkpt>
      <trkpt lat="46.562" lon="5.22764">
        <ele>211.8</ele>
        <time>2022-04-04T13:25:02Z</time>
      </trkpt>
      <trkpt lat="46.56209" lon="5.22789">
        <ele>212.6</ele>
        <time>2022-04-04T13:25:05Z</time>
      </trkpt>
      <trkpt lat="46.56227" lon="5.22836">
        <ele>213.8</ele>
        <time>2022-04-04T13:25:11Z</time>
      </trkpt>
      <trkpt lat="46.56231" lon="5.2285">
        <ele>214</ele>
        <time>2022-04-04T13:25:12Z</time>
      </trkpt>
      <trkpt lat="46.56238" lon="5.2287">
        <ele>215</ele>
        <time>2022-04-04T13:25:15Z</time>
      </trkpt>
      <trkpt lat="46.56243" lon="5.22889">
        <ele>215.8</ele>
        <time>2022-04-04T13:25:18Z</time>
      </trkpt>
      <trkpt lat="46.56246" lon="5.22894">
        <ele>216</ele>
        <time>2022-04-04T13:25:19Z</time>
      </trkpt>
      <trkpt lat="46.56252" lon="5.2291">
        <ele>217</ele>
        <time>2022-04-04T13:25:22Z</time>
      </trkpt>
      <trkpt lat="46.56253" lon="5.22916">
        <ele>217.8</ele>
        <time>2022-04-04T13:25:23Z</time>
      </trkpt>
      <trkpt lat="46.56256" lon="5.22923">
        <ele>218</ele>
        <time>2022-04-04T13:25:24Z</time>
      </trkpt>
      <trkpt lat="46.56258" lon="5.22929">
        <ele>218.4</ele>
        <time>2022-04-04T13:25:25Z</time>
      </trkpt>
      <trkpt lat="46.56269" lon="5.22954">
        <ele>219.4</ele>
        <time>2022-04-04T13:25:29Z</time>
      </trkpt>
      <trkpt lat="46.56278" lon="5.22979">
        <ele>220.4</ele>
        <time>2022-04-04T13:25:33Z</time>
      </trkpt>
      <trkpt lat="46.56278" lon="5.22979">
        <ele>220.8</ele>
        <time>2022-04-04T13:25:34Z</time>
      </trkpt>
      <trkpt lat="46.56283" lon="5.22992">
        <ele>221</ele>
        <time>2022-04-04T13:25:35Z</time>
      </trkpt>
      <trkpt lat="46.56288" lon="5.23011">
        <ele>221.8</ele>
        <time>2022-04-04T13:25:38Z</time>
      </trkpt>
      <trkpt lat="46.56289" lon="5.23016">
        <ele>222</ele>
        <time>2022-04-04T13:25:39Z</time>
      </trkpt>
      <trkpt lat="46.56296" lon="5.23033">
        <ele>222.8</ele>
        <time>2022-04-04T13:25:43Z</time>
      </trkpt>
      <trkpt lat="46.56308" lon="5.23057">
        <ele>224</ele>
        <time>2022-04-04T13:25:46Z</time>
      </trkpt>
      <trkpt lat="46.56312" lon="5.23068">
        <ele>224.4</ele>
        <time>2022-04-04T13:25:48Z</time>
      </trkpt>
      <trkpt lat="46.56319" lon="5.2308">
        <ele>225</ele>
        <time>2022-04-04T13:25:50Z</time>
      </trkpt>
      <trkpt lat="46.56329" lon="5.23094">
        <ele>225.2</ele>
        <time>2022-04-04T13:25:52Z</time>
      </trkpt>
      <trkpt lat="46.56329" lon="5.231">
        <ele>225.4</ele>
        <time>2022-04-04T13:25:53Z</time>
      </trkpt>
      <trkpt lat="46.56329" lon="5.23106">
        <ele>225.6</ele>
        <time>2022-04-04T13:25:54Z</time>
      </trkpt>
      <trkpt lat="46.56332" lon="5.2312">
        <ele>226</ele>
        <time>2022-04-04T13:25:56Z</time>
      </trkpt>
      <trkpt lat="46.56332" lon="5.23127">
        <ele>226.2</ele>
        <time>2022-04-04T13:25:57Z</time>
      </trkpt>
      <trkpt lat="46.56336" lon="5.23141">
        <ele>226.6</ele>
        <time>2022-04-04T13:25:59Z</time>
      </trkpt>
      <trkpt lat="46.56341" lon="5.23155">
        <ele>226.8</ele>
        <time>2022-04-04T13:26:01Z</time>
      </trkpt>
      <trkpt lat="46.5635" lon="5.23176">
        <ele>227</ele>
        <time>2022-04-04T13:26:04Z</time>
      </trkpt>
      <trkpt lat="46.56355" lon="5.23191">
        <ele>227.2</ele>
        <time>2022-04-04T13:26:06Z</time>
      </trkpt>
      <trkpt lat="46.56372" lon="5.23239">
        <ele>227.4</ele>
        <time>2022-04-04T13:26:12Z</time>
      </trkpt>
      <trkpt lat="46.56393" lon="5.23292">
        <ele>227.6</ele>
        <time>2022-04-04T13:26:18Z</time>
      </trkpt>
      <trkpt lat="46.56416" lon="5.23353">
        <ele>227.6</ele>
        <time>2022-04-04T13:26:25Z</time>
      </trkpt>
      <trkpt lat="46.56443" lon="5.23412">
        <ele>227.6</ele>
        <time>2022-04-04T13:26:32Z</time>
      </trkpt>
      <trkpt lat="46.56447" lon="5.23421">
        <ele>227.6</ele>
        <time>2022-04-04T13:26:33Z</time>
      </trkpt>
      <trkpt lat="46.56462" lon="5.23446">
        <ele>227.6</ele>
        <time>2022-04-04T13:26:36Z</time>
      </trkpt>
      <trkpt lat="46.56466" lon="5.23454">
        <ele>227.6</ele>
        <time>2022-04-04T13:26:37Z</time>
      </trkpt>
      <trkpt lat="46.56472" lon="5.23462">
        <ele>227.6</ele>
        <time>2022-04-04T13:26:38Z</time>
      </trkpt>
      <trkpt lat="46.56499" lon="5.23499">
        <ele>227.6</ele>
        <time>2022-04-04T13:26:43Z</time>
      </trkpt>
      <trkpt lat="46.5654" lon="5.23557">
        <ele>227.4</ele>
        <time>2022-04-04T13:26:51Z</time>
      </trkpt>
      <trkpt lat="46.56563" lon="5.23581">
        <ele>227.4</ele>
        <time>2022-04-04T13:26:56Z</time>
      </trkpt>
      <trkpt lat="46.56576" lon="5.23591">
        <ele>227.4</ele>
        <time>2022-04-04T13:26:57Z</time>
      </trkpt>
      <trkpt lat="46.56604" lon="5.23608">
        <ele>227.4</ele>
        <time>2022-04-04T13:27:01Z</time>
      </trkpt>
      <trkpt lat="46.56616" lon="5.23617">
        <ele>227.4</ele>
        <time>2022-04-04T13:27:03Z</time>
      </trkpt>
      <trkpt lat="46.56642" lon="5.23638">
        <ele>227.2</ele>
        <time>2022-04-04T13:27:07Z</time>
      </trkpt>
      <trkpt lat="46.56682" lon="5.23681">
        <ele>226.6</ele>
        <time>2022-04-04T13:27:13Z</time>
      </trkpt>
      <trkpt lat="46.56708" lon="5.23719">
        <ele>226</ele>
        <time>2022-04-04T13:27:17Z</time>
      </trkpt>
      <trkpt lat="46.56727" lon="5.23747">
        <ele>225.2</ele>
        <time>2022-04-04T13:27:20Z</time>
      </trkpt>
      <trkpt lat="46.56733" lon="5.23757">
        <ele>224.8</ele>
        <time>2022-04-04T13:27:21Z</time>
      </trkpt>
      <trkpt lat="46.56744" lon="5.23777">
        <ele>224.2</ele>
        <time>2022-04-04T13:27:23Z</time>
      </trkpt>
      <trkpt lat="46.56754" lon="5.23796">
        <ele>223.8</ele>
        <time>2022-04-04T13:27:25Z</time>
      </trkpt>
      <trkpt lat="46.56763" lon="5.23815">
        <ele>223.8</ele>
        <time>2022-04-04T13:27:28Z</time>
      </trkpt>
      <trkpt lat="46.56773" lon="5.23832">
        <ele>223.8</ele>
        <time>2022-04-04T13:27:29Z</time>
      </trkpt>
      <trkpt lat="46.5679" lon="5.23855">
        <ele>224</ele>
        <time>2022-04-04T13:27:32Z</time>
      </trkpt>
      <trkpt lat="46.56822" lon="5.23882">
        <ele>224</ele>
        <time>2022-04-04T13:27:37Z</time>
      </trkpt>
      <trkpt lat="46.56867" lon="5.23907">
        <ele>223.8</ele>
        <time>2022-04-04T13:27:44Z</time>
      </trkpt>
      <trkpt lat="46.56905" lon="5.23929">
        <ele>225</ele>
        <time>2022-04-04T13:27:50Z</time>
      </trkpt>
      <trkpt lat="46.56917" lon="5.23935">
        <ele>225.2</ele>
        <time>2022-04-04T13:27:52Z</time>
      </trkpt>
      <trkpt lat="46.56959" lon="5.23952">
        <ele>226</ele>
        <time>2022-04-04T13:27:58Z</time>
      </trkpt>
      <trkpt lat="46.56966" lon="5.23955">
        <ele>226.4</ele>
        <time>2022-04-04T13:27:59Z</time>
      </trkpt>
      <trkpt lat="46.57024" lon="5.23973">
        <ele>227</ele>
        <time>2022-04-04T13:28:07Z</time>
      </trkpt>
      <trkpt lat="46.57031" lon="5.23975">
        <ele>227</ele>
        <time>2022-04-04T13:28:08Z</time>
      </trkpt>
      <trkpt lat="46.57089" lon="5.23994">
        <ele>227</ele>
        <time>2022-04-04T13:28:16Z</time>
      </trkpt>
      <trkpt lat="46.57096" lon="5.23997">
        <ele>227</ele>
        <time>2022-04-04T13:28:17Z</time>
      </trkpt>
      <trkpt lat="46.5711" lon="5.24005">
        <ele>227</ele>
        <time>2022-04-04T13:28:19Z</time>
      </trkpt>
      <trkpt lat="46.57123" lon="5.24016">
        <ele>226.8</ele>
        <time>2022-04-04T13:28:21Z</time>
      </trkpt>
      <trkpt lat="46.57151" lon="5.24056">
        <ele>226.6</ele>
        <time>2022-04-04T13:28:26Z</time>
      </trkpt>
      <trkpt lat="46.57177" lon="5.2411">
        <ele>226</ele>
        <time>2022-04-04T13:28:31Z</time>
      </trkpt>
      <trkpt lat="46.57193" lon="5.24147">
        <ele>225.2</ele>
        <time>2022-04-04T13:28:34Z</time>
      </trkpt>
      <trkpt lat="46.57199" lon="5.24159">
        <ele>225</ele>
        <time>2022-04-04T13:28:35Z</time>
      </trkpt>
      <trkpt lat="46.57207" lon="5.2417">
        <ele>224</ele>
        <time>2022-04-04T13:28:36Z</time>
      </trkpt>
      <trkpt lat="46.57216" lon="5.24178">
        <ele>223</ele>
        <time>2022-04-04T13:28:38Z</time>
      </trkpt>
      <trkpt lat="46.57237" lon="5.24191">
        <ele>222.4</ele>
        <time>2022-04-04T13:28:40Z</time>
      </trkpt>
      <trkpt lat="46.57259" lon="5.24207">
        <ele>222</ele>
        <time>2022-04-04T13:28:41Z</time>
      </trkpt>
      <trkpt lat="46.57269" lon="5.24218">
        <ele>220.2</ele>
        <time>2022-04-04T13:28:43Z</time>
      </trkpt>
      <trkpt lat="46.57285" lon="5.24246">
        <ele>219.6</ele>
        <time>2022-04-04T13:28:44Z</time>
      </trkpt>
      <trkpt lat="46.5729" lon="5.24263">
        <ele>218.4</ele>
        <time>2022-04-04T13:28:45Z</time>
      </trkpt>
      <trkpt lat="46.57299" lon="5.24298">
        <ele>216.8</ele>
        <time>2022-04-04T13:28:47Z</time>
      </trkpt>
      <trkpt lat="46.57302" lon="5.24316">
        <ele>215.4</ele>
        <time>2022-04-04T13:28:49Z</time>
      </trkpt>
      <trkpt lat="46.57308" lon="5.24369">
        <ele>214</ele>
        <time>2022-04-04T13:28:51Z</time>
      </trkpt>
      <trkpt lat="46.57308" lon="5.24404">
        <ele>212.8</ele>
        <time>2022-04-04T13:28:53Z</time>
      </trkpt>
      <trkpt lat="46.57307" lon="5.2442">
        <ele>211.2</ele>
        <time>2022-04-04T13:28:54Z</time>
      </trkpt>
      <trkpt lat="46.57302" lon="5.24449">
        <ele>210</ele>
        <time>2022-04-04T13:28:56Z</time>
      </trkpt>
      <trkpt lat="46.57294" lon="5.24476">
        <ele>208.8</ele>
        <time>2022-04-04T13:28:58Z</time>
      </trkpt>
      <trkpt lat="46.57291" lon="5.24489">
        <ele>207.6</ele>
        <time>2022-04-04T13:28:59Z</time>
      </trkpt>
      <trkpt lat="46.57284" lon="5.24513">
        <ele>206.8</ele>
        <time>2022-04-04T13:29:01Z</time>
      </trkpt>
      <trkpt lat="46.57281" lon="5.24525">
        <ele>206.6</ele>
        <time>2022-04-04T13:29:02Z</time>
      </trkpt>
      <trkpt lat="46.57277" lon="5.24548">
        <ele>206</ele>
        <time>2022-04-04T13:29:04Z</time>
      </trkpt>
      <trkpt lat="46.57276" lon="5.24559">
        <ele>205.8</ele>
        <time>2022-04-04T13:29:05Z</time>
      </trkpt>
      <trkpt lat="46.57276" lon="5.24568">
        <ele>205.4</ele>
        <time>2022-04-04T13:29:06Z</time>
      </trkpt>
      <trkpt lat="46.57279" lon="5.24582">
        <ele>205</ele>
        <time>2022-04-04T13:29:08Z</time>
      </trkpt>
      <trkpt lat="46.57281" lon="5.24594">
        <ele>204.4</ele>
        <time>2022-04-04T13:29:11Z</time>
      </trkpt>
      <trkpt lat="46.57282" lon="5.24596">
        <ele>204</ele>
        <time>2022-04-04T13:29:12Z</time>
      </trkpt>
      <trkpt lat="46.57282" lon="5.24597">
        <ele>203.4</ele>
        <time>2022-04-04T13:29:14Z</time>
      </trkpt>
      <trkpt lat="46.5728" lon="5.24601">
        <ele>202</ele>
        <time>2022-04-04T13:30:31Z</time>
      </trkpt>
      <trkpt lat="46.57279" lon="5.24621">
        <ele>201.8</ele>
        <time>2022-04-04T13:30:36Z</time>
      </trkpt>
      <trkpt lat="46.57279" lon="5.24629">
        <ele>202</ele>
        <time>2022-04-04T13:30:39Z</time>
      </trkpt>
      <trkpt lat="46.57279" lon="5.24633">
        <ele>202</ele>
        <time>2022-04-04T13:30:41Z</time>
      </trkpt>
      <trkpt lat="46.57276" lon="5.24641">
        <ele>202.2</ele>
        <time>2022-04-04T13:30:44Z</time>
      </trkpt>
      <trkpt lat="46.5727" lon="5.24646">
        <ele>202.2</ele>
        <time>2022-04-04T13:30:46Z</time>
      </trkpt>
      <trkpt lat="46.57265" lon="5.24648">
        <ele>202.2</ele>
        <time>2022-04-04T13:30:47Z</time>
      </trkpt>
      <trkpt lat="46.57248" lon="5.24654">
        <ele>202.4</ele>
        <time>2022-04-04T13:30:50Z</time>
      </trkpt>
      <trkpt lat="46.57205" lon="5.24671">
        <ele>202.8</ele>
        <time>2022-04-04T13:30:58Z</time>
      </trkpt>
      <trkpt lat="46.57187" lon="5.24678">
        <ele>203.2</ele>
        <time>2022-04-04T13:31:01Z</time>
      </trkpt>
      <trkpt lat="46.57161" lon="5.24687">
        <ele>203.8</ele>
        <time>2022-04-04T13:31:06Z</time>
      </trkpt>
      <trkpt lat="46.57133" lon="5.24691">
        <ele>204</ele>
        <time>2022-04-04T13:31:11Z</time>
      </trkpt>
      <trkpt lat="46.57112" lon="5.24688">
        <ele>204.2</ele>
        <time>2022-04-04T13:31:15Z</time>
      </trkpt>
      <trkpt lat="46.57096" lon="5.24682">
        <ele>204.8</ele>
        <time>2022-04-04T13:31:18Z</time>
      </trkpt>
      <trkpt lat="46.5708" lon="5.24677">
        <ele>205.4</ele>
        <time>2022-04-04T13:31:21Z</time>
      </trkpt>
      <trkpt lat="46.57043" lon="5.24664">
        <ele>206.2</ele>
        <time>2022-04-04T13:31:28Z</time>
      </trkpt>
      <trkpt lat="46.57038" lon="5.24662">
        <ele>206.4</ele>
        <time>2022-04-04T13:31:29Z</time>
      </trkpt>
      <trkpt lat="46.57011" lon="5.24653">
        <ele>207.6</ele>
        <time>2022-04-04T13:31:35Z</time>
      </trkpt>
      <trkpt lat="46.56989" lon="5.24646">
        <ele>207.8</ele>
        <time>2022-04-04T13:31:38Z</time>
      </trkpt>
      <trkpt lat="46.56963" lon="5.24636">
        <ele>208.6</ele>
        <time>2022-04-04T13:31:43Z</time>
      </trkpt>
      <trkpt lat="46.56931" lon="5.24626">
        <ele>209.6</ele>
        <time>2022-04-04T13:31:49Z</time>
      </trkpt>
      <trkpt lat="46.56921" lon="5.24622">
        <ele>210</ele>
        <time>2022-04-04T13:31:51Z</time>
      </trkpt>
      <trkpt lat="46.56889" lon="5.24611">
        <ele>210.8</ele>
        <time>2022-04-04T13:31:57Z</time>
      </trkpt>
      <trkpt lat="46.56872" lon="5.24605">
        <ele>211.4</ele>
        <time>2022-04-04T13:32:00Z</time>
      </trkpt>
      <trkpt lat="46.56856" lon="5.24599">
        <ele>211.8</ele>
        <time>2022-04-04T13:32:03Z</time>
      </trkpt>
      <trkpt lat="46.56828" lon="5.24589">
        <ele>212.2</ele>
        <time>2022-04-04T13:32:08Z</time>
      </trkpt>
      <trkpt lat="46.56817" lon="5.24585">
        <ele>212.2</ele>
        <time>2022-04-04T13:32:10Z</time>
      </trkpt>
      <trkpt lat="46.56778" lon="5.24571">
        <ele>212.8</ele>
        <time>2022-04-04T13:32:17Z</time>
      </trkpt>
      <trkpt lat="46.56757" lon="5.24563">
        <ele>213.4</ele>
        <time>2022-04-04T13:32:21Z</time>
      </trkpt>
      <trkpt lat="46.56726" lon="5.24552">
        <ele>214</ele>
        <time>2022-04-04T13:32:27Z</time>
      </trkpt>
      <trkpt lat="46.56702" lon="5.24544">
        <ele>214.6</ele>
        <time>2022-04-04T13:32:32Z</time>
      </trkpt>
      <trkpt lat="46.56692" lon="5.24541">
        <ele>215.2</ele>
        <time>2022-04-04T13:32:34Z</time>
      </trkpt>
      <trkpt lat="46.56671" lon="5.24534">
        <ele>216.2</ele>
        <time>2022-04-04T13:32:39Z</time>
      </trkpt>
      <trkpt lat="46.56662" lon="5.24531">
        <ele>216.8</ele>
        <time>2022-04-04T13:32:41Z</time>
      </trkpt>
      <trkpt lat="46.56648" lon="5.24526">
        <ele>217.2</ele>
        <time>2022-04-04T13:32:44Z</time>
      </trkpt>
      <trkpt lat="46.56635" lon="5.24522">
        <ele>218.4</ele>
        <time>2022-04-04T13:32:47Z</time>
      </trkpt>
      <trkpt lat="46.56618" lon="5.24516">
        <ele>219.2</ele>
        <time>2022-04-04T13:32:51Z</time>
      </trkpt>
      <trkpt lat="46.56613" lon="5.24515">
        <ele>219.4</ele>
        <time>2022-04-04T13:32:52Z</time>
      </trkpt>
      <trkpt lat="46.56583" lon="5.24504">
        <ele>220.6</ele>
        <time>2022-04-04T13:32:59Z</time>
      </trkpt>
      <trkpt lat="46.56578" lon="5.24502">
        <ele>221</ele>
        <time>2022-04-04T13:33:01Z</time>
      </trkpt>
      <trkpt lat="46.56569" lon="5.24498">
        <ele>221.4</ele>
        <time>2022-04-04T13:33:02Z</time>
      </trkpt>
      <trkpt lat="46.56559" lon="5.24495">
        <ele>221.6</ele>
        <time>2022-04-04T13:33:04Z</time>
      </trkpt>
      <trkpt lat="46.5653" lon="5.24484">
        <ele>222.2</ele>
        <time>2022-04-04T13:33:10Z</time>
      </trkpt>
      <trkpt lat="46.56505" lon="5.24476">
        <ele>222.6</ele>
        <time>2022-04-04T13:33:15Z</time>
      </trkpt>
      <trkpt lat="46.5648" lon="5.24467">
        <ele>223</ele>
        <time>2022-04-04T13:33:20Z</time>
      </trkpt>
      <trkpt lat="46.56436" lon="5.24453">
        <ele>223.6</ele>
        <time>2022-04-04T13:33:29Z</time>
      </trkpt>
      <trkpt lat="46.56413" lon="5.24445">
        <ele>224.8</ele>
        <time>2022-04-04T13:33:34Z</time>
      </trkpt>
      <trkpt lat="46.56365" lon="5.24429">
        <ele>226</ele>
        <time>2022-04-04T13:33:44Z</time>
      </trkpt>
      <trkpt lat="46.56361" lon="5.24428">
        <ele>226.2</ele>
        <time>2022-04-04T13:33:45Z</time>
      </trkpt>
      <trkpt lat="46.56347" lon="5.24423">
        <ele>227.2</ele>
        <time>2022-04-04T13:33:48Z</time>
      </trkpt>
      <trkpt lat="46.56318" lon="5.24413">
        <ele>228.2</ele>
        <time>2022-04-04T13:33:55Z</time>
      </trkpt>
      <trkpt lat="46.56308" lon="5.24409">
        <ele>228.4</ele>
        <time>2022-04-04T13:33:56Z</time>
      </trkpt>
      <trkpt lat="46.56253" lon="5.24389">
        <ele>229.2</ele>
        <time>2022-04-04T13:34:06Z</time>
      </trkpt>
      <trkpt lat="46.56235" lon="5.24384">
        <ele>229.4</ele>
        <time>2022-04-04T13:34:09Z</time>
      </trkpt>
      <trkpt lat="46.56195" lon="5.2437">
        <ele>229.4</ele>
        <time>2022-04-04T13:34:17Z</time>
      </trkpt>
      <trkpt lat="46.56141" lon="5.24351">
        <ele>228.8</ele>
        <time>2022-04-04T13:34:25Z</time>
      </trkpt>
      <trkpt lat="46.56123" lon="5.24345">
        <ele>228.8</ele>
        <time>2022-04-04T13:34:28Z</time>
      </trkpt>
      <trkpt lat="46.56066" lon="5.24325">
        <ele>229</ele>
        <time>2022-04-04T13:34:37Z</time>
      </trkpt>
      <trkpt lat="46.56054" lon="5.2432">
        <ele>229</ele>
        <time>2022-04-04T13:34:39Z</time>
      </trkpt>
      <trkpt lat="46.55995" lon="5.24304">
        <ele>229.2</ele>
        <time>2022-04-04T13:34:48Z</time>
      </trkpt>
      <trkpt lat="46.55988" lon="5.24302">
        <ele>229.2</ele>
        <time>2022-04-04T13:34:49Z</time>
      </trkpt>
      <trkpt lat="46.55928" lon="5.24296">
        <ele>228.6</ele>
        <time>2022-04-04T13:34:57Z</time>
      </trkpt>
      <trkpt lat="46.55912" lon="5.24297">
        <ele>228.4</ele>
        <time>2022-04-04T13:34:59Z</time>
      </trkpt>
      <trkpt lat="46.55876" lon="5.24299">
        <ele>227.6</ele>
        <time>2022-04-04T13:35:03Z</time>
      </trkpt>
      <trkpt lat="46.55859" lon="5.24301">
        <ele>227.2</ele>
        <time>2022-04-04T13:35:05Z</time>
      </trkpt>
      <trkpt lat="46.55816" lon="5.24303">
        <ele>226.2</ele>
        <time>2022-04-04T13:35:10Z</time>
      </trkpt>
      <trkpt lat="46.55758" lon="5.24308">
        <ele>225</ele>
        <time>2022-04-04T13:35:17Z</time>
      </trkpt>
      <trkpt lat="46.55741" lon="5.24309">
        <ele>224.6</ele>
        <time>2022-04-04T13:35:19Z</time>
      </trkpt>
      <trkpt lat="46.5569" lon="5.24313">
        <ele>224</ele>
        <time>2022-04-04T13:35:25Z</time>
      </trkpt>
      <trkpt lat="46.55663" lon="5.24317">
        <ele>223.6</ele>
        <time>2022-04-04T13:35:28Z</time>
      </trkpt>
      <trkpt lat="46.55639" lon="5.24318">
        <ele>222.8</ele>
        <time>2022-04-04T13:35:31Z</time>
      </trkpt>
      <trkpt lat="46.55592" lon="5.24322">
        <ele>222.4</ele>
        <time>2022-04-04T13:35:37Z</time>
      </trkpt>
      <trkpt lat="46.55533" lon="5.24327">
        <ele>222.2</ele>
        <time>2022-04-04T13:35:45Z</time>
      </trkpt>
      <trkpt lat="46.55533" lon="5.24327">
        <ele>222.2</ele>
        <time>2022-04-04T13:35:46Z</time>
      </trkpt>
      <trkpt lat="46.55478" lon="5.2433">
        <ele>222.6</ele>
        <time>2022-04-04T13:35:53Z</time>
      </trkpt>
      <trkpt lat="46.55449" lon="5.24331">
        <ele>222.8</ele>
        <time>2022-04-04T13:35:58Z</time>
      </trkpt>
      <trkpt lat="46.55413" lon="5.24332">
        <ele>223.4</ele>
        <time>2022-04-04T13:36:04Z</time>
      </trkpt>
      <trkpt lat="46.554" lon="5.24333">
        <ele>224</ele>
        <time>2022-04-04T13:36:06Z</time>
      </trkpt>
      <trkpt lat="46.55371" lon="5.24337">
        <ele>224.4</ele>
        <time>2022-04-04T13:36:11Z</time>
      </trkpt>
      <trkpt lat="46.55317" lon="5.24342">
        <ele>224.6</ele>
        <time>2022-04-04T13:36:20Z</time>
      </trkpt>
      <trkpt lat="46.55263" lon="5.24346">
        <ele>224.2</ele>
        <time>2022-04-04T13:36:28Z</time>
      </trkpt>
      <trkpt lat="46.55206" lon="5.24347">
        <ele>223.8</ele>
        <time>2022-04-04T13:36:37Z</time>
      </trkpt>
      <trkpt lat="46.55157" lon="5.24354">
        <ele>223.8</ele>
        <time>2022-04-04T13:36:45Z</time>
      </trkpt>
      <trkpt lat="46.55111" lon="5.24371">
        <ele>224.4</ele>
        <time>2022-04-04T13:36:53Z</time>
      </trkpt>
      <trkpt lat="46.55087" lon="5.2439">
        <ele>225.2</ele>
        <time>2022-04-04T13:36:58Z</time>
      </trkpt>
      <trkpt lat="46.55081" lon="5.24394">
        <ele>225.2</ele>
        <time>2022-04-04T13:36:59Z</time>
      </trkpt>
      <trkpt lat="46.55068" lon="5.24404">
        <ele>225.8</ele>
        <time>2022-04-04T13:37:02Z</time>
      </trkpt>
      <trkpt lat="46.55063" lon="5.24407">
        <ele>226</ele>
        <time>2022-04-04T13:37:04Z</time>
      </trkpt>
      <trkpt lat="46.55052" lon="5.24414">
        <ele>226.2</ele>
        <time>2022-04-04T13:37:05Z</time>
      </trkpt>
      <trkpt lat="46.55024" lon="5.2443">
        <ele>226.8</ele>
        <time>2022-04-04T13:37:10Z</time>
      </trkpt>
      <trkpt lat="46.55007" lon="5.24438">
        <ele>227.4</ele>
        <time>2022-04-04T13:37:13Z</time>
      </trkpt>
      <trkpt lat="46.54985" lon="5.2445">
        <ele>228</ele>
        <time>2022-04-04T13:37:17Z</time>
      </trkpt>
      <trkpt lat="46.54943" lon="5.24475">
        <ele>228.4</ele>
        <time>2022-04-04T13:37:24Z</time>
      </trkpt>
      <trkpt lat="46.549" lon="5.24504">
        <ele>227.8</ele>
        <time>2022-04-04T13:37:31Z</time>
      </trkpt>
      <trkpt lat="46.54846" lon="5.24537">
        <ele>227.6</ele>
        <time>2022-04-04T13:37:39Z</time>
      </trkpt>
      <trkpt lat="46.54833" lon="5.24544">
        <ele>227.4</ele>
        <time>2022-04-04T13:37:41Z</time>
      </trkpt>
      <trkpt lat="46.54778" lon="5.24577">
        <ele>226.2</ele>
        <time>2022-04-04T13:37:48Z</time>
      </trkpt>
      <trkpt lat="46.54761" lon="5.24584">
        <ele>226</ele>
        <time>2022-04-04T13:37:50Z</time>
      </trkpt>
      <trkpt lat="46.54735" lon="5.24588">
        <ele>225</ele>
        <time>2022-04-04T13:37:53Z</time>
      </trkpt>
      <trkpt lat="46.54727" lon="5.24588">
        <ele>224.6</ele>
        <time>2022-04-04T13:37:54Z</time>
      </trkpt>
      <trkpt lat="46.54693" lon="5.24583">
        <ele>223.6</ele>
        <time>2022-04-04T13:37:58Z</time>
      </trkpt>
      <trkpt lat="46.54631" lon="5.24568">
        <ele>222.6</ele>
        <time>2022-04-04T13:38:05Z</time>
      </trkpt>
      <trkpt lat="46.54596" lon="5.2456">
        <ele>221.6</ele>
        <time>2022-04-04T13:38:09Z</time>
      </trkpt>
      <trkpt lat="46.5455" lon="5.24549">
        <ele>220.6</ele>
        <time>2022-04-04T13:38:14Z</time>
      </trkpt>
      <trkpt lat="46.54515" lon="5.24541">
        <ele>219.4</ele>
        <time>2022-04-04T13:38:18Z</time>
      </trkpt>
      <trkpt lat="46.54506" lon="5.24539">
        <ele>219.2</ele>
        <time>2022-04-04T13:38:19Z</time>
      </trkpt>
      <trkpt lat="46.54481" lon="5.24534">
        <ele>218.4</ele>
        <time>2022-04-04T13:38:22Z</time>
      </trkpt>
      <trkpt lat="46.54439" lon="5.24525">
        <ele>217.2</ele>
        <time>2022-04-04T13:38:27Z</time>
      </trkpt>
      <trkpt lat="46.54429" lon="5.24522">
        <ele>217.2</ele>
        <time>2022-04-04T13:38:28Z</time>
      </trkpt>
      <trkpt lat="46.5437" lon="5.2451">
        <ele>216.6</ele>
        <time>2022-04-04T13:38:35Z</time>
      </trkpt>
      <trkpt lat="46.54354" lon="5.24506">
        <ele>216.4</ele>
        <time>2022-04-04T13:38:37Z</time>
      </trkpt>
      <trkpt lat="46.54295" lon="5.24494">
        <ele>216.2</ele>
        <time>2022-04-04T13:38:44Z</time>
      </trkpt>
      <trkpt lat="46.54267" lon="5.24488">
        <ele>215.8</ele>
        <time>2022-04-04T13:38:47Z</time>
      </trkpt>
      <trkpt lat="46.54223" lon="5.2448">
        <ele>215.2</ele>
        <time>2022-04-04T13:38:52Z</time>
      </trkpt>
      <trkpt lat="46.54189" lon="5.24474">
        <ele>214.8</ele>
        <time>2022-04-04T13:38:56Z</time>
      </trkpt>
      <trkpt lat="46.54131" lon="5.24463">
        <ele>214.4</ele>
        <time>2022-04-04T13:39:03Z</time>
      </trkpt>
      <trkpt lat="46.54107" lon="5.24459">
        <ele>214.4</ele>
        <time>2022-04-04T13:39:06Z</time>
      </trkpt>
      <trkpt lat="46.54048" lon="5.24449">
        <ele>214.4</ele>
        <time>2022-04-04T13:39:14Z</time>
      </trkpt>
      <trkpt lat="46.54041" lon="5.24447">
        <ele>214.4</ele>
        <time>2022-04-04T13:39:15Z</time>
      </trkpt>
      <trkpt lat="46.53995" lon="5.24438">
        <ele>215</ele>
        <time>2022-04-04T13:39:22Z</time>
      </trkpt>
      <trkpt lat="46.53949" lon="5.2443">
        <ele>216.2</ele>
        <time>2022-04-04T13:39:30Z</time>
      </trkpt>
      <trkpt lat="46.53918" lon="5.24425">
        <ele>217.2</ele>
        <time>2022-04-04T13:39:36Z</time>
      </trkpt>
      <trkpt lat="46.53913" lon="5.24424">
        <ele>217.4</ele>
        <time>2022-04-04T13:39:37Z</time>
      </trkpt>
      <trkpt lat="46.53889" lon="5.24419">
        <ele>218.4</ele>
        <time>2022-04-04T13:39:42Z</time>
      </trkpt>
      <trkpt lat="46.53875" lon="5.24416">
        <ele>219.2</ele>
        <time>2022-04-04T13:39:45Z</time>
      </trkpt>
      <trkpt lat="46.5386" lon="5.24414">
        <ele>219.6</ele>
        <time>2022-04-04T13:39:48Z</time>
      </trkpt>
      <trkpt lat="46.53836" lon="5.24409">
        <ele>220.6</ele>
        <time>2022-04-04T13:39:53Z</time>
      </trkpt>
      <trkpt lat="46.53827" lon="5.24407">
        <ele>221</ele>
        <time>2022-04-04T13:39:55Z</time>
      </trkpt>
      <trkpt lat="46.53813" lon="5.24405">
        <ele>221.8</ele>
        <time>2022-04-04T13:39:58Z</time>
      </trkpt>
      <trkpt lat="46.53789" lon="5.24401">
        <ele>222.6</ele>
        <time>2022-04-04T13:40:03Z</time>
      </trkpt>
      <trkpt lat="46.53779" lon="5.24399">
        <ele>222.8</ele>
        <time>2022-04-04T13:40:05Z</time>
      </trkpt>
      <trkpt lat="46.53748" lon="5.24393">
        <ele>223.4</ele>
        <time>2022-04-04T13:40:11Z</time>
      </trkpt>
      <trkpt lat="46.53697" lon="5.24384">
        <ele>223.8</ele>
        <time>2022-04-04T13:40:20Z</time>
      </trkpt>
      <trkpt lat="46.53691" lon="5.24383">
        <ele>224</ele>
        <time>2022-04-04T13:40:21Z</time>
      </trkpt>
      <trkpt lat="46.53633" lon="5.24373">
        <ele>224.8</ele>
        <time>2022-04-04T13:40:31Z</time>
      </trkpt>
      <trkpt lat="46.53615" lon="5.24371">
        <ele>224.8</ele>
        <time>2022-04-04T13:40:34Z</time>
      </trkpt>
      <trkpt lat="46.53579" lon="5.24363">
        <ele>225.2</ele>
        <time>2022-04-04T13:40:40Z</time>
      </trkpt>
      <trkpt lat="46.53547" lon="5.24358">
        <ele>225.6</ele>
        <time>2022-04-04T13:40:45Z</time>
      </trkpt>
      <trkpt lat="46.5349" lon="5.24347">
        <ele>225.8</ele>
        <time>2022-04-04T13:40:54Z</time>
      </trkpt>
      <trkpt lat="46.53433" lon="5.24337">
        <ele>226</ele>
        <time>2022-04-04T13:41:03Z</time>
      </trkpt>
      <trkpt lat="46.5342" lon="5.24335">
        <ele>226</ele>
        <time>2022-04-04T13:41:05Z</time>
      </trkpt>
      <trkpt lat="46.53388" lon="5.24329">
        <ele>226.2</ele>
        <time>2022-04-04T13:41:10Z</time>
      </trkpt>
      <trkpt lat="46.53347" lon="5.24321">
        <ele>227</ele>
        <time>2022-04-04T13:41:16Z</time>
      </trkpt>
      <trkpt lat="46.53288" lon="5.2431">
        <ele>227.2</ele>
        <time>2022-04-04T13:41:24Z</time>
      </trkpt>
      <trkpt lat="46.53281" lon="5.24309">
        <ele>227</ele>
        <time>2022-04-04T13:41:25Z</time>
      </trkpt>
      <trkpt lat="46.53222" lon="5.24297">
        <ele>226.8</ele>
        <time>2022-04-04T13:41:33Z</time>
      </trkpt>
      <trkpt lat="46.53165" lon="5.24284">
        <ele>227</ele>
        <time>2022-04-04T13:41:41Z</time>
      </trkpt>
      <trkpt lat="46.53151" lon="5.24281">
        <ele>227</ele>
        <time>2022-04-04T13:41:43Z</time>
      </trkpt>
      <trkpt lat="46.53094" lon="5.24268">
        <ele>227.4</ele>
        <time>2022-04-04T13:41:51Z</time>
      </trkpt>
      <trkpt lat="46.53087" lon="5.24266">
        <ele>227.4</ele>
        <time>2022-04-04T13:41:52Z</time>
      </trkpt>
      <trkpt lat="46.53066" lon="5.24261">
        <ele>227.6</ele>
        <time>2022-04-04T13:41:55Z</time>
      </trkpt>
      <trkpt lat="46.5301" lon="5.24249">
        <ele>227.8</ele>
        <time>2022-04-04T13:42:03Z</time>
      </trkpt>
      <trkpt lat="46.52986" lon="5.24243">
        <ele>227.8</ele>
        <time>2022-04-04T13:42:06Z</time>
      </trkpt>
      <trkpt lat="46.52926" lon="5.24229">
        <ele>227.8</ele>
        <time>2022-04-04T13:42:14Z</time>
      </trkpt>
      <trkpt lat="46.52911" lon="5.24226">
        <ele>228</ele>
        <time>2022-04-04T13:42:16Z</time>
      </trkpt>
      <trkpt lat="46.52853" lon="5.24212">
        <ele>228</ele>
        <time>2022-04-04T13:42:24Z</time>
      </trkpt>
      <trkpt lat="46.52804" lon="5.24201">
        <ele>228.4</ele>
        <time>2022-04-04T13:42:31Z</time>
      </trkpt>
      <trkpt lat="46.52797" lon="5.24199">
        <ele>228.6</ele>
        <time>2022-04-04T13:42:32Z</time>
      </trkpt>
      <trkpt lat="46.52741" lon="5.24187">
        <ele>229</ele>
        <time>2022-04-04T13:42:40Z</time>
      </trkpt>
      <trkpt lat="46.52684" lon="5.24173">
        <ele>229</ele>
        <time>2022-04-04T13:42:48Z</time>
      </trkpt>
      <trkpt lat="46.5267" lon="5.24169">
        <ele>229.2</ele>
        <time>2022-04-04T13:42:50Z</time>
      </trkpt>
      <trkpt lat="46.52635" lon="5.24161">
        <ele>229.4</ele>
        <time>2022-04-04T13:42:55Z</time>
      </trkpt>
      <trkpt lat="46.52606" lon="5.24154">
        <ele>229.8</ele>
        <time>2022-04-04T13:42:59Z</time>
      </trkpt>
      <trkpt lat="46.52549" lon="5.2414">
        <ele>229.8</ele>
        <time>2022-04-04T13:43:07Z</time>
      </trkpt>
      <trkpt lat="46.52494" lon="5.24129">
        <ele>229.8</ele>
        <time>2022-04-04T13:43:15Z</time>
      </trkpt>
      <trkpt lat="46.52488" lon="5.24128">
        <ele>229.8</ele>
        <time>2022-04-04T13:43:16Z</time>
      </trkpt>
      <trkpt lat="46.52482" lon="5.24128">
        <ele>229.8</ele>
        <time>2022-04-04T13:43:17Z</time>
      </trkpt>
      <trkpt lat="46.52476" lon="5.24131">
        <ele>229.8</ele>
        <time>2022-04-04T13:43:18Z</time>
      </trkpt>
      <trkpt lat="46.52472" lon="5.24138">
        <ele>229.8</ele>
        <time>2022-04-04T13:43:19Z</time>
      </trkpt>
      <trkpt lat="46.52471" lon="5.24146">
        <ele>229.8</ele>
        <time>2022-04-04T13:43:20Z</time>
      </trkpt>
      <trkpt lat="46.52471" lon="5.24157">
        <ele>229.8</ele>
        <time>2022-04-04T13:43:21Z</time>
      </trkpt>
      <trkpt lat="46.52474" lon="5.24179">
        <ele>229.8</ele>
        <time>2022-04-04T13:43:23Z</time>
      </trkpt>
      <trkpt lat="46.52476" lon="5.2419">
        <ele>229.6</ele>
        <time>2022-04-04T13:43:24Z</time>
      </trkpt>
      <trkpt lat="46.52487" lon="5.24269">
        <ele>229</ele>
        <time>2022-04-04T13:43:31Z</time>
      </trkpt>
      <trkpt lat="46.52497" lon="5.24347">
        <ele>228.6</ele>
        <time>2022-04-04T13:43:38Z</time>
      </trkpt>
      <trkpt lat="46.525" lon="5.24369">
        <ele>228.6</ele>
        <time>2022-04-04T13:43:40Z</time>
      </trkpt>
      <trkpt lat="46.52503" lon="5.2439">
        <ele>228.4</ele>
        <time>2022-04-04T13:43:42Z</time>
      </trkpt>
      <trkpt lat="46.52513" lon="5.24452">
        <ele>227.8</ele>
        <time>2022-04-04T13:43:48Z</time>
      </trkpt>
      <trkpt lat="46.52528" lon="5.24509">
        <ele>228</ele>
        <time>2022-04-04T13:43:54Z</time>
      </trkpt>
      <trkpt lat="46.52553" lon="5.2458">
        <ele>228.8</ele>
        <time>2022-04-04T13:44:02Z</time>
      </trkpt>
      <trkpt lat="46.52559" lon="5.24598">
        <ele>229.2</ele>
        <time>2022-04-04T13:44:04Z</time>
      </trkpt>
      <trkpt lat="46.52565" lon="5.24615">
        <ele>229.6</ele>
        <time>2022-04-04T13:44:06Z</time>
      </trkpt>
      <trkpt lat="46.52578" lon="5.24664">
        <ele>230.2</ele>
        <time>2022-04-04T13:44:11Z</time>
      </trkpt>
      <trkpt lat="46.52583" lon="5.2473">
        <ele>230.6</ele>
        <time>2022-04-04T13:44:17Z</time>
      </trkpt>
      <trkpt lat="46.52583" lon="5.24738">
        <ele>230.6</ele>
        <time>2022-04-04T13:44:18Z</time>
      </trkpt>
      <trkpt lat="46.52586" lon="5.24817">
        <ele>230.4</ele>
        <time>2022-04-04T13:44:25Z</time>
      </trkpt>
      <trkpt lat="46.52587" lon="5.24825">
        <ele>230.4</ele>
        <time>2022-04-04T13:44:26Z</time>
      </trkpt>
      <trkpt lat="46.5259" lon="5.24909">
        <ele>230.2</ele>
        <time>2022-04-04T13:44:34Z</time>
      </trkpt>
      <trkpt lat="46.52602" lon="5.24992">
        <ele>230.4</ele>
        <time>2022-04-04T13:44:42Z</time>
      </trkpt>
      <trkpt lat="46.52609" lon="5.25043">
        <ele>230.4</ele>
        <time>2022-04-04T13:44:47Z</time>
      </trkpt>
      <trkpt lat="46.5261" lon="5.25063">
        <ele>230.6</ele>
        <time>2022-04-04T13:44:49Z</time>
      </trkpt>
      <trkpt lat="46.52613" lon="5.25133">
        <ele>230.8</ele>
        <time>2022-04-04T13:44:56Z</time>
      </trkpt>
      <trkpt lat="46.52615" lon="5.25214">
        <ele>231</ele>
        <time>2022-04-04T13:45:04Z</time>
      </trkpt>
      <trkpt lat="46.52616" lon="5.25244">
        <ele>231.2</ele>
        <time>2022-04-04T13:45:07Z</time>
      </trkpt>
      <trkpt lat="46.52624" lon="5.25302">
        <ele>231.6</ele>
        <time>2022-04-04T13:45:13Z</time>
      </trkpt>
      <trkpt lat="46.52643" lon="5.25356">
        <ele>231.8</ele>
        <time>2022-04-04T13:45:19Z</time>
      </trkpt>
      <trkpt lat="46.52647" lon="5.25364">
        <ele>232</ele>
        <time>2022-04-04T13:45:20Z</time>
      </trkpt>
      <trkpt lat="46.52671" lon="5.25402">
        <ele>232.4</ele>
        <time>2022-04-04T13:45:25Z</time>
      </trkpt>
      <trkpt lat="46.52709" lon="5.25456">
        <ele>231.4</ele>
        <time>2022-04-04T13:45:33Z</time>
      </trkpt>
      <trkpt lat="46.52713" lon="5.25465">
        <ele>231.2</ele>
        <time>2022-04-04T13:45:34Z</time>
      </trkpt>
      <trkpt lat="46.52719" lon="5.25486">
        <ele>231.2</ele>
        <time>2022-04-04T13:45:36Z</time>
      </trkpt>
      <trkpt lat="46.5272" lon="5.25509">
        <ele>231</ele>
        <time>2022-04-04T13:45:38Z</time>
      </trkpt>
      <trkpt lat="46.52719" lon="5.2552">
        <ele>231</ele>
        <time>2022-04-04T13:45:39Z</time>
      </trkpt>
      <trkpt lat="46.52716" lon="5.25598">
        <ele>230.4</ele>
        <time>2022-04-04T13:45:46Z</time>
      </trkpt>
      <trkpt lat="46.52715" lon="5.2562">
        <ele>230.2</ele>
        <time>2022-04-04T13:45:48Z</time>
      </trkpt>
      <trkpt lat="46.52714" lon="5.25653">
        <ele>230</ele>
        <time>2022-04-04T13:45:51Z</time>
      </trkpt>
      <trkpt lat="46.52712" lon="5.25696">
        <ele>229.4</ele>
        <time>2022-04-04T13:45:55Z</time>
      </trkpt>
      <trkpt lat="46.52711" lon="5.25706">
        <ele>229.4</ele>
        <time>2022-04-04T13:45:56Z</time>
      </trkpt>
      <trkpt lat="46.52696" lon="5.25768">
        <ele>229</ele>
        <time>2022-04-04T13:46:02Z</time>
      </trkpt>
      <trkpt lat="46.52694" lon="5.25778">
        <ele>229</ele>
        <time>2022-04-04T13:46:03Z</time>
      </trkpt>
      <trkpt lat="46.5269" lon="5.25809">
        <ele>228.6</ele>
        <time>2022-04-04T13:46:06Z</time>
      </trkpt>
      <trkpt lat="46.52689" lon="5.25821">
        <ele>228.6</ele>
        <time>2022-04-04T13:46:07Z</time>
      </trkpt>
      <trkpt lat="46.52689" lon="5.2587">
        <ele>227.6</ele>
        <time>2022-04-04T13:46:11Z</time>
      </trkpt>
      <trkpt lat="46.52688" lon="5.25883">
        <ele>227.4</ele>
        <time>2022-04-04T13:46:12Z</time>
      </trkpt>
      <trkpt lat="46.52685" lon="5.25897">
        <ele>227</ele>
        <time>2022-04-04T13:46:13Z</time>
      </trkpt>
      <trkpt lat="46.52677" lon="5.25922">
        <ele>226.4</ele>
        <time>2022-04-04T13:46:15Z</time>
      </trkpt>
      <trkpt lat="46.52664" lon="5.25943">
        <ele>226</ele>
        <time>2022-04-04T13:46:17Z</time>
      </trkpt>
      <trkpt lat="46.52655" lon="5.25948">
        <ele>225.6</ele>
        <time>2022-04-04T13:46:18Z</time>
      </trkpt>
      <trkpt lat="46.52645" lon="5.25952">
        <ele>225.2</ele>
        <time>2022-04-04T13:46:19Z</time>
      </trkpt>
      <trkpt lat="46.52634" lon="5.25955">
        <ele>224.6</ele>
        <time>2022-04-04T13:46:20Z</time>
      </trkpt>
      <trkpt lat="46.52614" lon="5.25963">
        <ele>223.6</ele>
        <time>2022-04-04T13:46:22Z</time>
      </trkpt>
      <trkpt lat="46.52602" lon="5.25985">
        <ele>222.2</ele>
        <time>2022-04-04T13:46:24Z</time>
      </trkpt>
      <trkpt lat="46.52595" lon="5.26014">
        <ele>221</ele>
        <time>2022-04-04T13:46:26Z</time>
      </trkpt>
      <trkpt lat="46.52592" lon="5.26029">
        <ele>219.4</ele>
        <time>2022-04-04T13:46:27Z</time>
      </trkpt>
      <trkpt lat="46.52585" lon="5.2606">
        <ele>218</ele>
        <time>2022-04-04T13:46:29Z</time>
      </trkpt>
      <trkpt lat="46.52579" lon="5.26086">
        <ele>217.2</ele>
        <time>2022-04-04T13:46:31Z</time>
      </trkpt>
      <trkpt lat="46.52572" lon="5.26102">
        <ele>216.6</ele>
        <time>2022-04-04T13:46:32Z</time>
      </trkpt>
      <trkpt lat="46.52566" lon="5.2611">
        <ele>216.4</ele>
        <time>2022-04-04T13:46:33Z</time>
      </trkpt>
      <trkpt lat="46.52557" lon="5.26116">
        <ele>215.2</ele>
        <time>2022-04-04T13:46:34Z</time>
      </trkpt>
      <trkpt lat="46.52548" lon="5.26119">
        <ele>214.6</ele>
        <time>2022-04-04T13:46:35Z</time>
      </trkpt>
      <trkpt lat="46.52537" lon="5.26121">
        <ele>213.8</ele>
        <time>2022-04-04T13:46:36Z</time>
      </trkpt>
      <trkpt lat="46.52526" lon="5.26123">
        <ele>213.6</ele>
        <time>2022-04-04T13:46:37Z</time>
      </trkpt>
      <trkpt lat="46.52517" lon="5.26127">
        <ele>212</ele>
        <time>2022-04-04T13:46:38Z</time>
      </trkpt>
      <trkpt lat="46.52508" lon="5.26135">
        <ele>211.4</ele>
        <time>2022-04-04T13:46:39Z</time>
      </trkpt>
      <trkpt lat="46.52502" lon="5.26145">
        <ele>210.2</ele>
        <time>2022-04-04T13:46:40Z</time>
      </trkpt>
      <trkpt lat="46.52489" lon="5.26179">
        <ele>209</ele>
        <time>2022-04-04T13:46:43Z</time>
      </trkpt>
      <trkpt lat="46.52479" lon="5.26202">
        <ele>208.8</ele>
        <time>2022-04-04T13:46:45Z</time>
      </trkpt>
      <trkpt lat="46.5245" lon="5.2628">
        <ele>208</ele>
        <time>2022-04-04T13:46:52Z</time>
      </trkpt>
      <trkpt lat="46.52423" lon="5.26355">
        <ele>207.6</ele>
        <time>2022-04-04T13:46:59Z</time>
      </trkpt>
      <trkpt lat="46.52391" lon="5.26432">
        <ele>207.8</ele>
        <time>2022-04-04T13:47:07Z</time>
      </trkpt>
      <trkpt lat="46.52386" lon="5.2644">
        <ele>208</ele>
        <time>2022-04-04T13:47:08Z</time>
      </trkpt>
      <trkpt lat="46.52374" lon="5.26454">
        <ele>208</ele>
        <time>2022-04-04T13:47:10Z</time>
      </trkpt>
      <trkpt lat="46.52367" lon="5.2646">
        <ele>208</ele>
        <time>2022-04-04T13:47:11Z</time>
      </trkpt>
      <trkpt lat="46.52335" lon="5.26475">
        <ele>208.6</ele>
        <time>2022-04-04T13:47:16Z</time>
      </trkpt>
      <trkpt lat="46.52318" lon="5.26483">
        <ele>209.2</ele>
        <time>2022-04-04T13:47:19Z</time>
      </trkpt>
      <trkpt lat="46.52291" lon="5.26496">
        <ele>210.6</ele>
        <time>2022-04-04T13:47:24Z</time>
      </trkpt>
      <trkpt lat="46.5228" lon="5.26501">
        <ele>210.8</ele>
        <time>2022-04-04T13:47:26Z</time>
      </trkpt>
      <trkpt lat="46.52262" lon="5.26509">
        <ele>211.6</ele>
        <time>2022-04-04T13:47:30Z</time>
      </trkpt>
      <trkpt lat="46.52257" lon="5.26512">
        <ele>211.8</ele>
        <time>2022-04-04T13:47:31Z</time>
      </trkpt>
      <trkpt lat="46.52234" lon="5.26522">
        <ele>212.6</ele>
        <time>2022-04-04T13:47:36Z</time>
      </trkpt>
      <trkpt lat="46.5222" lon="5.26529">
        <ele>213.6</ele>
        <time>2022-04-04T13:47:39Z</time>
      </trkpt>
      <trkpt lat="46.52215" lon="5.26531">
        <ele>213.8</ele>
        <time>2022-04-04T13:47:40Z</time>
      </trkpt>
      <trkpt lat="46.522" lon="5.26538">
        <ele>214.4</ele>
        <time>2022-04-04T13:47:43Z</time>
      </trkpt>
      <trkpt lat="46.52196" lon="5.26541">
        <ele>215</ele>
        <time>2022-04-04T13:47:44Z</time>
      </trkpt>
      <trkpt lat="46.52191" lon="5.26545">
        <ele>215.2</ele>
        <time>2022-04-04T13:47:45Z</time>
      </trkpt>
      <trkpt lat="46.52187" lon="5.26549">
        <ele>215.4</ele>
        <time>2022-04-04T13:47:46Z</time>
      </trkpt>
      <trkpt lat="46.52175" lon="5.26564">
        <ele>216</ele>
        <time>2022-04-04T13:47:49Z</time>
      </trkpt>
      <trkpt lat="46.52168" lon="5.26575">
        <ele>216.2</ele>
        <time>2022-04-04T13:47:51Z</time>
      </trkpt>
      <trkpt lat="46.5215" lon="5.2661">
        <ele>216.6</ele>
        <time>2022-04-04T13:47:56Z</time>
      </trkpt>
      <trkpt lat="46.52125" lon="5.2665">
        <ele>216.8</ele>
        <time>2022-04-04T13:48:02Z</time>
      </trkpt>
      <trkpt lat="46.52121" lon="5.26655">
        <ele>216.8</ele>
        <time>2022-04-04T13:48:03Z</time>
      </trkpt>
      <trkpt lat="46.52107" lon="5.26669">
        <ele>216.8</ele>
        <time>2022-04-04T13:48:06Z</time>
      </trkpt>
      <trkpt lat="46.52089" lon="5.26684">
        <ele>217.2</ele>
        <time>2022-04-04T13:48:10Z</time>
      </trkpt>
      <trkpt lat="46.52073" lon="5.26697">
        <ele>218.2</ele>
        <time>2022-04-04T13:48:14Z</time>
      </trkpt>
      <trkpt lat="46.52056" lon="5.2671">
        <ele>219</ele>
        <time>2022-04-04T13:48:18Z</time>
      </trkpt>
      <trkpt lat="46.52052" lon="5.26714">
        <ele>219.4</ele>
        <time>2022-04-04T13:48:19Z</time>
      </trkpt>
      <trkpt lat="46.52035" lon="5.26727">
        <ele>220.6</ele>
        <time>2022-04-04T13:48:23Z</time>
      </trkpt>
      <trkpt lat="46.52023" lon="5.26737">
        <ele>221.6</ele>
        <time>2022-04-04T13:48:26Z</time>
      </trkpt>
      <trkpt lat="46.52019" lon="5.2674">
        <ele>221.8</ele>
        <time>2022-04-04T13:48:27Z</time>
      </trkpt>
      <trkpt lat="46.52015" lon="5.26744">
        <ele>222</ele>
        <time>2022-04-04T13:48:28Z</time>
      </trkpt>
      <trkpt lat="46.51999" lon="5.26757">
        <ele>223.2</ele>
        <time>2022-04-04T13:48:32Z</time>
      </trkpt>
      <trkpt lat="46.51991" lon="5.26764">
        <ele>223.8</ele>
        <time>2022-04-04T13:48:34Z</time>
      </trkpt>
      <trkpt lat="46.51986" lon="5.26768">
        <ele>224.2</ele>
        <time>2022-04-04T13:48:35Z</time>
      </trkpt>
      <trkpt lat="46.5197" lon="5.26785">
        <ele>225</ele>
        <time>2022-04-04T13:48:39Z</time>
      </trkpt>
      <trkpt lat="46.51964" lon="5.26793">
        <ele>225.4</ele>
        <time>2022-04-04T13:48:41Z</time>
      </trkpt>
      <trkpt lat="46.51957" lon="5.26808">
        <ele>226.4</ele>
        <time>2022-04-04T13:48:44Z</time>
      </trkpt>
      <trkpt lat="46.51952" lon="5.26819">
        <ele>227</ele>
        <time>2022-04-04T13:48:46Z</time>
      </trkpt>
      <trkpt lat="46.51949" lon="5.26838">
        <ele>227.4</ele>
        <time>2022-04-04T13:48:49Z</time>
      </trkpt>
      <trkpt lat="46.5195" lon="5.26851">
        <ele>228.2</ele>
        <time>2022-04-04T13:48:51Z</time>
      </trkpt>
      <trkpt lat="46.51951" lon="5.26858">
        <ele>228.4</ele>
        <time>2022-04-04T13:48:52Z</time>
      </trkpt>
      <trkpt lat="46.51956" lon="5.2688">
        <ele>229.6</ele>
        <time>2022-04-04T13:48:56Z</time>
      </trkpt>
      <trkpt lat="46.51963" lon="5.26905">
        <ele>231</ele>
        <time>2022-04-04T13:49:00Z</time>
      </trkpt>
      <trkpt lat="46.51969" lon="5.26918">
        <ele>231.6</ele>
        <time>2022-04-04T13:49:02Z</time>
      </trkpt>
      <trkpt lat="46.51972" lon="5.26924">
        <ele>231.6</ele>
        <time>2022-04-04T13:49:03Z</time>
      </trkpt>
      <trkpt lat="46.51979" lon="5.26947">
        <ele>232</ele>
        <time>2022-04-04T13:49:06Z</time>
      </trkpt>
      <trkpt lat="46.51987" lon="5.26998">
        <ele>232.6</ele>
        <time>2022-04-04T13:49:12Z</time>
      </trkpt>
      <trkpt lat="46.51993" lon="5.27059">
        <ele>232.2</ele>
        <time>2022-04-04T13:49:18Z</time>
      </trkpt>
      <trkpt lat="46.51998" lon="5.27105">
        <ele>231</ele>
        <time>2022-04-04T13:49:22Z</time>
      </trkpt>
      <trkpt lat="46.52002" lon="5.27142">
        <ele>230.4</ele>
        <time>2022-04-04T13:49:25Z</time>
      </trkpt>
      <trkpt lat="46.52006" lon="5.27167">
        <ele>230</ele>
        <time>2022-04-04T13:49:27Z</time>
      </trkpt>
      <trkpt lat="46.52015" lon="5.27205">
        <ele>229.2</ele>
        <time>2022-04-04T13:49:30Z</time>
      </trkpt>
      <trkpt lat="46.52018" lon="5.27217">
        <ele>229</ele>
        <time>2022-04-04T13:49:31Z</time>
      </trkpt>
      <trkpt lat="46.52032" lon="5.27254">
        <ele>227.8</ele>
        <time>2022-04-04T13:49:34Z</time>
      </trkpt>
      <trkpt lat="46.52037" lon="5.27265">
        <ele>227.4</ele>
        <time>2022-04-04T13:49:35Z</time>
      </trkpt>
      <trkpt lat="46.52052" lon="5.27282">
        <ele>226.8</ele>
        <time>2022-04-04T13:49:37Z</time>
      </trkpt>
      <trkpt lat="46.52059" lon="5.27289">
        <ele>226</ele>
        <time>2022-04-04T13:49:38Z</time>
      </trkpt>
      <trkpt lat="46.52068" lon="5.27295">
        <ele>225.4</ele>
        <time>2022-04-04T13:49:39Z</time>
      </trkpt>
      <trkpt lat="46.52086" lon="5.27304">
        <ele>224.8</ele>
        <time>2022-04-04T13:49:41Z</time>
      </trkpt>
      <trkpt lat="46.52095" lon="5.27309">
        <ele>224.4</ele>
        <time>2022-04-04T13:49:42Z</time>
      </trkpt>
      <trkpt lat="46.52103" lon="5.27317">
        <ele>224</ele>
        <time>2022-04-04T13:49:43Z</time>
      </trkpt>
      <trkpt lat="46.5211" lon="5.27327">
        <ele>224</ele>
        <time>2022-04-04T13:49:44Z</time>
      </trkpt>
      <trkpt lat="46.52117" lon="5.27339">
        <ele>223.6</ele>
        <time>2022-04-04T13:49:45Z</time>
      </trkpt>
      <trkpt lat="46.52121" lon="5.27353">
        <ele>223.2</ele>
        <time>2022-04-04T13:49:46Z</time>
      </trkpt>
      <trkpt lat="46.52123" lon="5.2738">
        <ele>222.4</ele>
        <time>2022-04-04T13:49:48Z</time>
      </trkpt>
      <trkpt lat="46.52118" lon="5.27408">
        <ele>221.4</ele>
        <time>2022-04-04T13:49:50Z</time>
      </trkpt>
      <trkpt lat="46.52113" lon="5.27421">
        <ele>221</ele>
        <time>2022-04-04T13:49:51Z</time>
      </trkpt>
      <trkpt lat="46.52108" lon="5.27434">
        <ele>220.2</ele>
        <time>2022-04-04T13:49:52Z</time>
      </trkpt>
      <trkpt lat="46.52087" lon="5.2747">
        <ele>218.4</ele>
        <time>2022-04-04T13:49:55Z</time>
      </trkpt>
      <trkpt lat="46.52063" lon="5.27502">
        <ele>217.2</ele>
        <time>2022-04-04T13:49:58Z</time>
      </trkpt>
      <trkpt lat="46.52038" lon="5.27534">
        <ele>215.8</ele>
        <time>2022-04-04T13:50:01Z</time>
      </trkpt>
      <trkpt lat="46.52007" lon="5.27573">
        <ele>214.4</ele>
        <time>2022-04-04T13:50:05Z</time>
      </trkpt>
      <trkpt lat="46.51985" lon="5.27603">
        <ele>213</ele>
        <time>2022-04-04T13:50:08Z</time>
      </trkpt>
      <trkpt lat="46.51977" lon="5.27613">
        <ele>213</ele>
        <time>2022-04-04T13:50:09Z</time>
      </trkpt>
      <trkpt lat="46.51938" lon="5.27663">
        <ele>212.2</ele>
        <time>2022-04-04T13:50:15Z</time>
      </trkpt>
      <trkpt lat="46.51904" lon="5.27701">
        <ele>212.4</ele>
        <time>2022-04-04T13:50:21Z</time>
      </trkpt>
      <trkpt lat="46.51873" lon="5.27733">
        <ele>213.4</ele>
        <time>2022-04-04T13:50:27Z</time>
      </trkpt>
      <trkpt lat="46.51853" lon="5.27752">
        <ele>214.2</ele>
        <time>2022-04-04T13:50:31Z</time>
      </trkpt>
      <trkpt lat="46.51839" lon="5.27767">
        <ele>214.8</ele>
        <time>2022-04-04T13:50:34Z</time>
      </trkpt>
      <trkpt lat="46.51825" lon="5.27782">
        <ele>215.6</ele>
        <time>2022-04-04T13:50:37Z</time>
      </trkpt>
      <trkpt lat="46.51806" lon="5.27802">
        <ele>216.8</ele>
        <time>2022-04-04T13:50:41Z</time>
      </trkpt>
      <trkpt lat="46.51788" lon="5.2782">
        <ele>217.6</ele>
        <time>2022-04-04T13:50:45Z</time>
      </trkpt>
      <trkpt lat="46.51783" lon="5.27826">
        <ele>218</ele>
        <time>2022-04-04T13:50:46Z</time>
      </trkpt>
      <trkpt lat="46.5176" lon="5.27848">
        <ele>219.2</ele>
        <time>2022-04-04T13:50:51Z</time>
      </trkpt>
      <trkpt lat="46.51751" lon="5.27857">
        <ele>219.6</ele>
        <time>2022-04-04T13:50:53Z</time>
      </trkpt>
      <trkpt lat="46.51742" lon="5.27866">
        <ele>220.4</ele>
        <time>2022-04-04T13:50:55Z</time>
      </trkpt>
      <trkpt lat="46.51722" lon="5.27888">
        <ele>221.8</ele>
        <time>2022-04-04T13:51:00Z</time>
      </trkpt>
      <trkpt lat="46.51703" lon="5.27909">
        <ele>222.8</ele>
        <time>2022-04-04T13:51:04Z</time>
      </trkpt>
      <trkpt lat="46.51698" lon="5.27913">
        <ele>223.2</ele>
        <time>2022-04-04T13:51:05Z</time>
      </trkpt>
      <trkpt lat="46.51673" lon="5.27938">
        <ele>224.2</ele>
        <time>2022-04-04T13:51:10Z</time>
      </trkpt>
      <trkpt lat="46.51653" lon="5.27958">
        <ele>224.6</ele>
        <time>2022-04-04T13:51:14Z</time>
      </trkpt>
      <trkpt lat="46.51628" lon="5.27983">
        <ele>225.4</ele>
        <time>2022-04-04T13:51:19Z</time>
      </trkpt>
      <trkpt lat="46.51609" lon="5.28006">
        <ele>225.6</ele>
        <time>2022-04-04T13:51:23Z</time>
      </trkpt>
      <trkpt lat="46.51589" lon="5.28047">
        <ele>225.8</ele>
        <time>2022-04-04T13:51:28Z</time>
      </trkpt>
      <trkpt lat="46.51566" lon="5.28117">
        <ele>225</ele>
        <time>2022-04-04T13:51:34Z</time>
      </trkpt>
      <trkpt lat="46.51556" lon="5.28153">
        <ele>224</ele>
        <time>2022-04-04T13:51:37Z</time>
      </trkpt>
      <trkpt lat="46.51544" lon="5.28191">
        <ele>223.2</ele>
        <time>2022-04-04T13:51:40Z</time>
      </trkpt>
      <trkpt lat="46.51539" lon="5.28203">
        <ele>223</ele>
        <time>2022-04-04T13:51:41Z</time>
      </trkpt>
      <trkpt lat="46.51518" lon="5.28251">
        <ele>222</ele>
        <time>2022-04-04T13:51:45Z</time>
      </trkpt>
      <trkpt lat="46.51513" lon="5.28262">
        <ele>221.4</ele>
        <time>2022-04-04T13:51:46Z</time>
      </trkpt>
      <trkpt lat="46.51501" lon="5.28285">
        <ele>220.6</ele>
        <time>2022-04-04T13:51:48Z</time>
      </trkpt>
      <trkpt lat="46.51482" lon="5.28322">
        <ele>219.6</ele>
        <time>2022-04-04T13:51:51Z</time>
      </trkpt>
      <trkpt lat="46.51463" lon="5.28358">
        <ele>218.6</ele>
        <time>2022-04-04T13:51:54Z</time>
      </trkpt>
      <trkpt lat="46.51457" lon="5.2837">
        <ele>218.2</ele>
        <time>2022-04-04T13:51:55Z</time>
      </trkpt>
      <trkpt lat="46.51439" lon="5.28406">
        <ele>216.8</ele>
        <time>2022-04-04T13:51:58Z</time>
      </trkpt>
      <trkpt lat="46.51427" lon="5.28431">
        <ele>215.4</ele>
        <time>2022-04-04T13:52:00Z</time>
      </trkpt>
      <trkpt lat="46.51423" lon="5.28444">
        <ele>215.2</ele>
        <time>2022-04-04T13:52:01Z</time>
      </trkpt>
      <trkpt lat="46.51418" lon="5.28474">
        <ele>214.4</ele>
        <time>2022-04-04T13:52:03Z</time>
      </trkpt>
      <trkpt lat="46.51418" lon="5.2849">
        <ele>214</ele>
        <time>2022-04-04T13:52:04Z</time>
      </trkpt>
      <trkpt lat="46.51421" lon="5.28505">
        <ele>213.4</ele>
        <time>2022-04-04T13:52:05Z</time>
      </trkpt>
      <trkpt lat="46.51429" lon="5.28532">
        <ele>212.8</ele>
        <time>2022-04-04T13:52:07Z</time>
      </trkpt>
      <trkpt lat="46.51455" lon="5.28611">
        <ele>212</ele>
        <time>2022-04-04T13:52:13Z</time>
      </trkpt>
      <trkpt lat="46.5146" lon="5.28623">
        <ele>211.8</ele>
        <time>2022-04-04T13:52:14Z</time>
      </trkpt>
      <trkpt lat="46.51464" lon="5.28636">
        <ele>211.8</ele>
        <time>2022-04-04T13:52:15Z</time>
      </trkpt>
      <trkpt lat="46.51489" lon="5.28709">
        <ele>211.2</ele>
        <time>2022-04-04T13:52:21Z</time>
      </trkpt>
      <trkpt lat="46.51492" lon="5.28721">
        <ele>211.2</ele>
        <time>2022-04-04T13:52:22Z</time>
      </trkpt>
      <trkpt lat="46.51505" lon="5.28779">
        <ele>211</ele>
        <time>2022-04-04T13:52:27Z</time>
      </trkpt>
      <trkpt lat="46.51508" lon="5.28803">
        <ele>211.2</ele>
        <time>2022-04-04T13:52:29Z</time>
      </trkpt>
      <trkpt lat="46.51507" lon="5.28828">
        <ele>211</ele>
        <time>2022-04-04T13:52:31Z</time>
      </trkpt>
      <trkpt lat="46.51494" lon="5.28901">
        <ele>210.6</ele>
        <time>2022-04-04T13:52:37Z</time>
      </trkpt>
      <trkpt lat="46.51492" lon="5.28912">
        <ele>210.6</ele>
        <time>2022-04-04T13:52:38Z</time>
      </trkpt>
      <trkpt lat="46.51478" lon="5.28991">
        <ele>210.4</ele>
        <time>2022-04-04T13:52:45Z</time>
      </trkpt>
      <trkpt lat="46.51468" lon="5.29053">
        <ele>211</ele>
        <time>2022-04-04T13:52:51Z</time>
      </trkpt>
      <trkpt lat="46.51458" lon="5.29112">
        <ele>211.8</ele>
        <time>2022-04-04T13:52:57Z</time>
      </trkpt>
      <trkpt lat="46.51453" lon="5.29141">
        <ele>212</ele>
        <time>2022-04-04T13:53:00Z</time>
      </trkpt>
      <trkpt lat="46.51437" lon="5.29206">
        <ele>212.8</ele>
        <time>2022-04-04T13:53:07Z</time>
      </trkpt>
      <trkpt lat="46.51417" lon="5.29243">
        <ele>213.2</ele>
        <time>2022-04-04T13:53:12Z</time>
      </trkpt>
      <trkpt lat="46.51379" lon="5.29304">
        <ele>213.8</ele>
        <time>2022-04-04T13:53:20Z</time>
      </trkpt>
      <trkpt lat="46.5136" lon="5.29335">
        <ele>213.6</ele>
        <time>2022-04-04T13:53:24Z</time>
      </trkpt>
      <trkpt lat="46.51347" lon="5.29348">
        <ele>213.4</ele>
        <time>2022-04-04T13:53:26Z</time>
      </trkpt>
      <trkpt lat="46.51341" lon="5.29353">
        <ele>213.2</ele>
        <time>2022-04-04T13:53:27Z</time>
      </trkpt>
      <trkpt lat="46.51321" lon="5.29364">
        <ele>213</ele>
        <time>2022-04-04T13:53:30Z</time>
      </trkpt>
      <trkpt lat="46.51268" lon="5.29393">
        <ele>212.8</ele>
        <time>2022-04-04T13:53:38Z</time>
      </trkpt>
      <trkpt lat="46.51229" lon="5.29403">
        <ele>213.2</ele>
        <time>2022-04-04T13:53:44Z</time>
      </trkpt>
      <trkpt lat="46.51198" lon="5.2941">
        <ele>212.8</ele>
        <time>2022-04-04T13:53:49Z</time>
      </trkpt>
      <trkpt lat="46.51156" lon="5.29421">
        <ele>212.8</ele>
        <time>2022-04-04T13:53:56Z</time>
      </trkpt>
      <trkpt lat="46.51103" lon="5.29437">
        <ele>213.6</ele>
        <time>2022-04-04T13:54:05Z</time>
      </trkpt>
      <trkpt lat="46.51097" lon="5.29438">
        <ele>213.8</ele>
        <time>2022-04-04T13:54:06Z</time>
      </trkpt>
      <trkpt lat="46.51085" lon="5.29443">
        <ele>213.8</ele>
        <time>2022-04-04T13:54:08Z</time>
      </trkpt>
      <trkpt lat="46.51067" lon="5.29449">
        <ele>214</ele>
        <time>2022-04-04T13:54:11Z</time>
      </trkpt>
      <trkpt lat="46.5105" lon="5.29459">
        <ele>214.2</ele>
        <time>2022-04-04T13:54:14Z</time>
      </trkpt>
      <trkpt lat="46.51035" lon="5.2947">
        <ele>214.2</ele>
        <time>2022-04-04T13:54:17Z</time>
      </trkpt>
      <trkpt lat="46.5102" lon="5.2948">
        <ele>214.4</ele>
        <time>2022-04-04T13:54:20Z</time>
      </trkpt>
      <trkpt lat="46.51002" lon="5.29494">
        <ele>215</ele>
        <time>2022-04-04T13:54:24Z</time>
      </trkpt>
      <trkpt lat="46.50986" lon="5.29507">
        <ele>215.6</ele>
        <time>2022-04-04T13:54:28Z</time>
      </trkpt>
      <trkpt lat="46.50968" lon="5.29521">
        <ele>216.2</ele>
        <time>2022-04-04T13:54:33Z</time>
      </trkpt>
      <trkpt lat="46.50961" lon="5.29526">
        <ele>216.6</ele>
        <time>2022-04-04T13:54:35Z</time>
      </trkpt>
      <trkpt lat="46.50955" lon="5.29531">
        <ele>217.2</ele>
        <time>2022-04-04T13:54:37Z</time>
      </trkpt>
      <trkpt lat="46.50941" lon="5.29541">
        <ele>218.2</ele>
        <time>2022-04-04T13:54:41Z</time>
      </trkpt>
      <trkpt lat="46.50938" lon="5.29544">
        <ele>218.4</ele>
        <time>2022-04-04T13:54:42Z</time>
      </trkpt>
      <trkpt lat="46.50925" lon="5.29554">
        <ele>219.4</ele>
        <time>2022-04-04T13:54:46Z</time>
      </trkpt>
      <trkpt lat="46.50919" lon="5.29559">
        <ele>220</ele>
        <time>2022-04-04T13:54:48Z</time>
      </trkpt>
      <trkpt lat="46.50916" lon="5.29561">
        <ele>220.4</ele>
        <time>2022-04-04T13:54:49Z</time>
      </trkpt>
      <trkpt lat="46.509" lon="5.29569">
        <ele>221.6</ele>
        <time>2022-04-04T13:54:54Z</time>
      </trkpt>
      <trkpt lat="46.50896" lon="5.29571">
        <ele>222</ele>
        <time>2022-04-04T13:54:55Z</time>
      </trkpt>
      <trkpt lat="46.50889" lon="5.29573">
        <ele>222.6</ele>
        <time>2022-04-04T13:54:57Z</time>
      </trkpt>
      <trkpt lat="46.50875" lon="5.29572">
        <ele>223.8</ele>
        <time>2022-04-04T13:55:01Z</time>
      </trkpt>
      <trkpt lat="46.50871" lon="5.29573">
        <ele>224</ele>
        <time>2022-04-04T13:55:02Z</time>
      </trkpt>
      <trkpt lat="46.50856" lon="5.29571">
        <ele>224.8</ele>
        <time>2022-04-04T13:55:06Z</time>
      </trkpt>
      <trkpt lat="46.50844" lon="5.29571">
        <ele>226</ele>
        <time>2022-04-04T13:55:09Z</time>
      </trkpt>
      <trkpt lat="46.50841" lon="5.2957">
        <ele>226.2</ele>
        <time>2022-04-04T13:55:10Z</time>
      </trkpt>
      <trkpt lat="46.50825" lon="5.29569">
        <ele>227.2</ele>
        <time>2022-04-04T13:55:14Z</time>
      </trkpt>
      <trkpt lat="46.50814" lon="5.29568">
        <ele>227.6</ele>
        <time>2022-04-04T13:55:17Z</time>
      </trkpt>
      <trkpt lat="46.50803" lon="5.29567">
        <ele>228.2</ele>
        <time>2022-04-04T13:55:20Z</time>
      </trkpt>
      <trkpt lat="46.50799" lon="5.29567">
        <ele>228.4</ele>
        <time>2022-04-04T13:55:21Z</time>
      </trkpt>
      <trkpt lat="46.50784" lon="5.29566">
        <ele>229.2</ele>
        <time>2022-04-04T13:55:25Z</time>
      </trkpt>
      <trkpt lat="46.50765" lon="5.29564">
        <ele>230.2</ele>
        <time>2022-04-04T13:55:30Z</time>
      </trkpt>
      <trkpt lat="46.50757" lon="5.29562">
        <ele>230.6</ele>
        <time>2022-04-04T13:55:32Z</time>
      </trkpt>
      <trkpt lat="46.50743" lon="5.29558">
        <ele>231.4</ele>
        <time>2022-04-04T13:55:36Z</time>
      </trkpt>
      <trkpt lat="46.50723" lon="5.29549">
        <ele>232.2</ele>
        <time>2022-04-04T13:55:41Z</time>
      </trkpt>
      <trkpt lat="46.5072" lon="5.29547">
        <ele>232.4</ele>
        <time>2022-04-04T13:55:42Z</time>
      </trkpt>
      <trkpt lat="46.50692" lon="5.29534">
        <ele>233.4</ele>
        <time>2022-04-04T13:55:49Z</time>
      </trkpt>
      <trkpt lat="46.50684" lon="5.2953">
        <ele>233.8</ele>
        <time>2022-04-04T13:55:51Z</time>
      </trkpt>
      <trkpt lat="46.50667" lon="5.29526">
        <ele>234.4</ele>
        <time>2022-04-04T13:55:55Z</time>
      </trkpt>
      <trkpt lat="46.50659" lon="5.29524">
        <ele>235</ele>
        <time>2022-04-04T13:55:57Z</time>
      </trkpt>
      <trkpt lat="46.50655" lon="5.29524">
        <ele>235.2</ele>
        <time>2022-04-04T13:55:58Z</time>
      </trkpt>
      <trkpt lat="46.50642" lon="5.29528">
        <ele>235.4</ele>
        <time>2022-04-04T13:56:01Z</time>
      </trkpt>
      <trkpt lat="46.50638" lon="5.29529">
        <ele>235.6</ele>
        <time>2022-04-04T13:56:02Z</time>
      </trkpt>
      <trkpt lat="46.50629" lon="5.29535">
        <ele>235.8</ele>
        <time>2022-04-04T13:56:04Z</time>
      </trkpt>
      <trkpt lat="46.50604" lon="5.29552">
        <ele>236.8</ele>
        <time>2022-04-04T13:56:09Z</time>
      </trkpt>
      <trkpt lat="46.50599" lon="5.29556">
        <ele>236.8</ele>
        <time>2022-04-04T13:56:10Z</time>
      </trkpt>
      <trkpt lat="46.50573" lon="5.29577">
        <ele>237</ele>
        <time>2022-04-04T13:56:15Z</time>
      </trkpt>
      <trkpt lat="46.50567" lon="5.29582">
        <ele>237.2</ele>
        <time>2022-04-04T13:56:16Z</time>
      </trkpt>
      <trkpt lat="46.50524" lon="5.29614">
        <ele>237.6</ele>
        <time>2022-04-04T13:56:24Z</time>
      </trkpt>
      <trkpt lat="46.50488" lon="5.2964">
        <ele>237.6</ele>
        <time>2022-04-04T13:56:30Z</time>
      </trkpt>
      <trkpt lat="46.50469" lon="5.29653">
        <ele>237.8</ele>
        <time>2022-04-04T13:56:33Z</time>
      </trkpt>
      <trkpt lat="46.50443" lon="5.2967">
        <ele>238</ele>
        <time>2022-04-04T13:56:37Z</time>
      </trkpt>
      <trkpt lat="46.50396" lon="5.29701">
        <ele>238.2</ele>
        <time>2022-04-04T13:56:45Z</time>
      </trkpt>
      <trkpt lat="46.5034" lon="5.29731">
        <ele>238.4</ele>
        <time>2022-04-04T13:56:54Z</time>
      </trkpt>
      <trkpt lat="46.50284" lon="5.29754">
        <ele>238.4</ele>
        <time>2022-04-04T13:57:02Z</time>
      </trkpt>
      <trkpt lat="46.50277" lon="5.29758">
        <ele>238.4</ele>
        <time>2022-04-04T13:57:03Z</time>
      </trkpt>
      <trkpt lat="46.50224" lon="5.29771">
        <ele>237.8</ele>
        <time>2022-04-04T13:57:10Z</time>
      </trkpt>
      <trkpt lat="46.5018" lon="5.29769">
        <ele>237.6</ele>
        <time>2022-04-04T13:57:16Z</time>
      </trkpt>
      <trkpt lat="46.50136" lon="5.29775">
        <ele>237.4</ele>
        <time>2022-04-04T13:57:22Z</time>
      </trkpt>
      <trkpt lat="46.50103" lon="5.29784">
        <ele>236.8</ele>
        <time>2022-04-04T13:57:26Z</time>
      </trkpt>
      <trkpt lat="46.50095" lon="5.29787">
        <ele>236.6</ele>
        <time>2022-04-04T13:57:27Z</time>
      </trkpt>
      <trkpt lat="46.50071" lon="5.29797">
        <ele>235.6</ele>
        <time>2022-04-04T13:57:30Z</time>
      </trkpt>
      <trkpt lat="46.50055" lon="5.29805">
        <ele>234.4</ele>
        <time>2022-04-04T13:57:32Z</time>
      </trkpt>
      <trkpt lat="46.50048" lon="5.29811">
        <ele>234</ele>
        <time>2022-04-04T13:57:33Z</time>
      </trkpt>
      <trkpt lat="46.50036" lon="5.29825">
        <ele>233.8</ele>
        <time>2022-04-04T13:57:35Z</time>
      </trkpt>
      <trkpt lat="46.50031" lon="5.29832">
        <ele>233.6</ele>
        <time>2022-04-04T13:57:36Z</time>
      </trkpt>
      <trkpt lat="46.50026" lon="5.2984">
        <ele>233.4</ele>
        <time>2022-04-04T13:57:37Z</time>
      </trkpt>
      <trkpt lat="46.50018" lon="5.29853">
        <ele>232.6</ele>
        <time>2022-04-04T13:57:39Z</time>
      </trkpt>
      <trkpt lat="46.50014" lon="5.29856">
        <ele>232.4</ele>
        <time>2022-04-04T13:57:40Z</time>
      </trkpt>
      <trkpt lat="46.50008" lon="5.29861">
        <ele>232</ele>
        <time>2022-04-04T13:57:43Z</time>
      </trkpt>
      <trkpt lat="46.50013" lon="5.29871">
        <ele>231.8</ele>
        <time>2022-04-04T13:57:46Z</time>
      </trkpt>
      <trkpt lat="46.50035" lon="5.29896">
        <ele>231.6</ele>
        <time>2022-04-04T13:57:51Z</time>
      </trkpt>
      <trkpt lat="46.50044" lon="5.29908">
        <ele>231.6</ele>
        <time>2022-04-04T13:57:53Z</time>
      </trkpt>
      <trkpt lat="46.50053" lon="5.29923">
        <ele>231.8</ele>
        <time>2022-04-04T13:57:55Z</time>
      </trkpt>
      <trkpt lat="46.50073" lon="5.29964">
        <ele>232.2</ele>
        <time>2022-04-04T13:58:00Z</time>
      </trkpt>
      <trkpt lat="46.50076" lon="5.29974">
        <ele>232.4</ele>
        <time>2022-04-04T13:58:01Z</time>
      </trkpt>
      <trkpt lat="46.50078" lon="5.29983">
        <ele>232.6</ele>
        <time>2022-04-04T13:58:02Z</time>
      </trkpt>
      <trkpt lat="46.50082" lon="5.30013">
        <ele>233</ele>
        <time>2022-04-04T13:58:05Z</time>
      </trkpt>
      <trkpt lat="46.50083" lon="5.30024">
        <ele>233</ele>
        <time>2022-04-04T13:58:06Z</time>
      </trkpt>
      <trkpt lat="46.50085" lon="5.30062">
        <ele>233.4</ele>
        <time>2022-04-04T13:58:10Z</time>
      </trkpt>
      <trkpt lat="46.50085" lon="5.3011">
        <ele>234</ele>
        <time>2022-04-04T13:58:15Z</time>
      </trkpt>
      <trkpt lat="46.50085" lon="5.3019">
        <ele>234.2</ele>
        <time>2022-04-04T13:58:23Z</time>
      </trkpt>
      <trkpt lat="46.50085" lon="5.302">
        <ele>234.2</ele>
        <time>2022-04-04T13:58:24Z</time>
      </trkpt>
      <trkpt lat="46.50085" lon="5.3023">
        <ele>234</ele>
        <time>2022-04-04T13:58:27Z</time>
      </trkpt>
      <trkpt lat="46.50084" lon="5.30261">
        <ele>233.4</ele>
        <time>2022-04-04T13:58:30Z</time>
      </trkpt>
      <trkpt lat="46.50077" lon="5.30318">
        <ele>232.8</ele>
        <time>2022-04-04T13:58:35Z</time>
      </trkpt>
      <trkpt lat="46.50074" lon="5.30329">
        <ele>232.6</ele>
        <time>2022-04-04T13:58:36Z</time>
      </trkpt>
      <trkpt lat="46.50065" lon="5.30351">
        <ele>232.2</ele>
        <time>2022-04-04T13:58:38Z</time>
      </trkpt>
      <trkpt lat="46.5006" lon="5.30362">
        <ele>231.8</ele>
        <time>2022-04-04T13:58:39Z</time>
      </trkpt>
      <trkpt lat="46.50054" lon="5.30372">
        <ele>231.4</ele>
        <time>2022-04-04T13:58:40Z</time>
      </trkpt>
      <trkpt lat="46.50048" lon="5.30381">
        <ele>231.2</ele>
        <time>2022-04-04T13:58:41Z</time>
      </trkpt>
      <trkpt lat="46.50041" lon="5.3039">
        <ele>231</ele>
        <time>2022-04-04T13:58:42Z</time>
      </trkpt>
      <trkpt lat="46.50033" lon="5.30397">
        <ele>230.8</ele>
        <time>2022-04-04T13:58:43Z</time>
      </trkpt>
      <trkpt lat="46.50026" lon="5.30404">
        <ele>230.4</ele>
        <time>2022-04-04T13:58:44Z</time>
      </trkpt>
      <trkpt lat="46.49998" lon="5.30426">
        <ele>229.8</ele>
        <time>2022-04-04T13:58:48Z</time>
      </trkpt>
      <trkpt lat="46.49964" lon="5.30458">
        <ele>229.8</ele>
        <time>2022-04-04T13:58:54Z</time>
      </trkpt>
      <trkpt lat="46.49944" lon="5.30493">
        <ele>230.8</ele>
        <time>2022-04-04T13:58:59Z</time>
      </trkpt>
      <trkpt lat="46.49932" lon="5.30533">
        <ele>231.4</ele>
        <time>2022-04-04T13:59:04Z</time>
      </trkpt>
      <trkpt lat="46.49931" lon="5.30541">
        <ele>231.6</ele>
        <time>2022-04-04T13:59:05Z</time>
      </trkpt>
      <trkpt lat="46.49929" lon="5.30564">
        <ele>232.4</ele>
        <time>2022-04-04T13:59:08Z</time>
      </trkpt>
      <trkpt lat="46.49929" lon="5.3059">
        <ele>233.2</ele>
        <time>2022-04-04T13:59:11Z</time>
      </trkpt>
      <trkpt lat="46.49929" lon="5.30598">
        <ele>233.6</ele>
        <time>2022-04-04T13:59:12Z</time>
      </trkpt>
      <trkpt lat="46.49933" lon="5.30633">
        <ele>234.6</ele>
        <time>2022-04-04T13:59:16Z</time>
      </trkpt>
      <trkpt lat="46.49935" lon="5.30642">
        <ele>234.6</ele>
        <time>2022-04-04T13:59:17Z</time>
      </trkpt>
      <trkpt lat="46.49942" lon="5.30674">
        <ele>235.8</ele>
        <time>2022-04-04T13:59:21Z</time>
      </trkpt>
      <trkpt lat="46.49949" lon="5.30705">
        <ele>236.8</ele>
        <time>2022-04-04T13:59:25Z</time>
      </trkpt>
      <trkpt lat="46.49958" lon="5.30755">
        <ele>238</ele>
        <time>2022-04-04T13:59:31Z</time>
      </trkpt>
      <trkpt lat="46.49965" lon="5.3079">
        <ele>238.4</ele>
        <time>2022-04-04T13:59:35Z</time>
      </trkpt>
      <trkpt lat="46.49981" lon="5.30845">
        <ele>238.4</ele>
        <time>2022-04-04T13:59:41Z</time>
      </trkpt>
      <trkpt lat="46.49999" lon="5.30895">
        <ele>238.2</ele>
        <time>2022-04-04T13:59:46Z</time>
      </trkpt>
      <trkpt lat="46.50003" lon="5.30906">
        <ele>238</ele>
        <time>2022-04-04T13:59:47Z</time>
      </trkpt>
      <trkpt lat="46.50025" lon="5.30966">
        <ele>236.6</ele>
        <time>2022-04-04T13:59:52Z</time>
      </trkpt>
      <trkpt lat="46.50029" lon="5.30978">
        <ele>236</ele>
        <time>2022-04-04T13:59:53Z</time>
      </trkpt>
      <trkpt lat="46.50038" lon="5.31004">
        <ele>235.4</ele>
        <time>2022-04-04T13:59:55Z</time>
      </trkpt>
      <trkpt lat="46.50052" lon="5.31045">
        <ele>234.2</ele>
        <time>2022-04-04T13:59:58Z</time>
      </trkpt>
      <trkpt lat="46.50061" lon="5.31073">
        <ele>233</ele>
        <time>2022-04-04T14:00:00Z</time>
      </trkpt>
      <trkpt lat="46.50071" lon="5.31101">
        <ele>231.6</ele>
        <time>2022-04-04T14:00:02Z</time>
      </trkpt>
      <trkpt lat="46.50084" lon="5.31145">
        <ele>230</ele>
        <time>2022-04-04T14:00:05Z</time>
      </trkpt>
      <trkpt lat="46.50094" lon="5.31172">
        <ele>228.8</ele>
        <time>2022-04-04T14:00:07Z</time>
      </trkpt>
      <trkpt lat="46.50098" lon="5.31185">
        <ele>228.6</ele>
        <time>2022-04-04T14:00:08Z</time>
      </trkpt>
      <trkpt lat="46.50123" lon="5.31258">
        <ele>228</ele>
        <time>2022-04-04T14:00:14Z</time>
      </trkpt>
      <trkpt lat="46.5015" lon="5.31334">
        <ele>228.4</ele>
        <time>2022-04-04T14:00:21Z</time>
      </trkpt>
      <trkpt lat="46.50177" lon="5.31417">
        <ele>229</ele>
        <time>2022-04-04T14:00:28Z</time>
      </trkpt>
      <trkpt lat="46.5019" lon="5.31455">
        <ele>228.8</ele>
        <time>2022-04-04T14:00:31Z</time>
      </trkpt>
      <trkpt lat="46.50208" lon="5.31508">
        <ele>227.8</ele>
        <time>2022-04-04T14:00:35Z</time>
      </trkpt>
      <trkpt lat="46.50213" lon="5.31522">
        <ele>227.2</ele>
        <time>2022-04-04T14:00:36Z</time>
      </trkpt>
      <trkpt lat="46.50225" lon="5.31546">
        <ele>226.6</ele>
        <time>2022-04-04T14:00:38Z</time>
      </trkpt>
      <trkpt lat="46.5024" lon="5.31568">
        <ele>225.4</ele>
        <time>2022-04-04T14:00:40Z</time>
      </trkpt>
      <trkpt lat="46.50256" lon="5.31586">
        <ele>224.2</ele>
        <time>2022-04-04T14:00:42Z</time>
      </trkpt>
      <trkpt lat="46.50273" lon="5.31601">
        <ele>223.4</ele>
        <time>2022-04-04T14:00:44Z</time>
      </trkpt>
      <trkpt lat="46.50281" lon="5.31608">
        <ele>223</ele>
        <time>2022-04-04T14:00:45Z</time>
      </trkpt>
      <trkpt lat="46.50314" lon="5.31634">
        <ele>222.2</ele>
        <time>2022-04-04T14:00:49Z</time>
      </trkpt>
      <trkpt lat="46.50322" lon="5.3164">
        <ele>222</ele>
        <time>2022-04-04T14:00:50Z</time>
      </trkpt>
      <trkpt lat="46.50366" lon="5.31678">
        <ele>221.8</ele>
        <time>2022-04-04T14:00:56Z</time>
      </trkpt>
      <trkpt lat="46.50388" lon="5.31712">
        <ele>222</ele>
        <time>2022-04-04T14:01:00Z</time>
      </trkpt>
      <trkpt lat="46.50411" lon="5.31769">
        <ele>222.4</ele>
        <time>2022-04-04T14:01:06Z</time>
      </trkpt>
      <trkpt lat="46.5043" lon="5.31848">
        <ele>222.4</ele>
        <time>2022-04-04T14:01:14Z</time>
      </trkpt>
      <trkpt lat="46.50435" lon="5.31889">
        <ele>222.4</ele>
        <time>2022-04-04T14:01:18Z</time>
      </trkpt>
      <trkpt lat="46.50436" lon="5.31909">
        <ele>222.6</ele>
        <time>2022-04-04T14:01:20Z</time>
      </trkpt>
      <trkpt lat="46.50434" lon="5.31989">
        <ele>222.8</ele>
        <time>2022-04-04T14:01:28Z</time>
      </trkpt>
      <trkpt lat="46.50434" lon="5.31999">
        <ele>222.8</ele>
        <time>2022-04-04T14:01:29Z</time>
      </trkpt>
      <trkpt lat="46.50432" lon="5.32079">
        <ele>222.8</ele>
        <time>2022-04-04T14:01:37Z</time>
      </trkpt>
      <trkpt lat="46.50431" lon="5.32126">
        <ele>223.2</ele>
        <time>2022-04-04T14:01:42Z</time>
      </trkpt>
      <trkpt lat="46.50429" lon="5.32206">
        <ele>224.2</ele>
        <time>2022-04-04T14:01:51Z</time>
      </trkpt>
      <trkpt lat="46.50429" lon="5.32215">
        <ele>224.4</ele>
        <time>2022-04-04T14:01:52Z</time>
      </trkpt>
      <trkpt lat="46.50431" lon="5.32276">
        <ele>225</ele>
        <time>2022-04-04T14:01:59Z</time>
      </trkpt>
      <trkpt lat="46.50434" lon="5.32301">
        <ele>225.4</ele>
        <time>2022-04-04T14:02:02Z</time>
      </trkpt>
      <trkpt lat="46.50443" lon="5.32347">
        <ele>226.2</ele>
        <time>2022-04-04T14:02:07Z</time>
      </trkpt>
      <trkpt lat="46.50458" lon="5.32414">
        <ele>226.2</ele>
        <time>2022-04-04T14:02:14Z</time>
      </trkpt>
      <trkpt lat="46.50467" lon="5.32481">
        <ele>226</ele>
        <time>2022-04-04T14:02:21Z</time>
      </trkpt>
      <trkpt lat="46.50472" lon="5.32563">
        <ele>226.4</ele>
        <time>2022-04-04T14:02:30Z</time>
      </trkpt>
      <trkpt lat="46.50472" lon="5.32572">
        <ele>226.6</ele>
        <time>2022-04-04T14:02:31Z</time>
      </trkpt>
      <trkpt lat="46.50474" lon="5.32644">
        <ele>227.2</ele>
        <time>2022-04-04T14:02:39Z</time>
      </trkpt>
      <trkpt lat="46.50474" lon="5.32681">
        <ele>227.8</ele>
        <time>2022-04-04T14:02:43Z</time>
      </trkpt>
      <trkpt lat="46.50473" lon="5.32736">
        <ele>228.4</ele>
        <time>2022-04-04T14:02:49Z</time>
      </trkpt>
      <trkpt lat="46.50472" lon="5.32782">
        <ele>228.8</ele>
        <time>2022-04-04T14:02:54Z</time>
      </trkpt>
      <trkpt lat="46.50471" lon="5.32848">
        <ele>229.4</ele>
        <time>2022-04-04T14:03:01Z</time>
      </trkpt>
      <trkpt lat="46.5047" lon="5.32899">
        <ele>230</ele>
        <time>2022-04-04T14:03:07Z</time>
      </trkpt>
      <trkpt lat="46.5047" lon="5.32908">
        <ele>230</ele>
        <time>2022-04-04T14:03:08Z</time>
      </trkpt>
      <trkpt lat="46.5047" lon="5.32947">
        <ele>231</ele>
        <time>2022-04-04T14:03:13Z</time>
      </trkpt>
      <trkpt lat="46.5047" lon="5.32976">
        <ele>232.2</ele>
        <time>2022-04-04T14:03:17Z</time>
      </trkpt>
      <trkpt lat="46.5047" lon="5.33004">
        <ele>233.2</ele>
        <time>2022-04-04T14:03:21Z</time>
      </trkpt>
      <trkpt lat="46.5047" lon="5.33011">
        <ele>233.2</ele>
        <time>2022-04-04T14:03:22Z</time>
      </trkpt>
      <trkpt lat="46.5047" lon="5.33025">
        <ele>233.6</ele>
        <time>2022-04-04T14:03:24Z</time>
      </trkpt>
      <trkpt lat="46.5047" lon="5.33046">
        <ele>234.8</ele>
        <time>2022-04-04T14:03:27Z</time>
      </trkpt>
      <trkpt lat="46.5047" lon="5.33053">
        <ele>235</ele>
        <time>2022-04-04T14:03:28Z</time>
      </trkpt>
      <trkpt lat="46.50469" lon="5.33066">
        <ele>235.2</ele>
        <time>2022-04-04T14:03:30Z</time>
      </trkpt>
      <trkpt lat="46.50469" lon="5.33073">
        <ele>235.4</ele>
        <time>2022-04-04T14:03:31Z</time>
      </trkpt>
      <trkpt lat="46.50469" lon="5.3308">
        <ele>235.8</ele>
        <time>2022-04-04T14:03:32Z</time>
      </trkpt>
      <trkpt lat="46.50467" lon="5.33092">
        <ele>236.2</ele>
        <time>2022-04-04T14:03:34Z</time>
      </trkpt>
      <trkpt lat="46.50467" lon="5.33098">
        <ele>236.6</ele>
        <time>2022-04-04T14:03:35Z</time>
      </trkpt>
      <trkpt lat="46.50465" lon="5.33111">
        <ele>237</ele>
        <time>2022-04-04T14:03:37Z</time>
      </trkpt>
      <trkpt lat="46.50464" lon="5.33123">
        <ele>237.8</ele>
        <time>2022-04-04T14:03:39Z</time>
      </trkpt>
      <trkpt lat="46.50464" lon="5.33129">
        <ele>238.2</ele>
        <time>2022-04-04T14:03:40Z</time>
      </trkpt>
      <trkpt lat="46.50464" lon="5.33141">
        <ele>238.8</ele>
        <time>2022-04-04T14:03:42Z</time>
      </trkpt>
      <trkpt lat="46.50463" lon="5.33147">
        <ele>239.2</ele>
        <time>2022-04-04T14:03:43Z</time>
      </trkpt>
      <trkpt lat="46.50462" lon="5.33167">
        <ele>240.2</ele>
        <time>2022-04-04T14:03:46Z</time>
      </trkpt>
      <trkpt lat="46.50463" lon="5.3321">
        <ele>241.4</ele>
        <time>2022-04-04T14:03:51Z</time>
      </trkpt>
      <trkpt lat="46.50465" lon="5.33268">
        <ele>242.4</ele>
        <time>2022-04-04T14:03:57Z</time>
      </trkpt>
      <trkpt lat="46.50465" lon="5.33288">
        <ele>242.6</ele>
        <time>2022-04-04T14:03:59Z</time>
      </trkpt>
      <trkpt lat="46.50465" lon="5.33317">
        <ele>242.6</ele>
        <time>2022-04-04T14:04:02Z</time>
      </trkpt>
      <trkpt lat="46.50464" lon="5.33371">
        <ele>242.6</ele>
        <time>2022-04-04T14:04:07Z</time>
      </trkpt>
      <trkpt lat="46.50462" lon="5.3338">
        <ele>242.6</ele>
        <time>2022-04-04T14:04:08Z</time>
      </trkpt>
      <trkpt lat="46.50454" lon="5.33409">
        <ele>242.4</ele>
        <time>2022-04-04T14:04:11Z</time>
      </trkpt>
      <trkpt lat="46.5045" lon="5.33418">
        <ele>242.4</ele>
        <time>2022-04-04T14:04:12Z</time>
      </trkpt>
      <trkpt lat="46.50447" lon="5.33426">
        <ele>242.2</ele>
        <time>2022-04-04T14:04:13Z</time>
      </trkpt>
      <trkpt lat="46.50432" lon="5.33447">
        <ele>242.2</ele>
        <time>2022-04-04T14:04:16Z</time>
      </trkpt>
      <trkpt lat="46.50414" lon="5.3347">
        <ele>242.4</ele>
        <time>2022-04-04T14:04:20Z</time>
      </trkpt>
      <trkpt lat="46.50385" lon="5.335">
        <ele>243.6</ele>
        <time>2022-04-04T14:04:26Z</time>
      </trkpt>
      <trkpt lat="46.50379" lon="5.33505">
        <ele>243.4</ele>
        <time>2022-04-04T14:04:27Z</time>
      </trkpt>
      <trkpt lat="46.50361" lon="5.33523">
        <ele>243.8</ele>
        <time>2022-04-04T14:04:31Z</time>
      </trkpt>
      <trkpt lat="46.50355" lon="5.33528">
        <ele>244.2</ele>
        <time>2022-04-04T14:04:32Z</time>
      </trkpt>
      <trkpt lat="46.50318" lon="5.33568">
        <ele>244.2</ele>
        <time>2022-04-04T14:04:40Z</time>
      </trkpt>
      <trkpt lat="46.50309" lon="5.33578">
        <ele>244.6</ele>
        <time>2022-04-04T14:04:42Z</time>
      </trkpt>
      <trkpt lat="46.50303" lon="5.33583">
        <ele>244.8</ele>
        <time>2022-04-04T14:04:43Z</time>
      </trkpt>
      <trkpt lat="46.50289" lon="5.33599">
        <ele>245</ele>
        <time>2022-04-04T14:04:46Z</time>
      </trkpt>
      <trkpt lat="46.50254" lon="5.33632">
        <ele>245.2</ele>
        <time>2022-04-04T14:04:53Z</time>
      </trkpt>
      <trkpt lat="46.50227" lon="5.33661">
        <ele>245.6</ele>
        <time>2022-04-04T14:04:59Z</time>
      </trkpt>
      <trkpt lat="46.5022" lon="5.3367">
        <ele>245.6</ele>
        <time>2022-04-04T14:05:01Z</time>
      </trkpt>
      <trkpt lat="46.50186" lon="5.33705">
        <ele>246.4</ele>
        <time>2022-04-04T14:05:08Z</time>
      </trkpt>
      <trkpt lat="46.50176" lon="5.33718">
        <ele>246.4</ele>
        <time>2022-04-04T14:05:10Z</time>
      </trkpt>
      <trkpt lat="46.50138" lon="5.33759">
        <ele>246.2</ele>
        <time>2022-04-04T14:05:17Z</time>
      </trkpt>
      <trkpt lat="46.50092" lon="5.33808">
        <ele>245.8</ele>
        <time>2022-04-04T14:05:25Z</time>
      </trkpt>
      <trkpt lat="46.50061" lon="5.33841">
        <ele>246</ele>
        <time>2022-04-04T14:05:31Z</time>
      </trkpt>
      <trkpt lat="46.50027" lon="5.33878">
        <ele>246.4</ele>
        <time>2022-04-04T14:05:38Z</time>
      </trkpt>
      <trkpt lat="46.50014" lon="5.33891">
        <ele>246.6</ele>
        <time>2022-04-04T14:05:40Z</time>
      </trkpt>
      <trkpt lat="46.49998" lon="5.33908">
        <ele>247.2</ele>
        <time>2022-04-04T14:05:43Z</time>
      </trkpt>
      <trkpt lat="46.49989" lon="5.33918">
        <ele>247.8</ele>
        <time>2022-04-04T14:05:45Z</time>
      </trkpt>
      <trkpt lat="46.49968" lon="5.33942">
        <ele>248.4</ele>
        <time>2022-04-04T14:05:49Z</time>
      </trkpt>
      <trkpt lat="46.49921" lon="5.33991">
        <ele>248.6</ele>
        <time>2022-04-04T14:05:57Z</time>
      </trkpt>
      <trkpt lat="46.49882" lon="5.34034">
        <ele>247.6</ele>
        <time>2022-04-04T14:06:03Z</time>
      </trkpt>
      <trkpt lat="46.49858" lon="5.34064">
        <ele>246.6</ele>
        <time>2022-04-04T14:06:07Z</time>
      </trkpt>
      <trkpt lat="46.49852" lon="5.34071">
        <ele>246.4</ele>
        <time>2022-04-04T14:06:08Z</time>
      </trkpt>
      <trkpt lat="46.49827" lon="5.34109">
        <ele>246</ele>
        <time>2022-04-04T14:06:13Z</time>
      </trkpt>
      <trkpt lat="46.49795" lon="5.34164">
        <ele>246.4</ele>
        <time>2022-04-04T14:06:20Z</time>
      </trkpt>
      <trkpt lat="46.49765" lon="5.34214">
        <ele>246.2</ele>
        <time>2022-04-04T14:06:26Z</time>
      </trkpt>
      <trkpt lat="46.49731" lon="5.34272">
        <ele>246.2</ele>
        <time>2022-04-04T14:06:33Z</time>
      </trkpt>
      <trkpt lat="46.49706" lon="5.34325">
        <ele>246.2</ele>
        <time>2022-04-04T14:06:39Z</time>
      </trkpt>
      <trkpt lat="46.49686" lon="5.344">
        <ele>246</ele>
        <time>2022-04-04T14:06:46Z</time>
      </trkpt>
      <trkpt lat="46.49677" lon="5.34436">
        <ele>245.4</ele>
        <time>2022-04-04T14:06:49Z</time>
      </trkpt>
      <trkpt lat="46.49664" lon="5.34482">
        <ele>244.6</ele>
        <time>2022-04-04T14:06:53Z</time>
      </trkpt>
      <trkpt lat="46.49661" lon="5.34494">
        <ele>244.4</ele>
        <time>2022-04-04T14:06:54Z</time>
      </trkpt>
      <trkpt lat="46.49651" lon="5.34527">
        <ele>243.2</ele>
        <time>2022-04-04T14:06:57Z</time>
      </trkpt>
      <trkpt lat="46.49645" lon="5.34537">
        <ele>243</ele>
        <time>2022-04-04T14:06:58Z</time>
      </trkpt>
      <trkpt lat="46.49639" lon="5.34545">
        <ele>242.8</ele>
        <time>2022-04-04T14:06:59Z</time>
      </trkpt>
      <trkpt lat="46.49625" lon="5.3456">
        <ele>242.4</ele>
        <time>2022-04-04T14:07:01Z</time>
      </trkpt>
      <trkpt lat="46.49618" lon="5.34567">
        <ele>242.2</ele>
        <time>2022-04-04T14:07:02Z</time>
      </trkpt>
      <trkpt lat="46.49603" lon="5.34591">
        <ele>241.2</ele>
        <time>2022-04-04T14:07:05Z</time>
      </trkpt>
      <trkpt lat="46.49593" lon="5.34605">
        <ele>241</ele>
        <time>2022-04-04T14:07:07Z</time>
      </trkpt>
      <trkpt lat="46.49577" lon="5.34628">
        <ele>241</ele>
        <time>2022-04-04T14:07:10Z</time>
      </trkpt>
      <trkpt lat="46.49553" lon="5.34658">
        <ele>241.2</ele>
        <time>2022-04-04T14:07:15Z</time>
      </trkpt>
      <trkpt lat="46.49538" lon="5.34674">
        <ele>241.8</ele>
        <time>2022-04-04T14:07:18Z</time>
      </trkpt>
      <trkpt lat="46.49534" lon="5.34678">
        <ele>242</ele>
        <time>2022-04-04T14:07:19Z</time>
      </trkpt>
      <trkpt lat="46.4953" lon="5.34683">
        <ele>242.4</ele>
        <time>2022-04-04T14:07:20Z</time>
      </trkpt>
      <trkpt lat="46.4952" lon="5.34694">
        <ele>243</ele>
        <time>2022-04-04T14:07:22Z</time>
      </trkpt>
      <trkpt lat="46.49515" lon="5.34698">
        <ele>243.4</ele>
        <time>2022-04-04T14:07:23Z</time>
      </trkpt>
      <trkpt lat="46.49504" lon="5.34709">
        <ele>244</ele>
        <time>2022-04-04T14:07:25Z</time>
      </trkpt>
      <trkpt lat="46.495" lon="5.34713">
        <ele>244.2</ele>
        <time>2022-04-04T14:07:26Z</time>
      </trkpt>
      <trkpt lat="46.49496" lon="5.34718">
        <ele>244.6</ele>
        <time>2022-04-04T14:07:27Z</time>
      </trkpt>
      <trkpt lat="46.49484" lon="5.3473">
        <ele>246</ele>
        <time>2022-04-04T14:07:30Z</time>
      </trkpt>
      <trkpt lat="46.49474" lon="5.34741">
        <ele>247</ele>
        <time>2022-04-04T14:07:33Z</time>
      </trkpt>
      <trkpt lat="46.49467" lon="5.34749">
        <ele>247.6</ele>
        <time>2022-04-04T14:07:35Z</time>
      </trkpt>
      <trkpt lat="46.49459" lon="5.34758">
        <ele>248</ele>
        <time>2022-04-04T14:07:37Z</time>
      </trkpt>
      <trkpt lat="46.49446" lon="5.34778">
        <ele>249.2</ele>
        <time>2022-04-04T14:07:40Z</time>
      </trkpt>
      <trkpt lat="46.49429" lon="5.34794">
        <ele>250.2</ele>
        <time>2022-04-04T14:07:44Z</time>
      </trkpt>
      <trkpt lat="46.49424" lon="5.34798">
        <ele>251</ele>
        <time>2022-04-04T14:07:45Z</time>
      </trkpt>
      <trkpt lat="46.4942" lon="5.34801">
        <ele>251.6</ele>
        <time>2022-04-04T14:07:46Z</time>
      </trkpt>
      <trkpt lat="46.49393" lon="5.34817">
        <ele>252.6</ele>
        <time>2022-04-04T14:07:51Z</time>
      </trkpt>
      <trkpt lat="46.49387" lon="5.34821">
        <ele>252.8</ele>
        <time>2022-04-04T14:07:52Z</time>
      </trkpt>
      <trkpt lat="46.49382" lon="5.34822">
        <ele>252.8</ele>
        <time>2022-04-04T14:07:53Z</time>
      </trkpt>
      <trkpt lat="46.49373" lon="5.34825">
        <ele>253.2</ele>
        <time>2022-04-04T14:07:55Z</time>
      </trkpt>
      <trkpt lat="46.4935" lon="5.34827">
        <ele>253.4</ele>
        <time>2022-04-04T14:07:59Z</time>
      </trkpt>
      <trkpt lat="46.49345" lon="5.34828">
        <ele>253.4</ele>
        <time>2022-04-04T14:08:00Z</time>
      </trkpt>
      <trkpt lat="46.4932" lon="5.34832">
        <ele>253</ele>
        <time>2022-04-04T14:08:04Z</time>
      </trkpt>
      <trkpt lat="46.49304" lon="5.34836">
        <ele>253</ele>
        <time>2022-04-04T14:08:06Z</time>
      </trkpt>
      <trkpt lat="46.49299" lon="5.34838">
        <ele>253</ele>
        <time>2022-04-04T14:08:07Z</time>
      </trkpt>
      <trkpt lat="46.49278" lon="5.34851">
        <ele>253</ele>
        <time>2022-04-04T14:08:11Z</time>
      </trkpt>
      <trkpt lat="46.49272" lon="5.34856">
        <ele>253</ele>
        <time>2022-04-04T14:08:12Z</time>
      </trkpt>
      <trkpt lat="46.4926" lon="5.34868">
        <ele>253</ele>
        <time>2022-04-04T14:08:14Z</time>
      </trkpt>
      <trkpt lat="46.49255" lon="5.34875">
        <ele>253</ele>
        <time>2022-04-04T14:08:15Z</time>
      </trkpt>
      <trkpt lat="46.49232" lon="5.34908">
        <ele>253</ele>
        <time>2022-04-04T14:08:19Z</time>
      </trkpt>
      <trkpt lat="46.49228" lon="5.34914">
        <ele>253</ele>
        <time>2022-04-04T14:08:20Z</time>
      </trkpt>
      <trkpt lat="46.49197" lon="5.34962">
        <ele>253.4</ele>
        <time>2022-04-04T14:08:27Z</time>
      </trkpt>
      <trkpt lat="46.49193" lon="5.34969">
        <ele>253.6</ele>
        <time>2022-04-04T14:08:28Z</time>
      </trkpt>
      <trkpt lat="46.49168" lon="5.35006">
        <ele>253.4</ele>
        <time>2022-04-04T14:08:34Z</time>
      </trkpt>
      <trkpt lat="46.49158" lon="5.35016">
        <ele>253.4</ele>
        <time>2022-04-04T14:08:36Z</time>
      </trkpt>
      <trkpt lat="46.49135" lon="5.35035">
        <ele>253.4</ele>
        <time>2022-04-04T14:08:40Z</time>
      </trkpt>
      <trkpt lat="46.49119" lon="5.35049">
        <ele>253.6</ele>
        <time>2022-04-04T14:08:43Z</time>
      </trkpt>
      <trkpt lat="46.4911" lon="5.35057">
        <ele>253.8</ele>
        <time>2022-04-04T14:08:45Z</time>
      </trkpt>
      <trkpt lat="46.49089" lon="5.35073">
        <ele>254.2</ele>
        <time>2022-04-04T14:08:49Z</time>
      </trkpt>
      <trkpt lat="46.49084" lon="5.35077">
        <ele>254.4</ele>
        <time>2022-04-04T14:08:50Z</time>
      </trkpt>
      <trkpt lat="46.49072" lon="5.35088">
        <ele>254.6</ele>
        <time>2022-04-04T14:08:52Z</time>
      </trkpt>
      <trkpt lat="46.49061" lon="5.35096">
        <ele>255.2</ele>
        <time>2022-04-04T14:08:54Z</time>
      </trkpt>
      <trkpt lat="46.49036" lon="5.35115">
        <ele>255.6</ele>
        <time>2022-04-04T14:08:58Z</time>
      </trkpt>
      <trkpt lat="46.49028" lon="5.35128">
        <ele>255.6</ele>
        <time>2022-04-04T14:09:00Z</time>
      </trkpt>
      <trkpt lat="46.49011" lon="5.35168">
        <ele>256</ele>
        <time>2022-04-04T14:09:05Z</time>
      </trkpt>
      <trkpt lat="46.49004" lon="5.35185">
        <ele>256</ele>
        <time>2022-04-04T14:09:07Z</time>
      </trkpt>
      <trkpt lat="46.48984" lon="5.35232">
        <ele>255.8</ele>
        <time>2022-04-04T14:09:12Z</time>
      </trkpt>
      <trkpt lat="46.4895" lon="5.35308">
        <ele>255</ele>
        <time>2022-04-04T14:09:19Z</time>
      </trkpt>
      <trkpt lat="46.48945" lon="5.35319">
        <ele>255</ele>
        <time>2022-04-04T14:09:20Z</time>
      </trkpt>
      <trkpt lat="46.48916" lon="5.35388">
        <ele>254.4</ele>
        <time>2022-04-04T14:09:27Z</time>
      </trkpt>
      <trkpt lat="46.48912" lon="5.35398">
        <ele>254.4</ele>
        <time>2022-04-04T14:09:28Z</time>
      </trkpt>
      <trkpt lat="46.48888" lon="5.35451">
        <ele>254.4</ele>
        <time>2022-04-04T14:09:34Z</time>
      </trkpt>
      <trkpt lat="46.48861" lon="5.35511">
        <ele>255.2</ele>
        <time>2022-04-04T14:09:41Z</time>
      </trkpt>
      <trkpt lat="46.48842" lon="5.35555">
        <ele>255.6</ele>
        <time>2022-04-04T14:09:46Z</time>
      </trkpt>
      <trkpt lat="46.48815" lon="5.35618">
        <ele>256</ele>
        <time>2022-04-04T14:09:53Z</time>
      </trkpt>
      <trkpt lat="46.48798" lon="5.35655">
        <ele>255.8</ele>
        <time>2022-04-04T14:09:57Z</time>
      </trkpt>
      <trkpt lat="46.4879" lon="5.35673">
        <ele>255.8</ele>
        <time>2022-04-04T14:09:59Z</time>
      </trkpt>
      <trkpt lat="46.48759" lon="5.35748">
        <ele>255.8</ele>
        <time>2022-04-04T14:10:07Z</time>
      </trkpt>
      <trkpt lat="46.48734" lon="5.35806">
        <ele>255.8</ele>
        <time>2022-04-04T14:10:14Z</time>
      </trkpt>
      <trkpt lat="46.48713" lon="5.35854">
        <ele>255.8</ele>
        <time>2022-04-04T14:10:20Z</time>
      </trkpt>
      <trkpt lat="46.48705" lon="5.35876">
        <ele>256</ele>
        <time>2022-04-04T14:10:23Z</time>
      </trkpt>
      <trkpt lat="46.487" lon="5.3589">
        <ele>256</ele>
        <time>2022-04-04T14:10:25Z</time>
      </trkpt>
      <trkpt lat="46.48688" lon="5.3593">
        <ele>256.8</ele>
        <time>2022-04-04T14:10:30Z</time>
      </trkpt>
      <trkpt lat="46.48686" lon="5.35938">
        <ele>257</ele>
        <time>2022-04-04T14:10:31Z</time>
      </trkpt>
      <trkpt lat="46.4868" lon="5.35981">
        <ele>258.2</ele>
        <time>2022-04-04T14:10:36Z</time>
      </trkpt>
      <trkpt lat="46.48678" lon="5.35998">
        <ele>258.4</ele>
        <time>2022-04-04T14:10:38Z</time>
      </trkpt>
      <trkpt lat="46.48662" lon="5.36065">
        <ele>258.8</ele>
        <time>2022-04-04T14:10:45Z</time>
      </trkpt>
      <trkpt lat="46.48646" lon="5.36138">
        <ele>257.2</ele>
        <time>2022-04-04T14:10:52Z</time>
      </trkpt>
      <trkpt lat="46.48641" lon="5.36187">
        <ele>256.8</ele>
        <time>2022-04-04T14:10:57Z</time>
      </trkpt>
      <trkpt lat="46.48633" lon="5.36272">
        <ele>257</ele>
        <time>2022-04-04T14:11:06Z</time>
      </trkpt>
      <trkpt lat="46.48626" lon="5.36303">
        <ele>257.4</ele>
        <time>2022-04-04T14:11:10Z</time>
      </trkpt>
      <trkpt lat="46.48623" lon="5.3631">
        <ele>257.6</ele>
        <time>2022-04-04T14:11:11Z</time>
      </trkpt>
      <trkpt lat="46.48619" lon="5.36315">
        <ele>257.8</ele>
        <time>2022-04-04T14:11:12Z</time>
      </trkpt>
      <trkpt lat="46.4861" lon="5.36322">
        <ele>258</ele>
        <time>2022-04-04T14:11:14Z</time>
      </trkpt>
      <trkpt lat="46.48601" lon="5.36324">
        <ele>258.2</ele>
        <time>2022-04-04T14:11:16Z</time>
      </trkpt>
      <trkpt lat="46.48596" lon="5.36324">
        <ele>258.4</ele>
        <time>2022-04-04T14:11:17Z</time>
      </trkpt>
      <trkpt lat="46.48591" lon="5.36324">
        <ele>258.6</ele>
        <time>2022-04-04T14:11:18Z</time>
      </trkpt>
      <trkpt lat="46.48571" lon="5.36326">
        <ele>260</ele>
        <time>2022-04-04T14:11:22Z</time>
      </trkpt>
      <trkpt lat="46.48551" lon="5.36328">
        <ele>261.4</ele>
        <time>2022-04-04T14:11:26Z</time>
      </trkpt>
      <trkpt lat="46.48539" lon="5.3633">
        <ele>261.6</ele>
        <time>2022-04-04T14:11:28Z</time>
      </trkpt>
      <trkpt lat="46.48511" lon="5.36335">
        <ele>262.6</ele>
        <time>2022-04-04T14:11:33Z</time>
      </trkpt>
      <trkpt lat="46.48488" lon="5.36339">
        <ele>263</ele>
        <time>2022-04-04T14:11:37Z</time>
      </trkpt>
      <trkpt lat="46.48465" lon="5.36343">
        <ele>263.6</ele>
        <time>2022-04-04T14:11:41Z</time>
      </trkpt>
      <trkpt lat="46.48448" lon="5.36346">
        <ele>263.8</ele>
        <time>2022-04-04T14:11:44Z</time>
      </trkpt>
      <trkpt lat="46.48414" lon="5.36358">
        <ele>263.8</ele>
        <time>2022-04-04T14:11:50Z</time>
      </trkpt>
      <trkpt lat="46.48403" lon="5.36365">
        <ele>264</ele>
        <time>2022-04-04T14:11:52Z</time>
      </trkpt>
      <trkpt lat="46.48393" lon="5.36374">
        <ele>264</ele>
        <time>2022-04-04T14:11:54Z</time>
      </trkpt>
      <trkpt lat="46.48368" lon="5.36401">
        <ele>264.2</ele>
        <time>2022-04-04T14:11:59Z</time>
      </trkpt>
      <trkpt lat="46.48344" lon="5.36427">
        <ele>264.4</ele>
        <time>2022-04-04T14:12:04Z</time>
      </trkpt>
      <trkpt lat="46.48331" lon="5.36442">
        <ele>264.6</ele>
        <time>2022-04-04T14:12:07Z</time>
      </trkpt>
      <trkpt lat="46.48296" lon="5.36481">
        <ele>265.6</ele>
        <time>2022-04-04T14:12:15Z</time>
      </trkpt>
      <trkpt lat="46.48287" lon="5.36491">
        <ele>266.2</ele>
        <time>2022-04-04T14:12:17Z</time>
      </trkpt>
      <trkpt lat="46.48266" lon="5.36514">
        <ele>266.8</ele>
        <time>2022-04-04T14:12:22Z</time>
      </trkpt>
      <trkpt lat="46.48249" lon="5.36534">
        <ele>267.8</ele>
        <time>2022-04-04T14:12:26Z</time>
      </trkpt>
      <trkpt lat="46.48244" lon="5.36539">
        <ele>268</ele>
        <time>2022-04-04T14:12:27Z</time>
      </trkpt>
      <trkpt lat="46.48227" lon="5.36556">
        <ele>268.4</ele>
        <time>2022-04-04T14:12:31Z</time>
      </trkpt>
      <trkpt lat="46.48218" lon="5.3656">
        <ele>268.8</ele>
        <time>2022-04-04T14:12:33Z</time>
      </trkpt>
      <trkpt lat="46.48202" lon="5.3656">
        <ele>269</ele>
        <time>2022-04-04T14:12:36Z</time>
      </trkpt>
      <trkpt lat="46.48197" lon="5.36562">
        <ele>269.2</ele>
        <time>2022-04-04T14:12:37Z</time>
      </trkpt>
      <trkpt lat="46.48193" lon="5.36567">
        <ele>269.2</ele>
        <time>2022-04-04T14:12:38Z</time>
      </trkpt>
      <trkpt lat="46.48187" lon="5.3658">
        <ele>269.6</ele>
        <time>2022-04-04T14:12:40Z</time>
      </trkpt>
      <trkpt lat="46.48183" lon="5.36596">
        <ele>270.2</ele>
        <time>2022-04-04T14:12:42Z</time>
      </trkpt>
      <trkpt lat="46.48177" lon="5.36609">
        <ele>270.6</ele>
        <time>2022-04-04T14:12:44Z</time>
      </trkpt>
      <trkpt lat="46.48173" lon="5.36614">
        <ele>270.6</ele>
        <time>2022-04-04T14:12:45Z</time>
      </trkpt>
      <trkpt lat="46.48144" lon="5.36647">
        <ele>271.4</ele>
        <time>2022-04-04T14:12:52Z</time>
      </trkpt>
      <trkpt lat="46.48138" lon="5.36653">
        <ele>271.4</ele>
        <time>2022-04-04T14:12:54Z</time>
      </trkpt>
      <trkpt lat="46.48119" lon="5.36673">
        <ele>271.8</ele>
        <time>2022-04-04T14:12:58Z</time>
      </trkpt>
      <trkpt lat="46.48111" lon="5.36681">
        <ele>271.8</ele>
        <time>2022-04-04T14:13:00Z</time>
      </trkpt>
      <trkpt lat="46.48103" lon="5.36693">
        <ele>272.4</ele>
        <time>2022-04-04T14:13:03Z</time>
      </trkpt>
      <trkpt lat="46.48108" lon="5.36707">
        <ele>272.8</ele>
        <time>2022-04-04T14:13:06Z</time>
      </trkpt>
      <trkpt lat="46.4812" lon="5.36716">
        <ele>273.6</ele>
        <time>2022-04-04T14:13:09Z</time>
      </trkpt>
      <trkpt lat="46.48135" lon="5.36728">
        <ele>274.2</ele>
        <time>2022-04-04T14:13:13Z</time>
      </trkpt>
      <trkpt lat="46.48139" lon="5.36732">
        <ele>274.6</ele>
        <time>2022-04-04T14:13:14Z</time>
      </trkpt>
      <trkpt lat="46.48163" lon="5.36752">
        <ele>275.8</ele>
        <time>2022-04-04T14:13:20Z</time>
      </trkpt>
      <trkpt lat="46.48166" lon="5.36755">
        <ele>276</ele>
        <time>2022-04-04T14:13:21Z</time>
      </trkpt>
      <trkpt lat="46.48184" lon="5.36772">
        <ele>277</ele>
        <time>2022-04-04T14:13:26Z</time>
      </trkpt>
      <trkpt lat="46.48195" lon="5.36781">
        <ele>278.2</ele>
        <time>2022-04-04T14:13:29Z</time>
      </trkpt>
      <trkpt lat="46.48209" lon="5.36791">
        <ele>279</ele>
        <time>2022-04-04T14:13:33Z</time>
      </trkpt>
      <trkpt lat="46.48212" lon="5.36794">
        <ele>279.2</ele>
        <time>2022-04-04T14:13:34Z</time>
      </trkpt>
      <trkpt lat="46.48219" lon="5.36799">
        <ele>279.4</ele>
        <time>2022-04-04T14:13:36Z</time>
      </trkpt>
      <trkpt lat="46.48229" lon="5.36807">
        <ele>280.4</ele>
        <time>2022-04-04T14:13:39Z</time>
      </trkpt>
      <trkpt lat="46.48244" lon="5.3682">
        <ele>281.2</ele>
        <time>2022-04-04T14:13:44Z</time>
      </trkpt>
      <trkpt lat="46.48247" lon="5.36823">
        <ele>281.4</ele>
        <time>2022-04-04T14:13:45Z</time>
      </trkpt>
    </trkseg>
  </trk>
</gpx>